<?xml version="1.0" encoding="UTF-8" standalone="no" ?>
<gpx xmlns="http://www.topografix.com/GPX/1/1" xmlns:xsi="http://www.w3.org/2001/XMLSchema-instance" xsi:schemaLocation="http://www.topografix.com/GPX/1/1 http://www.topografix.com/GPX/1/1/gpx.xsd" version="1.1" creator="VisuGPX - https://www.visugpx.com">
  <metadata>
    <name>PUIGSACALM ROCK</name>
    <desc><![CDATA[PUIGSACALM ROCK------------------------]]></desc>
  </metadata>
  <trk>
    <name><![CDATA[PUIGSACALM ROCK on GPSies.com]]></name>
    <trkseg>
      <trkpt lat="42.1214" lon="2.41915">
        <ele>607</ele>
        <time>2010-01-01T00:00:00Z</time>
      </trkpt>
      <trkpt lat="42.12138" lon="2.41913">
        <ele>607</ele>
        <time>2010-01-01T00:00:00Z</time>
      </trkpt>
      <trkpt lat="42.12138" lon="2.41916">
        <ele>607</ele>
        <time>2010-01-01T00:00:01Z</time>
      </trkpt>
      <trkpt lat="42.12137" lon="2.41908">
        <ele>607</ele>
        <time>2010-01-01T00:00:04Z</time>
      </trkpt>
      <trkpt lat="42.12138" lon="2.41916">
        <ele>607</ele>
        <time>2010-01-01T00:00:06Z</time>
      </trkpt>
      <trkpt lat="42.12138" lon="2.4191">
        <ele>607</ele>
        <time>2010-01-01T00:00:08Z</time>
      </trkpt>
      <trkpt lat="42.12124" lon="2.41868">
        <ele>607</ele>
        <time>2010-01-01T00:00:21Z</time>
      </trkpt>
      <trkpt lat="42.12122" lon="2.41841">
        <ele>608</ele>
        <time>2010-01-01T00:00:30Z</time>
      </trkpt>
      <trkpt lat="42.12143" lon="2.41783">
        <ele>612</ele>
        <time>2010-01-01T00:00:49Z</time>
      </trkpt>
      <trkpt lat="42.12148" lon="2.41779">
        <ele>612</ele>
        <time>2010-01-01T00:00:51Z</time>
      </trkpt>
      <trkpt lat="42.12146" lon="2.41775">
        <ele>613</ele>
        <time>2010-01-01T00:00:53Z</time>
      </trkpt>
      <trkpt lat="42.12151" lon="2.41775">
        <ele>612</ele>
        <time>2010-01-01T00:00:55Z</time>
      </trkpt>
      <trkpt lat="42.12154" lon="2.41773">
        <ele>613</ele>
        <time>2010-01-01T00:00:56Z</time>
      </trkpt>
      <trkpt lat="42.12147" lon="2.41776">
        <ele>612</ele>
        <time>2010-01-01T00:00:59Z</time>
      </trkpt>
      <trkpt lat="42.12138" lon="2.41762">
        <ele>614</ele>
        <time>2010-01-01T00:01:05Z</time>
      </trkpt>
      <trkpt lat="42.12126" lon="2.41725">
        <ele>616</ele>
        <time>2010-01-01T00:01:17Z</time>
      </trkpt>
      <trkpt lat="42.12127" lon="2.41723">
        <ele>616</ele>
        <time>2010-01-01T00:01:18Z</time>
      </trkpt>
      <trkpt lat="42.12128" lon="2.41726">
        <ele>616</ele>
        <time>2010-01-01T00:01:18Z</time>
      </trkpt>
      <trkpt lat="42.12131" lon="2.41715">
        <ele>617</ele>
        <time>2010-01-01T00:01:22Z</time>
      </trkpt>
      <trkpt lat="42.12139" lon="2.41706">
        <ele>619</ele>
        <time>2010-01-01T00:01:26Z</time>
      </trkpt>
      <trkpt lat="42.12143" lon="2.41683">
        <ele>622</ele>
        <time>2010-01-01T00:01:33Z</time>
      </trkpt>
      <trkpt lat="42.12148" lon="2.41674">
        <ele>623</ele>
        <time>2010-01-01T00:01:36Z</time>
      </trkpt>
      <trkpt lat="42.12147" lon="2.41667">
        <ele>623</ele>
        <time>2010-01-01T00:01:38Z</time>
      </trkpt>
      <trkpt lat="42.12142" lon="2.41645">
        <ele>624</ele>
        <time>2010-01-01T00:01:45Z</time>
      </trkpt>
      <trkpt lat="42.12141" lon="2.41625">
        <ele>625</ele>
        <time>2010-01-01T00:01:51Z</time>
      </trkpt>
      <trkpt lat="42.12144" lon="2.41611">
        <ele>626</ele>
        <time>2010-01-01T00:01:56Z</time>
      </trkpt>
      <trkpt lat="42.12157" lon="2.41601">
        <ele>629</ele>
        <time>2010-01-01T00:02:01Z</time>
      </trkpt>
      <trkpt lat="42.12171" lon="2.41593">
        <ele>633</ele>
        <time>2010-01-01T00:02:08Z</time>
      </trkpt>
      <trkpt lat="42.12187" lon="2.41578">
        <ele>640</ele>
        <time>2010-01-01T00:02:15Z</time>
      </trkpt>
      <trkpt lat="42.12201" lon="2.41574">
        <ele>644</ele>
        <time>2010-01-01T00:02:21Z</time>
      </trkpt>
      <trkpt lat="42.12215" lon="2.41566">
        <ele>650</ele>
        <time>2010-01-01T00:02:27Z</time>
      </trkpt>
      <trkpt lat="42.12239" lon="2.4155">
        <ele>659</ele>
        <time>2010-01-01T00:02:38Z</time>
      </trkpt>
      <trkpt lat="42.12245" lon="2.41548">
        <ele>661</ele>
        <time>2010-01-01T00:02:40Z</time>
      </trkpt>
      <trkpt lat="42.12267" lon="2.41551">
        <ele>662</ele>
        <time>2010-01-01T00:02:49Z</time>
      </trkpt>
      <trkpt lat="42.12274" lon="2.41548">
        <ele>663</ele>
        <time>2010-01-01T00:02:52Z</time>
      </trkpt>
      <trkpt lat="42.12283" lon="2.41538">
        <ele>665</ele>
        <time>2010-01-01T00:02:57Z</time>
      </trkpt>
      <trkpt lat="42.12296" lon="2.41519">
        <ele>669</ele>
        <time>2010-01-01T00:03:04Z</time>
      </trkpt>
      <trkpt lat="42.12297" lon="2.41514">
        <ele>670</ele>
        <time>2010-01-01T00:03:06Z</time>
      </trkpt>
      <trkpt lat="42.1229" lon="2.41509">
        <ele>672</ele>
        <time>2010-01-01T00:03:09Z</time>
      </trkpt>
      <trkpt lat="42.12284" lon="2.41509">
        <ele>672</ele>
        <time>2010-01-01T00:03:11Z</time>
      </trkpt>
      <trkpt lat="42.12284" lon="2.41511">
        <ele>672</ele>
        <time>2010-01-01T00:03:12Z</time>
      </trkpt>
      <trkpt lat="42.12286" lon="2.4151">
        <ele>672</ele>
        <time>2010-01-01T00:03:13Z</time>
      </trkpt>
      <trkpt lat="42.12285" lon="2.41509">
        <ele>672</ele>
        <time>2010-01-01T00:03:13Z</time>
      </trkpt>
      <trkpt lat="42.12285" lon="2.41506">
        <ele>673</ele>
        <time>2010-01-01T00:03:14Z</time>
      </trkpt>
      <trkpt lat="42.12291" lon="2.41484">
        <ele>677</ele>
        <time>2010-01-01T00:03:21Z</time>
      </trkpt>
      <trkpt lat="42.12292" lon="2.41474">
        <ele>678</ele>
        <time>2010-01-01T00:03:24Z</time>
      </trkpt>
      <trkpt lat="42.12289" lon="2.41464">
        <ele>679</ele>
        <time>2010-01-01T00:03:27Z</time>
      </trkpt>
      <trkpt lat="42.12272" lon="2.41465">
        <ele>677</ele>
        <time>2010-01-01T00:03:34Z</time>
      </trkpt>
      <trkpt lat="42.12268" lon="2.41456">
        <ele>677</ele>
        <time>2010-01-01T00:03:37Z</time>
      </trkpt>
      <trkpt lat="42.12269" lon="2.41453">
        <ele>678</ele>
        <time>2010-01-01T00:03:38Z</time>
      </trkpt>
      <trkpt lat="42.12286" lon="2.4145">
        <ele>680</ele>
        <time>2010-01-01T00:03:45Z</time>
      </trkpt>
      <trkpt lat="42.1229" lon="2.41452">
        <ele>680</ele>
        <time>2010-01-01T00:03:47Z</time>
      </trkpt>
      <trkpt lat="42.123" lon="2.41445">
        <ele>681</ele>
        <time>2010-01-01T00:03:51Z</time>
      </trkpt>
      <trkpt lat="42.12319" lon="2.4141">
        <ele>686</ele>
        <time>2010-01-01T00:04:04Z</time>
      </trkpt>
      <trkpt lat="42.12324" lon="2.41403">
        <ele>688</ele>
        <time>2010-01-01T00:04:07Z</time>
      </trkpt>
      <trkpt lat="42.1234" lon="2.41387">
        <ele>693</ele>
        <time>2010-01-01T00:04:15Z</time>
      </trkpt>
      <trkpt lat="42.12352" lon="2.41383">
        <ele>697</ele>
        <time>2010-01-01T00:04:20Z</time>
      </trkpt>
      <trkpt lat="42.12366" lon="2.41383">
        <ele>701</ele>
        <time>2010-01-01T00:04:25Z</time>
      </trkpt>
      <trkpt lat="42.12373" lon="2.41387">
        <ele>702</ele>
        <time>2010-01-01T00:04:28Z</time>
      </trkpt>
      <trkpt lat="42.12364" lon="2.41371">
        <ele>703</ele>
        <time>2010-01-01T00:04:34Z</time>
      </trkpt>
      <trkpt lat="42.12367" lon="2.41356">
        <ele>707</ele>
        <time>2010-01-01T00:04:39Z</time>
      </trkpt>
      <trkpt lat="42.12369" lon="2.41353">
        <ele>709</ele>
        <time>2010-01-01T00:04:40Z</time>
      </trkpt>
      <trkpt lat="42.12373" lon="2.41351">
        <ele>710</ele>
        <time>2010-01-01T00:04:41Z</time>
      </trkpt>
      <trkpt lat="42.12377" lon="2.41352">
        <ele>711</ele>
        <time>2010-01-01T00:04:43Z</time>
      </trkpt>
      <trkpt lat="42.12384" lon="2.4135">
        <ele>713</ele>
        <time>2010-01-01T00:04:46Z</time>
      </trkpt>
      <trkpt lat="42.12386" lon="2.41346">
        <ele>715</ele>
        <time>2010-01-01T00:04:47Z</time>
      </trkpt>
      <trkpt lat="42.12395" lon="2.41341">
        <ele>718</ele>
        <time>2010-01-01T00:04:51Z</time>
      </trkpt>
      <trkpt lat="42.12398" lon="2.41342">
        <ele>718</ele>
        <time>2010-01-01T00:04:53Z</time>
      </trkpt>
      <trkpt lat="42.1241" lon="2.41342">
        <ele>721</ele>
        <time>2010-01-01T00:04:57Z</time>
      </trkpt>
      <trkpt lat="42.12416" lon="2.41339">
        <ele>723</ele>
        <time>2010-01-01T00:05:00Z</time>
      </trkpt>
      <trkpt lat="42.12415" lon="2.41335">
        <ele>724</ele>
        <time>2010-01-01T00:05:01Z</time>
      </trkpt>
      <trkpt lat="42.12422" lon="2.41322">
        <ele>728</ele>
        <time>2010-01-01T00:05:05Z</time>
      </trkpt>
      <trkpt lat="42.12428" lon="2.41318">
        <ele>730</ele>
        <time>2010-01-01T00:05:08Z</time>
      </trkpt>
      <trkpt lat="42.12429" lon="2.41311">
        <ele>732</ele>
        <time>2010-01-01T00:05:10Z</time>
      </trkpt>
      <trkpt lat="42.12433" lon="2.41307">
        <ele>734</ele>
        <time>2010-01-01T00:05:12Z</time>
      </trkpt>
      <trkpt lat="42.12467" lon="2.41293">
        <ele>743</ele>
        <time>2010-01-01T00:05:26Z</time>
      </trkpt>
      <trkpt lat="42.12489" lon="2.41293">
        <ele>745</ele>
        <time>2010-01-01T00:05:35Z</time>
      </trkpt>
      <trkpt lat="42.125" lon="2.41281">
        <ele>751</ele>
        <time>2010-01-01T00:05:41Z</time>
      </trkpt>
      <trkpt lat="42.125" lon="2.41278">
        <ele>752</ele>
        <time>2010-01-01T00:05:41Z</time>
      </trkpt>
      <trkpt lat="42.12511" lon="2.41264">
        <ele>758</ele>
        <time>2010-01-01T00:05:48Z</time>
      </trkpt>
      <trkpt lat="42.12508" lon="2.41258">
        <ele>760</ele>
        <time>2010-01-01T00:05:50Z</time>
      </trkpt>
      <trkpt lat="42.12489" lon="2.41244">
        <ele>764</ele>
        <time>2010-01-01T00:05:59Z</time>
      </trkpt>
      <trkpt lat="42.12492" lon="2.41239">
        <ele>766</ele>
        <time>2010-01-01T00:06:00Z</time>
      </trkpt>
      <trkpt lat="42.12498" lon="2.41232">
        <ele>769</ele>
        <time>2010-01-01T00:06:04Z</time>
      </trkpt>
      <trkpt lat="42.12503" lon="2.41231">
        <ele>770</ele>
        <time>2010-01-01T00:06:05Z</time>
      </trkpt>
      <trkpt lat="42.12506" lon="2.41227">
        <ele>771</ele>
        <time>2010-01-01T00:06:07Z</time>
      </trkpt>
      <trkpt lat="42.12503" lon="2.41223">
        <ele>772</ele>
        <time>2010-01-01T00:06:09Z</time>
      </trkpt>
      <trkpt lat="42.12494" lon="2.41217">
        <ele>773</ele>
        <time>2010-01-01T00:06:13Z</time>
      </trkpt>
      <trkpt lat="42.1249" lon="2.41216">
        <ele>773</ele>
        <time>2010-01-01T00:06:14Z</time>
      </trkpt>
      <trkpt lat="42.12491" lon="2.41221">
        <ele>771</ele>
        <time>2010-01-01T00:06:16Z</time>
      </trkpt>
      <trkpt lat="42.12493" lon="2.41216">
        <ele>773</ele>
        <time>2010-01-01T00:06:17Z</time>
      </trkpt>
      <trkpt lat="42.12482" lon="2.41204">
        <ele>774</ele>
        <time>2010-01-01T00:06:23Z</time>
      </trkpt>
      <trkpt lat="42.12481" lon="2.41199">
        <ele>775</ele>
        <time>2010-01-01T00:06:24Z</time>
      </trkpt>
      <trkpt lat="42.12483" lon="2.41197">
        <ele>776</ele>
        <time>2010-01-01T00:06:25Z</time>
      </trkpt>
      <trkpt lat="42.12487" lon="2.41183">
        <ele>783</ele>
        <time>2010-01-01T00:06:30Z</time>
      </trkpt>
      <trkpt lat="42.12485" lon="2.41178">
        <ele>784</ele>
        <time>2010-01-01T00:06:31Z</time>
      </trkpt>
      <trkpt lat="42.12484" lon="2.41165">
        <ele>788</ele>
        <time>2010-01-01T00:06:35Z</time>
      </trkpt>
      <trkpt lat="42.12488" lon="2.41161">
        <ele>791</ele>
        <time>2010-01-01T00:06:37Z</time>
      </trkpt>
      <trkpt lat="42.12509" lon="2.41129">
        <ele>805</ele>
        <time>2010-01-01T00:06:50Z</time>
      </trkpt>
      <trkpt lat="42.12518" lon="2.41124">
        <ele>808</ele>
        <time>2010-01-01T00:06:54Z</time>
      </trkpt>
      <trkpt lat="42.12532" lon="2.41118">
        <ele>813</ele>
        <time>2010-01-01T00:07:00Z</time>
      </trkpt>
      <trkpt lat="42.12549" lon="2.41097">
        <ele>819</ele>
        <time>2010-01-01T00:07:09Z</time>
      </trkpt>
      <trkpt lat="42.12556" lon="2.41093">
        <ele>820</ele>
        <time>2010-01-01T00:07:12Z</time>
      </trkpt>
      <trkpt lat="42.12559" lon="2.41089">
        <ele>821</ele>
        <time>2010-01-01T00:07:14Z</time>
      </trkpt>
      <trkpt lat="42.12561" lon="2.41084">
        <ele>823</ele>
        <time>2010-01-01T00:07:16Z</time>
      </trkpt>
      <trkpt lat="42.12566" lon="2.41079">
        <ele>824</ele>
        <time>2010-01-01T00:07:18Z</time>
      </trkpt>
      <trkpt lat="42.1257" lon="2.41067">
        <ele>826</ele>
        <time>2010-01-01T00:07:22Z</time>
      </trkpt>
      <trkpt lat="42.12574" lon="2.4105">
        <ele>830</ele>
        <time>2010-01-01T00:07:27Z</time>
      </trkpt>
      <trkpt lat="42.12571" lon="2.41035">
        <ele>833</ele>
        <time>2010-01-01T00:07:32Z</time>
      </trkpt>
      <trkpt lat="42.12574" lon="2.41025">
        <ele>836</ele>
        <time>2010-01-01T00:07:35Z</time>
      </trkpt>
      <trkpt lat="42.12571" lon="2.41009">
        <ele>838</ele>
        <time>2010-01-01T00:07:40Z</time>
      </trkpt>
      <trkpt lat="42.12577" lon="2.40998">
        <ele>842</ele>
        <time>2010-01-01T00:07:44Z</time>
      </trkpt>
      <trkpt lat="42.12577" lon="2.4099">
        <ele>843</ele>
        <time>2010-01-01T00:07:46Z</time>
      </trkpt>
      <trkpt lat="42.12578" lon="2.40981">
        <ele>846</ele>
        <time>2010-01-01T00:07:49Z</time>
      </trkpt>
      <trkpt lat="42.12583" lon="2.40968">
        <ele>851</ele>
        <time>2010-01-01T00:07:53Z</time>
      </trkpt>
      <trkpt lat="42.12585" lon="2.40948">
        <ele>857</ele>
        <time>2010-01-01T00:07:59Z</time>
      </trkpt>
      <trkpt lat="42.12586" lon="2.40943">
        <ele>859</ele>
        <time>2010-01-01T00:08:01Z</time>
      </trkpt>
      <trkpt lat="42.12591" lon="2.40941">
        <ele>859</ele>
        <time>2010-01-01T00:08:03Z</time>
      </trkpt>
      <trkpt lat="42.12605" lon="2.40913">
        <ele>869</ele>
        <time>2010-01-01T00:08:13Z</time>
      </trkpt>
      <trkpt lat="42.12611" lon="2.40892">
        <ele>877</ele>
        <time>2010-01-01T00:08:20Z</time>
      </trkpt>
      <trkpt lat="42.12612" lon="2.40882">
        <ele>880</ele>
        <time>2010-01-01T00:08:23Z</time>
      </trkpt>
      <trkpt lat="42.1261" lon="2.40875">
        <ele>880</ele>
        <time>2010-01-01T00:08:25Z</time>
      </trkpt>
      <trkpt lat="42.1262" lon="2.40845">
        <ele>888</ele>
        <time>2010-01-01T00:08:35Z</time>
      </trkpt>
      <trkpt lat="42.12625" lon="2.40839">
        <ele>890</ele>
        <time>2010-01-01T00:08:37Z</time>
      </trkpt>
      <trkpt lat="42.12626" lon="2.40839">
        <ele>891</ele>
        <time>2010-01-01T00:08:38Z</time>
      </trkpt>
      <trkpt lat="42.12631" lon="2.40847">
        <ele>892</ele>
        <time>2010-01-01T00:08:41Z</time>
      </trkpt>
      <trkpt lat="42.12638" lon="2.40839">
        <ele>896</ele>
        <time>2010-01-01T00:08:44Z</time>
      </trkpt>
      <trkpt lat="42.12641" lon="2.40828">
        <ele>898</ele>
        <time>2010-01-01T00:08:48Z</time>
      </trkpt>
      <trkpt lat="42.12646" lon="2.40819">
        <ele>899</ele>
        <time>2010-01-01T00:08:51Z</time>
      </trkpt>
      <trkpt lat="42.12651" lon="2.40805">
        <ele>901</ele>
        <time>2010-01-01T00:08:56Z</time>
      </trkpt>
      <trkpt lat="42.12653" lon="2.40788">
        <ele>901</ele>
        <time>2010-01-01T00:09:01Z</time>
      </trkpt>
      <trkpt lat="42.12652" lon="2.40783">
        <ele>901</ele>
        <time>2010-01-01T00:09:03Z</time>
      </trkpt>
      <trkpt lat="42.12655" lon="2.40757">
        <ele>904</ele>
        <time>2010-01-01T00:09:10Z</time>
      </trkpt>
      <trkpt lat="42.12658" lon="2.40745">
        <ele>907</ele>
        <time>2010-01-01T00:09:14Z</time>
      </trkpt>
      <trkpt lat="42.12661" lon="2.40744">
        <ele>908</ele>
        <time>2010-01-01T00:09:15Z</time>
      </trkpt>
      <trkpt lat="42.12663" lon="2.40736">
        <ele>910</ele>
        <time>2010-01-01T00:09:18Z</time>
      </trkpt>
      <trkpt lat="42.12668" lon="2.40733">
        <ele>912</ele>
        <time>2010-01-01T00:09:20Z</time>
      </trkpt>
      <trkpt lat="42.12675" lon="2.40725">
        <ele>916</ele>
        <time>2010-01-01T00:09:24Z</time>
      </trkpt>
      <trkpt lat="42.12672" lon="2.40718">
        <ele>917</ele>
        <time>2010-01-01T00:09:26Z</time>
      </trkpt>
      <trkpt lat="42.12678" lon="2.40708">
        <ele>921</ele>
        <time>2010-01-01T00:09:30Z</time>
      </trkpt>
      <trkpt lat="42.12677" lon="2.40704">
        <ele>922</ele>
        <time>2010-01-01T00:09:31Z</time>
      </trkpt>
      <trkpt lat="42.1268" lon="2.40689">
        <ele>928</ele>
        <time>2010-01-01T00:09:36Z</time>
      </trkpt>
      <trkpt lat="42.12689" lon="2.40672">
        <ele>937</ele>
        <time>2010-01-01T00:09:42Z</time>
      </trkpt>
      <trkpt lat="42.1269" lon="2.40664">
        <ele>941</ele>
        <time>2010-01-01T00:09:45Z</time>
      </trkpt>
      <trkpt lat="42.12688" lon="2.40661">
        <ele>942</ele>
        <time>2010-01-01T00:09:46Z</time>
      </trkpt>
      <trkpt lat="42.12691" lon="2.40657">
        <ele>945</ele>
        <time>2010-01-01T00:09:48Z</time>
      </trkpt>
      <trkpt lat="42.12689" lon="2.40648">
        <ele>948</ele>
        <time>2010-01-01T00:09:50Z</time>
      </trkpt>
      <trkpt lat="42.12699" lon="2.40648">
        <ele>952</ele>
        <time>2010-01-01T00:09:54Z</time>
      </trkpt>
      <trkpt lat="42.12697" lon="2.40637">
        <ele>956</ele>
        <time>2010-01-01T00:09:57Z</time>
      </trkpt>
      <trkpt lat="42.12699" lon="2.40631">
        <ele>960</ele>
        <time>2010-01-01T00:09:59Z</time>
      </trkpt>
      <trkpt lat="42.12699" lon="2.40624">
        <ele>964</ele>
        <time>2010-01-01T00:10:01Z</time>
      </trkpt>
      <trkpt lat="42.12701" lon="2.40624">
        <ele>965</ele>
        <time>2010-01-01T00:10:02Z</time>
      </trkpt>
      <trkpt lat="42.12705" lon="2.40617">
        <ele>969</ele>
        <time>2010-01-01T00:10:05Z</time>
      </trkpt>
      <trkpt lat="42.12705" lon="2.40608">
        <ele>974</ele>
        <time>2010-01-01T00:10:07Z</time>
      </trkpt>
      <trkpt lat="42.12709" lon="2.40602">
        <ele>977</ele>
        <time>2010-01-01T00:10:10Z</time>
      </trkpt>
      <trkpt lat="42.12711" lon="2.40585">
        <ele>986</ele>
        <time>2010-01-01T00:10:15Z</time>
      </trkpt>
      <trkpt lat="42.12719" lon="2.40577">
        <ele>991</ele>
        <time>2010-01-01T00:10:19Z</time>
      </trkpt>
      <trkpt lat="42.12719" lon="2.40571">
        <ele>993</ele>
        <time>2010-01-01T00:10:21Z</time>
      </trkpt>
      <trkpt lat="42.12723" lon="2.40564">
        <ele>996</ele>
        <time>2010-01-01T00:10:23Z</time>
      </trkpt>
      <trkpt lat="42.12731" lon="2.40556">
        <ele>998</ele>
        <time>2010-01-01T00:10:27Z</time>
      </trkpt>
      <trkpt lat="42.12731" lon="2.40554">
        <ele>999</ele>
        <time>2010-01-01T00:10:28Z</time>
      </trkpt>
      <trkpt lat="42.12726" lon="2.40549">
        <ele>1001</ele>
        <time>2010-01-01T00:10:30Z</time>
      </trkpt>
      <trkpt lat="42.12728" lon="2.40543">
        <ele>1003</ele>
        <time>2010-01-01T00:10:32Z</time>
      </trkpt>
      <trkpt lat="42.12725" lon="2.4054">
        <ele>1004</ele>
        <time>2010-01-01T00:10:33Z</time>
      </trkpt>
      <trkpt lat="42.12721" lon="2.40532">
        <ele>1006</ele>
        <time>2010-01-01T00:10:36Z</time>
      </trkpt>
      <trkpt lat="42.12725" lon="2.40522">
        <ele>1008</ele>
        <time>2010-01-01T00:10:39Z</time>
      </trkpt>
      <trkpt lat="42.12723" lon="2.40503">
        <ele>1010</ele>
        <time>2010-01-01T00:10:45Z</time>
      </trkpt>
      <trkpt lat="42.12729" lon="2.40493">
        <ele>1010</ele>
        <time>2010-01-01T00:10:49Z</time>
      </trkpt>
      <trkpt lat="42.12729" lon="2.40496">
        <ele>1011</ele>
        <time>2010-01-01T00:10:50Z</time>
      </trkpt>
      <trkpt lat="42.12728" lon="2.40493">
        <ele>1010</ele>
        <time>2010-01-01T00:10:51Z</time>
      </trkpt>
      <trkpt lat="42.12728" lon="2.40497">
        <ele>1011</ele>
        <time>2010-01-01T00:10:52Z</time>
      </trkpt>
      <trkpt lat="42.12726" lon="2.40492">
        <ele>1010</ele>
        <time>2010-01-01T00:10:54Z</time>
      </trkpt>
      <trkpt lat="42.12734" lon="2.40487">
        <ele>1011</ele>
        <time>2010-01-01T00:10:58Z</time>
      </trkpt>
      <trkpt lat="42.12739" lon="2.40477">
        <ele>1012</ele>
        <time>2010-01-01T00:11:01Z</time>
      </trkpt>
      <trkpt lat="42.12744" lon="2.40474">
        <ele>1014</ele>
        <time>2010-01-01T00:11:03Z</time>
      </trkpt>
      <trkpt lat="42.12749" lon="2.40477">
        <ele>1015</ele>
        <time>2010-01-01T00:11:06Z</time>
      </trkpt>
      <trkpt lat="42.12754" lon="2.40475">
        <ele>1015</ele>
        <time>2010-01-01T00:11:08Z</time>
      </trkpt>
      <trkpt lat="42.12767" lon="2.40445">
        <ele>1016</ele>
        <time>2010-01-01T00:11:18Z</time>
      </trkpt>
      <trkpt lat="42.12772" lon="2.4043">
        <ele>1018</ele>
        <time>2010-01-01T00:11:23Z</time>
      </trkpt>
      <trkpt lat="42.1278" lon="2.40421">
        <ele>1021</ele>
        <time>2010-01-01T00:11:27Z</time>
      </trkpt>
      <trkpt lat="42.12789" lon="2.40405">
        <ele>1024</ele>
        <time>2010-01-01T00:11:33Z</time>
      </trkpt>
      <trkpt lat="42.12796" lon="2.40399">
        <ele>1026</ele>
        <time>2010-01-01T00:11:36Z</time>
      </trkpt>
      <trkpt lat="42.12797" lon="2.40399">
        <ele>1027</ele>
        <time>2010-01-01T00:11:37Z</time>
      </trkpt>
      <trkpt lat="42.12812" lon="2.40391">
        <ele>1032</ele>
        <time>2010-01-01T00:11:43Z</time>
      </trkpt>
      <trkpt lat="42.12816" lon="2.40382">
        <ele>1033</ele>
        <time>2010-01-01T00:11:46Z</time>
      </trkpt>
      <trkpt lat="42.12826" lon="2.40373">
        <ele>1036</ele>
        <time>2010-01-01T00:11:51Z</time>
      </trkpt>
      <trkpt lat="42.12835" lon="2.40356">
        <ele>1039</ele>
        <time>2010-01-01T00:11:57Z</time>
      </trkpt>
      <trkpt lat="42.12834" lon="2.40347">
        <ele>1038</ele>
        <time>2010-01-01T00:12:00Z</time>
      </trkpt>
      <trkpt lat="42.12842" lon="2.4034">
        <ele>1039</ele>
        <time>2010-01-01T00:12:04Z</time>
      </trkpt>
      <trkpt lat="42.12846" lon="2.40334">
        <ele>1041</ele>
        <time>2010-01-01T00:12:06Z</time>
      </trkpt>
      <trkpt lat="42.12847" lon="2.40334">
        <ele>1041</ele>
        <time>2010-01-01T00:12:07Z</time>
      </trkpt>
      <trkpt lat="42.1287" lon="2.40295">
        <ele>1047</ele>
        <time>2010-01-01T00:12:21Z</time>
      </trkpt>
      <trkpt lat="42.12885" lon="2.40282">
        <ele>1052</ele>
        <time>2010-01-01T00:12:28Z</time>
      </trkpt>
      <trkpt lat="42.12898" lon="2.40268">
        <ele>1056</ele>
        <time>2010-01-01T00:12:35Z</time>
      </trkpt>
      <trkpt lat="42.12906" lon="2.40263">
        <ele>1058</ele>
        <time>2010-01-01T00:12:39Z</time>
      </trkpt>
      <trkpt lat="42.12909" lon="2.40257">
        <ele>1060</ele>
        <time>2010-01-01T00:12:41Z</time>
      </trkpt>
      <trkpt lat="42.12909" lon="2.40261">
        <ele>1059</ele>
        <time>2010-01-01T00:12:42Z</time>
      </trkpt>
      <trkpt lat="42.12915" lon="2.40256">
        <ele>1062</ele>
        <time>2010-01-01T00:12:45Z</time>
      </trkpt>
      <trkpt lat="42.12932" lon="2.40235">
        <ele>1067</ele>
        <time>2010-01-01T00:12:54Z</time>
      </trkpt>
      <trkpt lat="42.12941" lon="2.40235">
        <ele>1071</ele>
        <time>2010-01-01T00:12:58Z</time>
      </trkpt>
      <trkpt lat="42.12946" lon="2.40229">
        <ele>1075</ele>
        <time>2010-01-01T00:13:00Z</time>
      </trkpt>
      <trkpt lat="42.12951" lon="2.40217">
        <ele>1079</ele>
        <time>2010-01-01T00:13:05Z</time>
      </trkpt>
      <trkpt lat="42.12954" lon="2.40219">
        <ele>1080</ele>
        <time>2010-01-01T00:13:06Z</time>
      </trkpt>
      <trkpt lat="42.12956" lon="2.40214">
        <ele>1081</ele>
        <time>2010-01-01T00:13:08Z</time>
      </trkpt>
      <trkpt lat="42.12964" lon="2.40215">
        <ele>1084</ele>
        <time>2010-01-01T00:13:11Z</time>
      </trkpt>
      <trkpt lat="42.12969" lon="2.40206">
        <ele>1090</ele>
        <time>2010-01-01T00:13:14Z</time>
      </trkpt>
      <trkpt lat="42.12975" lon="2.40203">
        <ele>1094</ele>
        <time>2010-01-01T00:13:17Z</time>
      </trkpt>
      <trkpt lat="42.12978" lon="2.40202">
        <ele>1095</ele>
        <time>2010-01-01T00:13:18Z</time>
      </trkpt>
      <trkpt lat="42.12986" lon="2.40197">
        <ele>1100</ele>
        <time>2010-01-01T00:13:22Z</time>
      </trkpt>
      <trkpt lat="42.12985" lon="2.40192">
        <ele>1101</ele>
        <time>2010-01-01T00:13:23Z</time>
      </trkpt>
      <trkpt lat="42.12988" lon="2.40186">
        <ele>1103</ele>
        <time>2010-01-01T00:13:25Z</time>
      </trkpt>
      <trkpt lat="42.12998" lon="2.40167">
        <ele>1112</ele>
        <time>2010-01-01T00:13:32Z</time>
      </trkpt>
      <trkpt lat="42.13003" lon="2.40162">
        <ele>1115</ele>
        <time>2010-01-01T00:13:34Z</time>
      </trkpt>
      <trkpt lat="42.13019" lon="2.40163">
        <ele>1124</ele>
        <time>2010-01-01T00:13:41Z</time>
      </trkpt>
      <trkpt lat="42.1302" lon="2.40168">
        <ele>1123</ele>
        <time>2010-01-01T00:13:42Z</time>
      </trkpt>
      <trkpt lat="42.13025" lon="2.40165">
        <ele>1127</ele>
        <time>2010-01-01T00:13:45Z</time>
      </trkpt>
      <trkpt lat="42.13025" lon="2.40161">
        <ele>1128</ele>
        <time>2010-01-01T00:13:46Z</time>
      </trkpt>
      <trkpt lat="42.13022" lon="2.40157">
        <ele>1127</ele>
        <time>2010-01-01T00:13:48Z</time>
      </trkpt>
      <trkpt lat="42.13019" lon="2.40157">
        <ele>1125</ele>
        <time>2010-01-01T00:13:49Z</time>
      </trkpt>
      <trkpt lat="42.13026" lon="2.40146">
        <ele>1132</ele>
        <time>2010-01-01T00:13:53Z</time>
      </trkpt>
      <trkpt lat="42.13027" lon="2.40141">
        <ele>1133</ele>
        <time>2010-01-01T00:13:55Z</time>
      </trkpt>
      <trkpt lat="42.13031" lon="2.40133">
        <ele>1138</ele>
        <time>2010-01-01T00:13:58Z</time>
      </trkpt>
      <trkpt lat="42.13054" lon="2.40096">
        <ele>1166</ele>
        <time>2010-01-01T00:14:12Z</time>
      </trkpt>
      <trkpt lat="42.13061" lon="2.4009">
        <ele>1171</ele>
        <time>2010-01-01T00:14:16Z</time>
      </trkpt>
      <trkpt lat="42.13066" lon="2.40093">
        <ele>1172</ele>
        <time>2010-01-01T00:14:18Z</time>
      </trkpt>
      <trkpt lat="42.13071" lon="2.40085">
        <ele>1176</ele>
        <time>2010-01-01T00:14:21Z</time>
      </trkpt>
      <trkpt lat="42.13072" lon="2.40078">
        <ele>1180</ele>
        <time>2010-01-01T00:14:23Z</time>
      </trkpt>
      <trkpt lat="42.13078" lon="2.40083">
        <ele>1179</ele>
        <time>2010-01-01T00:14:26Z</time>
      </trkpt>
      <trkpt lat="42.13086" lon="2.40087">
        <ele>1183</ele>
        <time>2010-01-01T00:14:29Z</time>
      </trkpt>
      <trkpt lat="42.13091" lon="2.40092">
        <ele>1189</ele>
        <time>2010-01-01T00:14:32Z</time>
      </trkpt>
      <trkpt lat="42.13096" lon="2.40086">
        <ele>1199</ele>
        <time>2010-01-01T00:14:34Z</time>
      </trkpt>
      <trkpt lat="42.13102" lon="2.40086">
        <ele>1208</ele>
        <time>2010-01-01T00:14:37Z</time>
      </trkpt>
      <trkpt lat="42.13104" lon="2.40083">
        <ele>1214</ele>
        <time>2010-01-01T00:14:38Z</time>
      </trkpt>
      <trkpt lat="42.13112" lon="2.40085">
        <ele>1225</ele>
        <time>2010-01-01T00:14:41Z</time>
      </trkpt>
      <trkpt lat="42.13109" lon="2.4008">
        <ele>1224</ele>
        <time>2010-01-01T00:14:43Z</time>
      </trkpt>
      <trkpt lat="42.13111" lon="2.40077">
        <ele>1232</ele>
        <time>2010-01-01T00:14:44Z</time>
      </trkpt>
      <trkpt lat="42.13117" lon="2.40078">
        <ele>1240</ele>
        <time>2010-01-01T00:14:47Z</time>
      </trkpt>
      <trkpt lat="42.13117" lon="2.40079">
        <ele>1237</ele>
        <time>2010-01-01T00:14:48Z</time>
      </trkpt>
      <trkpt lat="42.13124" lon="2.40077">
        <ele>1250</ele>
        <time>2010-01-01T00:14:51Z</time>
      </trkpt>
      <trkpt lat="42.13129" lon="2.40078">
        <ele>1255</ele>
        <time>2010-01-01T00:14:53Z</time>
      </trkpt>
      <trkpt lat="42.13133" lon="2.40084">
        <ele>1258</ele>
        <time>2010-01-01T00:14:55Z</time>
      </trkpt>
      <trkpt lat="42.13134" lon="2.40083">
        <ele>1260</ele>
        <time>2010-01-01T00:14:56Z</time>
      </trkpt>
      <trkpt lat="42.13131" lon="2.40079">
        <ele>1259</ele>
        <time>2010-01-01T00:14:57Z</time>
      </trkpt>
      <trkpt lat="42.13133" lon="2.40075">
        <ele>1263</ele>
        <time>2010-01-01T00:14:58Z</time>
      </trkpt>
      <trkpt lat="42.13133" lon="2.40076">
        <ele>1263</ele>
        <time>2010-01-01T00:14:59Z</time>
      </trkpt>
      <trkpt lat="42.13136" lon="2.40077">
        <ele>1266</ele>
        <time>2010-01-01T00:15:00Z</time>
      </trkpt>
      <trkpt lat="42.13135" lon="2.4008">
        <ele>1263</ele>
        <time>2010-01-01T00:15:01Z</time>
      </trkpt>
      <trkpt lat="42.13139" lon="2.40085">
        <ele>1264</ele>
        <time>2010-01-01T00:15:03Z</time>
      </trkpt>
      <trkpt lat="42.13144" lon="2.40086">
        <ele>1265</ele>
        <time>2010-01-01T00:15:05Z</time>
      </trkpt>
      <trkpt lat="42.13145" lon="2.40088">
        <ele>1263</ele>
        <time>2010-01-01T00:15:06Z</time>
      </trkpt>
      <trkpt lat="42.13153" lon="2.40087">
        <ele>1266</ele>
        <time>2010-01-01T00:15:09Z</time>
      </trkpt>
      <trkpt lat="42.13156" lon="2.40092">
        <ele>1261</ele>
        <time>2010-01-01T00:15:11Z</time>
      </trkpt>
      <trkpt lat="42.13169" lon="2.40088">
        <ele>1270</ele>
        <time>2010-01-01T00:15:16Z</time>
      </trkpt>
      <trkpt lat="42.1317" lon="2.40082">
        <ele>1276</ele>
        <time>2010-01-01T00:15:18Z</time>
      </trkpt>
      <trkpt lat="42.13165" lon="2.4009">
        <ele>1267</ele>
        <time>2010-01-01T00:15:21Z</time>
      </trkpt>
      <trkpt lat="42.13165" lon="2.40088">
        <ele>1270</ele>
        <time>2010-01-01T00:15:22Z</time>
      </trkpt>
      <trkpt lat="42.13163" lon="2.40088">
        <ele>1269</ele>
        <time>2010-01-01T00:15:23Z</time>
      </trkpt>
      <trkpt lat="42.13157" lon="2.40084">
        <ele>1272</ele>
        <time>2010-01-01T00:15:25Z</time>
      </trkpt>
      <trkpt lat="42.13159" lon="2.40082">
        <ele>1274</ele>
        <time>2010-01-01T00:15:26Z</time>
      </trkpt>
      <trkpt lat="42.13161" lon="2.40084">
        <ele>1273</ele>
        <time>2010-01-01T00:15:27Z</time>
      </trkpt>
      <trkpt lat="42.13163" lon="2.40082">
        <ele>1275</ele>
        <time>2010-01-01T00:15:28Z</time>
      </trkpt>
      <trkpt lat="42.13163" lon="2.40084">
        <ele>1274</ele>
        <time>2010-01-01T00:15:29Z</time>
      </trkpt>
      <trkpt lat="42.13164" lon="2.40076">
        <ele>1277</ele>
        <time>2010-01-01T00:15:31Z</time>
      </trkpt>
      <trkpt lat="42.13161" lon="2.40074">
        <ele>1277</ele>
        <time>2010-01-01T00:15:32Z</time>
      </trkpt>
      <trkpt lat="42.13159" lon="2.40066">
        <ele>1280</ele>
        <time>2010-01-01T00:15:34Z</time>
      </trkpt>
      <trkpt lat="42.13168" lon="2.4004">
        <ele>1295</ele>
        <time>2010-01-01T00:15:43Z</time>
      </trkpt>
      <trkpt lat="42.13168" lon="2.40033">
        <ele>1300</ele>
        <time>2010-01-01T00:15:45Z</time>
      </trkpt>
      <trkpt lat="42.13169" lon="2.40028">
        <ele>1302</ele>
        <time>2010-01-01T00:15:47Z</time>
      </trkpt>
      <trkpt lat="42.13178" lon="2.40023">
        <ele>1300</ele>
        <time>2010-01-01T00:15:50Z</time>
      </trkpt>
      <trkpt lat="42.13188" lon="2.40014">
        <ele>1299</ele>
        <time>2010-01-01T00:15:55Z</time>
      </trkpt>
      <trkpt lat="42.13192" lon="2.39994">
        <ele>1303</ele>
        <time>2010-01-01T00:16:01Z</time>
      </trkpt>
      <trkpt lat="42.132" lon="2.3999">
        <ele>1301</ele>
        <time>2010-01-01T00:16:05Z</time>
      </trkpt>
      <trkpt lat="42.13208" lon="2.3998">
        <ele>1299</ele>
        <time>2010-01-01T00:16:09Z</time>
      </trkpt>
      <trkpt lat="42.13228" lon="2.39969">
        <ele>1294</ele>
        <time>2010-01-01T00:16:18Z</time>
      </trkpt>
      <trkpt lat="42.13232" lon="2.39959">
        <ele>1293</ele>
        <time>2010-01-01T00:16:21Z</time>
      </trkpt>
      <trkpt lat="42.1324" lon="2.39964">
        <ele>1290</ele>
        <time>2010-01-01T00:16:25Z</time>
      </trkpt>
      <trkpt lat="42.13248" lon="2.39962">
        <ele>1288</ele>
        <time>2010-01-01T00:16:28Z</time>
      </trkpt>
      <trkpt lat="42.13264" lon="2.39949">
        <ele>1284</ele>
        <time>2010-01-01T00:16:36Z</time>
      </trkpt>
      <trkpt lat="42.13298" lon="2.39931">
        <ele>1278</ele>
        <time>2010-01-01T00:16:50Z</time>
      </trkpt>
      <trkpt lat="42.13321" lon="2.39904">
        <ele>1276</ele>
        <time>2010-01-01T00:17:02Z</time>
      </trkpt>
      <trkpt lat="42.13323" lon="2.39896">
        <ele>1277</ele>
        <time>2010-01-01T00:17:05Z</time>
      </trkpt>
      <trkpt lat="42.13325" lon="2.39893">
        <ele>1276</ele>
        <time>2010-01-01T00:17:06Z</time>
      </trkpt>
      <trkpt lat="42.13336" lon="2.39886">
        <ele>1275</ele>
        <time>2010-01-01T00:17:11Z</time>
      </trkpt>
      <trkpt lat="42.1334" lon="2.39887">
        <ele>1273</ele>
        <time>2010-01-01T00:17:13Z</time>
      </trkpt>
      <trkpt lat="42.13351" lon="2.39884">
        <ele>1270</ele>
        <time>2010-01-01T00:17:17Z</time>
      </trkpt>
      <trkpt lat="42.13349" lon="2.39886">
        <ele>1270</ele>
        <time>2010-01-01T00:17:18Z</time>
      </trkpt>
      <trkpt lat="42.13358" lon="2.39883">
        <ele>1268</ele>
        <time>2010-01-01T00:17:22Z</time>
      </trkpt>
      <trkpt lat="42.13382" lon="2.39867">
        <ele>1261</ele>
        <time>2010-01-01T00:17:33Z</time>
      </trkpt>
      <trkpt lat="42.13348" lon="2.3989">
        <ele>1271</ele>
        <time>2010-01-01T00:17:48Z</time>
      </trkpt>
      <trkpt lat="42.1335" lon="2.3989">
        <ele>1270</ele>
        <time>2010-01-01T00:17:49Z</time>
      </trkpt>
      <trkpt lat="42.13348" lon="2.39891">
        <ele>1270</ele>
        <time>2010-01-01T00:17:50Z</time>
      </trkpt>
      <trkpt lat="42.13352" lon="2.39889">
        <ele>1269</ele>
        <time>2010-01-01T00:17:52Z</time>
      </trkpt>
      <trkpt lat="42.1334" lon="2.39895">
        <ele>1272</ele>
        <time>2010-01-01T00:17:57Z</time>
      </trkpt>
      <trkpt lat="42.1333" lon="2.39904">
        <ele>1274</ele>
        <time>2010-01-01T00:18:02Z</time>
      </trkpt>
      <trkpt lat="42.13345" lon="2.3989">
        <ele>1271</ele>
        <time>2010-01-01T00:18:09Z</time>
      </trkpt>
      <trkpt lat="42.13345" lon="2.39899">
        <ele>1270</ele>
        <time>2010-01-01T00:18:12Z</time>
      </trkpt>
      <trkpt lat="42.13348" lon="2.39896">
        <ele>1269</ele>
        <time>2010-01-01T00:18:13Z</time>
      </trkpt>
      <trkpt lat="42.13344" lon="2.39893">
        <ele>1271</ele>
        <time>2010-01-01T00:18:15Z</time>
      </trkpt>
      <trkpt lat="42.13338" lon="2.39896">
        <ele>1273</ele>
        <time>2010-01-01T00:18:18Z</time>
      </trkpt>
      <trkpt lat="42.13334" lon="2.39892">
        <ele>1275</ele>
        <time>2010-01-01T00:18:19Z</time>
      </trkpt>
      <trkpt lat="42.13322" lon="2.39904">
        <ele>1276</ele>
        <time>2010-01-01T00:18:25Z</time>
      </trkpt>
      <trkpt lat="42.13322" lon="2.3991">
        <ele>1275</ele>
        <time>2010-01-01T00:18:27Z</time>
      </trkpt>
      <trkpt lat="42.133" lon="2.39929">
        <ele>1278</ele>
        <time>2010-01-01T00:18:38Z</time>
      </trkpt>
      <trkpt lat="42.13273" lon="2.39941">
        <ele>1281</ele>
        <time>2010-01-01T00:18:49Z</time>
      </trkpt>
      <trkpt lat="42.13261" lon="2.39953">
        <ele>1285</ele>
        <time>2010-01-01T00:18:55Z</time>
      </trkpt>
      <trkpt lat="42.13251" lon="2.39959">
        <ele>1288</ele>
        <time>2010-01-01T00:18:59Z</time>
      </trkpt>
      <trkpt lat="42.13232" lon="2.39969">
        <ele>1292</ele>
        <time>2010-01-01T00:19:08Z</time>
      </trkpt>
      <trkpt lat="42.13217" lon="2.39974">
        <ele>1297</ele>
        <time>2010-01-01T00:19:13Z</time>
      </trkpt>
      <trkpt lat="42.13204" lon="2.39982">
        <ele>1300</ele>
        <time>2010-01-01T00:19:19Z</time>
      </trkpt>
      <trkpt lat="42.13199" lon="2.39983">
        <ele>1302</ele>
        <time>2010-01-01T00:19:21Z</time>
      </trkpt>
      <trkpt lat="42.13192" lon="2.39994">
        <ele>1304</ele>
        <time>2010-01-01T00:19:26Z</time>
      </trkpt>
      <trkpt lat="42.1318" lon="2.40004">
        <ele>1307</ele>
        <time>2010-01-01T00:19:31Z</time>
      </trkpt>
      <trkpt lat="42.1316" lon="2.40009">
        <ele>1312</ele>
        <time>2010-01-01T00:19:39Z</time>
      </trkpt>
      <trkpt lat="42.13149" lon="2.40003">
        <ele>1316</ele>
        <time>2010-01-01T00:19:44Z</time>
      </trkpt>
      <trkpt lat="42.13142" lon="2.39994">
        <ele>1320</ele>
        <time>2010-01-01T00:19:48Z</time>
      </trkpt>
      <trkpt lat="42.1313" lon="2.39973">
        <ele>1325</ele>
        <time>2010-01-01T00:19:56Z</time>
      </trkpt>
      <trkpt lat="42.13126" lon="2.39972">
        <ele>1325</ele>
        <time>2010-01-01T00:19:57Z</time>
      </trkpt>
      <trkpt lat="42.13114" lon="2.3996">
        <ele>1325</ele>
        <time>2010-01-01T00:20:03Z</time>
      </trkpt>
      <trkpt lat="42.13098" lon="2.39947">
        <ele>1310</ele>
        <time>2010-01-01T00:20:11Z</time>
      </trkpt>
      <trkpt lat="42.13091" lon="2.39937">
        <ele>1300</ele>
        <time>2010-01-01T00:20:15Z</time>
      </trkpt>
      <trkpt lat="42.1308" lon="2.39933">
        <ele>1287</ele>
        <time>2010-01-01T00:20:19Z</time>
      </trkpt>
      <trkpt lat="42.13074" lon="2.39928">
        <ele>1282</ele>
        <time>2010-01-01T00:20:22Z</time>
      </trkpt>
      <trkpt lat="42.1308" lon="2.39909">
        <ele>1302</ele>
        <time>2010-01-01T00:20:29Z</time>
      </trkpt>
      <trkpt lat="42.13086" lon="2.399">
        <ele>1313</ele>
        <time>2010-01-01T00:20:32Z</time>
      </trkpt>
      <trkpt lat="42.1309" lon="2.39887">
        <ele>1321</ele>
        <time>2010-01-01T00:20:36Z</time>
      </trkpt>
      <trkpt lat="42.13093" lon="2.39884">
        <ele>1323</ele>
        <time>2010-01-01T00:20:38Z</time>
      </trkpt>
      <trkpt lat="42.13107" lon="2.39865">
        <ele>1326</ele>
        <time>2010-01-01T00:20:46Z</time>
      </trkpt>
      <trkpt lat="42.13114" lon="2.3987">
        <ele>1324</ele>
        <time>2010-01-01T00:20:49Z</time>
      </trkpt>
      <trkpt lat="42.1311" lon="2.39871">
        <ele>1325</ele>
        <time>2010-01-01T00:20:51Z</time>
      </trkpt>
      <trkpt lat="42.13104" lon="2.39878">
        <ele>1325</ele>
        <time>2010-01-01T00:20:54Z</time>
      </trkpt>
      <trkpt lat="42.13104" lon="2.39889">
        <ele>1324</ele>
        <time>2010-01-01T00:20:57Z</time>
      </trkpt>
      <trkpt lat="42.13092" lon="2.39886">
        <ele>1322</ele>
        <time>2010-01-01T00:21:03Z</time>
      </trkpt>
      <trkpt lat="42.13084" lon="2.39888">
        <ele>1319</ele>
        <time>2010-01-01T00:21:06Z</time>
      </trkpt>
      <trkpt lat="42.13081" lon="2.39886">
        <ele>1319</ele>
        <time>2010-01-01T00:21:07Z</time>
      </trkpt>
      <trkpt lat="42.1308" lon="2.39876">
        <ele>1326</ele>
        <time>2010-01-01T00:21:10Z</time>
      </trkpt>
      <trkpt lat="42.13074" lon="2.39865">
        <ele>1331</ele>
        <time>2010-01-01T00:21:14Z</time>
      </trkpt>
      <trkpt lat="42.13068" lon="2.39857">
        <ele>1334</ele>
        <time>2010-01-01T00:21:18Z</time>
      </trkpt>
      <trkpt lat="42.13055" lon="2.39849">
        <ele>1334</ele>
        <time>2010-01-01T00:21:23Z</time>
      </trkpt>
      <trkpt lat="42.13052" lon="2.39842">
        <ele>1335</ele>
        <time>2010-01-01T00:21:26Z</time>
      </trkpt>
      <trkpt lat="42.13043" lon="2.39831">
        <ele>1334</ele>
        <time>2010-01-01T00:21:31Z</time>
      </trkpt>
      <trkpt lat="42.13039" lon="2.39827">
        <ele>1333</ele>
        <time>2010-01-01T00:21:33Z</time>
      </trkpt>
      <trkpt lat="42.13029" lon="2.39822">
        <ele>1330</ele>
        <time>2010-01-01T00:21:37Z</time>
      </trkpt>
      <trkpt lat="42.13025" lon="2.39822">
        <ele>1327</ele>
        <time>2010-01-01T00:21:38Z</time>
      </trkpt>
      <trkpt lat="42.13011" lon="2.39817">
        <ele>1310</ele>
        <time>2010-01-01T00:21:44Z</time>
      </trkpt>
      <trkpt lat="42.13001" lon="2.39791">
        <ele>1301</ele>
        <time>2010-01-01T00:21:53Z</time>
      </trkpt>
      <trkpt lat="42.12989" lon="2.39768">
        <ele>1288</ele>
        <time>2010-01-01T00:22:01Z</time>
      </trkpt>
      <trkpt lat="42.12985" lon="2.39755">
        <ele>1294</ele>
        <time>2010-01-01T00:22:05Z</time>
      </trkpt>
      <trkpt lat="42.12982" lon="2.39751">
        <ele>1296</ele>
        <time>2010-01-01T00:22:07Z</time>
      </trkpt>
      <trkpt lat="42.12971" lon="2.39745">
        <ele>1286</ele>
        <time>2010-01-01T00:22:12Z</time>
      </trkpt>
      <trkpt lat="42.12971" lon="2.3974">
        <ele>1284</ele>
        <time>2010-01-01T00:22:13Z</time>
      </trkpt>
      <trkpt lat="42.12973" lon="2.39732">
        <ele>1288</ele>
        <time>2010-01-01T00:22:16Z</time>
      </trkpt>
      <trkpt lat="42.12977" lon="2.3973">
        <ele>1292</ele>
        <time>2010-01-01T00:22:17Z</time>
      </trkpt>
      <trkpt lat="42.12996" lon="2.39728">
        <ele>1308</ele>
        <time>2010-01-01T00:22:25Z</time>
      </trkpt>
      <trkpt lat="42.13005" lon="2.39724">
        <ele>1313</ele>
        <time>2010-01-01T00:22:29Z</time>
      </trkpt>
      <trkpt lat="42.13018" lon="2.39712">
        <ele>1315</ele>
        <time>2010-01-01T00:22:35Z</time>
      </trkpt>
      <trkpt lat="42.13022" lon="2.39711">
        <ele>1316</ele>
        <time>2010-01-01T00:22:37Z</time>
      </trkpt>
      <trkpt lat="42.13031" lon="2.39703">
        <ele>1317</ele>
        <time>2010-01-01T00:22:41Z</time>
      </trkpt>
      <trkpt lat="42.13039" lon="2.3969">
        <ele>1317</ele>
        <time>2010-01-01T00:22:46Z</time>
      </trkpt>
      <trkpt lat="42.13037" lon="2.3968">
        <ele>1313</ele>
        <time>2010-01-01T00:22:49Z</time>
      </trkpt>
      <trkpt lat="42.13032" lon="2.39669">
        <ele>1309</ele>
        <time>2010-01-01T00:22:53Z</time>
      </trkpt>
      <trkpt lat="42.13026" lon="2.39662">
        <ele>1305</ele>
        <time>2010-01-01T00:22:56Z</time>
      </trkpt>
      <trkpt lat="42.13027" lon="2.39661">
        <ele>1306</ele>
        <time>2010-01-01T00:22:57Z</time>
      </trkpt>
      <trkpt lat="42.13017" lon="2.39638">
        <ele>1300</ele>
        <time>2010-01-01T00:23:05Z</time>
      </trkpt>
      <trkpt lat="42.12997" lon="2.39616">
        <ele>1291</ele>
        <time>2010-01-01T00:23:15Z</time>
      </trkpt>
      <trkpt lat="42.12996" lon="2.39612">
        <ele>1290</ele>
        <time>2010-01-01T00:23:16Z</time>
      </trkpt>
      <trkpt lat="42.12996" lon="2.39602">
        <ele>1291</ele>
        <time>2010-01-01T00:23:19Z</time>
      </trkpt>
      <trkpt lat="42.13009" lon="2.3955">
        <ele>1295</ele>
        <time>2010-01-01T00:23:36Z</time>
      </trkpt>
      <trkpt lat="42.13007" lon="2.39537">
        <ele>1295</ele>
        <time>2010-01-01T00:23:39Z</time>
      </trkpt>
      <trkpt lat="42.13004" lon="2.39531">
        <ele>1296</ele>
        <time>2010-01-01T00:23:41Z</time>
      </trkpt>
      <trkpt lat="42.12996" lon="2.39527">
        <ele>1296</ele>
        <time>2010-01-01T00:23:45Z</time>
      </trkpt>
      <trkpt lat="42.12993" lon="2.39524">
        <ele>1296</ele>
        <time>2010-01-01T00:23:46Z</time>
      </trkpt>
      <trkpt lat="42.12988" lon="2.39515">
        <ele>1300</ele>
        <time>2010-01-01T00:23:50Z</time>
      </trkpt>
      <trkpt lat="42.12988" lon="2.39517">
        <ele>1299</ele>
        <time>2010-01-01T00:23:50Z</time>
      </trkpt>
      <trkpt lat="42.12987" lon="2.39499">
        <ele>1307</ele>
        <time>2010-01-01T00:23:56Z</time>
      </trkpt>
      <trkpt lat="42.12985" lon="2.39504">
        <ele>1307</ele>
        <time>2010-01-01T00:23:58Z</time>
      </trkpt>
      <trkpt lat="42.12986" lon="2.39511">
        <ele>1302</ele>
        <time>2010-01-01T00:24:00Z</time>
      </trkpt>
      <trkpt lat="42.12983" lon="2.39515">
        <ele>1301</ele>
        <time>2010-01-01T00:24:02Z</time>
      </trkpt>
      <trkpt lat="42.1298" lon="2.3952">
        <ele>1298</ele>
        <time>2010-01-01T00:24:03Z</time>
      </trkpt>
      <trkpt lat="42.12985" lon="2.39512">
        <ele>1302</ele>
        <time>2010-01-01T00:24:06Z</time>
      </trkpt>
      <trkpt lat="42.12987" lon="2.39517">
        <ele>1299</ele>
        <time>2010-01-01T00:24:08Z</time>
      </trkpt>
      <trkpt lat="42.12983" lon="2.39512">
        <ele>1303</ele>
        <time>2010-01-01T00:24:10Z</time>
      </trkpt>
      <trkpt lat="42.12976" lon="2.39514">
        <ele>1303</ele>
        <time>2010-01-01T00:24:13Z</time>
      </trkpt>
      <trkpt lat="42.12967" lon="2.39514">
        <ele>1305</ele>
        <time>2010-01-01T00:24:16Z</time>
      </trkpt>
      <trkpt lat="42.1296" lon="2.39509">
        <ele>1310</ele>
        <time>2010-01-01T00:24:20Z</time>
      </trkpt>
      <trkpt lat="42.12955" lon="2.39501">
        <ele>1316</ele>
        <time>2010-01-01T00:24:23Z</time>
      </trkpt>
      <trkpt lat="42.12952" lon="2.39503">
        <ele>1315</ele>
        <time>2010-01-01T00:24:24Z</time>
      </trkpt>
      <trkpt lat="42.12945" lon="2.39496">
        <ele>1317</ele>
        <time>2010-01-01T00:24:28Z</time>
      </trkpt>
      <trkpt lat="42.12938" lon="2.39491">
        <ele>1320</ele>
        <time>2010-01-01T00:24:31Z</time>
      </trkpt>
      <trkpt lat="42.1293" lon="2.39495">
        <ele>1321</ele>
        <time>2010-01-01T00:24:34Z</time>
      </trkpt>
      <trkpt lat="42.12919" lon="2.39494">
        <ele>1325</ele>
        <time>2010-01-01T00:24:39Z</time>
      </trkpt>
      <trkpt lat="42.12911" lon="2.39489">
        <ele>1330</ele>
        <time>2010-01-01T00:24:42Z</time>
      </trkpt>
      <trkpt lat="42.12899" lon="2.39485">
        <ele>1335</ele>
        <time>2010-01-01T00:24:47Z</time>
      </trkpt>
      <trkpt lat="42.12891" lon="2.39485">
        <ele>1338</ele>
        <time>2010-01-01T00:24:50Z</time>
      </trkpt>
      <trkpt lat="42.12888" lon="2.39482">
        <ele>1339</ele>
        <time>2010-01-01T00:24:52Z</time>
      </trkpt>
      <trkpt lat="42.12879" lon="2.3948">
        <ele>1339</ele>
        <time>2010-01-01T00:24:56Z</time>
      </trkpt>
      <trkpt lat="42.12872" lon="2.39485">
        <ele>1336</ele>
        <time>2010-01-01T00:24:59Z</time>
      </trkpt>
      <trkpt lat="42.12867" lon="2.39486">
        <ele>1335</ele>
        <time>2010-01-01T00:25:00Z</time>
      </trkpt>
      <trkpt lat="42.12862" lon="2.39478">
        <ele>1338</ele>
        <time>2010-01-01T00:25:04Z</time>
      </trkpt>
      <trkpt lat="42.12858" lon="2.39475">
        <ele>1340</ele>
        <time>2010-01-01T00:25:06Z</time>
      </trkpt>
      <trkpt lat="42.12853" lon="2.39473">
        <ele>1340</ele>
        <time>2010-01-01T00:25:07Z</time>
      </trkpt>
      <trkpt lat="42.12846" lon="2.39471">
        <ele>1340</ele>
        <time>2010-01-01T00:25:10Z</time>
      </trkpt>
      <trkpt lat="42.1284" lon="2.39464">
        <ele>1341</ele>
        <time>2010-01-01T00:25:13Z</time>
      </trkpt>
      <trkpt lat="42.12832" lon="2.39462">
        <ele>1340</ele>
        <time>2010-01-01T00:25:17Z</time>
      </trkpt>
      <trkpt lat="42.12829" lon="2.39459">
        <ele>1340</ele>
        <time>2010-01-01T00:25:18Z</time>
      </trkpt>
      <trkpt lat="42.12826" lon="2.3945">
        <ele>1340</ele>
        <time>2010-01-01T00:25:21Z</time>
      </trkpt>
      <trkpt lat="42.12826" lon="2.39437">
        <ele>1344</ele>
        <time>2010-01-01T00:25:25Z</time>
      </trkpt>
      <trkpt lat="42.1282" lon="2.3943">
        <ele>1342</ele>
        <time>2010-01-01T00:25:28Z</time>
      </trkpt>
      <trkpt lat="42.12807" lon="2.39435">
        <ele>1333</ele>
        <time>2010-01-01T00:25:34Z</time>
      </trkpt>
      <trkpt lat="42.12804" lon="2.39431">
        <ele>1331</ele>
        <time>2010-01-01T00:25:35Z</time>
      </trkpt>
      <trkpt lat="42.128" lon="2.39432">
        <ele>1328</ele>
        <time>2010-01-01T00:25:37Z</time>
      </trkpt>
      <trkpt lat="42.12798" lon="2.39436">
        <ele>1327</ele>
        <time>2010-01-01T00:25:39Z</time>
      </trkpt>
      <trkpt lat="42.12791" lon="2.39436">
        <ele>1322</ele>
        <time>2010-01-01T00:25:42Z</time>
      </trkpt>
      <trkpt lat="42.12779" lon="2.39421">
        <ele>1311</ele>
        <time>2010-01-01T00:25:48Z</time>
      </trkpt>
      <trkpt lat="42.1278" lon="2.39411">
        <ele>1312</ele>
        <time>2010-01-01T00:25:51Z</time>
      </trkpt>
      <trkpt lat="42.12785" lon="2.39392">
        <ele>1321</ele>
        <time>2010-01-01T00:25:57Z</time>
      </trkpt>
      <trkpt lat="42.12788" lon="2.39376">
        <ele>1330</ele>
        <time>2010-01-01T00:26:02Z</time>
      </trkpt>
      <trkpt lat="42.12788" lon="2.39369">
        <ele>1333</ele>
        <time>2010-01-01T00:26:04Z</time>
      </trkpt>
      <trkpt lat="42.12786" lon="2.39365">
        <ele>1333</ele>
        <time>2010-01-01T00:26:05Z</time>
      </trkpt>
      <trkpt lat="42.1278" lon="2.3936">
        <ele>1330</ele>
        <time>2010-01-01T00:26:08Z</time>
      </trkpt>
      <trkpt lat="42.12778" lon="2.39355">
        <ele>1331</ele>
        <time>2010-01-01T00:26:10Z</time>
      </trkpt>
      <trkpt lat="42.12774" lon="2.39354">
        <ele>1329</ele>
        <time>2010-01-01T00:26:12Z</time>
      </trkpt>
      <trkpt lat="42.12767" lon="2.39348">
        <ele>1328</ele>
        <time>2010-01-01T00:26:15Z</time>
      </trkpt>
      <trkpt lat="42.12763" lon="2.39347">
        <ele>1326</ele>
        <time>2010-01-01T00:26:17Z</time>
      </trkpt>
      <trkpt lat="42.12759" lon="2.39344">
        <ele>1324</ele>
        <time>2010-01-01T00:26:19Z</time>
      </trkpt>
      <trkpt lat="42.12749" lon="2.39344">
        <ele>1317</ele>
        <time>2010-01-01T00:26:23Z</time>
      </trkpt>
      <trkpt lat="42.12745" lon="2.39341">
        <ele>1315</ele>
        <time>2010-01-01T00:26:24Z</time>
      </trkpt>
      <trkpt lat="42.12733" lon="2.39341">
        <ele>1306</ele>
        <time>2010-01-01T00:26:29Z</time>
      </trkpt>
      <trkpt lat="42.12729" lon="2.39338">
        <ele>1304</ele>
        <time>2010-01-01T00:26:31Z</time>
      </trkpt>
      <trkpt lat="42.12715" lon="2.39319">
        <ele>1298</ele>
        <time>2010-01-01T00:26:39Z</time>
      </trkpt>
      <trkpt lat="42.12715" lon="2.39324">
        <ele>1296</ele>
        <time>2010-01-01T00:26:40Z</time>
      </trkpt>
      <trkpt lat="42.12711" lon="2.39322">
        <ele>1295</ele>
        <time>2010-01-01T00:26:42Z</time>
      </trkpt>
      <trkpt lat="42.12717" lon="2.39308">
        <ele>1302</ele>
        <time>2010-01-01T00:26:46Z</time>
      </trkpt>
      <trkpt lat="42.12727" lon="2.39292">
        <ele>1308</ele>
        <time>2010-01-01T00:26:53Z</time>
      </trkpt>
      <trkpt lat="42.12729" lon="2.39286">
        <ele>1310</ele>
        <time>2010-01-01T00:26:55Z</time>
      </trkpt>
      <trkpt lat="42.12731" lon="2.39267">
        <ele>1308</ele>
        <time>2010-01-01T00:27:00Z</time>
      </trkpt>
      <trkpt lat="42.12724" lon="2.39254">
        <ele>1299</ele>
        <time>2010-01-01T00:27:05Z</time>
      </trkpt>
      <trkpt lat="42.12727" lon="2.39239">
        <ele>1298</ele>
        <time>2010-01-01T00:27:10Z</time>
      </trkpt>
      <trkpt lat="42.1274" lon="2.39221">
        <ele>1303</ele>
        <time>2010-01-01T00:27:17Z</time>
      </trkpt>
      <trkpt lat="42.12741" lon="2.39216">
        <ele>1304</ele>
        <time>2010-01-01T00:27:19Z</time>
      </trkpt>
      <trkpt lat="42.12736" lon="2.39208">
        <ele>1302</ele>
        <time>2010-01-01T00:27:22Z</time>
      </trkpt>
      <trkpt lat="42.12735" lon="2.39202">
        <ele>1302</ele>
        <time>2010-01-01T00:27:23Z</time>
      </trkpt>
      <trkpt lat="42.12736" lon="2.39196">
        <ele>1304</ele>
        <time>2010-01-01T00:27:25Z</time>
      </trkpt>
      <trkpt lat="42.12743" lon="2.39183">
        <ele>1308</ele>
        <time>2010-01-01T00:27:30Z</time>
      </trkpt>
      <trkpt lat="42.12739" lon="2.39163">
        <ele>1309</ele>
        <time>2010-01-01T00:27:36Z</time>
      </trkpt>
      <trkpt lat="42.12731" lon="2.39138">
        <ele>1314</ele>
        <time>2010-01-01T00:27:44Z</time>
      </trkpt>
      <trkpt lat="42.12735" lon="2.39129">
        <ele>1317</ele>
        <time>2010-01-01T00:27:47Z</time>
      </trkpt>
      <trkpt lat="42.1273" lon="2.39128">
        <ele>1316</ele>
        <time>2010-01-01T00:27:49Z</time>
      </trkpt>
      <trkpt lat="42.12732" lon="2.39123">
        <ele>1318</ele>
        <time>2010-01-01T00:27:51Z</time>
      </trkpt>
      <trkpt lat="42.12728" lon="2.39124">
        <ele>1316</ele>
        <time>2010-01-01T00:27:53Z</time>
      </trkpt>
      <trkpt lat="42.12728" lon="2.39117">
        <ele>1318</ele>
        <time>2010-01-01T00:27:55Z</time>
      </trkpt>
      <trkpt lat="42.12723" lon="2.39115">
        <ele>1317</ele>
        <time>2010-01-01T00:27:57Z</time>
      </trkpt>
      <trkpt lat="42.12716" lon="2.39109">
        <ele>1314</ele>
        <time>2010-01-01T00:28:00Z</time>
      </trkpt>
      <trkpt lat="42.12703" lon="2.39102">
        <ele>1308</ele>
        <time>2010-01-01T00:28:06Z</time>
      </trkpt>
      <trkpt lat="42.127" lon="2.39097">
        <ele>1307</ele>
        <time>2010-01-01T00:28:08Z</time>
      </trkpt>
      <trkpt lat="42.12697" lon="2.39084">
        <ele>1308</ele>
        <time>2010-01-01T00:28:12Z</time>
      </trkpt>
      <trkpt lat="42.12689" lon="2.39073">
        <ele>1306</ele>
        <time>2010-01-01T00:28:16Z</time>
      </trkpt>
      <trkpt lat="42.12691" lon="2.39068">
        <ele>1308</ele>
        <time>2010-01-01T00:28:18Z</time>
      </trkpt>
      <trkpt lat="42.12688" lon="2.39064">
        <ele>1307</ele>
        <time>2010-01-01T00:28:20Z</time>
      </trkpt>
      <trkpt lat="42.12688" lon="2.39068">
        <ele>1306</ele>
        <time>2010-01-01T00:28:21Z</time>
      </trkpt>
      <trkpt lat="42.12686" lon="2.39046">
        <ele>1313</ele>
        <time>2010-01-01T00:28:27Z</time>
      </trkpt>
      <trkpt lat="42.12683" lon="2.39043">
        <ele>1312</ele>
        <time>2010-01-01T00:28:29Z</time>
      </trkpt>
      <trkpt lat="42.12677" lon="2.3904">
        <ele>1309</ele>
        <time>2010-01-01T00:28:31Z</time>
      </trkpt>
      <trkpt lat="42.12673" lon="2.39041">
        <ele>1307</ele>
        <time>2010-01-01T00:28:33Z</time>
      </trkpt>
      <trkpt lat="42.1267" lon="2.39044">
        <ele>1302</ele>
        <time>2010-01-01T00:28:34Z</time>
      </trkpt>
      <trkpt lat="42.12661" lon="2.39035">
        <ele>1303</ele>
        <time>2010-01-01T00:28:39Z</time>
      </trkpt>
      <trkpt lat="42.12652" lon="2.39014">
        <ele>1315</ele>
        <time>2010-01-01T00:28:46Z</time>
      </trkpt>
      <trkpt lat="42.12651" lon="2.39004">
        <ele>1322</ele>
        <time>2010-01-01T00:28:49Z</time>
      </trkpt>
      <trkpt lat="42.12648" lon="2.38999">
        <ele>1325</ele>
        <time>2010-01-01T00:28:51Z</time>
      </trkpt>
      <trkpt lat="42.12641" lon="2.38998">
        <ele>1321</ele>
        <time>2010-01-01T00:28:54Z</time>
      </trkpt>
      <trkpt lat="42.1263" lon="2.39003">
        <ele>1321</ele>
        <time>2010-01-01T00:28:59Z</time>
      </trkpt>
      <trkpt lat="42.12627" lon="2.39009">
        <ele>1320</ele>
        <time>2010-01-01T00:29:01Z</time>
      </trkpt>
      <trkpt lat="42.12605" lon="2.39023">
        <ele>1322</ele>
        <time>2010-01-01T00:29:11Z</time>
      </trkpt>
      <trkpt lat="42.12598" lon="2.39031">
        <ele>1319</ele>
        <time>2010-01-01T00:29:14Z</time>
      </trkpt>
      <trkpt lat="42.12593" lon="2.39032">
        <ele>1320</ele>
        <time>2010-01-01T00:29:16Z</time>
      </trkpt>
      <trkpt lat="42.12589" lon="2.3903">
        <ele>1323</ele>
        <time>2010-01-01T00:29:18Z</time>
      </trkpt>
      <trkpt lat="42.12585" lon="2.39032">
        <ele>1323</ele>
        <time>2010-01-01T00:29:19Z</time>
      </trkpt>
      <trkpt lat="42.12577" lon="2.39044">
        <ele>1319</ele>
        <time>2010-01-01T00:29:24Z</time>
      </trkpt>
      <trkpt lat="42.12572" lon="2.39044">
        <ele>1320</ele>
        <time>2010-01-01T00:29:26Z</time>
      </trkpt>
      <trkpt lat="42.12569" lon="2.39042">
        <ele>1322</ele>
        <time>2010-01-01T00:29:28Z</time>
      </trkpt>
      <trkpt lat="42.12561" lon="2.39043">
        <ele>1323</ele>
        <time>2010-01-01T00:29:31Z</time>
      </trkpt>
      <trkpt lat="42.12553" lon="2.39046">
        <ele>1323</ele>
        <time>2010-01-01T00:29:34Z</time>
      </trkpt>
      <trkpt lat="42.12549" lon="2.39046">
        <ele>1322</ele>
        <time>2010-01-01T00:29:36Z</time>
      </trkpt>
      <trkpt lat="42.12547" lon="2.39041">
        <ele>1324</ele>
        <time>2010-01-01T00:29:37Z</time>
      </trkpt>
      <trkpt lat="42.1254" lon="2.39038">
        <ele>1325</ele>
        <time>2010-01-01T00:29:40Z</time>
      </trkpt>
      <trkpt lat="42.12529" lon="2.3903">
        <ele>1328</ele>
        <time>2010-01-01T00:29:45Z</time>
      </trkpt>
      <trkpt lat="42.12525" lon="2.39031">
        <ele>1328</ele>
        <time>2010-01-01T00:29:47Z</time>
      </trkpt>
      <trkpt lat="42.12521" lon="2.39023">
        <ele>1333</ele>
        <time>2010-01-01T00:29:50Z</time>
      </trkpt>
      <trkpt lat="42.12517" lon="2.3902">
        <ele>1334</ele>
        <time>2010-01-01T00:29:52Z</time>
      </trkpt>
      <trkpt lat="42.12512" lon="2.3902">
        <ele>1335</ele>
        <time>2010-01-01T00:29:53Z</time>
      </trkpt>
      <trkpt lat="42.12514" lon="2.39024">
        <ele>1332</ele>
        <time>2010-01-01T00:29:55Z</time>
      </trkpt>
      <trkpt lat="42.12505" lon="2.39019">
        <ele>1336</ele>
        <time>2010-01-01T00:29:58Z</time>
      </trkpt>
      <trkpt lat="42.125" lon="2.3902">
        <ele>1336</ele>
        <time>2010-01-01T00:30:01Z</time>
      </trkpt>
      <trkpt lat="42.12498" lon="2.39016">
        <ele>1338</ele>
        <time>2010-01-01T00:30:02Z</time>
      </trkpt>
      <trkpt lat="42.12492" lon="2.39015">
        <ele>1336</ele>
        <time>2010-01-01T00:30:05Z</time>
      </trkpt>
      <trkpt lat="42.12486" lon="2.39016">
        <ele>1335</ele>
        <time>2010-01-01T00:30:07Z</time>
      </trkpt>
      <trkpt lat="42.12485" lon="2.3901">
        <ele>1336</ele>
        <time>2010-01-01T00:30:09Z</time>
      </trkpt>
      <trkpt lat="42.12482" lon="2.39011">
        <ele>1335</ele>
        <time>2010-01-01T00:30:10Z</time>
      </trkpt>
      <trkpt lat="42.12476" lon="2.39002">
        <ele>1334</ele>
        <time>2010-01-01T00:30:13Z</time>
      </trkpt>
      <trkpt lat="42.12472" lon="2.39003">
        <ele>1332</ele>
        <time>2010-01-01T00:30:15Z</time>
      </trkpt>
      <trkpt lat="42.12463" lon="2.38998">
        <ele>1324</ele>
        <time>2010-01-01T00:30:19Z</time>
      </trkpt>
      <trkpt lat="42.12446" lon="2.39008">
        <ele>1304</ele>
        <time>2010-01-01T00:30:26Z</time>
      </trkpt>
      <trkpt lat="42.12436" lon="2.38997">
        <ele>1296</ele>
        <time>2010-01-01T00:30:31Z</time>
      </trkpt>
      <trkpt lat="42.12436" lon="2.38992">
        <ele>1300</ele>
        <time>2010-01-01T00:30:33Z</time>
      </trkpt>
      <trkpt lat="42.12443" lon="2.38969">
        <ele>1330</ele>
        <time>2010-01-01T00:30:41Z</time>
      </trkpt>
      <trkpt lat="42.12443" lon="2.38964">
        <ele>1331</ele>
        <time>2010-01-01T00:30:42Z</time>
      </trkpt>
      <trkpt lat="42.12445" lon="2.38952">
        <ele>1337</ele>
        <time>2010-01-01T00:30:46Z</time>
      </trkpt>
      <trkpt lat="42.12442" lon="2.38949">
        <ele>1337</ele>
        <time>2010-01-01T00:30:47Z</time>
      </trkpt>
      <trkpt lat="42.12439" lon="2.38939">
        <ele>1339</ele>
        <time>2010-01-01T00:30:50Z</time>
      </trkpt>
      <trkpt lat="42.12436" lon="2.38936">
        <ele>1339</ele>
        <time>2010-01-01T00:30:52Z</time>
      </trkpt>
      <trkpt lat="42.12432" lon="2.38922">
        <ele>1341</ele>
        <time>2010-01-01T00:30:56Z</time>
      </trkpt>
      <trkpt lat="42.1243" lon="2.38917">
        <ele>1342</ele>
        <time>2010-01-01T00:30:58Z</time>
      </trkpt>
      <trkpt lat="42.12422" lon="2.38914">
        <ele>1341</ele>
        <time>2010-01-01T00:31:01Z</time>
      </trkpt>
      <trkpt lat="42.12418" lon="2.38914">
        <ele>1340</ele>
        <time>2010-01-01T00:31:03Z</time>
      </trkpt>
      <trkpt lat="42.1241" lon="2.3891">
        <ele>1336</ele>
        <time>2010-01-01T00:31:07Z</time>
      </trkpt>
      <trkpt lat="42.12397" lon="2.38895">
        <ele>1331</ele>
        <time>2010-01-01T00:31:13Z</time>
      </trkpt>
      <trkpt lat="42.12389" lon="2.38889">
        <ele>1327</ele>
        <time>2010-01-01T00:31:17Z</time>
      </trkpt>
      <trkpt lat="42.12386" lon="2.38889">
        <ele>1323</ele>
        <time>2010-01-01T00:31:18Z</time>
      </trkpt>
      <trkpt lat="42.12379" lon="2.38883">
        <ele>1319</ele>
        <time>2010-01-01T00:31:21Z</time>
      </trkpt>
      <trkpt lat="42.12375" lon="2.38884">
        <ele>1315</ele>
        <time>2010-01-01T00:31:23Z</time>
      </trkpt>
      <trkpt lat="42.12368" lon="2.38881">
        <ele>1309</ele>
        <time>2010-01-01T00:31:26Z</time>
      </trkpt>
      <trkpt lat="42.12364" lon="2.38883">
        <ele>1304</ele>
        <time>2010-01-01T00:31:28Z</time>
      </trkpt>
      <trkpt lat="42.12363" lon="2.38878">
        <ele>1305</ele>
        <time>2010-01-01T00:31:29Z</time>
      </trkpt>
      <trkpt lat="42.12365" lon="2.38882">
        <ele>1305</ele>
        <time>2010-01-01T00:31:31Z</time>
      </trkpt>
      <trkpt lat="42.12362" lon="2.38878">
        <ele>1304</ele>
        <time>2010-01-01T00:31:32Z</time>
      </trkpt>
      <trkpt lat="42.1236" lon="2.38882">
        <ele>1301</ele>
        <time>2010-01-01T00:31:34Z</time>
      </trkpt>
      <trkpt lat="42.12356" lon="2.38884">
        <ele>1298</ele>
        <time>2010-01-01T00:31:35Z</time>
      </trkpt>
      <trkpt lat="42.1236" lon="2.38883">
        <ele>1300</ele>
        <time>2010-01-01T00:31:37Z</time>
      </trkpt>
      <trkpt lat="42.1236" lon="2.38878">
        <ele>1303</ele>
        <time>2010-01-01T00:31:38Z</time>
      </trkpt>
      <trkpt lat="42.12359" lon="2.38863">
        <ele>1309</ele>
        <time>2010-01-01T00:31:43Z</time>
      </trkpt>
      <trkpt lat="42.12353" lon="2.38849">
        <ele>1313</ele>
        <time>2010-01-01T00:31:47Z</time>
      </trkpt>
      <trkpt lat="42.12357" lon="2.3883">
        <ele>1325</ele>
        <time>2010-01-01T00:31:53Z</time>
      </trkpt>
      <trkpt lat="42.12354" lon="2.38814">
        <ele>1329</ele>
        <time>2010-01-01T00:31:58Z</time>
      </trkpt>
      <trkpt lat="42.12354" lon="2.38798">
        <ele>1333</ele>
        <time>2010-01-01T00:32:03Z</time>
      </trkpt>
      <trkpt lat="42.1236" lon="2.38779">
        <ele>1340</ele>
        <time>2010-01-01T00:32:09Z</time>
      </trkpt>
      <trkpt lat="42.12362" lon="2.38775">
        <ele>1342</ele>
        <time>2010-01-01T00:32:11Z</time>
      </trkpt>
      <trkpt lat="42.12362" lon="2.38764">
        <ele>1344</ele>
        <time>2010-01-01T00:32:14Z</time>
      </trkpt>
      <trkpt lat="42.1234" lon="2.38767">
        <ele>1339</ele>
        <time>2010-01-01T00:32:22Z</time>
      </trkpt>
      <trkpt lat="42.12334" lon="2.3876">
        <ele>1339</ele>
        <time>2010-01-01T00:32:25Z</time>
      </trkpt>
      <trkpt lat="42.1233" lon="2.38759">
        <ele>1338</ele>
        <time>2010-01-01T00:32:27Z</time>
      </trkpt>
      <trkpt lat="42.12318" lon="2.38753">
        <ele>1338</ele>
        <time>2010-01-01T00:32:32Z</time>
      </trkpt>
      <trkpt lat="42.12315" lon="2.38753">
        <ele>1337</ele>
        <time>2010-01-01T00:32:34Z</time>
      </trkpt>
      <trkpt lat="42.12313" lon="2.38747">
        <ele>1339</ele>
        <time>2010-01-01T00:32:35Z</time>
      </trkpt>
      <trkpt lat="42.12298" lon="2.38749">
        <ele>1334</ele>
        <time>2010-01-01T00:32:41Z</time>
      </trkpt>
      <trkpt lat="42.12291" lon="2.38754">
        <ele>1328</ele>
        <time>2010-01-01T00:32:45Z</time>
      </trkpt>
      <trkpt lat="42.12287" lon="2.38752">
        <ele>1328</ele>
        <time>2010-01-01T00:32:46Z</time>
      </trkpt>
      <trkpt lat="42.12285" lon="2.38747">
        <ele>1330</ele>
        <time>2010-01-01T00:32:48Z</time>
      </trkpt>
      <trkpt lat="42.12274" lon="2.38746">
        <ele>1326</ele>
        <time>2010-01-01T00:32:52Z</time>
      </trkpt>
      <trkpt lat="42.12275" lon="2.38735">
        <ele>1334</ele>
        <time>2010-01-01T00:32:55Z</time>
      </trkpt>
      <trkpt lat="42.12278" lon="2.38724">
        <ele>1346</ele>
        <time>2010-01-01T00:32:59Z</time>
      </trkpt>
      <trkpt lat="42.12265" lon="2.38704">
        <ele>1348</ele>
        <time>2010-01-01T00:33:07Z</time>
      </trkpt>
      <trkpt lat="42.12261" lon="2.38701">
        <ele>1348</ele>
        <time>2010-01-01T00:33:09Z</time>
      </trkpt>
      <trkpt lat="42.12258" lon="2.38697">
        <ele>1348</ele>
        <time>2010-01-01T00:33:10Z</time>
      </trkpt>
      <trkpt lat="42.12246" lon="2.38692">
        <ele>1341</ele>
        <time>2010-01-01T00:33:15Z</time>
      </trkpt>
      <trkpt lat="42.12246" lon="2.38687">
        <ele>1341</ele>
        <time>2010-01-01T00:33:17Z</time>
      </trkpt>
      <trkpt lat="42.12242" lon="2.38689">
        <ele>1337</ele>
        <time>2010-01-01T00:33:19Z</time>
      </trkpt>
      <trkpt lat="42.12242" lon="2.38693">
        <ele>1337</ele>
        <time>2010-01-01T00:33:20Z</time>
      </trkpt>
      <trkpt lat="42.12251" lon="2.38699">
        <ele>1343</ele>
        <time>2010-01-01T00:33:23Z</time>
      </trkpt>
      <trkpt lat="42.12253" lon="2.38703">
        <ele>1343</ele>
        <time>2010-01-01T00:33:25Z</time>
      </trkpt>
      <trkpt lat="42.12249" lon="2.38702">
        <ele>1341</ele>
        <time>2010-01-01T00:33:26Z</time>
      </trkpt>
      <trkpt lat="42.12257" lon="2.38702">
        <ele>1345</ele>
        <time>2010-01-01T00:33:29Z</time>
      </trkpt>
      <trkpt lat="42.12253" lon="2.38705">
        <ele>1342</ele>
        <time>2010-01-01T00:33:31Z</time>
      </trkpt>
      <trkpt lat="42.12255" lon="2.38697">
        <ele>1346</ele>
        <time>2010-01-01T00:33:33Z</time>
      </trkpt>
      <trkpt lat="42.12253" lon="2.38704">
        <ele>1342</ele>
        <time>2010-01-01T00:33:35Z</time>
      </trkpt>
      <trkpt lat="42.12251" lon="2.387">
        <ele>1343</ele>
        <time>2010-01-01T00:33:37Z</time>
      </trkpt>
      <trkpt lat="42.12246" lon="2.38697">
        <ele>1340</ele>
        <time>2010-01-01T00:33:39Z</time>
      </trkpt>
      <trkpt lat="42.12255" lon="2.38705">
        <ele>1343</ele>
        <time>2010-01-01T00:33:43Z</time>
      </trkpt>
      <trkpt lat="42.12252" lon="2.38707">
        <ele>1340</ele>
        <time>2010-01-01T00:33:45Z</time>
      </trkpt>
      <trkpt lat="42.12251" lon="2.38703">
        <ele>1342</ele>
        <time>2010-01-01T00:33:46Z</time>
      </trkpt>
      <trkpt lat="42.12254" lon="2.38698">
        <ele>1345</ele>
        <time>2010-01-01T00:33:48Z</time>
      </trkpt>
      <trkpt lat="42.12248" lon="2.38693">
        <ele>1343</ele>
        <time>2010-01-01T00:33:51Z</time>
      </trkpt>
      <trkpt lat="42.12251" lon="2.38697">
        <ele>1344</ele>
        <time>2010-01-01T00:33:53Z</time>
      </trkpt>
      <trkpt lat="42.12247" lon="2.38697">
        <ele>1340</ele>
        <time>2010-01-01T00:33:54Z</time>
      </trkpt>
      <trkpt lat="42.12253" lon="2.38704">
        <ele>1342</ele>
        <time>2010-01-01T00:33:57Z</time>
      </trkpt>
      <trkpt lat="42.12256" lon="2.38704">
        <ele>1344</ele>
        <time>2010-01-01T00:33:59Z</time>
      </trkpt>
      <trkpt lat="42.12252" lon="2.38698">
        <ele>1344</ele>
        <time>2010-01-01T00:34:01Z</time>
      </trkpt>
      <trkpt lat="42.12253" lon="2.38703">
        <ele>1343</ele>
        <time>2010-01-01T00:34:03Z</time>
      </trkpt>
      <trkpt lat="42.12252" lon="2.38698">
        <ele>1344</ele>
        <time>2010-01-01T00:34:04Z</time>
      </trkpt>
      <trkpt lat="42.12253" lon="2.38703">
        <ele>1343</ele>
        <time>2010-01-01T00:34:06Z</time>
      </trkpt>
      <trkpt lat="42.1225" lon="2.38701">
        <ele>1342</ele>
        <time>2010-01-01T00:34:07Z</time>
      </trkpt>
      <trkpt lat="42.12248" lon="2.38697">
        <ele>1342</ele>
        <time>2010-01-01T00:34:09Z</time>
      </trkpt>
      <trkpt lat="42.1225" lon="2.38693">
        <ele>1345</ele>
        <time>2010-01-01T00:34:10Z</time>
      </trkpt>
      <trkpt lat="42.1225" lon="2.38697">
        <ele>1343</ele>
        <time>2010-01-01T00:34:12Z</time>
      </trkpt>
      <trkpt lat="42.12254" lon="2.38698">
        <ele>1345</ele>
        <time>2010-01-01T00:34:13Z</time>
      </trkpt>
      <trkpt lat="42.12252" lon="2.38702">
        <ele>1342</ele>
        <time>2010-01-01T00:34:15Z</time>
      </trkpt>
      <trkpt lat="42.12254" lon="2.38699">
        <ele>1345</ele>
        <time>2010-01-01T00:34:16Z</time>
      </trkpt>
      <trkpt lat="42.12251" lon="2.38696">
        <ele>1344</ele>
        <time>2010-01-01T00:34:18Z</time>
      </trkpt>
      <trkpt lat="42.12248" lon="2.38701">
        <ele>1340</ele>
        <time>2010-01-01T00:34:19Z</time>
      </trkpt>
      <trkpt lat="42.12248" lon="2.38697">
        <ele>1341</ele>
        <time>2010-01-01T00:34:20Z</time>
      </trkpt>
      <trkpt lat="42.12248" lon="2.38705">
        <ele>1339</ele>
        <time>2010-01-01T00:34:23Z</time>
      </trkpt>
      <trkpt lat="42.12249" lon="2.38705">
        <ele>1339</ele>
        <time>2010-01-01T00:34:23Z</time>
      </trkpt>
      <trkpt lat="42.1225" lon="2.38701">
        <ele>1342</ele>
        <time>2010-01-01T00:34:24Z</time>
      </trkpt>
      <trkpt lat="42.12251" lon="2.38706">
        <ele>1340</ele>
        <time>2010-01-01T00:34:26Z</time>
      </trkpt>
      <trkpt lat="42.12248" lon="2.38703">
        <ele>1340</ele>
        <time>2010-01-01T00:34:28Z</time>
      </trkpt>
      <trkpt lat="42.1225" lon="2.38699">
        <ele>1343</ele>
        <time>2010-01-01T00:34:29Z</time>
      </trkpt>
      <trkpt lat="42.1225" lon="2.38704">
        <ele>1340</ele>
        <time>2010-01-01T00:34:31Z</time>
      </trkpt>
      <trkpt lat="42.12251" lon="2.38703">
        <ele>1342</ele>
        <time>2010-01-01T00:34:31Z</time>
      </trkpt>
      <trkpt lat="42.1225" lon="2.38705">
        <ele>1340</ele>
        <time>2010-01-01T00:34:32Z</time>
      </trkpt>
      <trkpt lat="42.12246" lon="2.38701">
        <ele>1339</ele>
        <time>2010-01-01T00:34:34Z</time>
      </trkpt>
      <trkpt lat="42.12247" lon="2.38696">
        <ele>1341</ele>
        <time>2010-01-01T00:34:35Z</time>
      </trkpt>
      <trkpt lat="42.12248" lon="2.38701">
        <ele>1340</ele>
        <time>2010-01-01T00:34:37Z</time>
      </trkpt>
      <trkpt lat="42.12253" lon="2.38694">
        <ele>1346</ele>
        <time>2010-01-01T00:34:40Z</time>
      </trkpt>
      <trkpt lat="42.12253" lon="2.38689">
        <ele>1347</ele>
        <time>2010-01-01T00:34:41Z</time>
      </trkpt>
      <trkpt lat="42.1225" lon="2.38693">
        <ele>1344</ele>
        <time>2010-01-01T00:34:43Z</time>
      </trkpt>
      <trkpt lat="42.12246" lon="2.38684">
        <ele>1341</ele>
        <time>2010-01-01T00:34:46Z</time>
      </trkpt>
      <trkpt lat="42.12229" lon="2.3869">
        <ele>1324</ele>
        <time>2010-01-01T00:34:53Z</time>
      </trkpt>
      <trkpt lat="42.12209" lon="2.38692">
        <ele>1302</ele>
        <time>2010-01-01T00:35:01Z</time>
      </trkpt>
      <trkpt lat="42.12205" lon="2.3869">
        <ele>1299</ele>
        <time>2010-01-01T00:35:03Z</time>
      </trkpt>
      <trkpt lat="42.12203" lon="2.38686">
        <ele>1298</ele>
        <time>2010-01-01T00:35:04Z</time>
      </trkpt>
      <trkpt lat="42.12199" lon="2.38684">
        <ele>1294</ele>
        <time>2010-01-01T00:35:06Z</time>
      </trkpt>
      <trkpt lat="42.12199" lon="2.38678">
        <ele>1295</ele>
        <time>2010-01-01T00:35:08Z</time>
      </trkpt>
      <trkpt lat="42.12201" lon="2.38668">
        <ele>1301</ele>
        <time>2010-01-01T00:35:11Z</time>
      </trkpt>
      <trkpt lat="42.12211" lon="2.38634">
        <ele>1321</ele>
        <time>2010-01-01T00:35:22Z</time>
      </trkpt>
      <trkpt lat="42.12209" lon="2.38623">
        <ele>1320</ele>
        <time>2010-01-01T00:35:25Z</time>
      </trkpt>
      <trkpt lat="42.12217" lon="2.38611">
        <ele>1327</ele>
        <time>2010-01-01T00:35:30Z</time>
      </trkpt>
      <trkpt lat="42.12223" lon="2.38606">
        <ele>1329</ele>
        <time>2010-01-01T00:35:33Z</time>
      </trkpt>
      <trkpt lat="42.12224" lon="2.386">
        <ele>1327</ele>
        <time>2010-01-01T00:35:34Z</time>
      </trkpt>
      <trkpt lat="42.12236" lon="2.38589">
        <ele>1333</ele>
        <time>2010-01-01T00:35:40Z</time>
      </trkpt>
      <trkpt lat="42.12238" lon="2.38584">
        <ele>1334</ele>
        <time>2010-01-01T00:35:42Z</time>
      </trkpt>
      <trkpt lat="42.12241" lon="2.38563">
        <ele>1327</ele>
        <time>2010-01-01T00:35:48Z</time>
      </trkpt>
      <trkpt lat="42.12239" lon="2.38558">
        <ele>1323</ele>
        <time>2010-01-01T00:35:50Z</time>
      </trkpt>
      <trkpt lat="42.12236" lon="2.38563">
        <ele>1322</ele>
        <time>2010-01-01T00:35:52Z</time>
      </trkpt>
      <trkpt lat="42.1224" lon="2.38563">
        <ele>1325</ele>
        <time>2010-01-01T00:35:53Z</time>
      </trkpt>
      <trkpt lat="42.1224" lon="2.38558">
        <ele>1323</ele>
        <time>2010-01-01T00:35:55Z</time>
      </trkpt>
      <trkpt lat="42.12245" lon="2.3855">
        <ele>1325</ele>
        <time>2010-01-01T00:35:58Z</time>
      </trkpt>
      <trkpt lat="42.12244" lon="2.38545">
        <ele>1324</ele>
        <time>2010-01-01T00:35:59Z</time>
      </trkpt>
      <trkpt lat="42.12247" lon="2.3854">
        <ele>1326</ele>
        <time>2010-01-01T00:36:01Z</time>
      </trkpt>
      <trkpt lat="42.12245" lon="2.38535">
        <ele>1324</ele>
        <time>2010-01-01T00:36:03Z</time>
      </trkpt>
      <trkpt lat="42.12248" lon="2.38525">
        <ele>1325</ele>
        <time>2010-01-01T00:36:06Z</time>
      </trkpt>
      <trkpt lat="42.12252" lon="2.38522">
        <ele>1327</ele>
        <time>2010-01-01T00:36:08Z</time>
      </trkpt>
      <trkpt lat="42.12259" lon="2.3852">
        <ele>1331</ele>
        <time>2010-01-01T00:36:11Z</time>
      </trkpt>
      <trkpt lat="42.1227" lon="2.38512">
        <ele>1334</ele>
        <time>2010-01-01T00:36:15Z</time>
      </trkpt>
      <trkpt lat="42.12272" lon="2.38507">
        <ele>1333</ele>
        <time>2010-01-01T00:36:17Z</time>
      </trkpt>
      <trkpt lat="42.12277" lon="2.38505">
        <ele>1333</ele>
        <time>2010-01-01T00:36:19Z</time>
      </trkpt>
      <trkpt lat="42.12283" lon="2.38491">
        <ele>1326</ele>
        <time>2010-01-01T00:36:24Z</time>
      </trkpt>
      <trkpt lat="42.12286" lon="2.38488">
        <ele>1324</ele>
        <time>2010-01-01T00:36:25Z</time>
      </trkpt>
      <trkpt lat="42.12287" lon="2.38483">
        <ele>1322</ele>
        <time>2010-01-01T00:36:27Z</time>
      </trkpt>
      <trkpt lat="42.12294" lon="2.38478">
        <ele>1320</ele>
        <time>2010-01-01T00:36:30Z</time>
      </trkpt>
      <trkpt lat="42.12299" lon="2.3847">
        <ele>1317</ele>
        <time>2010-01-01T00:36:33Z</time>
      </trkpt>
      <trkpt lat="42.12312" lon="2.38459">
        <ele>1318</ele>
        <time>2010-01-01T00:36:39Z</time>
      </trkpt>
      <trkpt lat="42.12316" lon="2.38459">
        <ele>1319</ele>
        <time>2010-01-01T00:36:41Z</time>
      </trkpt>
      <trkpt lat="42.12322" lon="2.38462">
        <ele>1324</ele>
        <time>2010-01-01T00:36:44Z</time>
      </trkpt>
      <trkpt lat="42.1233" lon="2.38463">
        <ele>1328</ele>
        <time>2010-01-01T00:36:47Z</time>
      </trkpt>
      <trkpt lat="42.12338" lon="2.38461">
        <ele>1334</ele>
        <time>2010-01-01T00:36:50Z</time>
      </trkpt>
      <trkpt lat="42.12342" lon="2.38462">
        <ele>1339</ele>
        <time>2010-01-01T00:36:52Z</time>
      </trkpt>
      <trkpt lat="42.12346" lon="2.38466">
        <ele>1347</ele>
        <time>2010-01-01T00:36:53Z</time>
      </trkpt>
      <trkpt lat="42.12354" lon="2.38468">
        <ele>1359</ele>
        <time>2010-01-01T00:36:57Z</time>
      </trkpt>
      <trkpt lat="42.12362" lon="2.38468">
        <ele>1369</ele>
        <time>2010-01-01T00:37:00Z</time>
      </trkpt>
      <trkpt lat="42.12369" lon="2.38465">
        <ele>1375</ele>
        <time>2010-01-01T00:37:03Z</time>
      </trkpt>
      <trkpt lat="42.12376" lon="2.38459">
        <ele>1377</ele>
        <time>2010-01-01T00:37:06Z</time>
      </trkpt>
      <trkpt lat="42.12379" lon="2.3846">
        <ele>1381</ele>
        <time>2010-01-01T00:37:08Z</time>
      </trkpt>
      <trkpt lat="42.12382" lon="2.38456">
        <ele>1380</ele>
        <time>2010-01-01T00:37:09Z</time>
      </trkpt>
      <trkpt lat="42.12385" lon="2.38455">
        <ele>1382</ele>
        <time>2010-01-01T00:37:10Z</time>
      </trkpt>
      <trkpt lat="42.12389" lon="2.38456">
        <ele>1387</ele>
        <time>2010-01-01T00:37:12Z</time>
      </trkpt>
      <trkpt lat="42.12389" lon="2.38451">
        <ele>1382</ele>
        <time>2010-01-01T00:37:13Z</time>
      </trkpt>
      <trkpt lat="42.12396" lon="2.38451">
        <ele>1387</ele>
        <time>2010-01-01T00:37:16Z</time>
      </trkpt>
      <trkpt lat="42.12398" lon="2.38447">
        <ele>1384</ele>
        <time>2010-01-01T00:37:18Z</time>
      </trkpt>
      <trkpt lat="42.12402" lon="2.38445">
        <ele>1384</ele>
        <time>2010-01-01T00:37:19Z</time>
      </trkpt>
      <trkpt lat="42.12406" lon="2.38446">
        <ele>1388</ele>
        <time>2010-01-01T00:37:21Z</time>
      </trkpt>
      <trkpt lat="42.12407" lon="2.38429">
        <ele>1377</ele>
        <time>2010-01-01T00:37:26Z</time>
      </trkpt>
      <trkpt lat="42.1241" lon="2.38425">
        <ele>1375</ele>
        <time>2010-01-01T00:37:27Z</time>
      </trkpt>
      <trkpt lat="42.12421" lon="2.38425">
        <ele>1383</ele>
        <time>2010-01-01T00:37:32Z</time>
      </trkpt>
      <trkpt lat="42.12425" lon="2.38422">
        <ele>1384</ele>
        <time>2010-01-01T00:37:34Z</time>
      </trkpt>
      <trkpt lat="42.12432" lon="2.38415">
        <ele>1385</ele>
        <time>2010-01-01T00:37:37Z</time>
      </trkpt>
      <trkpt lat="42.12433" lon="2.3841">
        <ele>1384</ele>
        <time>2010-01-01T00:37:39Z</time>
      </trkpt>
      <trkpt lat="42.1245" lon="2.38397">
        <ele>1394</ele>
        <time>2010-01-01T00:37:47Z</time>
      </trkpt>
      <trkpt lat="42.12455" lon="2.38389">
        <ele>1394</ele>
        <time>2010-01-01T00:37:50Z</time>
      </trkpt>
      <trkpt lat="42.12475" lon="2.38377">
        <ele>1406</ele>
        <time>2010-01-01T00:37:59Z</time>
      </trkpt>
      <trkpt lat="42.12482" lon="2.38382">
        <ele>1411</ele>
        <time>2010-01-01T00:38:02Z</time>
      </trkpt>
      <trkpt lat="42.12487" lon="2.38374">
        <ele>1413</ele>
        <time>2010-01-01T00:38:05Z</time>
      </trkpt>
      <trkpt lat="42.1249" lon="2.38371">
        <ele>1415</ele>
        <time>2010-01-01T00:38:06Z</time>
      </trkpt>
      <trkpt lat="42.12495" lon="2.38369">
        <ele>1417</ele>
        <time>2010-01-01T00:38:08Z</time>
      </trkpt>
      <trkpt lat="42.12498" lon="2.3836">
        <ele>1418</ele>
        <time>2010-01-01T00:38:11Z</time>
      </trkpt>
      <trkpt lat="42.12502" lon="2.38357">
        <ele>1420</ele>
        <time>2010-01-01T00:38:13Z</time>
      </trkpt>
      <trkpt lat="42.12508" lon="2.38343">
        <ele>1422</ele>
        <time>2010-01-01T00:38:18Z</time>
      </trkpt>
      <trkpt lat="42.12512" lon="2.38341">
        <ele>1423</ele>
        <time>2010-01-01T00:38:20Z</time>
      </trkpt>
      <trkpt lat="42.12516" lon="2.38341">
        <ele>1425</ele>
        <time>2010-01-01T00:38:21Z</time>
      </trkpt>
      <trkpt lat="42.12523" lon="2.38336">
        <ele>1427</ele>
        <time>2010-01-01T00:38:24Z</time>
      </trkpt>
      <trkpt lat="42.12531" lon="2.38338">
        <ele>1430</ele>
        <time>2010-01-01T00:38:28Z</time>
      </trkpt>
      <trkpt lat="42.12545" lon="2.38329">
        <ele>1433</ele>
        <time>2010-01-01T00:38:34Z</time>
      </trkpt>
      <trkpt lat="42.12551" lon="2.38322">
        <ele>1433</ele>
        <time>2010-01-01T00:38:37Z</time>
      </trkpt>
      <trkpt lat="42.12551" lon="2.38327">
        <ele>1434</ele>
        <time>2010-01-01T00:38:39Z</time>
      </trkpt>
      <trkpt lat="42.12548" lon="2.38327">
        <ele>1433</ele>
        <time>2010-01-01T00:38:40Z</time>
      </trkpt>
      <trkpt lat="42.12547" lon="2.38321">
        <ele>1433</ele>
        <time>2010-01-01T00:38:42Z</time>
      </trkpt>
      <trkpt lat="42.12544" lon="2.3832">
        <ele>1432</ele>
        <time>2010-01-01T00:38:43Z</time>
      </trkpt>
      <trkpt lat="42.1254" lon="2.38321">
        <ele>1431</ele>
        <time>2010-01-01T00:38:45Z</time>
      </trkpt>
      <trkpt lat="42.12539" lon="2.38331">
        <ele>1431</ele>
        <time>2010-01-01T00:38:48Z</time>
      </trkpt>
      <trkpt lat="42.12541" lon="2.38335">
        <ele>1432</ele>
        <time>2010-01-01T00:38:49Z</time>
      </trkpt>
      <trkpt lat="42.12544" lon="2.38333">
        <ele>1433</ele>
        <time>2010-01-01T00:38:51Z</time>
      </trkpt>
      <trkpt lat="42.12544" lon="2.38323">
        <ele>1432</ele>
        <time>2010-01-01T00:38:53Z</time>
      </trkpt>
      <trkpt lat="42.12547" lon="2.38321">
        <ele>1433</ele>
        <time>2010-01-01T00:38:55Z</time>
      </trkpt>
      <trkpt lat="42.12539" lon="2.38322">
        <ele>1431</ele>
        <time>2010-01-01T00:38:58Z</time>
      </trkpt>
      <trkpt lat="42.12535" lon="2.38321">
        <ele>1430</ele>
        <time>2010-01-01T00:39:00Z</time>
      </trkpt>
      <trkpt lat="42.12525" lon="2.38309">
        <ele>1429</ele>
        <time>2010-01-01T00:39:05Z</time>
      </trkpt>
      <trkpt lat="42.12444" lon="2.38029">
        <ele>1427</ele>
        <time>2010-01-01T00:40:34Z</time>
      </trkpt>
      <trkpt lat="42.12446" lon="2.38015">
        <ele>1426</ele>
        <time>2010-01-01T00:40:38Z</time>
      </trkpt>
      <trkpt lat="42.1244" lon="2.38014">
        <ele>1427</ele>
        <time>2010-01-01T00:40:41Z</time>
      </trkpt>
      <trkpt lat="42.12437" lon="2.38015">
        <ele>1427</ele>
        <time>2010-01-01T00:40:42Z</time>
      </trkpt>
      <trkpt lat="42.12424" lon="2.38006">
        <ele>1428</ele>
        <time>2010-01-01T00:40:48Z</time>
      </trkpt>
      <trkpt lat="42.1242" lon="2.38002">
        <ele>1428</ele>
        <time>2010-01-01T00:40:50Z</time>
      </trkpt>
      <trkpt lat="42.12418" lon="2.37997">
        <ele>1426</ele>
        <time>2010-01-01T00:40:52Z</time>
      </trkpt>
      <trkpt lat="42.12407" lon="2.37987">
        <ele>1423</ele>
        <time>2010-01-01T00:40:57Z</time>
      </trkpt>
      <trkpt lat="42.12397" lon="2.37984">
        <ele>1422</ele>
        <time>2010-01-01T00:41:01Z</time>
      </trkpt>
      <trkpt lat="42.12373" lon="2.37972">
        <ele>1421</ele>
        <time>2010-01-01T00:41:12Z</time>
      </trkpt>
      <trkpt lat="42.12349" lon="2.37937">
        <ele>1419</ele>
        <time>2010-01-01T00:41:26Z</time>
      </trkpt>
      <trkpt lat="42.12338" lon="2.37924">
        <ele>1418</ele>
        <time>2010-01-01T00:41:31Z</time>
      </trkpt>
      <trkpt lat="42.12335" lon="2.37923">
        <ele>1419</ele>
        <time>2010-01-01T00:41:33Z</time>
      </trkpt>
      <trkpt lat="42.12325" lon="2.37913">
        <ele>1417</ele>
        <time>2010-01-01T00:41:38Z</time>
      </trkpt>
      <trkpt lat="42.12312" lon="2.37918">
        <ele>1418</ele>
        <time>2010-01-01T00:41:43Z</time>
      </trkpt>
      <trkpt lat="42.12282" lon="2.37944">
        <ele>1419</ele>
        <time>2010-01-01T00:41:58Z</time>
      </trkpt>
      <trkpt lat="42.1226" lon="2.37945">
        <ele>1415</ele>
        <time>2010-01-01T00:42:06Z</time>
      </trkpt>
      <trkpt lat="42.12241" lon="2.37934">
        <ele>1413</ele>
        <time>2010-01-01T00:42:14Z</time>
      </trkpt>
      <trkpt lat="42.12224" lon="2.3792">
        <ele>1414</ele>
        <time>2010-01-01T00:42:22Z</time>
      </trkpt>
      <trkpt lat="42.12221" lon="2.37915">
        <ele>1414</ele>
        <time>2010-01-01T00:42:24Z</time>
      </trkpt>
      <trkpt lat="42.122" lon="2.37901">
        <ele>1414</ele>
        <time>2010-01-01T00:42:34Z</time>
      </trkpt>
      <trkpt lat="42.12183" lon="2.37883">
        <ele>1414</ele>
        <time>2010-01-01T00:42:43Z</time>
      </trkpt>
      <trkpt lat="42.12162" lon="2.37866">
        <ele>1416</ele>
        <time>2010-01-01T00:42:52Z</time>
      </trkpt>
      <trkpt lat="42.12149" lon="2.37841">
        <ele>1420</ele>
        <time>2010-01-01T00:43:02Z</time>
      </trkpt>
      <trkpt lat="42.12143" lon="2.37814">
        <ele>1421</ele>
        <time>2010-01-01T00:43:10Z</time>
      </trkpt>
      <trkpt lat="42.12142" lon="2.37776">
        <ele>1425</ele>
        <time>2010-01-01T00:43:21Z</time>
      </trkpt>
      <trkpt lat="42.12139" lon="2.37767">
        <ele>1425</ele>
        <time>2010-01-01T00:43:24Z</time>
      </trkpt>
      <trkpt lat="42.12128" lon="2.37741">
        <ele>1424</ele>
        <time>2010-01-01T00:43:33Z</time>
      </trkpt>
      <trkpt lat="42.12122" lon="2.3774">
        <ele>1425</ele>
        <time>2010-01-01T00:43:35Z</time>
      </trkpt>
      <trkpt lat="42.12094" lon="2.37709">
        <ele>1419</ele>
        <time>2010-01-01T00:43:50Z</time>
      </trkpt>
      <trkpt lat="42.12074" lon="2.37699">
        <ele>1417</ele>
        <time>2010-01-01T00:43:58Z</time>
      </trkpt>
      <trkpt lat="42.12035" lon="2.37693">
        <ele>1420</ele>
        <time>2010-01-01T00:44:14Z</time>
      </trkpt>
      <trkpt lat="42.12023" lon="2.37683">
        <ele>1422</ele>
        <time>2010-01-01T00:44:20Z</time>
      </trkpt>
      <trkpt lat="42.12008" lon="2.37676">
        <ele>1426</ele>
        <time>2010-01-01T00:44:26Z</time>
      </trkpt>
      <trkpt lat="42.11995" lon="2.37669">
        <ele>1427</ele>
        <time>2010-01-01T00:44:31Z</time>
      </trkpt>
      <trkpt lat="42.1198" lon="2.37652">
        <ele>1426</ele>
        <time>2010-01-01T00:44:39Z</time>
      </trkpt>
      <trkpt lat="42.11982" lon="2.37605">
        <ele>1428</ele>
        <time>2010-01-01T00:44:53Z</time>
      </trkpt>
      <trkpt lat="42.11981" lon="2.3758">
        <ele>1430</ele>
        <time>2010-01-01T00:45:01Z</time>
      </trkpt>
      <trkpt lat="42.11974" lon="2.37567">
        <ele>1431</ele>
        <time>2010-01-01T00:45:05Z</time>
      </trkpt>
      <trkpt lat="42.1197" lon="2.3754">
        <ele>1429</ele>
        <time>2010-01-01T00:45:14Z</time>
      </trkpt>
      <trkpt lat="42.1197" lon="2.37519">
        <ele>1426</ele>
        <time>2010-01-01T00:45:20Z</time>
      </trkpt>
      <trkpt lat="42.11969" lon="2.37507">
        <ele>1424</ele>
        <time>2010-01-01T00:45:23Z</time>
      </trkpt>
      <trkpt lat="42.11961" lon="2.37501">
        <ele>1424</ele>
        <time>2010-01-01T00:45:27Z</time>
      </trkpt>
      <trkpt lat="42.11943" lon="2.37497">
        <ele>1424</ele>
        <time>2010-01-01T00:45:34Z</time>
      </trkpt>
      <trkpt lat="42.11915" lon="2.37514">
        <ele>1421</ele>
        <time>2010-01-01T00:45:46Z</time>
      </trkpt>
      <trkpt lat="42.11909" lon="2.37523">
        <ele>1420</ele>
        <time>2010-01-01T00:45:50Z</time>
      </trkpt>
      <trkpt lat="42.11897" lon="2.37525">
        <ele>1418</ele>
        <time>2010-01-01T00:45:55Z</time>
      </trkpt>
      <trkpt lat="42.11891" lon="2.3753">
        <ele>1417</ele>
        <time>2010-01-01T00:45:58Z</time>
      </trkpt>
      <trkpt lat="42.11877" lon="2.37537">
        <ele>1415</ele>
        <time>2010-01-01T00:46:04Z</time>
      </trkpt>
      <trkpt lat="42.11873" lon="2.37543">
        <ele>1414</ele>
        <time>2010-01-01T00:46:06Z</time>
      </trkpt>
      <trkpt lat="42.11864" lon="2.37546">
        <ele>1413</ele>
        <time>2010-01-01T00:46:10Z</time>
      </trkpt>
      <trkpt lat="42.11851" lon="2.37547">
        <ele>1409</ele>
        <time>2010-01-01T00:46:15Z</time>
      </trkpt>
      <trkpt lat="42.11845" lon="2.37539">
        <ele>1408</ele>
        <time>2010-01-01T00:46:18Z</time>
      </trkpt>
      <trkpt lat="42.11833" lon="2.37508">
        <ele>1405</ele>
        <time>2010-01-01T00:46:29Z</time>
      </trkpt>
      <trkpt lat="42.11827" lon="2.37498">
        <ele>1405</ele>
        <time>2010-01-01T00:46:33Z</time>
      </trkpt>
      <trkpt lat="42.1182" lon="2.37491">
        <ele>1405</ele>
        <time>2010-01-01T00:46:36Z</time>
      </trkpt>
      <trkpt lat="42.11806" lon="2.37484">
        <ele>1406</ele>
        <time>2010-01-01T00:46:42Z</time>
      </trkpt>
      <trkpt lat="42.11801" lon="2.37476">
        <ele>1407</ele>
        <time>2010-01-01T00:46:45Z</time>
      </trkpt>
      <trkpt lat="42.11791" lon="2.37443">
        <ele>1409</ele>
        <time>2010-01-01T00:46:56Z</time>
      </trkpt>
      <trkpt lat="42.11772" lon="2.37426">
        <ele>1414</ele>
        <time>2010-01-01T00:47:05Z</time>
      </trkpt>
      <trkpt lat="42.11763" lon="2.37411">
        <ele>1417</ele>
        <time>2010-01-01T00:47:11Z</time>
      </trkpt>
      <trkpt lat="42.11751" lon="2.37386">
        <ele>1420</ele>
        <time>2010-01-01T00:47:20Z</time>
      </trkpt>
      <trkpt lat="42.11752" lon="2.37373">
        <ele>1417</ele>
        <time>2010-01-01T00:47:24Z</time>
      </trkpt>
      <trkpt lat="42.11747" lon="2.37366">
        <ele>1418</ele>
        <time>2010-01-01T00:47:27Z</time>
      </trkpt>
      <trkpt lat="42.11737" lon="2.37362">
        <ele>1422</ele>
        <time>2010-01-01T00:47:31Z</time>
      </trkpt>
      <trkpt lat="42.1173" lon="2.37365">
        <ele>1426</ele>
        <time>2010-01-01T00:47:34Z</time>
      </trkpt>
      <trkpt lat="42.11727" lon="2.37369">
        <ele>1427</ele>
        <time>2010-01-01T00:47:35Z</time>
      </trkpt>
      <trkpt lat="42.11721" lon="2.37373">
        <ele>1430</ele>
        <time>2010-01-01T00:47:38Z</time>
      </trkpt>
      <trkpt lat="42.11723" lon="2.37377">
        <ele>1429</ele>
        <time>2010-01-01T00:47:39Z</time>
      </trkpt>
      <trkpt lat="42.11725" lon="2.37375">
        <ele>1428</ele>
        <time>2010-01-01T00:47:40Z</time>
      </trkpt>
      <trkpt lat="42.11718" lon="2.37384">
        <ele>1432</ele>
        <time>2010-01-01T00:47:45Z</time>
      </trkpt>
      <trkpt lat="42.11705" lon="2.37392">
        <ele>1438</ele>
        <time>2010-01-01T00:47:50Z</time>
      </trkpt>
      <trkpt lat="42.11693" lon="2.37386">
        <ele>1444</ele>
        <time>2010-01-01T00:47:55Z</time>
      </trkpt>
      <trkpt lat="42.11687" lon="2.37384">
        <ele>1443</ele>
        <time>2010-01-01T00:47:58Z</time>
      </trkpt>
      <trkpt lat="42.11685" lon="2.37387">
        <ele>1443</ele>
        <time>2010-01-01T00:47:59Z</time>
      </trkpt>
      <trkpt lat="42.11683" lon="2.37384">
        <ele>1443</ele>
        <time>2010-01-01T00:48:00Z</time>
      </trkpt>
      <trkpt lat="42.11671" lon="2.37389">
        <ele>1441</ele>
        <time>2010-01-01T00:48:05Z</time>
      </trkpt>
      <trkpt lat="42.11667" lon="2.37388">
        <ele>1441</ele>
        <time>2010-01-01T00:48:06Z</time>
      </trkpt>
      <trkpt lat="42.11665" lon="2.37392">
        <ele>1440</ele>
        <time>2010-01-01T00:48:08Z</time>
      </trkpt>
      <trkpt lat="42.1166" lon="2.37389">
        <ele>1438</ele>
        <time>2010-01-01T00:48:10Z</time>
      </trkpt>
      <trkpt lat="42.11659" lon="2.37395">
        <ele>1437</ele>
        <time>2010-01-01T00:48:12Z</time>
      </trkpt>
      <trkpt lat="42.11659" lon="2.37389">
        <ele>1437</ele>
        <time>2010-01-01T00:48:14Z</time>
      </trkpt>
      <trkpt lat="42.11658" lon="2.37389">
        <ele>1436</ele>
        <time>2010-01-01T00:48:14Z</time>
      </trkpt>
      <trkpt lat="42.11659" lon="2.3739">
        <ele>1437</ele>
        <time>2010-01-01T00:48:15Z</time>
      </trkpt>
      <trkpt lat="42.11659" lon="2.37384">
        <ele>1438</ele>
        <time>2010-01-01T00:48:17Z</time>
      </trkpt>
      <trkpt lat="42.11655" lon="2.37384">
        <ele>1436</ele>
        <time>2010-01-01T00:48:18Z</time>
      </trkpt>
      <trkpt lat="42.11649" lon="2.37376">
        <ele>1434</ele>
        <time>2010-01-01T00:48:22Z</time>
      </trkpt>
      <trkpt lat="42.1165" lon="2.37366">
        <ele>1435</ele>
        <time>2010-01-01T00:48:25Z</time>
      </trkpt>
      <trkpt lat="42.11647" lon="2.37361">
        <ele>1435</ele>
        <time>2010-01-01T00:48:26Z</time>
      </trkpt>
      <trkpt lat="42.1165" lon="2.37357">
        <ele>1435</ele>
        <time>2010-01-01T00:48:28Z</time>
      </trkpt>
      <trkpt lat="42.11648" lon="2.37355">
        <ele>1434</ele>
        <time>2010-01-01T00:48:29Z</time>
      </trkpt>
      <trkpt lat="42.11645" lon="2.37355">
        <ele>1432</ele>
        <time>2010-01-01T00:48:30Z</time>
      </trkpt>
      <trkpt lat="42.11644" lon="2.3735">
        <ele>1431</ele>
        <time>2010-01-01T00:48:32Z</time>
      </trkpt>
      <trkpt lat="42.1164" lon="2.37351">
        <ele>1429</ele>
        <time>2010-01-01T00:48:33Z</time>
      </trkpt>
      <trkpt lat="42.11642" lon="2.37348">
        <ele>1429</ele>
        <time>2010-01-01T00:48:34Z</time>
      </trkpt>
      <trkpt lat="42.11641" lon="2.37335">
        <ele>1427</ele>
        <time>2010-01-01T00:48:38Z</time>
      </trkpt>
      <trkpt lat="42.11638" lon="2.37333">
        <ele>1425</ele>
        <time>2010-01-01T00:48:40Z</time>
      </trkpt>
      <trkpt lat="42.11624" lon="2.37336">
        <ele>1420</ele>
        <time>2010-01-01T00:48:45Z</time>
      </trkpt>
      <trkpt lat="42.11619" lon="2.37332">
        <ele>1417</ele>
        <time>2010-01-01T00:48:48Z</time>
      </trkpt>
      <trkpt lat="42.11612" lon="2.37332">
        <ele>1415</ele>
        <time>2010-01-01T00:48:50Z</time>
      </trkpt>
      <trkpt lat="42.11603" lon="2.37325">
        <ele>1408</ele>
        <time>2010-01-01T00:48:54Z</time>
      </trkpt>
      <trkpt lat="42.11594" lon="2.37324">
        <ele>1405</ele>
        <time>2010-01-01T00:48:58Z</time>
      </trkpt>
      <trkpt lat="42.11554" lon="2.37303">
        <ele>1376</ele>
        <time>2010-01-01T00:49:15Z</time>
      </trkpt>
      <trkpt lat="42.11558" lon="2.37304">
        <ele>1378</ele>
        <time>2010-01-01T00:49:16Z</time>
      </trkpt>
      <trkpt lat="42.11561" lon="2.37305">
        <ele>1381</ele>
        <time>2010-01-01T00:49:18Z</time>
      </trkpt>
      <trkpt lat="42.11559" lon="2.37306">
        <ele>1380</ele>
        <time>2010-01-01T00:49:19Z</time>
      </trkpt>
      <trkpt lat="42.11555" lon="2.37313">
        <ele>1377</ele>
        <time>2010-01-01T00:49:21Z</time>
      </trkpt>
      <trkpt lat="42.11557" lon="2.37322">
        <ele>1379</ele>
        <time>2010-01-01T00:49:24Z</time>
      </trkpt>
      <trkpt lat="42.11552" lon="2.37318">
        <ele>1375</ele>
        <time>2010-01-01T00:49:26Z</time>
      </trkpt>
      <trkpt lat="42.11552" lon="2.3732">
        <ele>1375</ele>
        <time>2010-01-01T00:49:27Z</time>
      </trkpt>
      <trkpt lat="42.11546" lon="2.37323">
        <ele>1372</ele>
        <time>2010-01-01T00:49:29Z</time>
      </trkpt>
      <trkpt lat="42.11542" lon="2.3733">
        <ele>1370</ele>
        <time>2010-01-01T00:49:32Z</time>
      </trkpt>
      <trkpt lat="42.11533" lon="2.37332">
        <ele>1363</ele>
        <time>2010-01-01T00:49:36Z</time>
      </trkpt>
      <trkpt lat="42.11535" lon="2.37326">
        <ele>1364</ele>
        <time>2010-01-01T00:49:38Z</time>
      </trkpt>
      <trkpt lat="42.11534" lon="2.37323">
        <ele>1364</ele>
        <time>2010-01-01T00:49:39Z</time>
      </trkpt>
      <trkpt lat="42.11528" lon="2.3732">
        <ele>1359</ele>
        <time>2010-01-01T00:49:41Z</time>
      </trkpt>
      <trkpt lat="42.11526" lon="2.37318">
        <ele>1358</ele>
        <time>2010-01-01T00:49:42Z</time>
      </trkpt>
      <trkpt lat="42.11522" lon="2.37318">
        <ele>1356</ele>
        <time>2010-01-01T00:49:44Z</time>
      </trkpt>
      <trkpt lat="42.11521" lon="2.37317">
        <ele>1355</ele>
        <time>2010-01-01T00:49:44Z</time>
      </trkpt>
      <trkpt lat="42.11519" lon="2.37323">
        <ele>1355</ele>
        <time>2010-01-01T00:49:46Z</time>
      </trkpt>
      <trkpt lat="42.11519" lon="2.37315">
        <ele>1354</ele>
        <time>2010-01-01T00:49:49Z</time>
      </trkpt>
      <trkpt lat="42.11519" lon="2.37321">
        <ele>1354</ele>
        <time>2010-01-01T00:49:50Z</time>
      </trkpt>
      <trkpt lat="42.11515" lon="2.37317">
        <ele>1352</ele>
        <time>2010-01-01T00:49:52Z</time>
      </trkpt>
      <trkpt lat="42.11512" lon="2.37319">
        <ele>1350</ele>
        <time>2010-01-01T00:49:53Z</time>
      </trkpt>
      <trkpt lat="42.11514" lon="2.3731">
        <ele>1351</ele>
        <time>2010-01-01T00:49:56Z</time>
      </trkpt>
      <trkpt lat="42.11512" lon="2.37314">
        <ele>1350</ele>
        <time>2010-01-01T00:49:57Z</time>
      </trkpt>
      <trkpt lat="42.115" lon="2.37325">
        <ele>1344</ele>
        <time>2010-01-01T00:50:03Z</time>
      </trkpt>
      <trkpt lat="42.11494" lon="2.37322">
        <ele>1341</ele>
        <time>2010-01-01T00:50:05Z</time>
      </trkpt>
      <trkpt lat="42.11486" lon="2.37327">
        <ele>1338</ele>
        <time>2010-01-01T00:50:09Z</time>
      </trkpt>
      <trkpt lat="42.11478" lon="2.37334">
        <ele>1334</ele>
        <time>2010-01-01T00:50:13Z</time>
      </trkpt>
      <trkpt lat="42.11475" lon="2.37334">
        <ele>1333</ele>
        <time>2010-01-01T00:50:14Z</time>
      </trkpt>
      <trkpt lat="42.11464" lon="2.37347">
        <ele>1327</ele>
        <time>2010-01-01T00:50:20Z</time>
      </trkpt>
      <trkpt lat="42.11421" lon="2.37363">
        <ele>1314</ele>
        <time>2010-01-01T00:50:38Z</time>
      </trkpt>
      <trkpt lat="42.11412" lon="2.37361">
        <ele>1313</ele>
        <time>2010-01-01T00:50:41Z</time>
      </trkpt>
      <trkpt lat="42.11388" lon="2.37369">
        <ele>1315</ele>
        <time>2010-01-01T00:50:51Z</time>
      </trkpt>
      <trkpt lat="42.11378" lon="2.37373">
        <ele>1314</ele>
        <time>2010-01-01T00:50:55Z</time>
      </trkpt>
      <trkpt lat="42.11366" lon="2.37381">
        <ele>1315</ele>
        <time>2010-01-01T00:51:01Z</time>
      </trkpt>
      <trkpt lat="42.11358" lon="2.37382">
        <ele>1314</ele>
        <time>2010-01-01T00:51:04Z</time>
      </trkpt>
      <trkpt lat="42.11344" lon="2.37376">
        <ele>1308</ele>
        <time>2010-01-01T00:51:10Z</time>
      </trkpt>
      <trkpt lat="42.11329" lon="2.37359">
        <ele>1298</ele>
        <time>2010-01-01T00:51:18Z</time>
      </trkpt>
      <trkpt lat="42.11322" lon="2.37362">
        <ele>1295</ele>
        <time>2010-01-01T00:51:21Z</time>
      </trkpt>
      <trkpt lat="42.11318" lon="2.37367">
        <ele>1293</ele>
        <time>2010-01-01T00:51:23Z</time>
      </trkpt>
      <trkpt lat="42.11316" lon="2.37367">
        <ele>1292</ele>
        <time>2010-01-01T00:51:24Z</time>
      </trkpt>
      <trkpt lat="42.11314" lon="2.37372">
        <ele>1292</ele>
        <time>2010-01-01T00:51:26Z</time>
      </trkpt>
      <trkpt lat="42.11315" lon="2.37376">
        <ele>1293</ele>
        <time>2010-01-01T00:51:27Z</time>
      </trkpt>
      <trkpt lat="42.11311" lon="2.37376">
        <ele>1291</ele>
        <time>2010-01-01T00:51:28Z</time>
      </trkpt>
      <trkpt lat="42.11308" lon="2.3739">
        <ele>1291</ele>
        <time>2010-01-01T00:51:33Z</time>
      </trkpt>
      <trkpt lat="42.11305" lon="2.37393">
        <ele>1288</ele>
        <time>2010-01-01T00:51:34Z</time>
      </trkpt>
      <trkpt lat="42.11303" lon="2.374">
        <ele>1287</ele>
        <time>2010-01-01T00:51:36Z</time>
      </trkpt>
      <trkpt lat="42.11298" lon="2.37404">
        <ele>1284</ele>
        <time>2010-01-01T00:51:39Z</time>
      </trkpt>
      <trkpt lat="42.11292" lon="2.37405">
        <ele>1281</ele>
        <time>2010-01-01T00:51:41Z</time>
      </trkpt>
      <trkpt lat="42.11279" lon="2.3741">
        <ele>1274</ele>
        <time>2010-01-01T00:51:46Z</time>
      </trkpt>
      <trkpt lat="42.11266" lon="2.37419">
        <ele>1264</ele>
        <time>2010-01-01T00:51:53Z</time>
      </trkpt>
      <trkpt lat="42.1126" lon="2.37425">
        <ele>1260</ele>
        <time>2010-01-01T00:51:55Z</time>
      </trkpt>
      <trkpt lat="42.11253" lon="2.37426">
        <ele>1255</ele>
        <time>2010-01-01T00:51:58Z</time>
      </trkpt>
      <trkpt lat="42.11248" lon="2.37441">
        <ele>1253</ele>
        <time>2010-01-01T00:52:03Z</time>
      </trkpt>
      <trkpt lat="42.11244" lon="2.37446">
        <ele>1251</ele>
        <time>2010-01-01T00:52:05Z</time>
      </trkpt>
      <trkpt lat="42.11239" lon="2.37457">
        <ele>1250</ele>
        <time>2010-01-01T00:52:09Z</time>
      </trkpt>
      <trkpt lat="42.11244" lon="2.37464">
        <ele>1252</ele>
        <time>2010-01-01T00:52:12Z</time>
      </trkpt>
      <trkpt lat="42.11244" lon="2.37468">
        <ele>1252</ele>
        <time>2010-01-01T00:52:13Z</time>
      </trkpt>
      <trkpt lat="42.11229" lon="2.37469">
        <ele>1249</ele>
        <time>2010-01-01T00:52:19Z</time>
      </trkpt>
      <trkpt lat="42.11227" lon="2.37471">
        <ele>1249</ele>
        <time>2010-01-01T00:52:20Z</time>
      </trkpt>
      <trkpt lat="42.11221" lon="2.3747">
        <ele>1247</ele>
        <time>2010-01-01T00:52:22Z</time>
      </trkpt>
      <trkpt lat="42.11214" lon="2.37482">
        <ele>1245</ele>
        <time>2010-01-01T00:52:27Z</time>
      </trkpt>
      <trkpt lat="42.11207" lon="2.37488">
        <ele>1242</ele>
        <time>2010-01-01T00:52:30Z</time>
      </trkpt>
      <trkpt lat="42.11204" lon="2.37501">
        <ele>1241</ele>
        <time>2010-01-01T00:52:34Z</time>
      </trkpt>
      <trkpt lat="42.11202" lon="2.37502">
        <ele>1240</ele>
        <time>2010-01-01T00:52:35Z</time>
      </trkpt>
      <trkpt lat="42.11199" lon="2.37496">
        <ele>1239</ele>
        <time>2010-01-01T00:52:37Z</time>
      </trkpt>
      <trkpt lat="42.11199" lon="2.3751">
        <ele>1239</ele>
        <time>2010-01-01T00:52:41Z</time>
      </trkpt>
      <trkpt lat="42.11197" lon="2.37521">
        <ele>1238</ele>
        <time>2010-01-01T00:52:44Z</time>
      </trkpt>
      <trkpt lat="42.11183" lon="2.37536">
        <ele>1234</ele>
        <time>2010-01-01T00:52:51Z</time>
      </trkpt>
      <trkpt lat="42.11173" lon="2.37542">
        <ele>1232</ele>
        <time>2010-01-01T00:52:56Z</time>
      </trkpt>
      <trkpt lat="42.11165" lon="2.37554">
        <ele>1232</ele>
        <time>2010-01-01T00:53:00Z</time>
      </trkpt>
      <trkpt lat="42.1115" lon="2.37556">
        <ele>1226</ele>
        <time>2010-01-01T00:53:07Z</time>
      </trkpt>
      <trkpt lat="42.11136" lon="2.37565">
        <ele>1222</ele>
        <time>2010-01-01T00:53:13Z</time>
      </trkpt>
      <trkpt lat="42.1113" lon="2.3757">
        <ele>1221</ele>
        <time>2010-01-01T00:53:16Z</time>
      </trkpt>
      <trkpt lat="42.11115" lon="2.37578">
        <ele>1219</ele>
        <time>2010-01-01T00:53:22Z</time>
      </trkpt>
      <trkpt lat="42.11101" lon="2.37572">
        <ele>1215</ele>
        <time>2010-01-01T00:53:28Z</time>
      </trkpt>
      <trkpt lat="42.11096" lon="2.37567">
        <ele>1213</ele>
        <time>2010-01-01T00:53:30Z</time>
      </trkpt>
      <trkpt lat="42.11073" lon="2.37574">
        <ele>1205</ele>
        <time>2010-01-01T00:53:40Z</time>
      </trkpt>
      <trkpt lat="42.11061" lon="2.37592">
        <ele>1199</ele>
        <time>2010-01-01T00:53:47Z</time>
      </trkpt>
      <trkpt lat="42.11057" lon="2.37595">
        <ele>1198</ele>
        <time>2010-01-01T00:53:49Z</time>
      </trkpt>
      <trkpt lat="42.11049" lon="2.37598">
        <ele>1194</ele>
        <time>2010-01-01T00:53:52Z</time>
      </trkpt>
      <trkpt lat="42.11048" lon="2.376">
        <ele>1194</ele>
        <time>2010-01-01T00:53:53Z</time>
      </trkpt>
      <trkpt lat="42.1104" lon="2.37604">
        <ele>1190</ele>
        <time>2010-01-01T00:53:56Z</time>
      </trkpt>
      <trkpt lat="42.1103" lon="2.37618">
        <ele>1186</ele>
        <time>2010-01-01T00:54:02Z</time>
      </trkpt>
      <trkpt lat="42.11024" lon="2.37633">
        <ele>1182</ele>
        <time>2010-01-01T00:54:07Z</time>
      </trkpt>
      <trkpt lat="42.11013" lon="2.37638">
        <ele>1179</ele>
        <time>2010-01-01T00:54:12Z</time>
      </trkpt>
      <trkpt lat="42.11006" lon="2.37645">
        <ele>1176</ele>
        <time>2010-01-01T00:54:15Z</time>
      </trkpt>
      <trkpt lat="42.10996" lon="2.37647">
        <ele>1174</ele>
        <time>2010-01-01T00:54:19Z</time>
      </trkpt>
      <trkpt lat="42.10995" lon="2.37645">
        <ele>1173</ele>
        <time>2010-01-01T00:54:20Z</time>
      </trkpt>
      <trkpt lat="42.10988" lon="2.37642">
        <ele>1171</ele>
        <time>2010-01-01T00:54:23Z</time>
      </trkpt>
      <trkpt lat="42.10986" lon="2.37644">
        <ele>1170</ele>
        <time>2010-01-01T00:54:24Z</time>
      </trkpt>
      <trkpt lat="42.10971" lon="2.37648">
        <ele>1165</ele>
        <time>2010-01-01T00:54:30Z</time>
      </trkpt>
      <trkpt lat="42.10976" lon="2.3763">
        <ele>1164</ele>
        <time>2010-01-01T00:54:36Z</time>
      </trkpt>
      <trkpt lat="42.10972" lon="2.37632">
        <ele>1163</ele>
        <time>2010-01-01T00:54:37Z</time>
      </trkpt>
      <trkpt lat="42.10965" lon="2.37628">
        <ele>1160</ele>
        <time>2010-01-01T00:54:41Z</time>
      </trkpt>
      <trkpt lat="42.10958" lon="2.37617">
        <ele>1155</ele>
        <time>2010-01-01T00:54:45Z</time>
      </trkpt>
      <trkpt lat="42.10954" lon="2.37616">
        <ele>1153</ele>
        <time>2010-01-01T00:54:47Z</time>
      </trkpt>
      <trkpt lat="42.1095" lon="2.37624">
        <ele>1154</ele>
        <time>2010-01-01T00:54:49Z</time>
      </trkpt>
      <trkpt lat="42.10908" lon="2.37643">
        <ele>1142</ele>
        <time>2010-01-01T00:55:07Z</time>
      </trkpt>
      <trkpt lat="42.10885" lon="2.37644">
        <ele>1137</ele>
        <time>2010-01-01T00:55:16Z</time>
      </trkpt>
      <trkpt lat="42.10871" lon="2.37636">
        <ele>1135</ele>
        <time>2010-01-01T00:55:22Z</time>
      </trkpt>
      <trkpt lat="42.10858" lon="2.3764">
        <ele>1134</ele>
        <time>2010-01-01T00:55:28Z</time>
      </trkpt>
      <trkpt lat="42.10854" lon="2.37639">
        <ele>1133</ele>
        <time>2010-01-01T00:55:29Z</time>
      </trkpt>
      <trkpt lat="42.10851" lon="2.37643">
        <ele>1132</ele>
        <time>2010-01-01T00:55:31Z</time>
      </trkpt>
      <trkpt lat="42.10848" lon="2.37641">
        <ele>1132</ele>
        <time>2010-01-01T00:55:32Z</time>
      </trkpt>
      <trkpt lat="42.10848" lon="2.37635">
        <ele>1132</ele>
        <time>2010-01-01T00:55:34Z</time>
      </trkpt>
      <trkpt lat="42.10847" lon="2.37638">
        <ele>1132</ele>
        <time>2010-01-01T00:55:35Z</time>
      </trkpt>
      <trkpt lat="42.10848" lon="2.37625">
        <ele>1131</ele>
        <time>2010-01-01T00:55:39Z</time>
      </trkpt>
      <trkpt lat="42.10843" lon="2.37624">
        <ele>1130</ele>
        <time>2010-01-01T00:55:41Z</time>
      </trkpt>
      <trkpt lat="42.10835" lon="2.37634">
        <ele>1130</ele>
        <time>2010-01-01T00:55:45Z</time>
      </trkpt>
      <trkpt lat="42.10834" lon="2.37652">
        <ele>1128</ele>
        <time>2010-01-01T00:55:51Z</time>
      </trkpt>
      <trkpt lat="42.10836" lon="2.3766">
        <ele>1128</ele>
        <time>2010-01-01T00:55:53Z</time>
      </trkpt>
      <trkpt lat="42.10834" lon="2.37658">
        <ele>1128</ele>
        <time>2010-01-01T00:55:54Z</time>
      </trkpt>
      <trkpt lat="42.10829" lon="2.37636">
        <ele>1130</ele>
        <time>2010-01-01T00:56:01Z</time>
      </trkpt>
      <trkpt lat="42.10825" lon="2.37628">
        <ele>1131</ele>
        <time>2010-01-01T00:56:03Z</time>
      </trkpt>
      <trkpt lat="42.10826" lon="2.37629">
        <ele>1131</ele>
        <time>2010-01-01T00:56:04Z</time>
      </trkpt>
      <trkpt lat="42.10821" lon="2.37623">
        <ele>1131</ele>
        <time>2010-01-01T00:56:06Z</time>
      </trkpt>
      <trkpt lat="42.10818" lon="2.3763">
        <ele>1132</ele>
        <time>2010-01-01T00:56:09Z</time>
      </trkpt>
      <trkpt lat="42.10804" lon="2.37625">
        <ele>1135</ele>
        <time>2010-01-01T00:56:15Z</time>
      </trkpt>
      <trkpt lat="42.10787" lon="2.37607">
        <ele>1139</ele>
        <time>2010-01-01T00:56:23Z</time>
      </trkpt>
      <trkpt lat="42.10775" lon="2.37599">
        <ele>1141</ele>
        <time>2010-01-01T00:56:28Z</time>
      </trkpt>
      <trkpt lat="42.10773" lon="2.376">
        <ele>1141</ele>
        <time>2010-01-01T00:56:29Z</time>
      </trkpt>
      <trkpt lat="42.10761" lon="2.37612">
        <ele>1144</ele>
        <time>2010-01-01T00:56:35Z</time>
      </trkpt>
      <trkpt lat="42.10752" lon="2.37625">
        <ele>1146</ele>
        <time>2010-01-01T00:56:41Z</time>
      </trkpt>
      <trkpt lat="42.10745" lon="2.37628">
        <ele>1148</ele>
        <time>2010-01-01T00:56:44Z</time>
      </trkpt>
      <trkpt lat="42.10728" lon="2.37613">
        <ele>1151</ele>
        <time>2010-01-01T00:56:52Z</time>
      </trkpt>
      <trkpt lat="42.10712" lon="2.37601">
        <ele>1153</ele>
        <time>2010-01-01T00:56:59Z</time>
      </trkpt>
      <trkpt lat="42.10693" lon="2.37594">
        <ele>1156</ele>
        <time>2010-01-01T00:57:07Z</time>
      </trkpt>
      <trkpt lat="42.10671" lon="2.37576">
        <ele>1155</ele>
        <time>2010-01-01T00:57:17Z</time>
      </trkpt>
      <trkpt lat="42.10651" lon="2.37567">
        <ele>1157</ele>
        <time>2010-01-01T00:57:26Z</time>
      </trkpt>
      <trkpt lat="42.10615" lon="2.37567">
        <ele>1163</ele>
        <time>2010-01-01T00:57:40Z</time>
      </trkpt>
      <trkpt lat="42.10599" lon="2.37559">
        <ele>1164</ele>
        <time>2010-01-01T00:57:47Z</time>
      </trkpt>
      <trkpt lat="42.10589" lon="2.37557">
        <ele>1166</ele>
        <time>2010-01-01T00:57:51Z</time>
      </trkpt>
      <trkpt lat="42.10562" lon="2.37534">
        <ele>1169</ele>
        <time>2010-01-01T00:58:04Z</time>
      </trkpt>
      <trkpt lat="42.10554" lon="2.3752">
        <ele>1166</ele>
        <time>2010-01-01T00:58:09Z</time>
      </trkpt>
      <trkpt lat="42.10548" lon="2.37493">
        <ele>1157</ele>
        <time>2010-01-01T00:58:17Z</time>
      </trkpt>
      <trkpt lat="42.10538" lon="2.37475">
        <ele>1156</ele>
        <time>2010-01-01T00:58:24Z</time>
      </trkpt>
      <trkpt lat="42.10533" lon="2.37457">
        <ele>1155</ele>
        <time>2010-01-01T00:58:30Z</time>
      </trkpt>
      <trkpt lat="42.10531" lon="2.37442">
        <ele>1153</ele>
        <time>2010-01-01T00:58:34Z</time>
      </trkpt>
      <trkpt lat="42.10519" lon="2.37419">
        <ele>1152</ele>
        <time>2010-01-01T00:58:43Z</time>
      </trkpt>
      <trkpt lat="42.10519" lon="2.37411">
        <ele>1151</ele>
        <time>2010-01-01T00:58:45Z</time>
      </trkpt>
      <trkpt lat="42.10516" lon="2.37407">
        <ele>1150</ele>
        <time>2010-01-01T00:58:47Z</time>
      </trkpt>
      <trkpt lat="42.10512" lon="2.37395">
        <ele>1149</ele>
        <time>2010-01-01T00:58:51Z</time>
      </trkpt>
      <trkpt lat="42.10495" lon="2.37371">
        <ele>1147</ele>
        <time>2010-01-01T00:59:00Z</time>
      </trkpt>
      <trkpt lat="42.10484" lon="2.37362">
        <ele>1145</ele>
        <time>2010-01-01T00:59:06Z</time>
      </trkpt>
      <trkpt lat="42.10476" lon="2.37361">
        <ele>1144</ele>
        <time>2010-01-01T00:59:09Z</time>
      </trkpt>
      <trkpt lat="42.10469" lon="2.37361">
        <ele>1143</ele>
        <time>2010-01-01T00:59:12Z</time>
      </trkpt>
      <trkpt lat="42.10462" lon="2.37365">
        <ele>1141</ele>
        <time>2010-01-01T00:59:15Z</time>
      </trkpt>
      <trkpt lat="42.10458" lon="2.37379">
        <ele>1140</ele>
        <time>2010-01-01T00:59:19Z</time>
      </trkpt>
      <trkpt lat="42.10444" lon="2.37387">
        <ele>1137</ele>
        <time>2010-01-01T00:59:25Z</time>
      </trkpt>
      <trkpt lat="42.10426" lon="2.37415">
        <ele>1136</ele>
        <time>2010-01-01T00:59:36Z</time>
      </trkpt>
      <trkpt lat="42.10416" lon="2.37427">
        <ele>1135</ele>
        <time>2010-01-01T00:59:41Z</time>
      </trkpt>
      <trkpt lat="42.10403" lon="2.37436">
        <ele>1132</ele>
        <time>2010-01-01T00:59:47Z</time>
      </trkpt>
      <trkpt lat="42.10394" lon="2.37453">
        <ele>1130</ele>
        <time>2010-01-01T00:59:53Z</time>
      </trkpt>
      <trkpt lat="42.10388" lon="2.37448">
        <ele>1127</ele>
        <time>2010-01-01T00:59:56Z</time>
      </trkpt>
      <trkpt lat="42.10379" lon="2.37448">
        <ele>1122</ele>
        <time>2010-01-01T01:00:00Z</time>
      </trkpt>
      <trkpt lat="42.10376" lon="2.37466">
        <ele>1122</ele>
        <time>2010-01-01T01:00:05Z</time>
      </trkpt>
      <trkpt lat="42.10373" lon="2.37465">
        <ele>1120</ele>
        <time>2010-01-01T01:00:06Z</time>
      </trkpt>
      <trkpt lat="42.10366" lon="2.37442">
        <ele>1116</ele>
        <time>2010-01-01T01:00:14Z</time>
      </trkpt>
      <trkpt lat="42.10362" lon="2.37436">
        <ele>1113</ele>
        <time>2010-01-01T01:00:16Z</time>
      </trkpt>
      <trkpt lat="42.10358" lon="2.37444">
        <ele>1112</ele>
        <time>2010-01-01T01:00:19Z</time>
      </trkpt>
      <trkpt lat="42.10357" lon="2.37452">
        <ele>1112</ele>
        <time>2010-01-01T01:00:21Z</time>
      </trkpt>
      <trkpt lat="42.1035" lon="2.37451">
        <ele>1109</ele>
        <time>2010-01-01T01:00:24Z</time>
      </trkpt>
      <trkpt lat="42.10346" lon="2.37456">
        <ele>1108</ele>
        <time>2010-01-01T01:00:26Z</time>
      </trkpt>
      <trkpt lat="42.10338" lon="2.37457">
        <ele>1104</ele>
        <time>2010-01-01T01:00:30Z</time>
      </trkpt>
      <trkpt lat="42.10335" lon="2.37451">
        <ele>1103</ele>
        <time>2010-01-01T01:00:32Z</time>
      </trkpt>
      <trkpt lat="42.10329" lon="2.37446">
        <ele>1101</ele>
        <time>2010-01-01T01:00:35Z</time>
      </trkpt>
      <trkpt lat="42.10328" lon="2.3745">
        <ele>1100</ele>
        <time>2010-01-01T01:00:36Z</time>
      </trkpt>
      <trkpt lat="42.10329" lon="2.37456">
        <ele>1100</ele>
        <time>2010-01-01T01:00:38Z</time>
      </trkpt>
      <trkpt lat="42.1033" lon="2.37468">
        <ele>1100</ele>
        <time>2010-01-01T01:00:42Z</time>
      </trkpt>
      <trkpt lat="42.10327" lon="2.37476">
        <ele>1099</ele>
        <time>2010-01-01T01:00:44Z</time>
      </trkpt>
      <trkpt lat="42.10325" lon="2.37482">
        <ele>1098</ele>
        <time>2010-01-01T01:00:46Z</time>
      </trkpt>
      <trkpt lat="42.10315" lon="2.37492">
        <ele>1093</ele>
        <time>2010-01-01T01:00:51Z</time>
      </trkpt>
      <trkpt lat="42.10311" lon="2.37492">
        <ele>1091</ele>
        <time>2010-01-01T01:00:53Z</time>
      </trkpt>
      <trkpt lat="42.10311" lon="2.37478">
        <ele>1091</ele>
        <time>2010-01-01T01:00:57Z</time>
      </trkpt>
      <trkpt lat="42.10309" lon="2.37474">
        <ele>1090</ele>
        <time>2010-01-01T01:00:58Z</time>
      </trkpt>
      <trkpt lat="42.10296" lon="2.3747">
        <ele>1085</ele>
        <time>2010-01-01T01:01:03Z</time>
      </trkpt>
      <trkpt lat="42.10292" lon="2.37462">
        <ele>1084</ele>
        <time>2010-01-01T01:01:06Z</time>
      </trkpt>
      <trkpt lat="42.10288" lon="2.37446">
        <ele>1084</ele>
        <time>2010-01-01T01:01:11Z</time>
      </trkpt>
      <trkpt lat="42.1028" lon="2.37443">
        <ele>1081</ele>
        <time>2010-01-01T01:01:15Z</time>
      </trkpt>
      <trkpt lat="42.10277" lon="2.37451">
        <ele>1080</ele>
        <time>2010-01-01T01:01:17Z</time>
      </trkpt>
      <trkpt lat="42.10274" lon="2.37455">
        <ele>1078</ele>
        <time>2010-01-01T01:01:19Z</time>
      </trkpt>
      <trkpt lat="42.10268" lon="2.37476">
        <ele>1074</ele>
        <time>2010-01-01T01:01:26Z</time>
      </trkpt>
      <trkpt lat="42.10261" lon="2.37479">
        <ele>1071</ele>
        <time>2010-01-01T01:01:29Z</time>
      </trkpt>
      <trkpt lat="42.10257" lon="2.37486">
        <ele>1069</ele>
        <time>2010-01-01T01:01:32Z</time>
      </trkpt>
      <trkpt lat="42.10254" lon="2.37488">
        <ele>1068</ele>
        <time>2010-01-01T01:01:33Z</time>
      </trkpt>
      <trkpt lat="42.10246" lon="2.37483">
        <ele>1067</ele>
        <time>2010-01-01T01:01:37Z</time>
      </trkpt>
      <trkpt lat="42.1024" lon="2.37478">
        <ele>1066</ele>
        <time>2010-01-01T01:01:39Z</time>
      </trkpt>
      <trkpt lat="42.10238" lon="2.37484">
        <ele>1065</ele>
        <time>2010-01-01T01:01:41Z</time>
      </trkpt>
      <trkpt lat="42.10229" lon="2.37482">
        <ele>1063</ele>
        <time>2010-01-01T01:01:45Z</time>
      </trkpt>
      <trkpt lat="42.10224" lon="2.37486">
        <ele>1061</ele>
        <time>2010-01-01T01:01:47Z</time>
      </trkpt>
      <trkpt lat="42.10218" lon="2.37487">
        <ele>1060</ele>
        <time>2010-01-01T01:01:50Z</time>
      </trkpt>
      <trkpt lat="42.10221" lon="2.37489">
        <ele>1061</ele>
        <time>2010-01-01T01:01:52Z</time>
      </trkpt>
      <trkpt lat="42.10213" lon="2.3749">
        <ele>1059</ele>
        <time>2010-01-01T01:01:55Z</time>
      </trkpt>
      <trkpt lat="42.10205" lon="2.37486">
        <ele>1059</ele>
        <time>2010-01-01T01:01:58Z</time>
      </trkpt>
      <trkpt lat="42.10198" lon="2.37488">
        <ele>1057</ele>
        <time>2010-01-01T01:02:01Z</time>
      </trkpt>
      <trkpt lat="42.10194" lon="2.37484">
        <ele>1057</ele>
        <time>2010-01-01T01:02:03Z</time>
      </trkpt>
      <trkpt lat="42.10197" lon="2.37484">
        <ele>1058</ele>
        <time>2010-01-01T01:02:05Z</time>
      </trkpt>
      <trkpt lat="42.10208" lon="2.37491">
        <ele>1058</ele>
        <time>2010-01-01T01:02:09Z</time>
      </trkpt>
      <trkpt lat="42.10209" lon="2.375">
        <ele>1058</ele>
        <time>2010-01-01T01:02:12Z</time>
      </trkpt>
      <trkpt lat="42.10206" lon="2.37502">
        <ele>1057</ele>
        <time>2010-01-01T01:02:14Z</time>
      </trkpt>
      <trkpt lat="42.10203" lon="2.37497">
        <ele>1057</ele>
        <time>2010-01-01T01:02:15Z</time>
      </trkpt>
      <trkpt lat="42.10202" lon="2.37498">
        <ele>1057</ele>
        <time>2010-01-01T01:02:16Z</time>
      </trkpt>
      <trkpt lat="42.10193" lon="2.37514">
        <ele>1058</ele>
        <time>2010-01-01T01:02:22Z</time>
      </trkpt>
      <trkpt lat="42.10212" lon="2.37492">
        <ele>1059</ele>
        <time>2010-01-01T01:02:32Z</time>
      </trkpt>
      <trkpt lat="42.10205" lon="2.37481">
        <ele>1059</ele>
        <time>2010-01-01T01:02:36Z</time>
      </trkpt>
      <trkpt lat="42.10191" lon="2.37481">
        <ele>1058</ele>
        <time>2010-01-01T01:02:42Z</time>
      </trkpt>
      <trkpt lat="42.10179" lon="2.37478">
        <ele>1058</ele>
        <time>2010-01-01T01:02:47Z</time>
      </trkpt>
      <trkpt lat="42.10178" lon="2.37495">
        <ele>1056</ele>
        <time>2010-01-01T01:02:52Z</time>
      </trkpt>
      <trkpt lat="42.10169" lon="2.3749">
        <ele>1056</ele>
        <time>2010-01-01T01:02:56Z</time>
      </trkpt>
      <trkpt lat="42.10164" lon="2.37483">
        <ele>1057</ele>
        <time>2010-01-01T01:02:59Z</time>
      </trkpt>
      <trkpt lat="42.10156" lon="2.37478">
        <ele>1057</ele>
        <time>2010-01-01T01:03:02Z</time>
      </trkpt>
      <trkpt lat="42.10133" lon="2.37484">
        <ele>1055</ele>
        <time>2010-01-01T01:03:11Z</time>
      </trkpt>
      <trkpt lat="42.10137" lon="2.37484">
        <ele>1056</ele>
        <time>2010-01-01T01:03:13Z</time>
      </trkpt>
      <trkpt lat="42.1014" lon="2.37483">
        <ele>1056</ele>
        <time>2010-01-01T01:03:14Z</time>
      </trkpt>
      <trkpt lat="42.10134" lon="2.37479">
        <ele>1055</ele>
        <time>2010-01-01T01:03:17Z</time>
      </trkpt>
      <trkpt lat="42.10102" lon="2.37475">
        <ele>1045</ele>
        <time>2010-01-01T01:03:30Z</time>
      </trkpt>
      <trkpt lat="42.10104" lon="2.3748">
        <ele>1046</ele>
        <time>2010-01-01T01:03:32Z</time>
      </trkpt>
      <trkpt lat="42.101" lon="2.37486">
        <ele>1045</ele>
        <time>2010-01-01T01:03:34Z</time>
      </trkpt>
      <trkpt lat="42.10102" lon="2.37485">
        <ele>1046</ele>
        <time>2010-01-01T01:03:35Z</time>
      </trkpt>
      <trkpt lat="42.10099" lon="2.37484">
        <ele>1044</ele>
        <time>2010-01-01T01:03:36Z</time>
      </trkpt>
      <trkpt lat="42.10094" lon="2.37488">
        <ele>1042</ele>
        <time>2010-01-01T01:03:39Z</time>
      </trkpt>
      <trkpt lat="42.10094" lon="2.37481">
        <ele>1042</ele>
        <time>2010-01-01T01:03:41Z</time>
      </trkpt>
      <trkpt lat="42.1009" lon="2.37483">
        <ele>1041</ele>
        <time>2010-01-01T01:03:42Z</time>
      </trkpt>
      <trkpt lat="42.10088" lon="2.37487">
        <ele>1040</ele>
        <time>2010-01-01T01:03:44Z</time>
      </trkpt>
      <trkpt lat="42.10085" lon="2.3749">
        <ele>1039</ele>
        <time>2010-01-01T01:03:45Z</time>
      </trkpt>
      <trkpt lat="42.10072" lon="2.37487">
        <ele>1033</ele>
        <time>2010-01-01T01:03:50Z</time>
      </trkpt>
      <trkpt lat="42.10063" lon="2.37475">
        <ele>1029</ele>
        <time>2010-01-01T01:03:55Z</time>
      </trkpt>
      <trkpt lat="42.10053" lon="2.37479">
        <ele>1025</ele>
        <time>2010-01-01T01:03:59Z</time>
      </trkpt>
      <trkpt lat="42.10049" lon="2.37472">
        <ele>1024</ele>
        <time>2010-01-01T01:04:02Z</time>
      </trkpt>
      <trkpt lat="42.10044" lon="2.37459">
        <ele>1023</ele>
        <time>2010-01-01T01:04:07Z</time>
      </trkpt>
      <trkpt lat="42.10044" lon="2.37453">
        <ele>1023</ele>
        <time>2010-01-01T01:04:09Z</time>
      </trkpt>
      <trkpt lat="42.10037" lon="2.37449">
        <ele>1020</ele>
        <time>2010-01-01T01:04:11Z</time>
      </trkpt>
      <trkpt lat="42.1003" lon="2.37442">
        <ele>1017</ele>
        <time>2010-01-01T01:04:15Z</time>
      </trkpt>
      <trkpt lat="42.10026" lon="2.37451">
        <ele>1016</ele>
        <time>2010-01-01T01:04:18Z</time>
      </trkpt>
      <trkpt lat="42.10023" lon="2.37456">
        <ele>1014</ele>
        <time>2010-01-01T01:04:20Z</time>
      </trkpt>
      <trkpt lat="42.10012" lon="2.37459">
        <ele>1010</ele>
        <time>2010-01-01T01:04:25Z</time>
      </trkpt>
      <trkpt lat="42.10013" lon="2.37461">
        <ele>1011</ele>
        <time>2010-01-01T01:04:25Z</time>
      </trkpt>
      <trkpt lat="42.10011" lon="2.37463">
        <ele>1010</ele>
        <time>2010-01-01T01:04:26Z</time>
      </trkpt>
      <trkpt lat="42.1" lon="2.37465">
        <ele>1006</ele>
        <time>2010-01-01T01:04:31Z</time>
      </trkpt>
      <trkpt lat="42.09995" lon="2.37469">
        <ele>1003</ele>
        <time>2010-01-01T01:04:33Z</time>
      </trkpt>
      <trkpt lat="42.09996" lon="2.37472">
        <ele>1004</ele>
        <time>2010-01-01T01:04:34Z</time>
      </trkpt>
      <trkpt lat="42.09994" lon="2.37474">
        <ele>1003</ele>
        <time>2010-01-01T01:04:35Z</time>
      </trkpt>
      <trkpt lat="42.09985" lon="2.37478">
        <ele>999</ele>
        <time>2010-01-01T01:04:39Z</time>
      </trkpt>
      <trkpt lat="42.09978" lon="2.37477">
        <ele>996</ele>
        <time>2010-01-01T01:04:42Z</time>
      </trkpt>
      <trkpt lat="42.09967" lon="2.37487">
        <ele>992</ele>
        <time>2010-01-01T01:04:47Z</time>
      </trkpt>
      <trkpt lat="42.09959" lon="2.37491">
        <ele>989</ele>
        <time>2010-01-01T01:04:50Z</time>
      </trkpt>
      <trkpt lat="42.09948" lon="2.37491">
        <ele>985</ele>
        <time>2010-01-01T01:04:55Z</time>
      </trkpt>
      <trkpt lat="42.09946" lon="2.37494">
        <ele>984</ele>
        <time>2010-01-01T01:04:56Z</time>
      </trkpt>
      <trkpt lat="42.09942" lon="2.37492">
        <ele>983</ele>
        <time>2010-01-01T01:04:58Z</time>
      </trkpt>
      <trkpt lat="42.0994" lon="2.37485">
        <ele>982</ele>
        <time>2010-01-01T01:05:00Z</time>
      </trkpt>
      <trkpt lat="42.09937" lon="2.37482">
        <ele>981</ele>
        <time>2010-01-01T01:05:01Z</time>
      </trkpt>
      <trkpt lat="42.09934" lon="2.37481">
        <ele>980</ele>
        <time>2010-01-01T01:05:03Z</time>
      </trkpt>
      <trkpt lat="42.09929" lon="2.37484">
        <ele>979</ele>
        <time>2010-01-01T01:05:04Z</time>
      </trkpt>
      <trkpt lat="42.0992" lon="2.37482">
        <ele>976</ele>
        <time>2010-01-01T01:05:08Z</time>
      </trkpt>
      <trkpt lat="42.09909" lon="2.37485">
        <ele>972</ele>
        <time>2010-01-01T01:05:13Z</time>
      </trkpt>
      <trkpt lat="42.09904" lon="2.3749">
        <ele>971</ele>
        <time>2010-01-01T01:05:15Z</time>
      </trkpt>
      <trkpt lat="42.09892" lon="2.37495">
        <ele>968</ele>
        <time>2010-01-01T01:05:20Z</time>
      </trkpt>
      <trkpt lat="42.09869" lon="2.37483">
        <ele>961</ele>
        <time>2010-01-01T01:05:30Z</time>
      </trkpt>
      <trkpt lat="42.09832" lon="2.37481">
        <ele>952</ele>
        <time>2010-01-01T01:05:45Z</time>
      </trkpt>
      <trkpt lat="42.09823" lon="2.37471">
        <ele>949</ele>
        <time>2010-01-01T01:05:49Z</time>
      </trkpt>
      <trkpt lat="42.09822" lon="2.37468">
        <ele>948</ele>
        <time>2010-01-01T01:05:51Z</time>
      </trkpt>
      <trkpt lat="42.09823" lon="2.37457">
        <ele>946</ele>
        <time>2010-01-01T01:05:54Z</time>
      </trkpt>
      <trkpt lat="42.09829" lon="2.37449">
        <ele>946</ele>
        <time>2010-01-01T01:05:57Z</time>
      </trkpt>
      <trkpt lat="42.09842" lon="2.37441">
        <ele>947</ele>
        <time>2010-01-01T01:06:03Z</time>
      </trkpt>
      <trkpt lat="42.09842" lon="2.37439">
        <ele>947</ele>
        <time>2010-01-01T01:06:04Z</time>
      </trkpt>
      <trkpt lat="42.0983" lon="2.37417">
        <ele>940</ele>
        <time>2010-01-01T01:06:12Z</time>
      </trkpt>
      <trkpt lat="42.09825" lon="2.37415">
        <ele>939</ele>
        <time>2010-01-01T01:06:14Z</time>
      </trkpt>
      <trkpt lat="42.09814" lon="2.37414">
        <ele>938</ele>
        <time>2010-01-01T01:06:18Z</time>
      </trkpt>
      <trkpt lat="42.09806" lon="2.37405">
        <ele>936</ele>
        <time>2010-01-01T01:06:22Z</time>
      </trkpt>
      <trkpt lat="42.09804" lon="2.37404">
        <ele>936</ele>
        <time>2010-01-01T01:06:23Z</time>
      </trkpt>
      <trkpt lat="42.09804" lon="2.37405">
        <ele>936</ele>
        <time>2010-01-01T01:06:24Z</time>
      </trkpt>
      <trkpt lat="42.09803" lon="2.37403">
        <ele>936</ele>
        <time>2010-01-01T01:06:25Z</time>
      </trkpt>
      <trkpt lat="42.09803" lon="2.37406">
        <ele>936</ele>
        <time>2010-01-01T01:06:25Z</time>
      </trkpt>
      <trkpt lat="42.09801" lon="2.37404">
        <ele>936</ele>
        <time>2010-01-01T01:06:27Z</time>
      </trkpt>
      <trkpt lat="42.09807" lon="2.37398">
        <ele>936</ele>
        <time>2010-01-01T01:06:29Z</time>
      </trkpt>
      <trkpt lat="42.09803" lon="2.374">
        <ele>936</ele>
        <time>2010-01-01T01:06:31Z</time>
      </trkpt>
      <trkpt lat="42.09806" lon="2.37391">
        <ele>936</ele>
        <time>2010-01-01T01:06:34Z</time>
      </trkpt>
      <trkpt lat="42.09813" lon="2.37381">
        <ele>937</ele>
        <time>2010-01-01T01:06:38Z</time>
      </trkpt>
      <trkpt lat="42.09816" lon="2.37369">
        <ele>940</ele>
        <time>2010-01-01T01:06:42Z</time>
      </trkpt>
      <trkpt lat="42.09814" lon="2.37368">
        <ele>939</ele>
        <time>2010-01-01T01:06:43Z</time>
      </trkpt>
      <trkpt lat="42.09816" lon="2.3737">
        <ele>939</ele>
        <time>2010-01-01T01:06:44Z</time>
      </trkpt>
      <trkpt lat="42.09815" lon="2.37375">
        <ele>939</ele>
        <time>2010-01-01T01:06:45Z</time>
      </trkpt>
      <trkpt lat="42.09807" lon="2.3738">
        <ele>937</ele>
        <time>2010-01-01T01:06:49Z</time>
      </trkpt>
      <trkpt lat="42.0981" lon="2.37376">
        <ele>938</ele>
        <time>2010-01-01T01:06:50Z</time>
      </trkpt>
      <trkpt lat="42.09824" lon="2.37379">
        <ele>939</ele>
        <time>2010-01-01T01:06:56Z</time>
      </trkpt>
      <trkpt lat="42.09831" lon="2.37389">
        <ele>938</ele>
        <time>2010-01-01T01:07:00Z</time>
      </trkpt>
      <trkpt lat="42.09841" lon="2.37407">
        <ele>943</ele>
        <time>2010-01-01T01:07:07Z</time>
      </trkpt>
      <trkpt lat="42.09853" lon="2.37396">
        <ele>947</ele>
        <time>2010-01-01T01:07:13Z</time>
      </trkpt>
      <trkpt lat="42.09852" lon="2.37397">
        <ele>947</ele>
        <time>2010-01-01T01:07:13Z</time>
      </trkpt>
      <trkpt lat="42.0985" lon="2.37397">
        <ele>946</ele>
        <time>2010-01-01T01:07:14Z</time>
      </trkpt>
      <trkpt lat="42.09854" lon="2.37392">
        <ele>947</ele>
        <time>2010-01-01T01:07:16Z</time>
      </trkpt>
      <trkpt lat="42.09867" lon="2.37382">
        <ele>953</ele>
        <time>2010-01-01T01:07:22Z</time>
      </trkpt>
      <trkpt lat="42.0988" lon="2.37365">
        <ele>959</ele>
        <time>2010-01-01T01:07:29Z</time>
      </trkpt>
      <trkpt lat="42.09883" lon="2.37351">
        <ele>960</ele>
        <time>2010-01-01T01:07:33Z</time>
      </trkpt>
      <trkpt lat="42.09889" lon="2.37329">
        <ele>965</ele>
        <time>2010-01-01T01:07:40Z</time>
      </trkpt>
      <trkpt lat="42.09889" lon="2.37316">
        <ele>966</ele>
        <time>2010-01-01T01:07:44Z</time>
      </trkpt>
      <trkpt lat="42.09887" lon="2.37305">
        <ele>967</ele>
        <time>2010-01-01T01:07:48Z</time>
      </trkpt>
      <trkpt lat="42.09889" lon="2.37292">
        <ele>970</ele>
        <time>2010-01-01T01:07:52Z</time>
      </trkpt>
      <trkpt lat="42.09888" lon="2.37285">
        <ele>970</ele>
        <time>2010-01-01T01:07:54Z</time>
      </trkpt>
      <trkpt lat="42.09885" lon="2.37276">
        <ele>970</ele>
        <time>2010-01-01T01:07:57Z</time>
      </trkpt>
      <trkpt lat="42.09876" lon="2.37272">
        <ele>967</ele>
        <time>2010-01-01T01:08:00Z</time>
      </trkpt>
      <trkpt lat="42.09871" lon="2.37271">
        <ele>965</ele>
        <time>2010-01-01T01:08:02Z</time>
      </trkpt>
      <trkpt lat="42.09872" lon="2.37261">
        <ele>965</ele>
        <time>2010-01-01T01:08:05Z</time>
      </trkpt>
      <trkpt lat="42.09875" lon="2.37254">
        <ele>966</ele>
        <time>2010-01-01T01:08:08Z</time>
      </trkpt>
      <trkpt lat="42.09882" lon="2.37247">
        <ele>967</ele>
        <time>2010-01-01T01:08:11Z</time>
      </trkpt>
      <trkpt lat="42.09891" lon="2.37244">
        <ele>969</ele>
        <time>2010-01-01T01:08:15Z</time>
      </trkpt>
      <trkpt lat="42.09904" lon="2.37254">
        <ele>975</ele>
        <time>2010-01-01T01:08:21Z</time>
      </trkpt>
      <trkpt lat="42.09904" lon="2.3726">
        <ele>975</ele>
        <time>2010-01-01T01:08:23Z</time>
      </trkpt>
      <trkpt lat="42.09908" lon="2.37264">
        <ele>977</ele>
        <time>2010-01-01T01:08:25Z</time>
      </trkpt>
      <trkpt lat="42.09921" lon="2.37266">
        <ele>982</ele>
        <time>2010-01-01T01:08:30Z</time>
      </trkpt>
      <trkpt lat="42.09934" lon="2.3727">
        <ele>987</ele>
        <time>2010-01-01T01:08:35Z</time>
      </trkpt>
      <trkpt lat="42.09936" lon="2.37274">
        <ele>988</ele>
        <time>2010-01-01T01:08:37Z</time>
      </trkpt>
      <trkpt lat="42.09944" lon="2.37275">
        <ele>992</ele>
        <time>2010-01-01T01:08:40Z</time>
      </trkpt>
      <trkpt lat="42.09939" lon="2.37277">
        <ele>990</ele>
        <time>2010-01-01T01:08:42Z</time>
      </trkpt>
      <trkpt lat="42.09931" lon="2.37271">
        <ele>986</ele>
        <time>2010-01-01T01:08:45Z</time>
      </trkpt>
      <trkpt lat="42.09914" lon="2.37266">
        <ele>979</ele>
        <time>2010-01-01T01:08:52Z</time>
      </trkpt>
      <trkpt lat="42.09909" lon="2.37262">
        <ele>977</ele>
        <time>2010-01-01T01:08:55Z</time>
      </trkpt>
      <trkpt lat="42.09906" lon="2.37253">
        <ele>975</ele>
        <time>2010-01-01T01:08:58Z</time>
      </trkpt>
      <trkpt lat="42.09894" lon="2.3725">
        <ele>971</ele>
        <time>2010-01-01T01:09:03Z</time>
      </trkpt>
      <trkpt lat="42.09898" lon="2.37242">
        <ele>971</ele>
        <time>2010-01-01T01:09:06Z</time>
      </trkpt>
      <trkpt lat="42.09908" lon="2.37243">
        <ele>975</ele>
        <time>2010-01-01T01:09:10Z</time>
      </trkpt>
      <trkpt lat="42.09914" lon="2.37242">
        <ele>976</ele>
        <time>2010-01-01T01:09:13Z</time>
      </trkpt>
      <trkpt lat="42.09923" lon="2.37233">
        <ele>978</ele>
        <time>2010-01-01T01:09:17Z</time>
      </trkpt>
      <trkpt lat="42.09929" lon="2.37229">
        <ele>979</ele>
        <time>2010-01-01T01:09:20Z</time>
      </trkpt>
      <trkpt lat="42.09934" lon="2.37221">
        <ele>980</ele>
        <time>2010-01-01T01:09:23Z</time>
      </trkpt>
      <trkpt lat="42.09936" lon="2.37214">
        <ele>979</ele>
        <time>2010-01-01T01:09:25Z</time>
      </trkpt>
      <trkpt lat="42.09936" lon="2.37183">
        <ele>972</ele>
        <time>2010-01-01T01:09:34Z</time>
      </trkpt>
      <trkpt lat="42.09943" lon="2.37156">
        <ele>970</ele>
        <time>2010-01-01T01:09:43Z</time>
      </trkpt>
      <trkpt lat="42.09951" lon="2.37142">
        <ele>971</ele>
        <time>2010-01-01T01:09:48Z</time>
      </trkpt>
      <trkpt lat="42.09961" lon="2.37131">
        <ele>974</ele>
        <time>2010-01-01T01:09:53Z</time>
      </trkpt>
      <trkpt lat="42.09959" lon="2.3712">
        <ele>972</ele>
        <time>2010-01-01T01:09:56Z</time>
      </trkpt>
      <trkpt lat="42.0996" lon="2.3711">
        <ele>972</ele>
        <time>2010-01-01T01:09:59Z</time>
      </trkpt>
      <trkpt lat="42.0996" lon="2.37092">
        <ele>971</ele>
        <time>2010-01-01T01:10:05Z</time>
      </trkpt>
      <trkpt lat="42.09951" lon="2.37064">
        <ele>966</ele>
        <time>2010-01-01T01:10:14Z</time>
      </trkpt>
      <trkpt lat="42.09943" lon="2.37049">
        <ele>961</ele>
        <time>2010-01-01T01:10:19Z</time>
      </trkpt>
      <trkpt lat="42.09932" lon="2.37044">
        <ele>956</ele>
        <time>2010-01-01T01:10:24Z</time>
      </trkpt>
      <trkpt lat="42.09922" lon="2.37033">
        <ele>951</ele>
        <time>2010-01-01T01:10:29Z</time>
      </trkpt>
      <trkpt lat="42.09919" lon="2.37017">
        <ele>949</ele>
        <time>2010-01-01T01:10:34Z</time>
      </trkpt>
      <trkpt lat="42.09931" lon="2.36989">
        <ele>956</ele>
        <time>2010-01-01T01:10:43Z</time>
      </trkpt>
      <trkpt lat="42.09931" lon="2.3697">
        <ele>955</ele>
        <time>2010-01-01T01:10:49Z</time>
      </trkpt>
      <trkpt lat="42.09936" lon="2.36954">
        <ele>956</ele>
        <time>2010-01-01T01:10:54Z</time>
      </trkpt>
      <trkpt lat="42.09941" lon="2.36944">
        <ele>958</ele>
        <time>2010-01-01T01:10:58Z</time>
      </trkpt>
      <trkpt lat="42.09946" lon="2.3693">
        <ele>957</ele>
        <time>2010-01-01T01:11:03Z</time>
      </trkpt>
      <trkpt lat="42.09967" lon="2.369">
        <ele>955</ele>
        <time>2010-01-01T01:11:15Z</time>
      </trkpt>
      <trkpt lat="42.09994" lon="2.36886">
        <ele>956</ele>
        <time>2010-01-01T01:11:26Z</time>
      </trkpt>
      <trkpt lat="42.10022" lon="2.36876">
        <ele>961</ele>
        <time>2010-01-01T01:11:38Z</time>
      </trkpt>
      <trkpt lat="42.10038" lon="2.3686">
        <ele>962</ele>
        <time>2010-01-01T01:11:46Z</time>
      </trkpt>
      <trkpt lat="42.10064" lon="2.36826">
        <ele>965</ele>
        <time>2010-01-01T01:12:01Z</time>
      </trkpt>
      <trkpt lat="42.10081" lon="2.36817">
        <ele>971</ele>
        <time>2010-01-01T01:12:08Z</time>
      </trkpt>
      <trkpt lat="42.10102" lon="2.368">
        <ele>972</ele>
        <time>2010-01-01T01:12:18Z</time>
      </trkpt>
      <trkpt lat="42.10106" lon="2.368">
        <ele>973</ele>
        <time>2010-01-01T01:12:19Z</time>
      </trkpt>
      <trkpt lat="42.10118" lon="2.36806">
        <ele>975</ele>
        <time>2010-01-01T01:12:24Z</time>
      </trkpt>
      <trkpt lat="42.10126" lon="2.36815">
        <ele>977</ele>
        <time>2010-01-01T01:12:28Z</time>
      </trkpt>
      <trkpt lat="42.10131" lon="2.36825">
        <ele>980</ele>
        <time>2010-01-01T01:12:32Z</time>
      </trkpt>
      <trkpt lat="42.10141" lon="2.36831">
        <ele>981</ele>
        <time>2010-01-01T01:12:36Z</time>
      </trkpt>
      <trkpt lat="42.10152" lon="2.36829">
        <ele>979</ele>
        <time>2010-01-01T01:12:41Z</time>
      </trkpt>
      <trkpt lat="42.10165" lon="2.3682">
        <ele>973</ele>
        <time>2010-01-01T01:12:47Z</time>
      </trkpt>
      <trkpt lat="42.10175" lon="2.36818">
        <ele>973</ele>
        <time>2010-01-01T01:12:51Z</time>
      </trkpt>
      <trkpt lat="42.10182" lon="2.3682">
        <ele>974</ele>
        <time>2010-01-01T01:12:53Z</time>
      </trkpt>
      <trkpt lat="42.102" lon="2.36813">
        <ele>973</ele>
        <time>2010-01-01T01:13:01Z</time>
      </trkpt>
      <trkpt lat="42.10204" lon="2.36804">
        <ele>971</ele>
        <time>2010-01-01T01:13:04Z</time>
      </trkpt>
      <trkpt lat="42.10211" lon="2.368">
        <ele>971</ele>
        <time>2010-01-01T01:13:07Z</time>
      </trkpt>
      <trkpt lat="42.10231" lon="2.36777">
        <ele>967</ele>
        <time>2010-01-01T01:13:18Z</time>
      </trkpt>
      <trkpt lat="42.10242" lon="2.36771">
        <ele>966</ele>
        <time>2010-01-01T01:13:23Z</time>
      </trkpt>
      <trkpt lat="42.10253" lon="2.36769">
        <ele>966</ele>
        <time>2010-01-01T01:13:27Z</time>
      </trkpt>
      <trkpt lat="42.10269" lon="2.36762">
        <ele>965</ele>
        <time>2010-01-01T01:13:33Z</time>
      </trkpt>
      <trkpt lat="42.10286" lon="2.36777">
        <ele>973</ele>
        <time>2010-01-01T01:13:42Z</time>
      </trkpt>
      <trkpt lat="42.10309" lon="2.36774">
        <ele>976</ele>
        <time>2010-01-01T01:13:51Z</time>
      </trkpt>
      <trkpt lat="42.10322" lon="2.36757">
        <ele>972</ele>
        <time>2010-01-01T01:13:58Z</time>
      </trkpt>
      <trkpt lat="42.1032" lon="2.3675">
        <ele>969</ele>
        <time>2010-01-01T01:14:01Z</time>
      </trkpt>
      <trkpt lat="42.10327" lon="2.36739">
        <ele>967</ele>
        <time>2010-01-01T01:14:05Z</time>
      </trkpt>
      <trkpt lat="42.10347" lon="2.36739">
        <ele>968</ele>
        <time>2010-01-01T01:14:13Z</time>
      </trkpt>
      <trkpt lat="42.10387" lon="2.36734">
        <ele>971</ele>
        <time>2010-01-01T01:14:29Z</time>
      </trkpt>
      <trkpt lat="42.10424" lon="2.36737">
        <ele>974</ele>
        <time>2010-01-01T01:14:44Z</time>
      </trkpt>
      <trkpt lat="42.10447" lon="2.36733">
        <ele>974</ele>
        <time>2010-01-01T01:14:53Z</time>
      </trkpt>
      <trkpt lat="42.10463" lon="2.36734">
        <ele>975</ele>
        <time>2010-01-01T01:14:59Z</time>
      </trkpt>
      <trkpt lat="42.1047" lon="2.36731">
        <ele>975</ele>
        <time>2010-01-01T01:15:02Z</time>
      </trkpt>
      <trkpt lat="42.1048" lon="2.36724">
        <ele>973</ele>
        <time>2010-01-01T01:15:07Z</time>
      </trkpt>
      <trkpt lat="42.10491" lon="2.36714">
        <ele>972</ele>
        <time>2010-01-01T01:15:12Z</time>
      </trkpt>
      <trkpt lat="42.105" lon="2.36703">
        <ele>971</ele>
        <time>2010-01-01T01:15:17Z</time>
      </trkpt>
      <trkpt lat="42.10535" lon="2.36699">
        <ele>972</ele>
        <time>2010-01-01T01:15:31Z</time>
      </trkpt>
      <trkpt lat="42.10545" lon="2.36687">
        <ele>973</ele>
        <time>2010-01-01T01:15:36Z</time>
      </trkpt>
      <trkpt lat="42.10559" lon="2.36683">
        <ele>975</ele>
        <time>2010-01-01T01:15:42Z</time>
      </trkpt>
      <trkpt lat="42.10592" lon="2.36671">
        <ele>974</ele>
        <time>2010-01-01T01:15:56Z</time>
      </trkpt>
      <trkpt lat="42.10609" lon="2.36675">
        <ele>974</ele>
        <time>2010-01-01T01:16:03Z</time>
      </trkpt>
      <trkpt lat="42.10618" lon="2.36682">
        <ele>974</ele>
        <time>2010-01-01T01:16:07Z</time>
      </trkpt>
      <trkpt lat="42.1063" lon="2.36698">
        <ele>977</ele>
        <time>2010-01-01T01:16:13Z</time>
      </trkpt>
      <trkpt lat="42.10639" lon="2.36707">
        <ele>979</ele>
        <time>2010-01-01T01:16:18Z</time>
      </trkpt>
      <trkpt lat="42.10642" lon="2.36703">
        <ele>979</ele>
        <time>2010-01-01T01:16:20Z</time>
      </trkpt>
      <trkpt lat="42.10645" lon="2.3666">
        <ele>973</ele>
        <time>2010-01-01T01:16:33Z</time>
      </trkpt>
      <trkpt lat="42.1065" lon="2.36649">
        <ele>975</ele>
        <time>2010-01-01T01:16:36Z</time>
      </trkpt>
      <trkpt lat="42.1065" lon="2.36644">
        <ele>975</ele>
        <time>2010-01-01T01:16:38Z</time>
      </trkpt>
      <trkpt lat="42.10654" lon="2.36628">
        <ele>977</ele>
        <time>2010-01-01T01:16:43Z</time>
      </trkpt>
      <trkpt lat="42.10659" lon="2.36599">
        <ele>982</ele>
        <time>2010-01-01T01:16:52Z</time>
      </trkpt>
      <trkpt lat="42.10665" lon="2.36576">
        <ele>986</ele>
        <time>2010-01-01T01:16:59Z</time>
      </trkpt>
      <trkpt lat="42.10666" lon="2.36567">
        <ele>987</ele>
        <time>2010-01-01T01:17:02Z</time>
      </trkpt>
      <trkpt lat="42.1067" lon="2.36548">
        <ele>990</ele>
        <time>2010-01-01T01:17:07Z</time>
      </trkpt>
      <trkpt lat="42.10681" lon="2.36537">
        <ele>994</ele>
        <time>2010-01-01T01:17:13Z</time>
      </trkpt>
      <trkpt lat="42.10687" lon="2.36525">
        <ele>996</ele>
        <time>2010-01-01T01:17:17Z</time>
      </trkpt>
      <trkpt lat="42.10696" lon="2.36513">
        <ele>998</ele>
        <time>2010-01-01T01:17:22Z</time>
      </trkpt>
      <trkpt lat="42.10706" lon="2.36488">
        <ele>1002</ele>
        <time>2010-01-01T01:17:31Z</time>
      </trkpt>
      <trkpt lat="42.1071" lon="2.36483">
        <ele>1003</ele>
        <time>2010-01-01T01:17:33Z</time>
      </trkpt>
      <trkpt lat="42.10719" lon="2.36459">
        <ele>1005</ele>
        <time>2010-01-01T01:17:41Z</time>
      </trkpt>
      <trkpt lat="42.10726" lon="2.36448">
        <ele>1006</ele>
        <time>2010-01-01T01:17:46Z</time>
      </trkpt>
      <trkpt lat="42.10733" lon="2.36432">
        <ele>1007</ele>
        <time>2010-01-01T01:17:51Z</time>
      </trkpt>
      <trkpt lat="42.10738" lon="2.3643">
        <ele>1007</ele>
        <time>2010-01-01T01:17:53Z</time>
      </trkpt>
      <trkpt lat="42.10746" lon="2.36416">
        <ele>1007</ele>
        <time>2010-01-01T01:17:58Z</time>
      </trkpt>
      <trkpt lat="42.10758" lon="2.36402">
        <ele>1009</ele>
        <time>2010-01-01T01:18:04Z</time>
      </trkpt>
      <trkpt lat="42.10766" lon="2.364">
        <ele>1010</ele>
        <time>2010-01-01T01:18:08Z</time>
      </trkpt>
      <trkpt lat="42.10777" lon="2.364">
        <ele>1011</ele>
        <time>2010-01-01T01:18:12Z</time>
      </trkpt>
      <trkpt lat="42.10782" lon="2.36397">
        <ele>1012</ele>
        <time>2010-01-01T01:18:14Z</time>
      </trkpt>
      <trkpt lat="42.10787" lon="2.3639">
        <ele>1013</ele>
        <time>2010-01-01T01:18:17Z</time>
      </trkpt>
      <trkpt lat="42.10797" lon="2.36379">
        <ele>1017</ele>
        <time>2010-01-01T01:18:23Z</time>
      </trkpt>
      <trkpt lat="42.10812" lon="2.36351">
        <ele>1022</ele>
        <time>2010-01-01T01:18:32Z</time>
      </trkpt>
      <trkpt lat="42.10807" lon="2.36352">
        <ele>1020</ele>
        <time>2010-01-01T01:18:34Z</time>
      </trkpt>
      <trkpt lat="42.10804" lon="2.36345">
        <ele>1021</ele>
        <time>2010-01-01T01:18:37Z</time>
      </trkpt>
      <trkpt lat="42.10823" lon="2.36326">
        <ele>1026</ele>
        <time>2010-01-01T01:18:46Z</time>
      </trkpt>
      <trkpt lat="42.10827" lon="2.36315">
        <ele>1029</ele>
        <time>2010-01-01T01:18:50Z</time>
      </trkpt>
      <trkpt lat="42.10829" lon="2.36302">
        <ele>1031</ele>
        <time>2010-01-01T01:18:54Z</time>
      </trkpt>
      <trkpt lat="42.1085" lon="2.36295">
        <ele>1034</ele>
        <time>2010-01-01T01:19:03Z</time>
      </trkpt>
      <trkpt lat="42.10861" lon="2.36266">
        <ele>1041</ele>
        <time>2010-01-01T01:19:12Z</time>
      </trkpt>
      <trkpt lat="42.10871" lon="2.36261">
        <ele>1043</ele>
        <time>2010-01-01T01:19:16Z</time>
      </trkpt>
      <trkpt lat="42.10877" lon="2.36272">
        <ele>1042</ele>
        <time>2010-01-01T01:19:21Z</time>
      </trkpt>
      <trkpt lat="42.10881" lon="2.36286">
        <ele>1041</ele>
        <time>2010-01-01T01:19:25Z</time>
      </trkpt>
      <trkpt lat="42.10884" lon="2.3629">
        <ele>1041</ele>
        <time>2010-01-01T01:19:27Z</time>
      </trkpt>
      <trkpt lat="42.10885" lon="2.36317">
        <ele>1041</ele>
        <time>2010-01-01T01:19:35Z</time>
      </trkpt>
      <trkpt lat="42.10889" lon="2.36326">
        <ele>1043</ele>
        <time>2010-01-01T01:19:38Z</time>
      </trkpt>
      <trkpt lat="42.109" lon="2.36321">
        <ele>1047</ele>
        <time>2010-01-01T01:19:43Z</time>
      </trkpt>
      <trkpt lat="42.10908" lon="2.3631">
        <ele>1048</ele>
        <time>2010-01-01T01:19:47Z</time>
      </trkpt>
      <trkpt lat="42.10911" lon="2.36288">
        <ele>1048</ele>
        <time>2010-01-01T01:19:54Z</time>
      </trkpt>
      <trkpt lat="42.10908" lon="2.36274">
        <ele>1047</ele>
        <time>2010-01-01T01:19:58Z</time>
      </trkpt>
      <trkpt lat="42.10899" lon="2.36259">
        <ele>1048</ele>
        <time>2010-01-01T01:20:04Z</time>
      </trkpt>
      <trkpt lat="42.10896" lon="2.36198">
        <ele>1055</ele>
        <time>2010-01-01T01:20:22Z</time>
      </trkpt>
      <trkpt lat="42.10897" lon="2.3618">
        <ele>1057</ele>
        <time>2010-01-01T01:20:28Z</time>
      </trkpt>
      <trkpt lat="42.10911" lon="2.3612">
        <ele>1074</ele>
        <time>2010-01-01T01:20:46Z</time>
      </trkpt>
      <trkpt lat="42.10908" lon="2.3611">
        <ele>1076</ele>
        <time>2010-01-01T01:20:49Z</time>
      </trkpt>
      <trkpt lat="42.10914" lon="2.36102">
        <ele>1079</ele>
        <time>2010-01-01T01:20:52Z</time>
      </trkpt>
      <trkpt lat="42.10916" lon="2.36102">
        <ele>1079</ele>
        <time>2010-01-01T01:20:53Z</time>
      </trkpt>
      <trkpt lat="42.10923" lon="2.36106">
        <ele>1080</ele>
        <time>2010-01-01T01:20:56Z</time>
      </trkpt>
      <trkpt lat="42.10922" lon="2.36083">
        <ele>1084</ele>
        <time>2010-01-01T01:21:03Z</time>
      </trkpt>
      <trkpt lat="42.10931" lon="2.36072">
        <ele>1089</ele>
        <time>2010-01-01T01:21:08Z</time>
      </trkpt>
      <trkpt lat="42.10926" lon="2.36059">
        <ele>1092</ele>
        <time>2010-01-01T01:21:12Z</time>
      </trkpt>
      <trkpt lat="42.10912" lon="2.36055">
        <ele>1092</ele>
        <time>2010-01-01T01:21:18Z</time>
      </trkpt>
      <trkpt lat="42.10887" lon="2.36057">
        <ele>1091</ele>
        <time>2010-01-01T01:21:28Z</time>
      </trkpt>
      <trkpt lat="42.10893" lon="2.36063">
        <ele>1089</ele>
        <time>2010-01-01T01:21:31Z</time>
      </trkpt>
      <trkpt lat="42.10882" lon="2.36067">
        <ele>1087</ele>
        <time>2010-01-01T01:21:35Z</time>
      </trkpt>
      <trkpt lat="42.10865" lon="2.3607">
        <ele>1087</ele>
        <time>2010-01-01T01:21:42Z</time>
      </trkpt>
      <trkpt lat="42.1085" lon="2.36077">
        <ele>1085</ele>
        <time>2010-01-01T01:21:49Z</time>
      </trkpt>
      <trkpt lat="42.10844" lon="2.36085">
        <ele>1084</ele>
        <time>2010-01-01T01:21:52Z</time>
      </trkpt>
      <trkpt lat="42.10843" lon="2.36079">
        <ele>1085</ele>
        <time>2010-01-01T01:21:54Z</time>
      </trkpt>
      <trkpt lat="42.10846" lon="2.36069">
        <ele>1087</ele>
        <time>2010-01-01T01:21:57Z</time>
      </trkpt>
      <trkpt lat="42.10845" lon="2.3606">
        <ele>1090</ele>
        <time>2010-01-01T01:22:00Z</time>
      </trkpt>
      <trkpt lat="42.10842" lon="2.3605">
        <ele>1093</ele>
        <time>2010-01-01T01:22:03Z</time>
      </trkpt>
      <trkpt lat="42.10841" lon="2.36037">
        <ele>1097</ele>
        <time>2010-01-01T01:22:07Z</time>
      </trkpt>
      <trkpt lat="42.10836" lon="2.36012">
        <ele>1109</ele>
        <time>2010-01-01T01:22:15Z</time>
      </trkpt>
      <trkpt lat="42.10836" lon="2.36">
        <ele>1115</ele>
        <time>2010-01-01T01:22:18Z</time>
      </trkpt>
      <trkpt lat="42.10831" lon="2.35988">
        <ele>1120</ele>
        <time>2010-01-01T01:22:22Z</time>
      </trkpt>
      <trkpt lat="42.10832" lon="2.35981">
        <ele>1123</ele>
        <time>2010-01-01T01:22:24Z</time>
      </trkpt>
      <trkpt lat="42.10829" lon="2.35968">
        <ele>1128</ele>
        <time>2010-01-01T01:22:29Z</time>
      </trkpt>
      <trkpt lat="42.10822" lon="2.35959">
        <ele>1130</ele>
        <time>2010-01-01T01:22:32Z</time>
      </trkpt>
      <trkpt lat="42.10803" lon="2.35951">
        <ele>1128</ele>
        <time>2010-01-01T01:22:40Z</time>
      </trkpt>
      <trkpt lat="42.10776" lon="2.35934">
        <ele>1128</ele>
        <time>2010-01-01T01:22:52Z</time>
      </trkpt>
      <trkpt lat="42.1077" lon="2.35919">
        <ele>1135</ele>
        <time>2010-01-01T01:22:57Z</time>
      </trkpt>
      <trkpt lat="42.10763" lon="2.35914">
        <ele>1136</ele>
        <time>2010-01-01T01:23:00Z</time>
      </trkpt>
      <trkpt lat="42.10762" lon="2.35907">
        <ele>1138</ele>
        <time>2010-01-01T01:23:02Z</time>
      </trkpt>
      <trkpt lat="42.10754" lon="2.35891">
        <ele>1144</ele>
        <time>2010-01-01T01:23:08Z</time>
      </trkpt>
      <trkpt lat="42.10739" lon="2.35876">
        <ele>1146</ele>
        <time>2010-01-01T01:23:16Z</time>
      </trkpt>
      <trkpt lat="42.1073" lon="2.35872">
        <ele>1146</ele>
        <time>2010-01-01T01:23:19Z</time>
      </trkpt>
      <trkpt lat="42.10723" lon="2.35863">
        <ele>1148</ele>
        <time>2010-01-01T01:23:23Z</time>
      </trkpt>
      <trkpt lat="42.10721" lon="2.35857">
        <ele>1150</ele>
        <time>2010-01-01T01:23:25Z</time>
      </trkpt>
      <trkpt lat="42.10711" lon="2.35848">
        <ele>1151</ele>
        <time>2010-01-01T01:23:30Z</time>
      </trkpt>
      <trkpt lat="42.10699" lon="2.35841">
        <ele>1151</ele>
        <time>2010-01-01T01:23:35Z</time>
      </trkpt>
      <trkpt lat="42.10686" lon="2.35823">
        <ele>1151</ele>
        <time>2010-01-01T01:23:43Z</time>
      </trkpt>
      <trkpt lat="42.10684" lon="2.35815">
        <ele>1150</ele>
        <time>2010-01-01T01:23:45Z</time>
      </trkpt>
      <trkpt lat="42.10696" lon="2.35792">
        <ele>1149</ele>
        <time>2010-01-01T01:23:54Z</time>
      </trkpt>
      <trkpt lat="42.10696" lon="2.35785">
        <ele>1147</ele>
        <time>2010-01-01T01:23:56Z</time>
      </trkpt>
      <trkpt lat="42.10704" lon="2.3577">
        <ele>1148</ele>
        <time>2010-01-01T01:24:01Z</time>
      </trkpt>
      <trkpt lat="42.10724" lon="2.35752">
        <ele>1154</ele>
        <time>2010-01-01T01:24:11Z</time>
      </trkpt>
      <trkpt lat="42.10749" lon="2.35736">
        <ele>1166</ele>
        <time>2010-01-01T01:24:22Z</time>
      </trkpt>
      <trkpt lat="42.10758" lon="2.35705">
        <ele>1166</ele>
        <time>2010-01-01T01:24:32Z</time>
      </trkpt>
      <trkpt lat="42.10764" lon="2.35676">
        <ele>1166</ele>
        <time>2010-01-01T01:24:41Z</time>
      </trkpt>
      <trkpt lat="42.10755" lon="2.35643">
        <ele>1154</ele>
        <time>2010-01-01T01:24:51Z</time>
      </trkpt>
      <trkpt lat="42.10763" lon="2.35628">
        <ele>1156</ele>
        <time>2010-01-01T01:24:57Z</time>
      </trkpt>
      <trkpt lat="42.10768" lon="2.35614">
        <ele>1157</ele>
        <time>2010-01-01T01:25:01Z</time>
      </trkpt>
      <trkpt lat="42.10795" lon="2.35589">
        <ele>1168</ele>
        <time>2010-01-01T01:25:15Z</time>
      </trkpt>
      <trkpt lat="42.10803" lon="2.3558">
        <ele>1171</ele>
        <time>2010-01-01T01:25:19Z</time>
      </trkpt>
      <trkpt lat="42.10808" lon="2.35567">
        <ele>1173</ele>
        <time>2010-01-01T01:25:23Z</time>
      </trkpt>
      <trkpt lat="42.10803" lon="2.35556">
        <ele>1171</ele>
        <time>2010-01-01T01:25:27Z</time>
      </trkpt>
      <trkpt lat="42.108" lon="2.35541">
        <ele>1172</ele>
        <time>2010-01-01T01:25:31Z</time>
      </trkpt>
      <trkpt lat="42.10781" lon="2.35506">
        <ele>1172</ele>
        <time>2010-01-01T01:25:44Z</time>
      </trkpt>
      <trkpt lat="42.10777" lon="2.35493">
        <ele>1173</ele>
        <time>2010-01-01T01:25:49Z</time>
      </trkpt>
      <trkpt lat="42.10771" lon="2.35482">
        <ele>1171</ele>
        <time>2010-01-01T01:25:53Z</time>
      </trkpt>
      <trkpt lat="42.1077" lon="2.35465">
        <ele>1171</ele>
        <time>2010-01-01T01:25:58Z</time>
      </trkpt>
      <trkpt lat="42.10778" lon="2.35453">
        <ele>1175</ele>
        <time>2010-01-01T01:26:02Z</time>
      </trkpt>
      <trkpt lat="42.10787" lon="2.35445">
        <ele>1177</ele>
        <time>2010-01-01T01:26:07Z</time>
      </trkpt>
      <trkpt lat="42.10808" lon="2.35416">
        <ele>1182</ele>
        <time>2010-01-01T01:26:19Z</time>
      </trkpt>
      <trkpt lat="42.10816" lon="2.35411">
        <ele>1185</ele>
        <time>2010-01-01T01:26:22Z</time>
      </trkpt>
      <trkpt lat="42.10821" lon="2.35411">
        <ele>1188</ele>
        <time>2010-01-01T01:26:24Z</time>
      </trkpt>
      <trkpt lat="42.10828" lon="2.35403">
        <ele>1191</ele>
        <time>2010-01-01T01:26:28Z</time>
      </trkpt>
      <trkpt lat="42.10835" lon="2.35402">
        <ele>1194</ele>
        <time>2010-01-01T01:26:31Z</time>
      </trkpt>
      <trkpt lat="42.1085" lon="2.35381">
        <ele>1201</ele>
        <time>2010-01-01T01:26:39Z</time>
      </trkpt>
      <trkpt lat="42.10844" lon="2.35374">
        <ele>1198</ele>
        <time>2010-01-01T01:26:43Z</time>
      </trkpt>
      <trkpt lat="42.1084" lon="2.35375">
        <ele>1195</ele>
        <time>2010-01-01T01:26:44Z</time>
      </trkpt>
      <trkpt lat="42.10839" lon="2.3538">
        <ele>1194</ele>
        <time>2010-01-01T01:26:46Z</time>
      </trkpt>
      <trkpt lat="42.10837" lon="2.35373">
        <ele>1193</ele>
        <time>2010-01-01T01:26:48Z</time>
      </trkpt>
      <trkpt lat="42.10833" lon="2.35349">
        <ele>1190</ele>
        <time>2010-01-01T01:26:55Z</time>
      </trkpt>
      <trkpt lat="42.10836" lon="2.35336">
        <ele>1192</ele>
        <time>2010-01-01T01:27:00Z</time>
      </trkpt>
      <trkpt lat="42.10836" lon="2.35299">
        <ele>1192</ele>
        <time>2010-01-01T01:27:10Z</time>
      </trkpt>
      <trkpt lat="42.10838" lon="2.35284">
        <ele>1196</ele>
        <time>2010-01-01T01:27:15Z</time>
      </trkpt>
      <trkpt lat="42.10836" lon="2.35266">
        <ele>1199</ele>
        <time>2010-01-01T01:27:20Z</time>
      </trkpt>
      <trkpt lat="42.10832" lon="2.35253">
        <ele>1199</ele>
        <time>2010-01-01T01:27:25Z</time>
      </trkpt>
      <trkpt lat="42.10827" lon="2.35226">
        <ele>1201</ele>
        <time>2010-01-01T01:27:33Z</time>
      </trkpt>
      <trkpt lat="42.10818" lon="2.35196">
        <ele>1201</ele>
        <time>2010-01-01T01:27:43Z</time>
      </trkpt>
      <trkpt lat="42.10813" lon="2.3517">
        <ele>1206</ele>
        <time>2010-01-01T01:27:50Z</time>
      </trkpt>
      <trkpt lat="42.10807" lon="2.35151">
        <ele>1206</ele>
        <time>2010-01-01T01:27:57Z</time>
      </trkpt>
      <trkpt lat="42.10805" lon="2.35129">
        <ele>1209</ele>
        <time>2010-01-01T01:28:03Z</time>
      </trkpt>
      <trkpt lat="42.10806" lon="2.35112">
        <ele>1212</ele>
        <time>2010-01-01T01:28:08Z</time>
      </trkpt>
      <trkpt lat="42.10782" lon="2.35055">
        <ele>1224</ele>
        <time>2010-01-01T01:28:28Z</time>
      </trkpt>
      <trkpt lat="42.10769" lon="2.35042">
        <ele>1223</ele>
        <time>2010-01-01T01:28:34Z</time>
      </trkpt>
      <trkpt lat="42.1076" lon="2.35039">
        <ele>1220</ele>
        <time>2010-01-01T01:28:38Z</time>
      </trkpt>
      <trkpt lat="42.10746" lon="2.35031">
        <ele>1219</ele>
        <time>2010-01-01T01:28:44Z</time>
      </trkpt>
      <trkpt lat="42.10722" lon="2.35015">
        <ele>1222</ele>
        <time>2010-01-01T01:28:55Z</time>
      </trkpt>
      <trkpt lat="42.1071" lon="2.35004">
        <ele>1226</ele>
        <time>2010-01-01T01:29:01Z</time>
      </trkpt>
      <trkpt lat="42.10701" lon="2.34994">
        <ele>1229</ele>
        <time>2010-01-01T01:29:05Z</time>
      </trkpt>
      <trkpt lat="42.1069" lon="2.34989">
        <ele>1230</ele>
        <time>2010-01-01T01:29:10Z</time>
      </trkpt>
      <trkpt lat="42.10667" lon="2.34996">
        <ele>1225</ele>
        <time>2010-01-01T01:29:19Z</time>
      </trkpt>
      <trkpt lat="42.10643" lon="2.34993">
        <ele>1226</ele>
        <time>2010-01-01T01:29:29Z</time>
      </trkpt>
      <trkpt lat="42.10633" lon="2.3498">
        <ele>1225</ele>
        <time>2010-01-01T01:29:35Z</time>
      </trkpt>
      <trkpt lat="42.10632" lon="2.34977">
        <ele>1225</ele>
        <time>2010-01-01T01:29:36Z</time>
      </trkpt>
      <trkpt lat="42.10634" lon="2.34975">
        <ele>1225</ele>
        <time>2010-01-01T01:29:36Z</time>
      </trkpt>
      <trkpt lat="42.10642" lon="2.34974">
        <ele>1226</ele>
        <time>2010-01-01T01:29:40Z</time>
      </trkpt>
      <trkpt lat="42.10651" lon="2.3497">
        <ele>1228</ele>
        <time>2010-01-01T01:29:44Z</time>
      </trkpt>
      <trkpt lat="42.10659" lon="2.3497">
        <ele>1229</ele>
        <time>2010-01-01T01:29:47Z</time>
      </trkpt>
      <trkpt lat="42.10674" lon="2.34962">
        <ele>1233</ele>
        <time>2010-01-01T01:29:53Z</time>
      </trkpt>
      <trkpt lat="42.10681" lon="2.3495">
        <ele>1235</ele>
        <time>2010-01-01T01:29:58Z</time>
      </trkpt>
      <trkpt lat="42.1068" lon="2.34945">
        <ele>1235</ele>
        <time>2010-01-01T01:30:00Z</time>
      </trkpt>
      <trkpt lat="42.10683" lon="2.34931">
        <ele>1236</ele>
        <time>2010-01-01T01:30:04Z</time>
      </trkpt>
      <trkpt lat="42.10699" lon="2.34911">
        <ele>1244</ele>
        <time>2010-01-01T01:30:13Z</time>
      </trkpt>
      <trkpt lat="42.10703" lon="2.349">
        <ele>1245</ele>
        <time>2010-01-01T01:30:16Z</time>
      </trkpt>
      <trkpt lat="42.10703" lon="2.34883">
        <ele>1245</ele>
        <time>2010-01-01T01:30:21Z</time>
      </trkpt>
      <trkpt lat="42.10707" lon="2.34878">
        <ele>1247</ele>
        <time>2010-01-01T01:30:23Z</time>
      </trkpt>
      <trkpt lat="42.10708" lon="2.34861">
        <ele>1246</ele>
        <time>2010-01-01T01:30:28Z</time>
      </trkpt>
      <trkpt lat="42.10714" lon="2.34847">
        <ele>1247</ele>
        <time>2010-01-01T01:30:33Z</time>
      </trkpt>
      <trkpt lat="42.10723" lon="2.3483">
        <ele>1251</ele>
        <time>2010-01-01T01:30:39Z</time>
      </trkpt>
      <trkpt lat="42.10727" lon="2.34817">
        <ele>1253</ele>
        <time>2010-01-01T01:30:43Z</time>
      </trkpt>
      <trkpt lat="42.10729" lon="2.34798">
        <ele>1254</ele>
        <time>2010-01-01T01:30:49Z</time>
      </trkpt>
      <trkpt lat="42.10726" lon="2.34767">
        <ele>1254</ele>
        <time>2010-01-01T01:30:59Z</time>
      </trkpt>
      <trkpt lat="42.10735" lon="2.34733">
        <ele>1259</ele>
        <time>2010-01-01T01:31:09Z</time>
      </trkpt>
      <trkpt lat="42.10737" lon="2.34716">
        <ele>1260</ele>
        <time>2010-01-01T01:31:14Z</time>
      </trkpt>
      <trkpt lat="42.10743" lon="2.34709">
        <ele>1263</ele>
        <time>2010-01-01T01:31:18Z</time>
      </trkpt>
      <trkpt lat="42.10746" lon="2.3471">
        <ele>1264</ele>
        <time>2010-01-01T01:31:19Z</time>
      </trkpt>
      <trkpt lat="42.10744" lon="2.34715">
        <ele>1263</ele>
        <time>2010-01-01T01:31:20Z</time>
      </trkpt>
      <trkpt lat="42.10747" lon="2.3473">
        <ele>1264</ele>
        <time>2010-01-01T01:31:25Z</time>
      </trkpt>
      <trkpt lat="42.10745" lon="2.34747">
        <ele>1264</ele>
        <time>2010-01-01T01:31:30Z</time>
      </trkpt>
      <trkpt lat="42.1075" lon="2.34758">
        <ele>1266</ele>
        <time>2010-01-01T01:31:34Z</time>
      </trkpt>
      <trkpt lat="42.10747" lon="2.34775">
        <ele>1264</ele>
        <time>2010-01-01T01:31:39Z</time>
      </trkpt>
      <trkpt lat="42.10752" lon="2.34795">
        <ele>1266</ele>
        <time>2010-01-01T01:31:45Z</time>
      </trkpt>
      <trkpt lat="42.10752" lon="2.34831">
        <ele>1268</ele>
        <time>2010-01-01T01:31:56Z</time>
      </trkpt>
      <trkpt lat="42.10755" lon="2.34852">
        <ele>1270</ele>
        <time>2010-01-01T01:32:02Z</time>
      </trkpt>
      <trkpt lat="42.10755" lon="2.34863">
        <ele>1271</ele>
        <time>2010-01-01T01:32:06Z</time>
      </trkpt>
      <trkpt lat="42.10759" lon="2.34877">
        <ele>1272</ele>
        <time>2010-01-01T01:32:10Z</time>
      </trkpt>
      <trkpt lat="42.10769" lon="2.34876">
        <ele>1275</ele>
        <time>2010-01-01T01:32:14Z</time>
      </trkpt>
      <trkpt lat="42.10776" lon="2.34872">
        <ele>1279</ele>
        <time>2010-01-01T01:32:17Z</time>
      </trkpt>
      <trkpt lat="42.10781" lon="2.34874">
        <ele>1280</ele>
        <time>2010-01-01T01:32:19Z</time>
      </trkpt>
      <trkpt lat="42.10791" lon="2.34887">
        <ele>1283</ele>
        <time>2010-01-01T01:32:25Z</time>
      </trkpt>
      <trkpt lat="42.1081" lon="2.34903">
        <ele>1287</ele>
        <time>2010-01-01T01:32:34Z</time>
      </trkpt>
      <trkpt lat="42.1082" lon="2.34914">
        <ele>1290</ele>
        <time>2010-01-01T01:32:39Z</time>
      </trkpt>
      <trkpt lat="42.10831" lon="2.34918">
        <ele>1294</ele>
        <time>2010-01-01T01:32:43Z</time>
      </trkpt>
      <trkpt lat="42.1084" lon="2.34919">
        <ele>1298</ele>
        <time>2010-01-01T01:32:47Z</time>
      </trkpt>
      <trkpt lat="42.10847" lon="2.34915">
        <ele>1301</ele>
        <time>2010-01-01T01:32:50Z</time>
      </trkpt>
      <trkpt lat="42.1085" lon="2.34916">
        <ele>1302</ele>
        <time>2010-01-01T01:32:51Z</time>
      </trkpt>
      <trkpt lat="42.10854" lon="2.34914">
        <ele>1304</ele>
        <time>2010-01-01T01:32:53Z</time>
      </trkpt>
      <trkpt lat="42.10855" lon="2.34915">
        <ele>1304</ele>
        <time>2010-01-01T01:32:54Z</time>
      </trkpt>
      <trkpt lat="42.10861" lon="2.34915">
        <ele>1306</ele>
        <time>2010-01-01T01:32:56Z</time>
      </trkpt>
      <trkpt lat="42.10869" lon="2.34911">
        <ele>1308</ele>
        <time>2010-01-01T01:33:00Z</time>
      </trkpt>
      <trkpt lat="42.10871" lon="2.34918">
        <ele>1310</ele>
        <time>2010-01-01T01:33:02Z</time>
      </trkpt>
      <trkpt lat="42.10879" lon="2.34917">
        <ele>1312</ele>
        <time>2010-01-01T01:33:05Z</time>
      </trkpt>
      <trkpt lat="42.10879" lon="2.34935">
        <ele>1314</ele>
        <time>2010-01-01T01:33:10Z</time>
      </trkpt>
      <trkpt lat="42.10882" lon="2.34938">
        <ele>1315</ele>
        <time>2010-01-01T01:33:12Z</time>
      </trkpt>
      <trkpt lat="42.10884" lon="2.34944">
        <ele>1317</ele>
        <time>2010-01-01T01:33:14Z</time>
      </trkpt>
      <trkpt lat="42.10888" lon="2.34946">
        <ele>1319</ele>
        <time>2010-01-01T01:33:15Z</time>
      </trkpt>
      <trkpt lat="42.10892" lon="2.34947">
        <ele>1320</ele>
        <time>2010-01-01T01:33:17Z</time>
      </trkpt>
      <trkpt lat="42.10892" lon="2.3494">
        <ele>1319</ele>
        <time>2010-01-01T01:33:19Z</time>
      </trkpt>
      <trkpt lat="42.10896" lon="2.34944">
        <ele>1320</ele>
        <time>2010-01-01T01:33:21Z</time>
      </trkpt>
      <trkpt lat="42.10898" lon="2.34941">
        <ele>1320</ele>
        <time>2010-01-01T01:33:22Z</time>
      </trkpt>
      <trkpt lat="42.10895" lon="2.34938">
        <ele>1319</ele>
        <time>2010-01-01T01:33:24Z</time>
      </trkpt>
      <trkpt lat="42.10898" lon="2.34942">
        <ele>1320</ele>
        <time>2010-01-01T01:33:25Z</time>
      </trkpt>
      <trkpt lat="42.10901" lon="2.34935">
        <ele>1319</ele>
        <time>2010-01-01T01:33:28Z</time>
      </trkpt>
      <trkpt lat="42.10899" lon="2.34933">
        <ele>1319</ele>
        <time>2010-01-01T01:33:29Z</time>
      </trkpt>
      <trkpt lat="42.109" lon="2.3493">
        <ele>1318</ele>
        <time>2010-01-01T01:33:30Z</time>
      </trkpt>
      <trkpt lat="42.10906" lon="2.34937">
        <ele>1320</ele>
        <time>2010-01-01T01:33:33Z</time>
      </trkpt>
      <trkpt lat="42.10901" lon="2.34934">
        <ele>1319</ele>
        <time>2010-01-01T01:33:35Z</time>
      </trkpt>
      <trkpt lat="42.10898" lon="2.34933">
        <ele>1319</ele>
        <time>2010-01-01T01:33:36Z</time>
      </trkpt>
      <trkpt lat="42.10899" lon="2.34935">
        <ele>1319</ele>
        <time>2010-01-01T01:33:37Z</time>
      </trkpt>
      <trkpt lat="42.10898" lon="2.34932">
        <ele>1318</ele>
        <time>2010-01-01T01:33:38Z</time>
      </trkpt>
      <trkpt lat="42.10898" lon="2.3494">
        <ele>1320</ele>
        <time>2010-01-01T01:33:40Z</time>
      </trkpt>
      <trkpt lat="42.10895" lon="2.34942">
        <ele>1320</ele>
        <time>2010-01-01T01:33:41Z</time>
      </trkpt>
      <trkpt lat="42.10895" lon="2.34947">
        <ele>1320</ele>
        <time>2010-01-01T01:33:43Z</time>
      </trkpt>
      <trkpt lat="42.10892" lon="2.34946">
        <ele>1320</ele>
        <time>2010-01-01T01:33:45Z</time>
      </trkpt>
      <trkpt lat="42.1089" lon="2.3494">
        <ele>1319</ele>
        <time>2010-01-01T01:33:47Z</time>
      </trkpt>
      <trkpt lat="42.10889" lon="2.34948">
        <ele>1319</ele>
        <time>2010-01-01T01:33:49Z</time>
      </trkpt>
      <trkpt lat="42.10879" lon="2.34938">
        <ele>1314</ele>
        <time>2010-01-01T01:33:54Z</time>
      </trkpt>
      <trkpt lat="42.10878" lon="2.34932">
        <ele>1313</ele>
        <time>2010-01-01T01:33:56Z</time>
      </trkpt>
      <trkpt lat="42.1088" lon="2.34925">
        <ele>1313</ele>
        <time>2010-01-01T01:33:58Z</time>
      </trkpt>
      <trkpt lat="42.10878" lon="2.34918">
        <ele>1312</ele>
        <time>2010-01-01T01:34:00Z</time>
      </trkpt>
      <trkpt lat="42.10874" lon="2.34922">
        <ele>1311</ele>
        <time>2010-01-01T01:34:02Z</time>
      </trkpt>
      <trkpt lat="42.10871" lon="2.34916">
        <ele>1309</ele>
        <time>2010-01-01T01:34:05Z</time>
      </trkpt>
      <trkpt lat="42.10861" lon="2.34918">
        <ele>1306</ele>
        <time>2010-01-01T01:34:09Z</time>
      </trkpt>
      <trkpt lat="42.10855" lon="2.34914">
        <ele>1304</ele>
        <time>2010-01-01T01:34:11Z</time>
      </trkpt>
      <trkpt lat="42.1085" lon="2.34914">
        <ele>1302</ele>
        <time>2010-01-01T01:34:14Z</time>
      </trkpt>
      <trkpt lat="42.10848" lon="2.34913">
        <ele>1301</ele>
        <time>2010-01-01T01:34:14Z</time>
      </trkpt>
      <trkpt lat="42.10841" lon="2.34918">
        <ele>1298</ele>
        <time>2010-01-01T01:34:18Z</time>
      </trkpt>
      <trkpt lat="42.10829" lon="2.34916">
        <ele>1294</ele>
        <time>2010-01-01T01:34:22Z</time>
      </trkpt>
      <trkpt lat="42.10817" lon="2.34919">
        <ele>1289</ele>
        <time>2010-01-01T01:34:27Z</time>
      </trkpt>
      <trkpt lat="42.10811" lon="2.34914">
        <ele>1287</ele>
        <time>2010-01-01T01:34:30Z</time>
      </trkpt>
      <trkpt lat="42.10799" lon="2.34897">
        <ele>1284</ele>
        <time>2010-01-01T01:34:37Z</time>
      </trkpt>
      <trkpt lat="42.10784" lon="2.34887">
        <ele>1281</ele>
        <time>2010-01-01T01:34:44Z</time>
      </trkpt>
      <trkpt lat="42.10777" lon="2.34877">
        <ele>1279</ele>
        <time>2010-01-01T01:34:48Z</time>
      </trkpt>
      <trkpt lat="42.10763" lon="2.34882">
        <ele>1273</ele>
        <time>2010-01-01T01:34:54Z</time>
      </trkpt>
      <trkpt lat="42.10758" lon="2.3487">
        <ele>1272</ele>
        <time>2010-01-01T01:34:58Z</time>
      </trkpt>
      <trkpt lat="42.10757" lon="2.34833">
        <ele>1271</ele>
        <time>2010-01-01T01:35:09Z</time>
      </trkpt>
      <trkpt lat="42.10754" lon="2.34813">
        <ele>1268</ele>
        <time>2010-01-01T01:35:15Z</time>
      </trkpt>
      <trkpt lat="42.10755" lon="2.3477">
        <ele>1267</ele>
        <time>2010-01-01T01:35:27Z</time>
      </trkpt>
      <trkpt lat="42.10744" lon="2.34754">
        <ele>1264</ele>
        <time>2010-01-01T01:35:34Z</time>
      </trkpt>
      <trkpt lat="42.10745" lon="2.34741">
        <ele>1264</ele>
        <time>2010-01-01T01:35:38Z</time>
      </trkpt>
      <trkpt lat="42.10748" lon="2.34733">
        <ele>1265</ele>
        <time>2010-01-01T01:35:40Z</time>
      </trkpt>
      <trkpt lat="42.10748" lon="2.34717">
        <ele>1265</ele>
        <time>2010-01-01T01:35:45Z</time>
      </trkpt>
      <trkpt lat="42.10744" lon="2.34712">
        <ele>1263</ele>
        <time>2010-01-01T01:35:47Z</time>
      </trkpt>
      <trkpt lat="42.10739" lon="2.34717">
        <ele>1261</ele>
        <time>2010-01-01T01:35:50Z</time>
      </trkpt>
      <trkpt lat="42.1074" lon="2.34717">
        <ele>1262</ele>
        <time>2010-01-01T01:35:50Z</time>
      </trkpt>
      <trkpt lat="42.10732" lon="2.34724">
        <ele>1258</ele>
        <time>2010-01-01T01:35:54Z</time>
      </trkpt>
      <trkpt lat="42.10733" lon="2.34723">
        <ele>1258</ele>
        <time>2010-01-01T01:35:55Z</time>
      </trkpt>
      <trkpt lat="42.10734" lon="2.34736">
        <ele>1259</ele>
        <time>2010-01-01T01:35:59Z</time>
      </trkpt>
      <trkpt lat="42.10732" lon="2.34736">
        <ele>1258</ele>
        <time>2010-01-01T01:35:59Z</time>
      </trkpt>
      <trkpt lat="42.10729" lon="2.3474">
        <ele>1257</ele>
        <time>2010-01-01T01:36:01Z</time>
      </trkpt>
      <trkpt lat="42.10727" lon="2.34752">
        <ele>1256</ele>
        <time>2010-01-01T01:36:05Z</time>
      </trkpt>
      <trkpt lat="42.10725" lon="2.34794">
        <ele>1252</ele>
        <time>2010-01-01T01:36:17Z</time>
      </trkpt>
      <trkpt lat="42.10721" lon="2.34822">
        <ele>1250</ele>
        <time>2010-01-01T01:36:26Z</time>
      </trkpt>
      <trkpt lat="42.10709" lon="2.34846">
        <ele>1245</ele>
        <time>2010-01-01T01:36:34Z</time>
      </trkpt>
      <trkpt lat="42.10703" lon="2.34901">
        <ele>1246</ele>
        <time>2010-01-01T01:36:51Z</time>
      </trkpt>
      <trkpt lat="42.10687" lon="2.34925">
        <ele>1238</ele>
        <time>2010-01-01T01:37:00Z</time>
      </trkpt>
      <trkpt lat="42.10681" lon="2.34931">
        <ele>1235</ele>
        <time>2010-01-01T01:37:03Z</time>
      </trkpt>
      <trkpt lat="42.1068" lon="2.3494">
        <ele>1235</ele>
        <time>2010-01-01T01:37:06Z</time>
      </trkpt>
      <trkpt lat="42.10681" lon="2.34957">
        <ele>1235</ele>
        <time>2010-01-01T01:37:11Z</time>
      </trkpt>
      <trkpt lat="42.10711" lon="2.34969">
        <ele>1242</ele>
        <time>2010-01-01T01:37:23Z</time>
      </trkpt>
      <trkpt lat="42.1072" lon="2.34977">
        <ele>1241</ele>
        <time>2010-01-01T01:37:28Z</time>
      </trkpt>
      <trkpt lat="42.10729" lon="2.34997">
        <ele>1233</ele>
        <time>2010-01-01T01:37:35Z</time>
      </trkpt>
      <trkpt lat="42.10739" lon="2.34997">
        <ele>1234</ele>
        <time>2010-01-01T01:37:39Z</time>
      </trkpt>
      <trkpt lat="42.10746" lon="2.35005">
        <ele>1231</ele>
        <time>2010-01-01T01:37:42Z</time>
      </trkpt>
      <trkpt lat="42.10757" lon="2.35013">
        <ele>1230</ele>
        <time>2010-01-01T01:37:47Z</time>
      </trkpt>
      <trkpt lat="42.1077" lon="2.35015">
        <ele>1234</ele>
        <time>2010-01-01T01:37:53Z</time>
      </trkpt>
      <trkpt lat="42.10779" lon="2.3502">
        <ele>1235</ele>
        <time>2010-01-01T01:37:57Z</time>
      </trkpt>
      <trkpt lat="42.10796" lon="2.35035">
        <ele>1239</ele>
        <time>2010-01-01T01:38:05Z</time>
      </trkpt>
      <trkpt lat="42.10807" lon="2.35064">
        <ele>1233</ele>
        <time>2010-01-01T01:38:14Z</time>
      </trkpt>
      <trkpt lat="42.1082" lon="2.35082">
        <ele>1231</ele>
        <time>2010-01-01T01:38:22Z</time>
      </trkpt>
      <trkpt lat="42.10825" lon="2.35095">
        <ele>1229</ele>
        <time>2010-01-01T01:38:26Z</time>
      </trkpt>
      <trkpt lat="42.10827" lon="2.35127">
        <ele>1224</ele>
        <time>2010-01-01T01:38:36Z</time>
      </trkpt>
      <trkpt lat="42.10838" lon="2.35141">
        <ele>1231</ele>
        <time>2010-01-01T01:38:42Z</time>
      </trkpt>
      <trkpt lat="42.10842" lon="2.35156">
        <ele>1230</ele>
        <time>2010-01-01T01:38:46Z</time>
      </trkpt>
      <trkpt lat="42.1085" lon="2.35171">
        <ele>1231</ele>
        <time>2010-01-01T01:38:52Z</time>
      </trkpt>
      <trkpt lat="42.10859" lon="2.35181">
        <ele>1232</ele>
        <time>2010-01-01T01:38:56Z</time>
      </trkpt>
      <trkpt lat="42.10868" lon="2.35205">
        <ele>1231</ele>
        <time>2010-01-01T01:39:04Z</time>
      </trkpt>
      <trkpt lat="42.10875" lon="2.35216">
        <ele>1232</ele>
        <time>2010-01-01T01:39:09Z</time>
      </trkpt>
      <trkpt lat="42.10878" lon="2.35245">
        <ele>1229</ele>
        <time>2010-01-01T01:39:17Z</time>
      </trkpt>
      <trkpt lat="42.10884" lon="2.35263">
        <ele>1230</ele>
        <time>2010-01-01T01:39:23Z</time>
      </trkpt>
      <trkpt lat="42.10884" lon="2.35277">
        <ele>1228</ele>
        <time>2010-01-01T01:39:27Z</time>
      </trkpt>
      <trkpt lat="42.10889" lon="2.35292">
        <ele>1232</ele>
        <time>2010-01-01T01:39:32Z</time>
      </trkpt>
      <trkpt lat="42.10891" lon="2.35322">
        <ele>1232</ele>
        <time>2010-01-01T01:39:41Z</time>
      </trkpt>
      <trkpt lat="42.10893" lon="2.35337">
        <ele>1232</ele>
        <time>2010-01-01T01:39:46Z</time>
      </trkpt>
      <trkpt lat="42.10891" lon="2.35347">
        <ele>1229</ele>
        <time>2010-01-01T01:39:49Z</time>
      </trkpt>
      <trkpt lat="42.10897" lon="2.35389">
        <ele>1230</ele>
        <time>2010-01-01T01:40:02Z</time>
      </trkpt>
      <trkpt lat="42.10892" lon="2.3541">
        <ele>1228</ele>
        <time>2010-01-01T01:40:08Z</time>
      </trkpt>
      <trkpt lat="42.10895" lon="2.3543">
        <ele>1231</ele>
        <time>2010-01-01T01:40:14Z</time>
      </trkpt>
      <trkpt lat="42.10892" lon="2.35445">
        <ele>1230</ele>
        <time>2010-01-01T01:40:19Z</time>
      </trkpt>
      <trkpt lat="42.10886" lon="2.35458">
        <ele>1228</ele>
        <time>2010-01-01T01:40:23Z</time>
      </trkpt>
      <trkpt lat="42.10886" lon="2.35475">
        <ele>1228</ele>
        <time>2010-01-01T01:40:29Z</time>
      </trkpt>
      <trkpt lat="42.1089" lon="2.35491">
        <ele>1229</ele>
        <time>2010-01-01T01:40:34Z</time>
      </trkpt>
      <trkpt lat="42.10898" lon="2.35505">
        <ele>1232</ele>
        <time>2010-01-01T01:40:39Z</time>
      </trkpt>
      <trkpt lat="42.10903" lon="2.3552">
        <ele>1234</ele>
        <time>2010-01-01T01:40:44Z</time>
      </trkpt>
      <trkpt lat="42.10917" lon="2.35546">
        <ele>1238</ele>
        <time>2010-01-01T01:40:53Z</time>
      </trkpt>
      <trkpt lat="42.10916" lon="2.35557">
        <ele>1235</ele>
        <time>2010-01-01T01:40:56Z</time>
      </trkpt>
      <trkpt lat="42.10918" lon="2.3557">
        <ele>1235</ele>
        <time>2010-01-01T01:41:00Z</time>
      </trkpt>
      <trkpt lat="42.10914" lon="2.35583">
        <ele>1231</ele>
        <time>2010-01-01T01:41:04Z</time>
      </trkpt>
      <trkpt lat="42.10913" lon="2.35594">
        <ele>1231</ele>
        <time>2010-01-01T01:41:08Z</time>
      </trkpt>
      <trkpt lat="42.10905" lon="2.35609">
        <ele>1227</ele>
        <time>2010-01-01T01:41:13Z</time>
      </trkpt>
      <trkpt lat="42.10898" lon="2.35637">
        <ele>1227</ele>
        <time>2010-01-01T01:41:22Z</time>
      </trkpt>
      <trkpt lat="42.109" lon="2.35655">
        <ele>1229</ele>
        <time>2010-01-01T01:41:27Z</time>
      </trkpt>
      <trkpt lat="42.10908" lon="2.35664">
        <ele>1230</ele>
        <time>2010-01-01T01:41:32Z</time>
      </trkpt>
      <trkpt lat="42.10922" lon="2.35663">
        <ele>1233</ele>
        <time>2010-01-01T01:41:37Z</time>
      </trkpt>
      <trkpt lat="42.10929" lon="2.35666">
        <ele>1234</ele>
        <time>2010-01-01T01:41:40Z</time>
      </trkpt>
      <trkpt lat="42.10949" lon="2.35668">
        <ele>1239</ele>
        <time>2010-01-01T01:41:48Z</time>
      </trkpt>
      <trkpt lat="42.10957" lon="2.35673">
        <ele>1240</ele>
        <time>2010-01-01T01:41:52Z</time>
      </trkpt>
      <trkpt lat="42.10984" lon="2.357">
        <ele>1235</ele>
        <time>2010-01-01T01:42:05Z</time>
      </trkpt>
      <trkpt lat="42.10995" lon="2.35709">
        <ele>1236</ele>
        <time>2010-01-01T01:42:10Z</time>
      </trkpt>
      <trkpt lat="42.11013" lon="2.35734">
        <ele>1230</ele>
        <time>2010-01-01T01:42:21Z</time>
      </trkpt>
      <trkpt lat="42.1102" lon="2.3575">
        <ele>1223</ele>
        <time>2010-01-01T01:42:26Z</time>
      </trkpt>
      <trkpt lat="42.11029" lon="2.35761">
        <ele>1220</ele>
        <time>2010-01-01T01:42:31Z</time>
      </trkpt>
      <trkpt lat="42.11049" lon="2.35767">
        <ele>1225</ele>
        <time>2010-01-01T01:42:39Z</time>
      </trkpt>
      <trkpt lat="42.11053" lon="2.35778">
        <ele>1220</ele>
        <time>2010-01-01T01:42:43Z</time>
      </trkpt>
      <trkpt lat="42.11054" lon="2.3578">
        <ele>1220</ele>
        <time>2010-01-01T01:42:44Z</time>
      </trkpt>
      <trkpt lat="42.11064" lon="2.35782">
        <ele>1223</ele>
        <time>2010-01-01T01:42:47Z</time>
      </trkpt>
      <trkpt lat="42.11073" lon="2.3578">
        <ele>1227</ele>
        <time>2010-01-01T01:42:51Z</time>
      </trkpt>
      <trkpt lat="42.11088" lon="2.35773">
        <ele>1237</ele>
        <time>2010-01-01T01:42:58Z</time>
      </trkpt>
      <trkpt lat="42.11113" lon="2.35765">
        <ele>1247</ele>
        <time>2010-01-01T01:43:08Z</time>
      </trkpt>
      <trkpt lat="42.11127" lon="2.35758">
        <ele>1249</ele>
        <time>2010-01-01T01:43:14Z</time>
      </trkpt>
      <trkpt lat="42.11134" lon="2.35756">
        <ele>1249</ele>
        <time>2010-01-01T01:43:17Z</time>
      </trkpt>
      <trkpt lat="42.11142" lon="2.35758">
        <ele>1249</ele>
        <time>2010-01-01T01:43:20Z</time>
      </trkpt>
      <trkpt lat="42.11135" lon="2.35755">
        <ele>1249</ele>
        <time>2010-01-01T01:43:23Z</time>
      </trkpt>
      <trkpt lat="42.11148" lon="2.35766">
        <ele>1248</ele>
        <time>2010-01-01T01:43:29Z</time>
      </trkpt>
      <trkpt lat="42.11155" lon="2.35795">
        <ele>1247</ele>
        <time>2010-01-01T01:43:38Z</time>
      </trkpt>
      <trkpt lat="42.11155" lon="2.35817">
        <ele>1246</ele>
        <time>2010-01-01T01:43:44Z</time>
      </trkpt>
      <trkpt lat="42.11157" lon="2.35833">
        <ele>1246</ele>
        <time>2010-01-01T01:43:49Z</time>
      </trkpt>
      <trkpt lat="42.11168" lon="2.35859">
        <ele>1253</ele>
        <time>2010-01-01T01:43:58Z</time>
      </trkpt>
      <trkpt lat="42.11166" lon="2.35873">
        <ele>1252</ele>
        <time>2010-01-01T01:44:02Z</time>
      </trkpt>
      <trkpt lat="42.11177" lon="2.35885">
        <ele>1259</ele>
        <time>2010-01-01T01:44:08Z</time>
      </trkpt>
      <trkpt lat="42.11177" lon="2.35896">
        <ele>1258</ele>
        <time>2010-01-01T01:44:11Z</time>
      </trkpt>
      <trkpt lat="42.11172" lon="2.35911">
        <ele>1252</ele>
        <time>2010-01-01T01:44:16Z</time>
      </trkpt>
      <trkpt lat="42.11169" lon="2.35932">
        <ele>1249</ele>
        <time>2010-01-01T01:44:23Z</time>
      </trkpt>
      <trkpt lat="42.11177" lon="2.35958">
        <ele>1255</ele>
        <time>2010-01-01T01:44:31Z</time>
      </trkpt>
      <trkpt lat="42.11181" lon="2.35974">
        <ele>1257</ele>
        <time>2010-01-01T01:44:36Z</time>
      </trkpt>
      <trkpt lat="42.11191" lon="2.35987">
        <ele>1260</ele>
        <time>2010-01-01T01:44:41Z</time>
      </trkpt>
      <trkpt lat="42.112" lon="2.3602">
        <ele>1257</ele>
        <time>2010-01-01T01:44:52Z</time>
      </trkpt>
      <trkpt lat="42.11205" lon="2.36046">
        <ele>1253</ele>
        <time>2010-01-01T01:45:00Z</time>
      </trkpt>
      <trkpt lat="42.1121" lon="2.36058">
        <ele>1253</ele>
        <time>2010-01-01T01:45:04Z</time>
      </trkpt>
      <trkpt lat="42.11221" lon="2.36072">
        <ele>1255</ele>
        <time>2010-01-01T01:45:10Z</time>
      </trkpt>
      <trkpt lat="42.11223" lon="2.36099">
        <ele>1251</ele>
        <time>2010-01-01T01:45:18Z</time>
      </trkpt>
      <trkpt lat="42.11227" lon="2.36106">
        <ele>1252</ele>
        <time>2010-01-01T01:45:21Z</time>
      </trkpt>
      <trkpt lat="42.11234" lon="2.36149">
        <ele>1245</ele>
        <time>2010-01-01T01:45:34Z</time>
      </trkpt>
      <trkpt lat="42.11239" lon="2.36163">
        <ele>1244</ele>
        <time>2010-01-01T01:45:38Z</time>
      </trkpt>
      <trkpt lat="42.11245" lon="2.36174">
        <ele>1246</ele>
        <time>2010-01-01T01:45:43Z</time>
      </trkpt>
      <trkpt lat="42.1125" lon="2.3619">
        <ele>1246</ele>
        <time>2010-01-01T01:45:48Z</time>
      </trkpt>
      <trkpt lat="42.11249" lon="2.36205">
        <ele>1243</ele>
        <time>2010-01-01T01:45:52Z</time>
      </trkpt>
      <trkpt lat="42.11257" lon="2.36237">
        <ele>1247</ele>
        <time>2010-01-01T01:46:02Z</time>
      </trkpt>
      <trkpt lat="42.11261" lon="2.36246">
        <ele>1249</ele>
        <time>2010-01-01T01:46:05Z</time>
      </trkpt>
      <trkpt lat="42.11262" lon="2.36264">
        <ele>1250</ele>
        <time>2010-01-01T01:46:11Z</time>
      </trkpt>
      <trkpt lat="42.11262" lon="2.36282">
        <ele>1250</ele>
        <time>2010-01-01T01:46:16Z</time>
      </trkpt>
      <trkpt lat="42.11265" lon="2.3629">
        <ele>1252</ele>
        <time>2010-01-01T01:46:19Z</time>
      </trkpt>
      <trkpt lat="42.1127" lon="2.36302">
        <ele>1255</ele>
        <time>2010-01-01T01:46:23Z</time>
      </trkpt>
      <trkpt lat="42.11285" lon="2.36313">
        <ele>1262</ele>
        <time>2010-01-01T01:46:30Z</time>
      </trkpt>
      <trkpt lat="42.11294" lon="2.36325">
        <ele>1264</ele>
        <time>2010-01-01T01:46:35Z</time>
      </trkpt>
      <trkpt lat="42.11301" lon="2.36329">
        <ele>1266</ele>
        <time>2010-01-01T01:46:38Z</time>
      </trkpt>
      <trkpt lat="42.11311" lon="2.36341">
        <ele>1263</ele>
        <time>2010-01-01T01:46:43Z</time>
      </trkpt>
      <trkpt lat="42.11322" lon="2.36349">
        <ele>1260</ele>
        <time>2010-01-01T01:46:48Z</time>
      </trkpt>
      <trkpt lat="42.11343" lon="2.36368">
        <ele>1254</ele>
        <time>2010-01-01T01:46:58Z</time>
      </trkpt>
      <trkpt lat="42.11343" lon="2.36376">
        <ele>1250</ele>
        <time>2010-01-01T01:47:01Z</time>
      </trkpt>
      <trkpt lat="42.11346" lon="2.36383">
        <ele>1247</ele>
        <time>2010-01-01T01:47:03Z</time>
      </trkpt>
      <trkpt lat="42.11383" lon="2.36404">
        <ele>1249</ele>
        <time>2010-01-01T01:47:19Z</time>
      </trkpt>
      <trkpt lat="42.11389" lon="2.36414">
        <ele>1247</ele>
        <time>2010-01-01T01:47:23Z</time>
      </trkpt>
      <trkpt lat="42.11407" lon="2.36426">
        <ele>1251</ele>
        <time>2010-01-01T01:47:31Z</time>
      </trkpt>
      <trkpt lat="42.11419" lon="2.36444">
        <ele>1252</ele>
        <time>2010-01-01T01:47:38Z</time>
      </trkpt>
      <trkpt lat="42.11422" lon="2.36464">
        <ele>1253</ele>
        <time>2010-01-01T01:47:44Z</time>
      </trkpt>
      <trkpt lat="42.11442" lon="2.36538">
        <ele>1260</ele>
        <time>2010-01-01T01:48:08Z</time>
      </trkpt>
      <trkpt lat="42.11445" lon="2.36562">
        <ele>1260</ele>
        <time>2010-01-01T01:48:15Z</time>
      </trkpt>
      <trkpt lat="42.1146" lon="2.36597">
        <ele>1267</ele>
        <time>2010-01-01T01:48:27Z</time>
      </trkpt>
      <trkpt lat="42.11459" lon="2.36604">
        <ele>1266</ele>
        <time>2010-01-01T01:48:29Z</time>
      </trkpt>
      <trkpt lat="42.11462" lon="2.3662">
        <ele>1268</ele>
        <time>2010-01-01T01:48:34Z</time>
      </trkpt>
      <trkpt lat="42.1146" lon="2.36633">
        <ele>1268</ele>
        <time>2010-01-01T01:48:38Z</time>
      </trkpt>
      <trkpt lat="42.11462" lon="2.36644">
        <ele>1270</ele>
        <time>2010-01-01T01:48:41Z</time>
      </trkpt>
      <trkpt lat="42.11457" lon="2.367">
        <ele>1274</ele>
        <time>2010-01-01T01:48:58Z</time>
      </trkpt>
      <trkpt lat="42.11462" lon="2.36713">
        <ele>1275</ele>
        <time>2010-01-01T01:49:02Z</time>
      </trkpt>
      <trkpt lat="42.11472" lon="2.36722">
        <ele>1280</ele>
        <time>2010-01-01T01:49:07Z</time>
      </trkpt>
      <trkpt lat="42.11479" lon="2.36733">
        <ele>1279</ele>
        <time>2010-01-01T01:49:11Z</time>
      </trkpt>
      <trkpt lat="42.11491" lon="2.36746">
        <ele>1279</ele>
        <time>2010-01-01T01:49:17Z</time>
      </trkpt>
      <trkpt lat="42.11514" lon="2.3676">
        <ele>1280</ele>
        <time>2010-01-01T01:49:28Z</time>
      </trkpt>
      <trkpt lat="42.11518" lon="2.36766">
        <ele>1279</ele>
        <time>2010-01-01T01:49:30Z</time>
      </trkpt>
      <trkpt lat="42.11521" lon="2.36773">
        <ele>1278</ele>
        <time>2010-01-01T01:49:32Z</time>
      </trkpt>
      <trkpt lat="42.11519" lon="2.36788">
        <ele>1274</ele>
        <time>2010-01-01T01:49:37Z</time>
      </trkpt>
      <trkpt lat="42.11524" lon="2.36804">
        <ele>1271</ele>
        <time>2010-01-01T01:49:42Z</time>
      </trkpt>
      <trkpt lat="42.1154" lon="2.36827">
        <ele>1268</ele>
        <time>2010-01-01T01:49:52Z</time>
      </trkpt>
      <trkpt lat="42.11541" lon="2.36833">
        <ele>1267</ele>
        <time>2010-01-01T01:49:53Z</time>
      </trkpt>
      <trkpt lat="42.11557" lon="2.36853">
        <ele>1266</ele>
        <time>2010-01-01T01:50:02Z</time>
      </trkpt>
      <trkpt lat="42.11562" lon="2.36873">
        <ele>1261</ele>
        <time>2010-01-01T01:50:08Z</time>
      </trkpt>
      <trkpt lat="42.11577" lon="2.36911">
        <ele>1258</ele>
        <time>2010-01-01T01:50:21Z</time>
      </trkpt>
      <trkpt lat="42.11578" lon="2.36909">
        <ele>1259</ele>
        <time>2010-01-01T01:50:22Z</time>
      </trkpt>
      <trkpt lat="42.1159" lon="2.3691">
        <ele>1260</ele>
        <time>2010-01-01T01:50:26Z</time>
      </trkpt>
      <trkpt lat="42.11591" lon="2.36918">
        <ele>1260</ele>
        <time>2010-01-01T01:50:29Z</time>
      </trkpt>
      <trkpt lat="42.11591" lon="2.36917">
        <ele>1260</ele>
        <time>2010-01-01T01:50:29Z</time>
      </trkpt>
      <trkpt lat="42.11589" lon="2.36918">
        <ele>1260</ele>
        <time>2010-01-01T01:50:30Z</time>
      </trkpt>
      <trkpt lat="42.1159" lon="2.36916">
        <ele>1260</ele>
        <time>2010-01-01T01:50:31Z</time>
      </trkpt>
      <trkpt lat="42.11596" lon="2.36917">
        <ele>1260</ele>
        <time>2010-01-01T01:50:33Z</time>
      </trkpt>
      <trkpt lat="42.11598" lon="2.36913">
        <ele>1260</ele>
        <time>2010-01-01T01:50:35Z</time>
      </trkpt>
      <trkpt lat="42.11594" lon="2.36911">
        <ele>1260</ele>
        <time>2010-01-01T01:50:37Z</time>
      </trkpt>
      <trkpt lat="42.11598" lon="2.36911">
        <ele>1261</ele>
        <time>2010-01-01T01:50:38Z</time>
      </trkpt>
      <trkpt lat="42.11602" lon="2.3692">
        <ele>1261</ele>
        <time>2010-01-01T01:50:41Z</time>
      </trkpt>
      <trkpt lat="42.11609" lon="2.36917">
        <ele>1260</ele>
        <time>2010-01-01T01:50:44Z</time>
      </trkpt>
      <trkpt lat="42.1163" lon="2.36931">
        <ele>1261</ele>
        <time>2010-01-01T01:50:54Z</time>
      </trkpt>
      <trkpt lat="42.11635" lon="2.36927">
        <ele>1260</ele>
        <time>2010-01-01T01:50:56Z</time>
      </trkpt>
      <trkpt lat="42.11649" lon="2.36921">
        <ele>1256</ele>
        <time>2010-01-01T01:51:02Z</time>
      </trkpt>
      <trkpt lat="42.11663" lon="2.36909">
        <ele>1249</ele>
        <time>2010-01-01T01:51:08Z</time>
      </trkpt>
      <trkpt lat="42.11692" lon="2.36909">
        <ele>1243</ele>
        <time>2010-01-01T01:51:20Z</time>
      </trkpt>
      <trkpt lat="42.11698" lon="2.36906">
        <ele>1242</ele>
        <time>2010-01-01T01:51:23Z</time>
      </trkpt>
      <trkpt lat="42.11707" lon="2.36898">
        <ele>1239</ele>
        <time>2010-01-01T01:51:27Z</time>
      </trkpt>
      <trkpt lat="42.11736" lon="2.36879">
        <ele>1232</ele>
        <time>2010-01-01T01:51:40Z</time>
      </trkpt>
      <trkpt lat="42.11755" lon="2.36878">
        <ele>1231</ele>
        <time>2010-01-01T01:51:47Z</time>
      </trkpt>
      <trkpt lat="42.11768" lon="2.36869">
        <ele>1227</ele>
        <time>2010-01-01T01:51:54Z</time>
      </trkpt>
      <trkpt lat="42.11775" lon="2.36854">
        <ele>1222</ele>
        <time>2010-01-01T01:51:59Z</time>
      </trkpt>
      <trkpt lat="42.11783" lon="2.36841">
        <ele>1217</ele>
        <time>2010-01-01T01:52:04Z</time>
      </trkpt>
      <trkpt lat="42.11787" lon="2.36832">
        <ele>1214</ele>
        <time>2010-01-01T01:52:07Z</time>
      </trkpt>
      <trkpt lat="42.11791" lon="2.36811">
        <ele>1210</ele>
        <time>2010-01-01T01:52:13Z</time>
      </trkpt>
      <trkpt lat="42.11787" lon="2.36808">
        <ele>1211</ele>
        <time>2010-01-01T01:52:15Z</time>
      </trkpt>
      <trkpt lat="42.11791" lon="2.36802">
        <ele>1208</ele>
        <time>2010-01-01T01:52:18Z</time>
      </trkpt>
      <trkpt lat="42.11794" lon="2.36805">
        <ele>1208</ele>
        <time>2010-01-01T01:52:19Z</time>
      </trkpt>
      <trkpt lat="42.1179" lon="2.36813">
        <ele>1210</ele>
        <time>2010-01-01T01:52:22Z</time>
      </trkpt>
      <trkpt lat="42.11795" lon="2.36819">
        <ele>1210</ele>
        <time>2010-01-01T01:52:24Z</time>
      </trkpt>
      <trkpt lat="42.11792" lon="2.36818">
        <ele>1211</ele>
        <time>2010-01-01T01:52:26Z</time>
      </trkpt>
      <trkpt lat="42.11787" lon="2.3682">
        <ele>1212</ele>
        <time>2010-01-01T01:52:28Z</time>
      </trkpt>
      <trkpt lat="42.11784" lon="2.36828">
        <ele>1214</ele>
        <time>2010-01-01T01:52:30Z</time>
      </trkpt>
      <trkpt lat="42.11783" lon="2.36837">
        <ele>1216</ele>
        <time>2010-01-01T01:52:33Z</time>
      </trkpt>
      <trkpt lat="42.11786" lon="2.36849">
        <ele>1219</ele>
        <time>2010-01-01T01:52:37Z</time>
      </trkpt>
      <trkpt lat="42.11807" lon="2.3685">
        <ele>1217</ele>
        <time>2010-01-01T01:52:45Z</time>
      </trkpt>
      <trkpt lat="42.11812" lon="2.36834">
        <ele>1213</ele>
        <time>2010-01-01T01:52:50Z</time>
      </trkpt>
      <trkpt lat="42.1182" lon="2.36816">
        <ele>1208</ele>
        <time>2010-01-01T01:52:57Z</time>
      </trkpt>
      <trkpt lat="42.11835" lon="2.36796">
        <ele>1203</ele>
        <time>2010-01-01T01:53:05Z</time>
      </trkpt>
      <trkpt lat="42.11842" lon="2.36784">
        <ele>1200</ele>
        <time>2010-01-01T01:53:09Z</time>
      </trkpt>
      <trkpt lat="42.11836" lon="2.36796">
        <ele>1203</ele>
        <time>2010-01-01T01:53:13Z</time>
      </trkpt>
      <trkpt lat="42.1184" lon="2.36799">
        <ele>1203</ele>
        <time>2010-01-01T01:53:15Z</time>
      </trkpt>
      <trkpt lat="42.11849" lon="2.368">
        <ele>1203</ele>
        <time>2010-01-01T01:53:19Z</time>
      </trkpt>
      <trkpt lat="42.11852" lon="2.36806">
        <ele>1204</ele>
        <time>2010-01-01T01:53:21Z</time>
      </trkpt>
      <trkpt lat="42.11852" lon="2.36813">
        <ele>1207</ele>
        <time>2010-01-01T01:53:23Z</time>
      </trkpt>
      <trkpt lat="42.11849" lon="2.36825">
        <ele>1211</ele>
        <time>2010-01-01T01:53:27Z</time>
      </trkpt>
      <trkpt lat="42.11856" lon="2.36846">
        <ele>1217</ele>
        <time>2010-01-01T01:53:34Z</time>
      </trkpt>
      <trkpt lat="42.11848" lon="2.36854">
        <ele>1220</ele>
        <time>2010-01-01T01:53:38Z</time>
      </trkpt>
      <trkpt lat="42.11849" lon="2.36869">
        <ele>1225</ele>
        <time>2010-01-01T01:53:43Z</time>
      </trkpt>
      <trkpt lat="42.11846" lon="2.36877">
        <ele>1228</ele>
        <time>2010-01-01T01:53:45Z</time>
      </trkpt>
      <trkpt lat="42.11846" lon="2.36884">
        <ele>1231</ele>
        <time>2010-01-01T01:53:47Z</time>
      </trkpt>
      <trkpt lat="42.11848" lon="2.36881">
        <ele>1229</ele>
        <time>2010-01-01T01:53:49Z</time>
      </trkpt>
      <trkpt lat="42.11852" lon="2.36885">
        <ele>1230</ele>
        <time>2010-01-01T01:53:51Z</time>
      </trkpt>
      <trkpt lat="42.11856" lon="2.36895">
        <ele>1232</ele>
        <time>2010-01-01T01:53:54Z</time>
      </trkpt>
      <trkpt lat="42.11857" lon="2.36902">
        <ele>1234</ele>
        <time>2010-01-01T01:53:56Z</time>
      </trkpt>
      <trkpt lat="42.11865" lon="2.3691">
        <ele>1234</ele>
        <time>2010-01-01T01:54:00Z</time>
      </trkpt>
      <trkpt lat="42.11863" lon="2.36919">
        <ele>1236</ele>
        <time>2010-01-01T01:54:03Z</time>
      </trkpt>
      <trkpt lat="42.11864" lon="2.36928">
        <ele>1238</ele>
        <time>2010-01-01T01:54:06Z</time>
      </trkpt>
      <trkpt lat="42.11868" lon="2.36937">
        <ele>1239</ele>
        <time>2010-01-01T01:54:09Z</time>
      </trkpt>
      <trkpt lat="42.11873" lon="2.36953">
        <ele>1240</ele>
        <time>2010-01-01T01:54:14Z</time>
      </trkpt>
      <trkpt lat="42.11873" lon="2.36966">
        <ele>1244</ele>
        <time>2010-01-01T01:54:18Z</time>
      </trkpt>
      <trkpt lat="42.1187" lon="2.3697">
        <ele>1246</ele>
        <time>2010-01-01T01:54:20Z</time>
      </trkpt>
      <trkpt lat="42.11863" lon="2.36973">
        <ele>1250</ele>
        <time>2010-01-01T01:54:22Z</time>
      </trkpt>
      <trkpt lat="42.1186" lon="2.3698">
        <ele>1253</ele>
        <time>2010-01-01T01:54:25Z</time>
      </trkpt>
      <trkpt lat="42.11857" lon="2.36984">
        <ele>1256</ele>
        <time>2010-01-01T01:54:27Z</time>
      </trkpt>
      <trkpt lat="42.11856" lon="2.36994">
        <ele>1259</ele>
        <time>2010-01-01T01:54:29Z</time>
      </trkpt>
      <trkpt lat="42.11858" lon="2.37004">
        <ele>1262</ele>
        <time>2010-01-01T01:54:33Z</time>
      </trkpt>
      <trkpt lat="42.11857" lon="2.3701">
        <ele>1264</ele>
        <time>2010-01-01T01:54:35Z</time>
      </trkpt>
      <trkpt lat="42.1186" lon="2.37011">
        <ele>1263</ele>
        <time>2010-01-01T01:54:36Z</time>
      </trkpt>
      <trkpt lat="42.11858" lon="2.37011">
        <ele>1264</ele>
        <time>2010-01-01T01:54:36Z</time>
      </trkpt>
      <trkpt lat="42.1186" lon="2.37017">
        <ele>1265</ele>
        <time>2010-01-01T01:54:38Z</time>
      </trkpt>
      <trkpt lat="42.11858" lon="2.36999">
        <ele>1260</ele>
        <time>2010-01-01T01:54:44Z</time>
      </trkpt>
      <trkpt lat="42.11859" lon="2.3701">
        <ele>1263</ele>
        <time>2010-01-01T01:54:47Z</time>
      </trkpt>
      <trkpt lat="42.11857" lon="2.37015">
        <ele>1266</ele>
        <time>2010-01-01T01:54:49Z</time>
      </trkpt>
      <trkpt lat="42.11863" lon="2.37021">
        <ele>1264</ele>
        <time>2010-01-01T01:54:52Z</time>
      </trkpt>
      <trkpt lat="42.11874" lon="2.37017">
        <ele>1256</ele>
        <time>2010-01-01T01:54:57Z</time>
      </trkpt>
      <trkpt lat="42.11879" lon="2.3702">
        <ele>1253</ele>
        <time>2010-01-01T01:54:59Z</time>
      </trkpt>
      <trkpt lat="42.11883" lon="2.37016">
        <ele>1250</ele>
        <time>2010-01-01T01:55:01Z</time>
      </trkpt>
      <trkpt lat="42.11889" lon="2.37014">
        <ele>1246</ele>
        <time>2010-01-01T01:55:04Z</time>
      </trkpt>
      <trkpt lat="42.11886" lon="2.3701">
        <ele>1246</ele>
        <time>2010-01-01T01:55:05Z</time>
      </trkpt>
      <trkpt lat="42.11888" lon="2.37003">
        <ele>1244</ele>
        <time>2010-01-01T01:55:07Z</time>
      </trkpt>
      <trkpt lat="42.11889" lon="2.37006">
        <ele>1244</ele>
        <time>2010-01-01T01:55:08Z</time>
      </trkpt>
      <trkpt lat="42.11885" lon="2.37013">
        <ele>1247</ele>
        <time>2010-01-01T01:55:11Z</time>
      </trkpt>
      <trkpt lat="42.11891" lon="2.37015">
        <ele>1246</ele>
        <time>2010-01-01T01:55:13Z</time>
      </trkpt>
      <trkpt lat="42.11898" lon="2.37012">
        <ele>1244</ele>
        <time>2010-01-01T01:55:16Z</time>
      </trkpt>
      <trkpt lat="42.11898" lon="2.37026">
        <ele>1247</ele>
        <time>2010-01-01T01:55:20Z</time>
      </trkpt>
      <trkpt lat="42.11898" lon="2.37024">
        <ele>1247</ele>
        <time>2010-01-01T01:55:21Z</time>
      </trkpt>
      <trkpt lat="42.11897" lon="2.37028">
        <ele>1248</ele>
        <time>2010-01-01T01:55:22Z</time>
      </trkpt>
      <trkpt lat="42.11894" lon="2.3703">
        <ele>1249</ele>
        <time>2010-01-01T01:55:23Z</time>
      </trkpt>
      <trkpt lat="42.11896" lon="2.37035">
        <ele>1250</ele>
        <time>2010-01-01T01:55:25Z</time>
      </trkpt>
      <trkpt lat="42.11903" lon="2.37039">
        <ele>1251</ele>
        <time>2010-01-01T01:55:28Z</time>
      </trkpt>
      <trkpt lat="42.11905" lon="2.37045">
        <ele>1252</ele>
        <time>2010-01-01T01:55:30Z</time>
      </trkpt>
      <trkpt lat="42.11903" lon="2.37053">
        <ele>1255</ele>
        <time>2010-01-01T01:55:32Z</time>
      </trkpt>
      <trkpt lat="42.11911" lon="2.37051">
        <ele>1253</ele>
        <time>2010-01-01T01:55:35Z</time>
      </trkpt>
      <trkpt lat="42.1191" lon="2.37053">
        <ele>1254</ele>
        <time>2010-01-01T01:55:36Z</time>
      </trkpt>
      <trkpt lat="42.11914" lon="2.37053">
        <ele>1253</ele>
        <time>2010-01-01T01:55:37Z</time>
      </trkpt>
      <trkpt lat="42.11918" lon="2.37027">
        <ele>1246</ele>
        <time>2010-01-01T01:55:45Z</time>
      </trkpt>
      <trkpt lat="42.11915" lon="2.37021">
        <ele>1244</ele>
        <time>2010-01-01T01:55:47Z</time>
      </trkpt>
      <trkpt lat="42.11923" lon="2.37013">
        <ele>1243</ele>
        <time>2010-01-01T01:55:51Z</time>
      </trkpt>
      <trkpt lat="42.11922" lon="2.37019">
        <ele>1245</ele>
        <time>2010-01-01T01:55:53Z</time>
      </trkpt>
      <trkpt lat="42.11921" lon="2.37013">
        <ele>1243</ele>
        <time>2010-01-01T01:55:54Z</time>
      </trkpt>
      <trkpt lat="42.11924" lon="2.37">
        <ele>1240</ele>
        <time>2010-01-01T01:55:58Z</time>
      </trkpt>
      <trkpt lat="42.11926" lon="2.37007">
        <ele>1242</ele>
        <time>2010-01-01T01:56:01Z</time>
      </trkpt>
      <trkpt lat="42.11917" lon="2.37027">
        <ele>1245</ele>
        <time>2010-01-01T01:56:08Z</time>
      </trkpt>
      <trkpt lat="42.1192" lon="2.37023">
        <ele>1245</ele>
        <time>2010-01-01T01:56:09Z</time>
      </trkpt>
      <trkpt lat="42.11922" lon="2.37017">
        <ele>1244</ele>
        <time>2010-01-01T01:56:11Z</time>
      </trkpt>
      <trkpt lat="42.11928" lon="2.37015">
        <ele>1245</ele>
        <time>2010-01-01T01:56:14Z</time>
      </trkpt>
      <trkpt lat="42.11935" lon="2.37019">
        <ele>1248</ele>
        <time>2010-01-01T01:56:17Z</time>
      </trkpt>
      <trkpt lat="42.11926" lon="2.37016">
        <ele>1245</ele>
        <time>2010-01-01T01:56:21Z</time>
      </trkpt>
      <trkpt lat="42.11931" lon="2.37006">
        <ele>1243</ele>
        <time>2010-01-01T01:56:24Z</time>
      </trkpt>
      <trkpt lat="42.11935" lon="2.37001">
        <ele>1243</ele>
        <time>2010-01-01T01:56:27Z</time>
      </trkpt>
      <trkpt lat="42.11944" lon="2.36985">
        <ele>1237</ele>
        <time>2010-01-01T01:56:32Z</time>
      </trkpt>
      <trkpt lat="42.11957" lon="2.36974">
        <ele>1234</ele>
        <time>2010-01-01T01:56:39Z</time>
      </trkpt>
      <trkpt lat="42.11969" lon="2.36959">
        <ele>1229</ele>
        <time>2010-01-01T01:56:45Z</time>
      </trkpt>
      <trkpt lat="42.1199" lon="2.3695">
        <ele>1228</ele>
        <time>2010-01-01T01:56:54Z</time>
      </trkpt>
      <trkpt lat="42.12015" lon="2.36942">
        <ele>1229</ele>
        <time>2010-01-01T01:57:04Z</time>
      </trkpt>
      <trkpt lat="42.12029" lon="2.36934">
        <ele>1226</ele>
        <time>2010-01-01T01:57:11Z</time>
      </trkpt>
      <trkpt lat="42.12043" lon="2.36921">
        <ele>1220</ele>
        <time>2010-01-01T01:57:17Z</time>
      </trkpt>
      <trkpt lat="42.12059" lon="2.36916">
        <ele>1218</ele>
        <time>2010-01-01T01:57:24Z</time>
      </trkpt>
      <trkpt lat="42.12075" lon="2.36909">
        <ele>1212</ele>
        <time>2010-01-01T01:57:31Z</time>
      </trkpt>
      <trkpt lat="42.12076" lon="2.36902">
        <ele>1209</ele>
        <time>2010-01-01T01:57:32Z</time>
      </trkpt>
      <trkpt lat="42.1207" lon="2.36897">
        <ele>1208</ele>
        <time>2010-01-01T01:57:35Z</time>
      </trkpt>
      <trkpt lat="42.12073" lon="2.36904">
        <ele>1210</ele>
        <time>2010-01-01T01:57:37Z</time>
      </trkpt>
      <trkpt lat="42.12078" lon="2.36898">
        <ele>1207</ele>
        <time>2010-01-01T01:57:40Z</time>
      </trkpt>
      <trkpt lat="42.12073" lon="2.36896">
        <ele>1207</ele>
        <time>2010-01-01T01:57:42Z</time>
      </trkpt>
      <trkpt lat="42.12043" lon="2.36896">
        <ele>1207</ele>
        <time>2010-01-01T01:57:54Z</time>
      </trkpt>
      <trkpt lat="42.12025" lon="2.36899">
        <ele>1207</ele>
        <time>2010-01-01T01:58:01Z</time>
      </trkpt>
      <trkpt lat="42.12011" lon="2.36904">
        <ele>1207</ele>
        <time>2010-01-01T01:58:07Z</time>
      </trkpt>
      <trkpt lat="42.12008" lon="2.36894">
        <ele>1201</ele>
        <time>2010-01-01T01:58:10Z</time>
      </trkpt>
      <trkpt lat="42.12025" lon="2.36879">
        <ele>1197</ele>
        <time>2010-01-01T01:58:18Z</time>
      </trkpt>
      <trkpt lat="42.12032" lon="2.36877">
        <ele>1198</ele>
        <time>2010-01-01T01:58:21Z</time>
      </trkpt>
      <trkpt lat="42.12038" lon="2.36857">
        <ele>1192</ele>
        <time>2010-01-01T01:58:28Z</time>
      </trkpt>
      <trkpt lat="42.12053" lon="2.36853">
        <ele>1192</ele>
        <time>2010-01-01T01:58:34Z</time>
      </trkpt>
      <trkpt lat="42.12059" lon="2.36848">
        <ele>1191</ele>
        <time>2010-01-01T01:58:37Z</time>
      </trkpt>
      <trkpt lat="42.1207" lon="2.36845">
        <ele>1190</ele>
        <time>2010-01-01T01:58:41Z</time>
      </trkpt>
      <trkpt lat="42.12076" lon="2.36838">
        <ele>1188</ele>
        <time>2010-01-01T01:58:45Z</time>
      </trkpt>
      <trkpt lat="42.12082" lon="2.36823">
        <ele>1185</ele>
        <time>2010-01-01T01:58:49Z</time>
      </trkpt>
      <trkpt lat="42.12086" lon="2.3681">
        <ele>1181</ele>
        <time>2010-01-01T01:58:54Z</time>
      </trkpt>
      <trkpt lat="42.12094" lon="2.36794">
        <ele>1176</ele>
        <time>2010-01-01T01:58:59Z</time>
      </trkpt>
      <trkpt lat="42.12094" lon="2.36789">
        <ele>1175</ele>
        <time>2010-01-01T01:59:01Z</time>
      </trkpt>
      <trkpt lat="42.12099" lon="2.36782">
        <ele>1172</ele>
        <time>2010-01-01T01:59:04Z</time>
      </trkpt>
      <trkpt lat="42.12115" lon="2.36783">
        <ele>1171</ele>
        <time>2010-01-01T01:59:10Z</time>
      </trkpt>
      <trkpt lat="42.12123" lon="2.36787">
        <ele>1170</ele>
        <time>2010-01-01T01:59:13Z</time>
      </trkpt>
      <trkpt lat="42.12131" lon="2.3681">
        <ele>1174</ele>
        <time>2010-01-01T01:59:21Z</time>
      </trkpt>
      <trkpt lat="42.1214" lon="2.36821">
        <ele>1173</ele>
        <time>2010-01-01T01:59:26Z</time>
      </trkpt>
      <trkpt lat="42.12141" lon="2.36827">
        <ele>1174</ele>
        <time>2010-01-01T01:59:28Z</time>
      </trkpt>
      <trkpt lat="42.12144" lon="2.36828">
        <ele>1174</ele>
        <time>2010-01-01T01:59:29Z</time>
      </trkpt>
      <trkpt lat="42.12146" lon="2.36834">
        <ele>1174</ele>
        <time>2010-01-01T01:59:31Z</time>
      </trkpt>
      <trkpt lat="42.12147" lon="2.36847">
        <ele>1176</ele>
        <time>2010-01-01T01:59:35Z</time>
      </trkpt>
      <trkpt lat="42.12157" lon="2.3688">
        <ele>1177</ele>
        <time>2010-01-01T01:59:45Z</time>
      </trkpt>
      <trkpt lat="42.12175" lon="2.36896">
        <ele>1176</ele>
        <time>2010-01-01T01:59:54Z</time>
      </trkpt>
      <trkpt lat="42.12199" lon="2.36903">
        <ele>1175</ele>
        <time>2010-01-01T02:00:04Z</time>
      </trkpt>
      <trkpt lat="42.1221" lon="2.36909">
        <ele>1176</ele>
        <time>2010-01-01T02:00:08Z</time>
      </trkpt>
      <trkpt lat="42.12227" lon="2.36923">
        <ele>1178</ele>
        <time>2010-01-01T02:00:16Z</time>
      </trkpt>
      <trkpt lat="42.12234" lon="2.36922">
        <ele>1178</ele>
        <time>2010-01-01T02:00:19Z</time>
      </trkpt>
      <trkpt lat="42.12243" lon="2.36904">
        <ele>1174</ele>
        <time>2010-01-01T02:00:26Z</time>
      </trkpt>
      <trkpt lat="42.12256" lon="2.36861">
        <ele>1172</ele>
        <time>2010-01-01T02:00:40Z</time>
      </trkpt>
      <trkpt lat="42.12269" lon="2.36828">
        <ele>1174</ele>
        <time>2010-01-01T02:00:51Z</time>
      </trkpt>
      <trkpt lat="42.1227" lon="2.36816">
        <ele>1174</ele>
        <time>2010-01-01T02:00:54Z</time>
      </trkpt>
      <trkpt lat="42.12269" lon="2.36806">
        <ele>1173</ele>
        <time>2010-01-01T02:00:57Z</time>
      </trkpt>
      <trkpt lat="42.1227" lon="2.36784">
        <ele>1171</ele>
        <time>2010-01-01T02:01:04Z</time>
      </trkpt>
      <trkpt lat="42.12277" lon="2.36763">
        <ele>1171</ele>
        <time>2010-01-01T02:01:11Z</time>
      </trkpt>
      <trkpt lat="42.12281" lon="2.36742">
        <ele>1171</ele>
        <time>2010-01-01T02:01:17Z</time>
      </trkpt>
      <trkpt lat="42.12284" lon="2.36701">
        <ele>1171</ele>
        <time>2010-01-01T02:01:29Z</time>
      </trkpt>
      <trkpt lat="42.12289" lon="2.3668">
        <ele>1171</ele>
        <time>2010-01-01T02:01:36Z</time>
      </trkpt>
      <trkpt lat="42.12303" lon="2.36642">
        <ele>1171</ele>
        <time>2010-01-01T02:01:49Z</time>
      </trkpt>
      <trkpt lat="42.12313" lon="2.36604">
        <ele>1175</ele>
        <time>2010-01-01T02:02:00Z</time>
      </trkpt>
      <trkpt lat="42.12315" lon="2.36587">
        <ele>1177</ele>
        <time>2010-01-01T02:02:06Z</time>
      </trkpt>
      <trkpt lat="42.12322" lon="2.36568">
        <ele>1179</ele>
        <time>2010-01-01T02:02:12Z</time>
      </trkpt>
      <trkpt lat="42.12322" lon="2.36555">
        <ele>1179</ele>
        <time>2010-01-01T02:02:16Z</time>
      </trkpt>
      <trkpt lat="42.12326" lon="2.3655">
        <ele>1180</ele>
        <time>2010-01-01T02:02:18Z</time>
      </trkpt>
      <trkpt lat="42.12326" lon="2.36536">
        <ele>1180</ele>
        <time>2010-01-01T02:02:22Z</time>
      </trkpt>
      <trkpt lat="42.12328" lon="2.36531">
        <ele>1180</ele>
        <time>2010-01-01T02:02:24Z</time>
      </trkpt>
      <trkpt lat="42.12343" lon="2.36514">
        <ele>1179</ele>
        <time>2010-01-01T02:02:32Z</time>
      </trkpt>
      <trkpt lat="42.12345" lon="2.36495">
        <ele>1177</ele>
        <time>2010-01-01T02:02:37Z</time>
      </trkpt>
      <trkpt lat="42.12349" lon="2.36476">
        <ele>1176</ele>
        <time>2010-01-01T02:02:43Z</time>
      </trkpt>
      <trkpt lat="42.12354" lon="2.36469">
        <ele>1176</ele>
        <time>2010-01-01T02:02:46Z</time>
      </trkpt>
      <trkpt lat="42.12387" lon="2.36463">
        <ele>1180</ele>
        <time>2010-01-01T02:02:59Z</time>
      </trkpt>
      <trkpt lat="42.12398" lon="2.3645">
        <ele>1181</ele>
        <time>2010-01-01T02:03:05Z</time>
      </trkpt>
      <trkpt lat="42.12405" lon="2.36436">
        <ele>1181</ele>
        <time>2010-01-01T02:03:10Z</time>
      </trkpt>
      <trkpt lat="42.12417" lon="2.36395">
        <ele>1179</ele>
        <time>2010-01-01T02:03:23Z</time>
      </trkpt>
      <trkpt lat="42.12422" lon="2.36389">
        <ele>1179</ele>
        <time>2010-01-01T02:03:26Z</time>
      </trkpt>
      <trkpt lat="42.12445" lon="2.36373">
        <ele>1179</ele>
        <time>2010-01-01T02:03:36Z</time>
      </trkpt>
      <trkpt lat="42.12441" lon="2.36368">
        <ele>1177</ele>
        <time>2010-01-01T02:03:38Z</time>
      </trkpt>
      <trkpt lat="42.12442" lon="2.36359">
        <ele>1176</ele>
        <time>2010-01-01T02:03:41Z</time>
      </trkpt>
      <trkpt lat="42.1246" lon="2.36301">
        <ele>1170</ele>
        <time>2010-01-01T02:04:00Z</time>
      </trkpt>
      <trkpt lat="42.12459" lon="2.36271">
        <ele>1166</ele>
        <time>2010-01-01T02:04:09Z</time>
      </trkpt>
      <trkpt lat="42.12451" lon="2.36237">
        <ele>1161</ele>
        <time>2010-01-01T02:04:19Z</time>
      </trkpt>
      <trkpt lat="42.12451" lon="2.3623">
        <ele>1160</ele>
        <time>2010-01-01T02:04:21Z</time>
      </trkpt>
      <trkpt lat="42.12451" lon="2.36213">
        <ele>1158</ele>
        <time>2010-01-01T02:04:26Z</time>
      </trkpt>
      <trkpt lat="42.12453" lon="2.36212">
        <ele>1158</ele>
        <time>2010-01-01T02:04:27Z</time>
      </trkpt>
      <trkpt lat="42.1246" lon="2.36214">
        <ele>1158</ele>
        <time>2010-01-01T02:04:30Z</time>
      </trkpt>
      <trkpt lat="42.12461" lon="2.36203">
        <ele>1157</ele>
        <time>2010-01-01T02:04:33Z</time>
      </trkpt>
      <trkpt lat="42.12431" lon="2.36178">
        <ele>1153</ele>
        <time>2010-01-01T02:04:47Z</time>
      </trkpt>
      <trkpt lat="42.1241" lon="2.36164">
        <ele>1150</ele>
        <time>2010-01-01T02:04:56Z</time>
      </trkpt>
      <trkpt lat="42.12394" lon="2.36144">
        <ele>1148</ele>
        <time>2010-01-01T02:05:05Z</time>
      </trkpt>
      <trkpt lat="42.1239" lon="2.36137">
        <ele>1148</ele>
        <time>2010-01-01T02:05:08Z</time>
      </trkpt>
      <trkpt lat="42.12381" lon="2.36126">
        <ele>1148</ele>
        <time>2010-01-01T02:05:13Z</time>
      </trkpt>
      <trkpt lat="42.12373" lon="2.3612">
        <ele>1148</ele>
        <time>2010-01-01T02:05:16Z</time>
      </trkpt>
      <trkpt lat="42.12372" lon="2.36115">
        <ele>1148</ele>
        <time>2010-01-01T02:05:18Z</time>
      </trkpt>
      <trkpt lat="42.12376" lon="2.36104">
        <ele>1148</ele>
        <time>2010-01-01T02:05:22Z</time>
      </trkpt>
      <trkpt lat="42.12375" lon="2.36088">
        <ele>1148</ele>
        <time>2010-01-01T02:05:26Z</time>
      </trkpt>
      <trkpt lat="42.12368" lon="2.36082">
        <ele>1148</ele>
        <time>2010-01-01T02:05:30Z</time>
      </trkpt>
      <trkpt lat="42.12361" lon="2.36082">
        <ele>1148</ele>
        <time>2010-01-01T02:05:33Z</time>
      </trkpt>
      <trkpt lat="42.12363" lon="2.36083">
        <ele>1148</ele>
        <time>2010-01-01T02:05:34Z</time>
      </trkpt>
      <trkpt lat="42.12363" lon="2.36084">
        <ele>1148</ele>
        <time>2010-01-01T02:05:34Z</time>
      </trkpt>
      <trkpt lat="42.12362" lon="2.36081">
        <ele>1148</ele>
        <time>2010-01-01T02:05:35Z</time>
      </trkpt>
      <trkpt lat="42.12364" lon="2.36083">
        <ele>1148</ele>
        <time>2010-01-01T02:05:36Z</time>
      </trkpt>
      <trkpt lat="42.1237" lon="2.36083">
        <ele>1148</ele>
        <time>2010-01-01T02:05:39Z</time>
      </trkpt>
      <trkpt lat="42.12377" lon="2.3609">
        <ele>1148</ele>
        <time>2010-01-01T02:05:42Z</time>
      </trkpt>
      <trkpt lat="42.12377" lon="2.36093">
        <ele>1148</ele>
        <time>2010-01-01T02:05:43Z</time>
      </trkpt>
      <trkpt lat="42.12391" lon="2.3611">
        <ele>1149</ele>
        <time>2010-01-01T02:05:51Z</time>
      </trkpt>
      <trkpt lat="42.12393" lon="2.36117">
        <ele>1149</ele>
        <time>2010-01-01T02:05:53Z</time>
      </trkpt>
      <trkpt lat="42.124" lon="2.36128">
        <ele>1150</ele>
        <time>2010-01-01T02:05:57Z</time>
      </trkpt>
      <trkpt lat="42.12401" lon="2.3613">
        <ele>1150</ele>
        <time>2010-01-01T02:05:58Z</time>
      </trkpt>
      <trkpt lat="42.12406" lon="2.36137">
        <ele>1151</ele>
        <time>2010-01-01T02:06:01Z</time>
      </trkpt>
      <trkpt lat="42.12409" lon="2.36137">
        <ele>1151</ele>
        <time>2010-01-01T02:06:02Z</time>
      </trkpt>
      <trkpt lat="42.12411" lon="2.36143">
        <ele>1151</ele>
        <time>2010-01-01T02:06:04Z</time>
      </trkpt>
      <trkpt lat="42.12419" lon="2.3615">
        <ele>1152</ele>
        <time>2010-01-01T02:06:08Z</time>
      </trkpt>
      <trkpt lat="42.12443" lon="2.36164">
        <ele>1154</ele>
        <time>2010-01-01T02:06:18Z</time>
      </trkpt>
      <trkpt lat="42.12465" lon="2.36173">
        <ele>1157</ele>
        <time>2010-01-01T02:06:28Z</time>
      </trkpt>
      <trkpt lat="42.12486" lon="2.362">
        <ele>1160</ele>
        <time>2010-01-01T02:06:39Z</time>
      </trkpt>
      <trkpt lat="42.12501" lon="2.36213">
        <ele>1162</ele>
        <time>2010-01-01T02:06:47Z</time>
      </trkpt>
      <trkpt lat="42.12505" lon="2.36221">
        <ele>1162</ele>
        <time>2010-01-01T02:06:49Z</time>
      </trkpt>
      <trkpt lat="42.12512" lon="2.36246">
        <ele>1164</ele>
        <time>2010-01-01T02:06:57Z</time>
      </trkpt>
      <trkpt lat="42.12511" lon="2.36254">
        <ele>1165</ele>
        <time>2010-01-01T02:07:00Z</time>
      </trkpt>
      <trkpt lat="42.1251" lon="2.36249">
        <ele>1164</ele>
        <time>2010-01-01T02:07:01Z</time>
      </trkpt>
      <trkpt lat="42.12497" lon="2.36253">
        <ele>1163</ele>
        <time>2010-01-01T02:07:07Z</time>
      </trkpt>
      <trkpt lat="42.12495" lon="2.36264">
        <ele>1165</ele>
        <time>2010-01-01T02:07:10Z</time>
      </trkpt>
      <trkpt lat="42.12502" lon="2.36289">
        <ele>1170</ele>
        <time>2010-01-01T02:07:18Z</time>
      </trkpt>
      <trkpt lat="42.12499" lon="2.3631">
        <ele>1174</ele>
        <time>2010-01-01T02:07:24Z</time>
      </trkpt>
      <trkpt lat="42.12493" lon="2.3632">
        <ele>1175</ele>
        <time>2010-01-01T02:07:28Z</time>
      </trkpt>
      <trkpt lat="42.12489" lon="2.36331">
        <ele>1175</ele>
        <time>2010-01-01T02:07:32Z</time>
      </trkpt>
      <trkpt lat="42.12463" lon="2.36358">
        <ele>1177</ele>
        <time>2010-01-01T02:07:45Z</time>
      </trkpt>
      <trkpt lat="42.12451" lon="2.36367">
        <ele>1178</ele>
        <time>2010-01-01T02:07:50Z</time>
      </trkpt>
      <trkpt lat="42.12448" lon="2.36374">
        <ele>1179</ele>
        <time>2010-01-01T02:07:53Z</time>
      </trkpt>
      <trkpt lat="42.12436" lon="2.36384">
        <ele>1180</ele>
        <time>2010-01-01T02:07:58Z</time>
      </trkpt>
      <trkpt lat="42.12429" lon="2.36393">
        <ele>1180</ele>
        <time>2010-01-01T02:08:02Z</time>
      </trkpt>
      <trkpt lat="42.12421" lon="2.36411">
        <ele>1182</ele>
        <time>2010-01-01T02:08:08Z</time>
      </trkpt>
      <trkpt lat="42.12421" lon="2.36427">
        <ele>1184</ele>
        <time>2010-01-01T02:08:13Z</time>
      </trkpt>
      <trkpt lat="42.12419" lon="2.36443">
        <ele>1185</ele>
        <time>2010-01-01T02:08:18Z</time>
      </trkpt>
      <trkpt lat="42.12414" lon="2.36457">
        <ele>1187</ele>
        <time>2010-01-01T02:08:23Z</time>
      </trkpt>
      <trkpt lat="42.12402" lon="2.36482">
        <ele>1190</ele>
        <time>2010-01-01T02:08:31Z</time>
      </trkpt>
      <trkpt lat="42.12388" lon="2.36504">
        <ele>1189</ele>
        <time>2010-01-01T02:08:40Z</time>
      </trkpt>
      <trkpt lat="42.12388" lon="2.36511">
        <ele>1191</ele>
        <time>2010-01-01T02:08:42Z</time>
      </trkpt>
      <trkpt lat="42.12385" lon="2.36519">
        <ele>1192</ele>
        <time>2010-01-01T02:08:45Z</time>
      </trkpt>
      <trkpt lat="42.12383" lon="2.36541">
        <ele>1195</ele>
        <time>2010-01-01T02:08:51Z</time>
      </trkpt>
      <trkpt lat="42.12383" lon="2.36584">
        <ele>1199</ele>
        <time>2010-01-01T02:09:04Z</time>
      </trkpt>
      <trkpt lat="42.12385" lon="2.36614">
        <ele>1202</ele>
        <time>2010-01-01T02:09:13Z</time>
      </trkpt>
      <trkpt lat="42.12381" lon="2.36638">
        <ele>1202</ele>
        <time>2010-01-01T02:09:20Z</time>
      </trkpt>
      <trkpt lat="42.12381" lon="2.36642">
        <ele>1203</ele>
        <time>2010-01-01T02:09:21Z</time>
      </trkpt>
      <trkpt lat="42.12375" lon="2.36673">
        <ele>1204</ele>
        <time>2010-01-01T02:09:31Z</time>
      </trkpt>
      <trkpt lat="42.12375" lon="2.36688">
        <ele>1207</ele>
        <time>2010-01-01T02:09:35Z</time>
      </trkpt>
      <trkpt lat="42.12373" lon="2.367">
        <ele>1209</ele>
        <time>2010-01-01T02:09:39Z</time>
      </trkpt>
      <trkpt lat="42.12369" lon="2.36721">
        <ele>1211</ele>
        <time>2010-01-01T02:09:46Z</time>
      </trkpt>
      <trkpt lat="42.12366" lon="2.36727">
        <ele>1210</ele>
        <time>2010-01-01T02:09:48Z</time>
      </trkpt>
      <trkpt lat="42.12367" lon="2.36739">
        <ele>1210</ele>
        <time>2010-01-01T02:09:51Z</time>
      </trkpt>
      <trkpt lat="42.12372" lon="2.36753">
        <ele>1212</ele>
        <time>2010-01-01T02:09:56Z</time>
      </trkpt>
      <trkpt lat="42.12377" lon="2.36769">
        <ele>1215</ele>
        <time>2010-01-01T02:10:01Z</time>
      </trkpt>
      <trkpt lat="42.12384" lon="2.36814">
        <ele>1219</ele>
        <time>2010-01-01T02:10:15Z</time>
      </trkpt>
      <trkpt lat="42.12399" lon="2.36851">
        <ele>1223</ele>
        <time>2010-01-01T02:10:27Z</time>
      </trkpt>
      <trkpt lat="42.12416" lon="2.36886">
        <ele>1229</ele>
        <time>2010-01-01T02:10:40Z</time>
      </trkpt>
      <trkpt lat="42.12428" lon="2.369">
        <ele>1231</ele>
        <time>2010-01-01T02:10:46Z</time>
      </trkpt>
      <trkpt lat="42.12434" lon="2.36912">
        <ele>1232</ele>
        <time>2010-01-01T02:10:50Z</time>
      </trkpt>
      <trkpt lat="42.12439" lon="2.36918">
        <ele>1234</ele>
        <time>2010-01-01T02:10:53Z</time>
      </trkpt>
      <trkpt lat="42.12445" lon="2.36933">
        <ele>1235</ele>
        <time>2010-01-01T02:10:58Z</time>
      </trkpt>
      <trkpt lat="42.12461" lon="2.36952">
        <ele>1240</ele>
        <time>2010-01-01T02:11:07Z</time>
      </trkpt>
      <trkpt lat="42.12469" lon="2.36966">
        <ele>1243</ele>
        <time>2010-01-01T02:11:12Z</time>
      </trkpt>
      <trkpt lat="42.1247" lon="2.36968">
        <ele>1244</ele>
        <time>2010-01-01T02:11:13Z</time>
      </trkpt>
      <trkpt lat="42.12473" lon="2.36967">
        <ele>1245</ele>
        <time>2010-01-01T02:11:14Z</time>
      </trkpt>
      <trkpt lat="42.12474" lon="2.36952">
        <ele>1246</ele>
        <time>2010-01-01T02:11:18Z</time>
      </trkpt>
      <trkpt lat="42.12467" lon="2.3694">
        <ele>1244</ele>
        <time>2010-01-01T02:11:23Z</time>
      </trkpt>
      <trkpt lat="42.12463" lon="2.3692">
        <ele>1245</ele>
        <time>2010-01-01T02:11:29Z</time>
      </trkpt>
      <trkpt lat="42.12465" lon="2.36905">
        <ele>1248</ele>
        <time>2010-01-01T02:11:34Z</time>
      </trkpt>
      <trkpt lat="42.12461" lon="2.3689">
        <ele>1248</ele>
        <time>2010-01-01T02:11:38Z</time>
      </trkpt>
      <trkpt lat="42.1246" lon="2.36874">
        <ele>1250</ele>
        <time>2010-01-01T02:11:43Z</time>
      </trkpt>
      <trkpt lat="42.12466" lon="2.36874">
        <ele>1253</ele>
        <time>2010-01-01T02:11:45Z</time>
      </trkpt>
      <trkpt lat="42.12471" lon="2.36879">
        <ele>1254</ele>
        <time>2010-01-01T02:11:48Z</time>
      </trkpt>
      <trkpt lat="42.12472" lon="2.36886">
        <ele>1253</ele>
        <time>2010-01-01T02:11:50Z</time>
      </trkpt>
      <trkpt lat="42.12482" lon="2.36923">
        <ele>1253</ele>
        <time>2010-01-01T02:12:02Z</time>
      </trkpt>
      <trkpt lat="42.12489" lon="2.36938">
        <ele>1253</ele>
        <time>2010-01-01T02:12:07Z</time>
      </trkpt>
      <trkpt lat="42.12509" lon="2.36959">
        <ele>1260</ele>
        <time>2010-01-01T02:12:17Z</time>
      </trkpt>
      <trkpt lat="42.12514" lon="2.36972">
        <ele>1262</ele>
        <time>2010-01-01T02:12:21Z</time>
      </trkpt>
      <trkpt lat="42.1252" lon="2.36982">
        <ele>1266</ele>
        <time>2010-01-01T02:12:25Z</time>
      </trkpt>
      <trkpt lat="42.12521" lon="2.36982">
        <ele>1266</ele>
        <time>2010-01-01T02:12:26Z</time>
      </trkpt>
      <trkpt lat="42.12523" lon="2.36989">
        <ele>1267</ele>
        <time>2010-01-01T02:12:28Z</time>
      </trkpt>
      <trkpt lat="42.12508" lon="2.3701">
        <ele>1266</ele>
        <time>2010-01-01T02:12:37Z</time>
      </trkpt>
      <trkpt lat="42.12467" lon="2.37087">
        <ele>1270</ele>
        <time>2010-01-01T02:13:05Z</time>
      </trkpt>
      <trkpt lat="42.1246" lon="2.37129">
        <ele>1279</ele>
        <time>2010-01-01T02:13:18Z</time>
      </trkpt>
      <trkpt lat="42.12457" lon="2.37134">
        <ele>1279</ele>
        <time>2010-01-01T02:13:20Z</time>
      </trkpt>
      <trkpt lat="42.12451" lon="2.37138">
        <ele>1279</ele>
        <time>2010-01-01T02:13:22Z</time>
      </trkpt>
      <trkpt lat="42.12443" lon="2.37146">
        <ele>1279</ele>
        <time>2010-01-01T02:13:26Z</time>
      </trkpt>
      <trkpt lat="42.12429" lon="2.37153">
        <ele>1277</ele>
        <time>2010-01-01T02:13:32Z</time>
      </trkpt>
      <trkpt lat="42.12417" lon="2.37168">
        <ele>1279</ele>
        <time>2010-01-01T02:13:39Z</time>
      </trkpt>
      <trkpt lat="42.1241" lon="2.37186">
        <ele>1280</ele>
        <time>2010-01-01T02:13:45Z</time>
      </trkpt>
      <trkpt lat="42.12392" lon="2.37219">
        <ele>1281</ele>
        <time>2010-01-01T02:13:57Z</time>
      </trkpt>
      <trkpt lat="42.12377" lon="2.37239">
        <ele>1279</ele>
        <time>2010-01-01T02:14:05Z</time>
      </trkpt>
      <trkpt lat="42.12368" lon="2.37261">
        <ele>1279</ele>
        <time>2010-01-01T02:14:13Z</time>
      </trkpt>
      <trkpt lat="42.12369" lon="2.37278">
        <ele>1283</ele>
        <time>2010-01-01T02:14:18Z</time>
      </trkpt>
      <trkpt lat="42.12361" lon="2.37312">
        <ele>1285</ele>
        <time>2010-01-01T02:14:28Z</time>
      </trkpt>
      <trkpt lat="42.12358" lon="2.37344">
        <ele>1291</ele>
        <time>2010-01-01T02:14:38Z</time>
      </trkpt>
      <trkpt lat="42.12352" lon="2.37354">
        <ele>1295</ele>
        <time>2010-01-01T02:14:42Z</time>
      </trkpt>
      <trkpt lat="42.12347" lon="2.37354">
        <ele>1295</ele>
        <time>2010-01-01T02:14:44Z</time>
      </trkpt>
      <trkpt lat="42.12325" lon="2.37329">
        <ele>1286</ele>
        <time>2010-01-01T02:14:56Z</time>
      </trkpt>
      <trkpt lat="42.12312" lon="2.37323">
        <ele>1286</ele>
        <time>2010-01-01T02:15:01Z</time>
      </trkpt>
      <trkpt lat="42.12301" lon="2.37323">
        <ele>1287</ele>
        <time>2010-01-01T02:15:05Z</time>
      </trkpt>
      <trkpt lat="42.12285" lon="2.3732">
        <ele>1289</ele>
        <time>2010-01-01T02:15:12Z</time>
      </trkpt>
      <trkpt lat="42.12276" lon="2.3732">
        <ele>1290</ele>
        <time>2010-01-01T02:15:16Z</time>
      </trkpt>
      <trkpt lat="42.1227" lon="2.37324">
        <ele>1292</ele>
        <time>2010-01-01T02:15:18Z</time>
      </trkpt>
      <trkpt lat="42.12271" lon="2.37327">
        <ele>1293</ele>
        <time>2010-01-01T02:15:19Z</time>
      </trkpt>
      <trkpt lat="42.12292" lon="2.37332">
        <ele>1291</ele>
        <time>2010-01-01T02:15:28Z</time>
      </trkpt>
      <trkpt lat="42.12308" lon="2.37341">
        <ele>1293</ele>
        <time>2010-01-01T02:15:35Z</time>
      </trkpt>
      <trkpt lat="42.12334" lon="2.37371">
        <ele>1303</ele>
        <time>2010-01-01T02:15:49Z</time>
      </trkpt>
      <trkpt lat="42.1235" lon="2.37379">
        <ele>1304</ele>
        <time>2010-01-01T02:15:56Z</time>
      </trkpt>
      <trkpt lat="42.1237" lon="2.37383">
        <ele>1305</ele>
        <time>2010-01-01T02:16:04Z</time>
      </trkpt>
      <trkpt lat="42.12379" lon="2.37388">
        <ele>1307</ele>
        <time>2010-01-01T02:16:07Z</time>
      </trkpt>
      <trkpt lat="42.12384" lon="2.37394">
        <ele>1309</ele>
        <time>2010-01-01T02:16:10Z</time>
      </trkpt>
      <trkpt lat="42.12394" lon="2.37394">
        <ele>1310</ele>
        <time>2010-01-01T02:16:14Z</time>
      </trkpt>
      <trkpt lat="42.1241" lon="2.37408">
        <ele>1315</ele>
        <time>2010-01-01T02:16:22Z</time>
      </trkpt>
      <trkpt lat="42.12416" lon="2.37415">
        <ele>1316</ele>
        <time>2010-01-01T02:16:25Z</time>
      </trkpt>
      <trkpt lat="42.1243" lon="2.37423">
        <ele>1319</ele>
        <time>2010-01-01T02:16:31Z</time>
      </trkpt>
      <trkpt lat="42.12416" lon="2.37417">
        <ele>1317</ele>
        <time>2010-01-01T02:16:37Z</time>
      </trkpt>
      <trkpt lat="42.12419" lon="2.37415">
        <ele>1317</ele>
        <time>2010-01-01T02:16:39Z</time>
      </trkpt>
      <trkpt lat="42.12422" lon="2.3742">
        <ele>1318</ele>
        <time>2010-01-01T02:16:41Z</time>
      </trkpt>
      <trkpt lat="42.12414" lon="2.37417">
        <ele>1316</ele>
        <time>2010-01-01T02:16:44Z</time>
      </trkpt>
      <trkpt lat="42.12407" lon="2.37412">
        <ele>1316</ele>
        <time>2010-01-01T02:16:47Z</time>
      </trkpt>
      <trkpt lat="42.12413" lon="2.37409">
        <ele>1316</ele>
        <time>2010-01-01T02:16:49Z</time>
      </trkpt>
      <trkpt lat="42.12412" lon="2.3741">
        <ele>1316</ele>
        <time>2010-01-01T02:16:50Z</time>
      </trkpt>
      <trkpt lat="42.1242" lon="2.37396">
        <ele>1316</ele>
        <time>2010-01-01T02:16:55Z</time>
      </trkpt>
      <trkpt lat="42.12428" lon="2.37388">
        <ele>1318</ele>
        <time>2010-01-01T02:17:00Z</time>
      </trkpt>
      <trkpt lat="42.12441" lon="2.37401">
        <ele>1322</ele>
        <time>2010-01-01T02:17:06Z</time>
      </trkpt>
      <trkpt lat="42.12455" lon="2.37408">
        <ele>1324</ele>
        <time>2010-01-01T02:17:12Z</time>
      </trkpt>
      <trkpt lat="42.12459" lon="2.37412">
        <ele>1324</ele>
        <time>2010-01-01T02:17:14Z</time>
      </trkpt>
      <trkpt lat="42.12465" lon="2.37428">
        <ele>1325</ele>
        <time>2010-01-01T02:17:19Z</time>
      </trkpt>
      <trkpt lat="42.12469" lon="2.37456">
        <ele>1328</ele>
        <time>2010-01-01T02:17:28Z</time>
      </trkpt>
      <trkpt lat="42.12473" lon="2.37469">
        <ele>1330</ele>
        <time>2010-01-01T02:17:32Z</time>
      </trkpt>
      <trkpt lat="42.12486" lon="2.37482">
        <ele>1336</ele>
        <time>2010-01-01T02:17:38Z</time>
      </trkpt>
      <trkpt lat="42.12516" lon="2.37502">
        <ele>1344</ele>
        <time>2010-01-01T02:17:52Z</time>
      </trkpt>
      <trkpt lat="42.12538" lon="2.37513">
        <ele>1348</ele>
        <time>2010-01-01T02:18:01Z</time>
      </trkpt>
      <trkpt lat="42.12548" lon="2.37515">
        <ele>1350</ele>
        <time>2010-01-01T02:18:05Z</time>
      </trkpt>
      <trkpt lat="42.12557" lon="2.37521">
        <ele>1351</ele>
        <time>2010-01-01T02:18:09Z</time>
      </trkpt>
      <trkpt lat="42.12562" lon="2.37531">
        <ele>1352</ele>
        <time>2010-01-01T02:18:13Z</time>
      </trkpt>
      <trkpt lat="42.12573" lon="2.37533">
        <ele>1354</ele>
        <time>2010-01-01T02:18:17Z</time>
      </trkpt>
      <trkpt lat="42.12584" lon="2.37532">
        <ele>1356</ele>
        <time>2010-01-01T02:18:21Z</time>
      </trkpt>
      <trkpt lat="42.12592" lon="2.37535">
        <ele>1357</ele>
        <time>2010-01-01T02:18:25Z</time>
      </trkpt>
      <trkpt lat="42.12599" lon="2.3755">
        <ele>1359</ele>
        <time>2010-01-01T02:18:30Z</time>
      </trkpt>
      <trkpt lat="42.12598" lon="2.37554">
        <ele>1359</ele>
        <time>2010-01-01T02:18:31Z</time>
      </trkpt>
      <trkpt lat="42.12601" lon="2.37582">
        <ele>1361</ele>
        <time>2010-01-01T02:18:40Z</time>
      </trkpt>
      <trkpt lat="42.12599" lon="2.37601">
        <ele>1362</ele>
        <time>2010-01-01T02:18:45Z</time>
      </trkpt>
      <trkpt lat="42.12601" lon="2.37608">
        <ele>1362</ele>
        <time>2010-01-01T02:18:48Z</time>
      </trkpt>
      <trkpt lat="42.12598" lon="2.37633">
        <ele>1366</ele>
        <time>2010-01-01T02:18:55Z</time>
      </trkpt>
      <trkpt lat="42.12599" lon="2.37648">
        <ele>1369</ele>
        <time>2010-01-01T02:18:59Z</time>
      </trkpt>
      <trkpt lat="42.12602" lon="2.37682">
        <ele>1376</ele>
        <time>2010-01-01T02:19:10Z</time>
      </trkpt>
      <trkpt lat="42.12605" lon="2.37725">
        <ele>1386</ele>
        <time>2010-01-01T02:19:23Z</time>
      </trkpt>
      <trkpt lat="42.12604" lon="2.37731">
        <ele>1387</ele>
        <time>2010-01-01T02:19:24Z</time>
      </trkpt>
      <trkpt lat="42.12601" lon="2.37736">
        <ele>1387</ele>
        <time>2010-01-01T02:19:26Z</time>
      </trkpt>
      <trkpt lat="42.12598" lon="2.37755">
        <ele>1390</ele>
        <time>2010-01-01T02:19:32Z</time>
      </trkpt>
      <trkpt lat="42.12593" lon="2.37774">
        <ele>1393</ele>
        <time>2010-01-01T02:19:38Z</time>
      </trkpt>
      <trkpt lat="42.12583" lon="2.37789">
        <ele>1394</ele>
        <time>2010-01-01T02:19:44Z</time>
      </trkpt>
      <trkpt lat="42.12564" lon="2.37807">
        <ele>1396</ele>
        <time>2010-01-01T02:19:53Z</time>
      </trkpt>
      <trkpt lat="42.1255" lon="2.37814">
        <ele>1397</ele>
        <time>2010-01-01T02:19:59Z</time>
      </trkpt>
      <trkpt lat="42.12537" lon="2.37822">
        <ele>1400</ele>
        <time>2010-01-01T02:20:05Z</time>
      </trkpt>
      <trkpt lat="42.12531" lon="2.37831">
        <ele>1403</ele>
        <time>2010-01-01T02:20:09Z</time>
      </trkpt>
      <trkpt lat="42.12516" lon="2.3784">
        <ele>1404</ele>
        <time>2010-01-01T02:20:15Z</time>
      </trkpt>
      <trkpt lat="42.12503" lon="2.37857">
        <ele>1408</ele>
        <time>2010-01-01T02:20:22Z</time>
      </trkpt>
      <trkpt lat="42.125" lon="2.37868">
        <ele>1411</ele>
        <time>2010-01-01T02:20:26Z</time>
      </trkpt>
      <trkpt lat="42.12497" lon="2.37899">
        <ele>1414</ele>
        <time>2010-01-01T02:20:35Z</time>
      </trkpt>
      <trkpt lat="42.12498" lon="2.37922">
        <ele>1416</ele>
        <time>2010-01-01T02:20:42Z</time>
      </trkpt>
      <trkpt lat="42.12493" lon="2.3795">
        <ele>1418</ele>
        <time>2010-01-01T02:20:51Z</time>
      </trkpt>
      <trkpt lat="42.12485" lon="2.37972">
        <ele>1419</ele>
        <time>2010-01-01T02:20:58Z</time>
      </trkpt>
      <trkpt lat="42.12476" lon="2.37986">
        <ele>1420</ele>
        <time>2010-01-01T02:21:03Z</time>
      </trkpt>
      <trkpt lat="42.12467" lon="2.37999">
        <ele>1422</ele>
        <time>2010-01-01T02:21:09Z</time>
      </trkpt>
      <trkpt lat="42.1246" lon="2.38001">
        <ele>1423</ele>
        <time>2010-01-01T02:21:11Z</time>
      </trkpt>
      <trkpt lat="42.12457" lon="2.38006">
        <ele>1424</ele>
        <time>2010-01-01T02:21:13Z</time>
      </trkpt>
      <trkpt lat="42.12447" lon="2.38012">
        <ele>1425</ele>
        <time>2010-01-01T02:21:17Z</time>
      </trkpt>
      <trkpt lat="42.1256" lon="2.38426">
        <ele>1449</ele>
        <time>2010-01-01T02:23:28Z</time>
      </trkpt>
      <trkpt lat="42.12564" lon="2.38431">
        <ele>1449</ele>
        <time>2010-01-01T02:23:30Z</time>
      </trkpt>
      <trkpt lat="42.12569" lon="2.38432">
        <ele>1448</ele>
        <time>2010-01-01T02:23:32Z</time>
      </trkpt>
      <trkpt lat="42.12571" lon="2.38438">
        <ele>1449</ele>
        <time>2010-01-01T02:23:34Z</time>
      </trkpt>
      <trkpt lat="42.12576" lon="2.38441">
        <ele>1449</ele>
        <time>2010-01-01T02:23:36Z</time>
      </trkpt>
      <trkpt lat="42.1258" lon="2.38441">
        <ele>1448</ele>
        <time>2010-01-01T02:23:38Z</time>
      </trkpt>
      <trkpt lat="42.12589" lon="2.38445">
        <ele>1447</ele>
        <time>2010-01-01T02:23:42Z</time>
      </trkpt>
      <trkpt lat="42.12595" lon="2.38444">
        <ele>1445</ele>
        <time>2010-01-01T02:23:44Z</time>
      </trkpt>
      <trkpt lat="42.12598" lon="2.38438">
        <ele>1443</ele>
        <time>2010-01-01T02:23:46Z</time>
      </trkpt>
      <trkpt lat="42.12603" lon="2.38436">
        <ele>1442</ele>
        <time>2010-01-01T02:23:48Z</time>
      </trkpt>
      <trkpt lat="42.12613" lon="2.38437">
        <ele>1440</ele>
        <time>2010-01-01T02:23:52Z</time>
      </trkpt>
      <trkpt lat="42.1262" lon="2.38432">
        <ele>1439</ele>
        <time>2010-01-01T02:23:55Z</time>
      </trkpt>
      <trkpt lat="42.12638" lon="2.38408">
        <ele>1433</ele>
        <time>2010-01-01T02:24:06Z</time>
      </trkpt>
      <trkpt lat="42.1264" lon="2.38402">
        <ele>1432</ele>
        <time>2010-01-01T02:24:08Z</time>
      </trkpt>
      <trkpt lat="42.12643" lon="2.38398">
        <ele>1431</ele>
        <time>2010-01-01T02:24:09Z</time>
      </trkpt>
      <trkpt lat="42.12658" lon="2.38405">
        <ele>1434</ele>
        <time>2010-01-01T02:24:16Z</time>
      </trkpt>
      <trkpt lat="42.12673" lon="2.38406">
        <ele>1434</ele>
        <time>2010-01-01T02:24:22Z</time>
      </trkpt>
      <trkpt lat="42.12678" lon="2.38403">
        <ele>1433</ele>
        <time>2010-01-01T02:24:24Z</time>
      </trkpt>
      <trkpt lat="42.12681" lon="2.38398">
        <ele>1432</ele>
        <time>2010-01-01T02:24:26Z</time>
      </trkpt>
      <trkpt lat="42.12681" lon="2.38392">
        <ele>1431</ele>
        <time>2010-01-01T02:24:28Z</time>
      </trkpt>
      <trkpt lat="42.12677" lon="2.38388">
        <ele>1430</ele>
        <time>2010-01-01T02:24:30Z</time>
      </trkpt>
      <trkpt lat="42.12679" lon="2.38382">
        <ele>1429</ele>
        <time>2010-01-01T02:24:32Z</time>
      </trkpt>
      <trkpt lat="42.12683" lon="2.3838">
        <ele>1428</ele>
        <time>2010-01-01T02:24:33Z</time>
      </trkpt>
      <trkpt lat="42.12688" lon="2.3838">
        <ele>1428</ele>
        <time>2010-01-01T02:24:35Z</time>
      </trkpt>
      <trkpt lat="42.12693" lon="2.38378">
        <ele>1427</ele>
        <time>2010-01-01T02:24:37Z</time>
      </trkpt>
      <trkpt lat="42.12695" lon="2.38372">
        <ele>1426</ele>
        <time>2010-01-01T02:24:39Z</time>
      </trkpt>
      <trkpt lat="42.12697" lon="2.38352">
        <ele>1423</ele>
        <time>2010-01-01T02:24:45Z</time>
      </trkpt>
      <trkpt lat="42.12701" lon="2.38341">
        <ele>1420</ele>
        <time>2010-01-01T02:24:49Z</time>
      </trkpt>
      <trkpt lat="42.12712" lon="2.38356">
        <ele>1421</ele>
        <time>2010-01-01T02:24:55Z</time>
      </trkpt>
      <trkpt lat="42.12721" lon="2.38365">
        <ele>1420</ele>
        <time>2010-01-01T02:25:00Z</time>
      </trkpt>
      <trkpt lat="42.12724" lon="2.38371">
        <ele>1420</ele>
        <time>2010-01-01T02:25:02Z</time>
      </trkpt>
      <trkpt lat="42.1273" lon="2.38375">
        <ele>1419</ele>
        <time>2010-01-01T02:25:05Z</time>
      </trkpt>
      <trkpt lat="42.12733" lon="2.3838">
        <ele>1418</ele>
        <time>2010-01-01T02:25:06Z</time>
      </trkpt>
      <trkpt lat="42.12731" lon="2.38387">
        <ele>1420</ele>
        <time>2010-01-01T02:25:09Z</time>
      </trkpt>
      <trkpt lat="42.12734" lon="2.38394">
        <ele>1420</ele>
        <time>2010-01-01T02:25:11Z</time>
      </trkpt>
      <trkpt lat="42.12737" lon="2.38398">
        <ele>1420</ele>
        <time>2010-01-01T02:25:13Z</time>
      </trkpt>
      <trkpt lat="42.12735" lon="2.38417">
        <ele>1424</ele>
        <time>2010-01-01T02:25:18Z</time>
      </trkpt>
      <trkpt lat="42.1274" lon="2.38418">
        <ele>1422</ele>
        <time>2010-01-01T02:25:20Z</time>
      </trkpt>
      <trkpt lat="42.12738" lon="2.38424">
        <ele>1424</ele>
        <time>2010-01-01T02:25:22Z</time>
      </trkpt>
      <trkpt lat="42.12742" lon="2.38432">
        <ele>1424</ele>
        <time>2010-01-01T02:25:25Z</time>
      </trkpt>
      <trkpt lat="42.12741" lon="2.38438">
        <ele>1425</ele>
        <time>2010-01-01T02:25:27Z</time>
      </trkpt>
      <trkpt lat="42.12743" lon="2.38445">
        <ele>1425</ele>
        <time>2010-01-01T02:25:29Z</time>
      </trkpt>
      <trkpt lat="42.12749" lon="2.38456">
        <ele>1423</ele>
        <time>2010-01-01T02:25:33Z</time>
      </trkpt>
      <trkpt lat="42.12751" lon="2.3847">
        <ele>1423</ele>
        <time>2010-01-01T02:25:37Z</time>
      </trkpt>
      <trkpt lat="42.12757" lon="2.38481">
        <ele>1421</ele>
        <time>2010-01-01T02:25:41Z</time>
      </trkpt>
      <trkpt lat="42.12759" lon="2.38487">
        <ele>1421</ele>
        <time>2010-01-01T02:25:43Z</time>
      </trkpt>
      <trkpt lat="42.12757" lon="2.38494">
        <ele>1421</ele>
        <time>2010-01-01T02:25:45Z</time>
      </trkpt>
      <trkpt lat="42.1275" lon="2.38505">
        <ele>1424</ele>
        <time>2010-01-01T02:25:50Z</time>
      </trkpt>
      <trkpt lat="42.1275" lon="2.38512">
        <ele>1424</ele>
        <time>2010-01-01T02:25:52Z</time>
      </trkpt>
      <trkpt lat="42.12756" lon="2.38522">
        <ele>1423</ele>
        <time>2010-01-01T02:25:56Z</time>
      </trkpt>
      <trkpt lat="42.12756" lon="2.38528">
        <ele>1423</ele>
        <time>2010-01-01T02:25:58Z</time>
      </trkpt>
      <trkpt lat="42.12764" lon="2.38534">
        <ele>1424</ele>
        <time>2010-01-01T02:26:01Z</time>
      </trkpt>
      <trkpt lat="42.12766" lon="2.38542">
        <ele>1425</ele>
        <time>2010-01-01T02:26:04Z</time>
      </trkpt>
      <trkpt lat="42.12769" lon="2.38548">
        <ele>1426</ele>
        <time>2010-01-01T02:26:06Z</time>
      </trkpt>
      <trkpt lat="42.12767" lon="2.38553">
        <ele>1428</ele>
        <time>2010-01-01T02:26:07Z</time>
      </trkpt>
      <trkpt lat="42.12776" lon="2.38557">
        <ele>1427</ele>
        <time>2010-01-01T02:26:11Z</time>
      </trkpt>
      <trkpt lat="42.12781" lon="2.38554">
        <ele>1426</ele>
        <time>2010-01-01T02:26:13Z</time>
      </trkpt>
      <trkpt lat="42.12787" lon="2.38555">
        <ele>1425</ele>
        <time>2010-01-01T02:26:15Z</time>
      </trkpt>
      <trkpt lat="42.12791" lon="2.38553">
        <ele>1424</ele>
        <time>2010-01-01T02:26:17Z</time>
      </trkpt>
      <trkpt lat="42.12798" lon="2.38547">
        <ele>1422</ele>
        <time>2010-01-01T02:26:21Z</time>
      </trkpt>
      <trkpt lat="42.12803" lon="2.38545">
        <ele>1421</ele>
        <time>2010-01-01T02:26:23Z</time>
      </trkpt>
      <trkpt lat="42.1282" lon="2.38545">
        <ele>1418</ele>
        <time>2010-01-01T02:26:29Z</time>
      </trkpt>
      <trkpt lat="42.12827" lon="2.38538">
        <ele>1415</ele>
        <time>2010-01-01T02:26:33Z</time>
      </trkpt>
      <trkpt lat="42.12837" lon="2.38534">
        <ele>1412</ele>
        <time>2010-01-01T02:26:37Z</time>
      </trkpt>
      <trkpt lat="42.12846" lon="2.38533">
        <ele>1409</ele>
        <time>2010-01-01T02:26:41Z</time>
      </trkpt>
      <trkpt lat="42.12862" lon="2.38527">
        <ele>1404</ele>
        <time>2010-01-01T02:26:47Z</time>
      </trkpt>
      <trkpt lat="42.12897" lon="2.38506">
        <ele>1392</ele>
        <time>2010-01-01T02:27:03Z</time>
      </trkpt>
      <trkpt lat="42.12905" lon="2.38496">
        <ele>1389</ele>
        <time>2010-01-01T02:27:07Z</time>
      </trkpt>
      <trkpt lat="42.12914" lon="2.38492">
        <ele>1386</ele>
        <time>2010-01-01T02:27:11Z</time>
      </trkpt>
      <trkpt lat="42.12922" lon="2.38483">
        <ele>1382</ele>
        <time>2010-01-01T02:27:15Z</time>
      </trkpt>
      <trkpt lat="42.12931" lon="2.38481">
        <ele>1379</ele>
        <time>2010-01-01T02:27:19Z</time>
      </trkpt>
      <trkpt lat="42.12946" lon="2.38474">
        <ele>1374</ele>
        <time>2010-01-01T02:27:25Z</time>
      </trkpt>
      <trkpt lat="42.12951" lon="2.38473">
        <ele>1373</ele>
        <time>2010-01-01T02:27:27Z</time>
      </trkpt>
      <trkpt lat="42.12959" lon="2.38466">
        <ele>1371</ele>
        <time>2010-01-01T02:27:31Z</time>
      </trkpt>
      <trkpt lat="42.12974" lon="2.38464">
        <ele>1368</ele>
        <time>2010-01-01T02:27:37Z</time>
      </trkpt>
      <trkpt lat="42.1297" lon="2.38465">
        <ele>1369</ele>
        <time>2010-01-01T02:27:39Z</time>
      </trkpt>
      <trkpt lat="42.12985" lon="2.3846">
        <ele>1364</ele>
        <time>2010-01-01T02:27:45Z</time>
      </trkpt>
      <trkpt lat="42.12986" lon="2.38454">
        <ele>1364</ele>
        <time>2010-01-01T02:27:47Z</time>
      </trkpt>
      <trkpt lat="42.1299" lon="2.38451">
        <ele>1363</ele>
        <time>2010-01-01T02:27:49Z</time>
      </trkpt>
      <trkpt lat="42.12992" lon="2.38445">
        <ele>1363</ele>
        <time>2010-01-01T02:27:51Z</time>
      </trkpt>
      <trkpt lat="42.12993" lon="2.38432">
        <ele>1362</ele>
        <time>2010-01-01T02:27:55Z</time>
      </trkpt>
      <trkpt lat="42.12992" lon="2.38425">
        <ele>1362</ele>
        <time>2010-01-01T02:27:57Z</time>
      </trkpt>
      <trkpt lat="42.13001" lon="2.38408">
        <ele>1359</ele>
        <time>2010-01-01T02:28:03Z</time>
      </trkpt>
      <trkpt lat="42.13002" lon="2.384">
        <ele>1357</ele>
        <time>2010-01-01T02:28:06Z</time>
      </trkpt>
      <trkpt lat="42.13" lon="2.38393">
        <ele>1357</ele>
        <time>2010-01-01T02:28:08Z</time>
      </trkpt>
      <trkpt lat="42.13" lon="2.38387">
        <ele>1356</ele>
        <time>2010-01-01T02:28:10Z</time>
      </trkpt>
      <trkpt lat="42.13007" lon="2.38366">
        <ele>1352</ele>
        <time>2010-01-01T02:28:16Z</time>
      </trkpt>
      <trkpt lat="42.13011" lon="2.38346">
        <ele>1349</ele>
        <time>2010-01-01T02:28:23Z</time>
      </trkpt>
      <trkpt lat="42.13016" lon="2.38335">
        <ele>1347</ele>
        <time>2010-01-01T02:28:27Z</time>
      </trkpt>
      <trkpt lat="42.13025" lon="2.38325">
        <ele>1346</ele>
        <time>2010-01-01T02:28:31Z</time>
      </trkpt>
      <trkpt lat="42.13041" lon="2.38316">
        <ele>1343</ele>
        <time>2010-01-01T02:28:38Z</time>
      </trkpt>
      <trkpt lat="42.13056" lon="2.38318">
        <ele>1340</ele>
        <time>2010-01-01T02:28:44Z</time>
      </trkpt>
      <trkpt lat="42.13066" lon="2.38315">
        <ele>1336</ele>
        <time>2010-01-01T02:28:48Z</time>
      </trkpt>
      <trkpt lat="42.13075" lon="2.38321">
        <ele>1334</ele>
        <time>2010-01-01T02:28:52Z</time>
      </trkpt>
      <trkpt lat="42.13072" lon="2.38327">
        <ele>1335</ele>
        <time>2010-01-01T02:28:54Z</time>
      </trkpt>
      <trkpt lat="42.13079" lon="2.38331">
        <ele>1333</ele>
        <time>2010-01-01T02:28:57Z</time>
      </trkpt>
      <trkpt lat="42.1309" lon="2.38327">
        <ele>1330</ele>
        <time>2010-01-01T02:29:02Z</time>
      </trkpt>
      <trkpt lat="42.13111" lon="2.38323">
        <ele>1324</ele>
        <time>2010-01-01T02:29:10Z</time>
      </trkpt>
      <trkpt lat="42.13116" lon="2.3832">
        <ele>1322</ele>
        <time>2010-01-01T02:29:12Z</time>
      </trkpt>
      <trkpt lat="42.13126" lon="2.38319">
        <ele>1320</ele>
        <time>2010-01-01T02:29:16Z</time>
      </trkpt>
      <trkpt lat="42.13131" lon="2.38315">
        <ele>1318</ele>
        <time>2010-01-01T02:29:19Z</time>
      </trkpt>
      <trkpt lat="42.13145" lon="2.38315">
        <ele>1314</ele>
        <time>2010-01-01T02:29:24Z</time>
      </trkpt>
      <trkpt lat="42.13149" lon="2.38311">
        <ele>1313</ele>
        <time>2010-01-01T02:29:26Z</time>
      </trkpt>
      <trkpt lat="42.13153" lon="2.38315">
        <ele>1313</ele>
        <time>2010-01-01T02:29:28Z</time>
      </trkpt>
      <trkpt lat="42.13158" lon="2.38318">
        <ele>1312</ele>
        <time>2010-01-01T02:29:30Z</time>
      </trkpt>
      <trkpt lat="42.13155" lon="2.38323">
        <ele>1313</ele>
        <time>2010-01-01T02:29:33Z</time>
      </trkpt>
      <trkpt lat="42.1316" lon="2.38324">
        <ele>1312</ele>
        <time>2010-01-01T02:29:34Z</time>
      </trkpt>
      <trkpt lat="42.13163" lon="2.38319">
        <ele>1311</ele>
        <time>2010-01-01T02:29:36Z</time>
      </trkpt>
      <trkpt lat="42.13161" lon="2.38313">
        <ele>1310</ele>
        <time>2010-01-01T02:29:38Z</time>
      </trkpt>
      <trkpt lat="42.13166" lon="2.38314">
        <ele>1310</ele>
        <time>2010-01-01T02:29:40Z</time>
      </trkpt>
      <trkpt lat="42.13172" lon="2.38313">
        <ele>1308</ele>
        <time>2010-01-01T02:29:43Z</time>
      </trkpt>
      <trkpt lat="42.1318" lon="2.38321">
        <ele>1307</ele>
        <time>2010-01-01T02:29:47Z</time>
      </trkpt>
      <trkpt lat="42.13185" lon="2.38322">
        <ele>1305</ele>
        <time>2010-01-01T02:29:49Z</time>
      </trkpt>
      <trkpt lat="42.1318" lon="2.38327">
        <ele>1307</ele>
        <time>2010-01-01T02:29:51Z</time>
      </trkpt>
      <trkpt lat="42.13185" lon="2.38324">
        <ele>1305</ele>
        <time>2010-01-01T02:29:54Z</time>
      </trkpt>
      <trkpt lat="42.13195" lon="2.38325">
        <ele>1302</ele>
        <time>2010-01-01T02:29:58Z</time>
      </trkpt>
      <trkpt lat="42.1321" lon="2.38322">
        <ele>1295</ele>
        <time>2010-01-01T02:30:04Z</time>
      </trkpt>
      <trkpt lat="42.13215" lon="2.38323">
        <ele>1292</ele>
        <time>2010-01-01T02:30:06Z</time>
      </trkpt>
      <trkpt lat="42.13219" lon="2.38326">
        <ele>1289</ele>
        <time>2010-01-01T02:30:08Z</time>
      </trkpt>
      <trkpt lat="42.13224" lon="2.38326">
        <ele>1286</ele>
        <time>2010-01-01T02:30:09Z</time>
      </trkpt>
      <trkpt lat="42.13229" lon="2.38328">
        <ele>1283</ele>
        <time>2010-01-01T02:30:11Z</time>
      </trkpt>
      <trkpt lat="42.13241" lon="2.38327">
        <ele>1276</ele>
        <time>2010-01-01T02:30:17Z</time>
      </trkpt>
      <trkpt lat="42.1325" lon="2.38322">
        <ele>1271</ele>
        <time>2010-01-01T02:30:21Z</time>
      </trkpt>
      <trkpt lat="42.13262" lon="2.38319">
        <ele>1266</ele>
        <time>2010-01-01T02:30:25Z</time>
      </trkpt>
      <trkpt lat="42.1328" lon="2.38322">
        <ele>1258</ele>
        <time>2010-01-01T02:30:32Z</time>
      </trkpt>
      <trkpt lat="42.13286" lon="2.38321">
        <ele>1254</ele>
        <time>2010-01-01T02:30:35Z</time>
      </trkpt>
      <trkpt lat="42.13299" lon="2.38322">
        <ele>1247</ele>
        <time>2010-01-01T02:30:40Z</time>
      </trkpt>
      <trkpt lat="42.13294" lon="2.38321">
        <ele>1250</ele>
        <time>2010-01-01T02:30:42Z</time>
      </trkpt>
      <trkpt lat="42.1331" lon="2.38324">
        <ele>1240</ele>
        <time>2010-01-01T02:30:49Z</time>
      </trkpt>
      <trkpt lat="42.1331" lon="2.38331">
        <ele>1238</ele>
        <time>2010-01-01T02:30:51Z</time>
      </trkpt>
      <trkpt lat="42.13302" lon="2.38342">
        <ele>1238</ele>
        <time>2010-01-01T02:30:55Z</time>
      </trkpt>
      <trkpt lat="42.1331" lon="2.38331">
        <ele>1238</ele>
        <time>2010-01-01T02:31:00Z</time>
      </trkpt>
      <trkpt lat="42.13321" lon="2.38332">
        <ele>1232</ele>
        <time>2010-01-01T02:31:04Z</time>
      </trkpt>
      <trkpt lat="42.13332" lon="2.38331">
        <ele>1227</ele>
        <time>2010-01-01T02:31:08Z</time>
      </trkpt>
      <trkpt lat="42.13337" lon="2.38332">
        <ele>1223</ele>
        <time>2010-01-01T02:31:10Z</time>
      </trkpt>
      <trkpt lat="42.13341" lon="2.38328">
        <ele>1223</ele>
        <time>2010-01-01T02:31:13Z</time>
      </trkpt>
      <trkpt lat="42.13357" lon="2.38325">
        <ele>1216</ele>
        <time>2010-01-01T02:31:19Z</time>
      </trkpt>
      <trkpt lat="42.13362" lon="2.38328">
        <ele>1212</ele>
        <time>2010-01-01T02:31:21Z</time>
      </trkpt>
      <trkpt lat="42.13367" lon="2.38334">
        <ele>1204</ele>
        <time>2010-01-01T02:31:24Z</time>
      </trkpt>
      <trkpt lat="42.13362" lon="2.38335">
        <ele>1207</ele>
        <time>2010-01-01T02:31:26Z</time>
      </trkpt>
      <trkpt lat="42.13368" lon="2.38333">
        <ele>1204</ele>
        <time>2010-01-01T02:31:28Z</time>
      </trkpt>
      <trkpt lat="42.13379" lon="2.38339">
        <ele>1191</ele>
        <time>2010-01-01T02:31:33Z</time>
      </trkpt>
      <trkpt lat="42.13383" lon="2.38342">
        <ele>1187</ele>
        <time>2010-01-01T02:31:35Z</time>
      </trkpt>
      <trkpt lat="42.13392" lon="2.38346">
        <ele>1179</ele>
        <time>2010-01-01T02:31:39Z</time>
      </trkpt>
      <trkpt lat="42.13397" lon="2.38352">
        <ele>1174</ele>
        <time>2010-01-01T02:31:41Z</time>
      </trkpt>
      <trkpt lat="42.13423" lon="2.38351">
        <ele>1162</ele>
        <time>2010-01-01T02:31:52Z</time>
      </trkpt>
      <trkpt lat="42.13435" lon="2.38347">
        <ele>1158</ele>
        <time>2010-01-01T02:31:57Z</time>
      </trkpt>
      <trkpt lat="42.13445" lon="2.38341">
        <ele>1156</ele>
        <time>2010-01-01T02:32:01Z</time>
      </trkpt>
      <trkpt lat="42.13452" lon="2.38339">
        <ele>1153</ele>
        <time>2010-01-01T02:32:04Z</time>
      </trkpt>
      <trkpt lat="42.13472" lon="2.38338">
        <ele>1140</ele>
        <time>2010-01-01T02:32:12Z</time>
      </trkpt>
      <trkpt lat="42.1348" lon="2.38344">
        <ele>1136</ele>
        <time>2010-01-01T02:32:16Z</time>
      </trkpt>
      <trkpt lat="42.13495" lon="2.38349">
        <ele>1131</ele>
        <time>2010-01-01T02:32:22Z</time>
      </trkpt>
      <trkpt lat="42.135" lon="2.3835">
        <ele>1129</ele>
        <time>2010-01-01T02:32:24Z</time>
      </trkpt>
      <trkpt lat="42.13505" lon="2.38348">
        <ele>1127</ele>
        <time>2010-01-01T02:32:26Z</time>
      </trkpt>
      <trkpt lat="42.13509" lon="2.38351">
        <ele>1126</ele>
        <time>2010-01-01T02:32:28Z</time>
      </trkpt>
      <trkpt lat="42.13518" lon="2.38353">
        <ele>1122</ele>
        <time>2010-01-01T02:32:31Z</time>
      </trkpt>
      <trkpt lat="42.13523" lon="2.38351">
        <ele>1121</ele>
        <time>2010-01-01T02:32:33Z</time>
      </trkpt>
      <trkpt lat="42.13539" lon="2.38353">
        <ele>1114</ele>
        <time>2010-01-01T02:32:40Z</time>
      </trkpt>
      <trkpt lat="42.13548" lon="2.38357">
        <ele>1111</ele>
        <time>2010-01-01T02:32:44Z</time>
      </trkpt>
      <trkpt lat="42.13555" lon="2.38362">
        <ele>1108</ele>
        <time>2010-01-01T02:32:47Z</time>
      </trkpt>
      <trkpt lat="42.13566" lon="2.38364">
        <ele>1104</ele>
        <time>2010-01-01T02:32:51Z</time>
      </trkpt>
      <trkpt lat="42.13577" lon="2.3837">
        <ele>1102</ele>
        <time>2010-01-01T02:32:56Z</time>
      </trkpt>
      <trkpt lat="42.13583" lon="2.38369">
        <ele>1101</ele>
        <time>2010-01-01T02:32:58Z</time>
      </trkpt>
      <trkpt lat="42.13593" lon="2.38371">
        <ele>1099</ele>
        <time>2010-01-01T02:33:03Z</time>
      </trkpt>
      <trkpt lat="42.13606" lon="2.38375">
        <ele>1098</ele>
        <time>2010-01-01T02:33:08Z</time>
      </trkpt>
      <trkpt lat="42.13615" lon="2.38383">
        <ele>1097</ele>
        <time>2010-01-01T02:33:12Z</time>
      </trkpt>
      <trkpt lat="42.13648" lon="2.38394">
        <ele>1093</ele>
        <time>2010-01-01T02:33:26Z</time>
      </trkpt>
      <trkpt lat="42.13653" lon="2.38394">
        <ele>1092</ele>
        <time>2010-01-01T02:33:28Z</time>
      </trkpt>
      <trkpt lat="42.13673" lon="2.38391">
        <ele>1088</ele>
        <time>2010-01-01T02:33:36Z</time>
      </trkpt>
      <trkpt lat="42.13693" lon="2.38384">
        <ele>1084</ele>
        <time>2010-01-01T02:33:44Z</time>
      </trkpt>
      <trkpt lat="42.13718" lon="2.38388">
        <ele>1080</ele>
        <time>2010-01-01T02:33:54Z</time>
      </trkpt>
      <trkpt lat="42.1374" lon="2.38369">
        <ele>1077</ele>
        <time>2010-01-01T02:34:04Z</time>
      </trkpt>
      <trkpt lat="42.13745" lon="2.38358">
        <ele>1076</ele>
        <time>2010-01-01T02:34:08Z</time>
      </trkpt>
      <trkpt lat="42.13754" lon="2.38349">
        <ele>1074</ele>
        <time>2010-01-01T02:34:13Z</time>
      </trkpt>
      <trkpt lat="42.13758" lon="2.38345">
        <ele>1073</ele>
        <time>2010-01-01T02:34:15Z</time>
      </trkpt>
      <trkpt lat="42.13763" lon="2.38344">
        <ele>1072</ele>
        <time>2010-01-01T02:34:17Z</time>
      </trkpt>
      <trkpt lat="42.13767" lon="2.38339">
        <ele>1071</ele>
        <time>2010-01-01T02:34:19Z</time>
      </trkpt>
      <trkpt lat="42.13786" lon="2.38325">
        <ele>1065</ele>
        <time>2010-01-01T02:34:28Z</time>
      </trkpt>
      <trkpt lat="42.13799" lon="2.38312">
        <ele>1062</ele>
        <time>2010-01-01T02:34:34Z</time>
      </trkpt>
      <trkpt lat="42.13809" lon="2.38307">
        <ele>1061</ele>
        <time>2010-01-01T02:34:38Z</time>
      </trkpt>
      <trkpt lat="42.13816" lon="2.38299">
        <ele>1060</ele>
        <time>2010-01-01T02:34:42Z</time>
      </trkpt>
      <trkpt lat="42.13812" lon="2.38281">
        <ele>1061</ele>
        <time>2010-01-01T02:34:48Z</time>
      </trkpt>
      <trkpt lat="42.13794" lon="2.38266">
        <ele>1060</ele>
        <time>2010-01-01T02:34:56Z</time>
      </trkpt>
      <trkpt lat="42.13789" lon="2.38266">
        <ele>1060</ele>
        <time>2010-01-01T02:34:58Z</time>
      </trkpt>
      <trkpt lat="42.13779" lon="2.38261">
        <ele>1059</ele>
        <time>2010-01-01T02:35:02Z</time>
      </trkpt>
      <trkpt lat="42.1377" lon="2.38254">
        <ele>1059</ele>
        <time>2010-01-01T02:35:06Z</time>
      </trkpt>
      <trkpt lat="42.13767" lon="2.38249">
        <ele>1059</ele>
        <time>2010-01-01T02:35:08Z</time>
      </trkpt>
      <trkpt lat="42.13755" lon="2.38244">
        <ele>1060</ele>
        <time>2010-01-01T02:35:13Z</time>
      </trkpt>
      <trkpt lat="42.13748" lon="2.38233">
        <ele>1059</ele>
        <time>2010-01-01T02:35:18Z</time>
      </trkpt>
      <trkpt lat="42.13743" lon="2.38231">
        <ele>1059</ele>
        <time>2010-01-01T02:35:20Z</time>
      </trkpt>
      <trkpt lat="42.13731" lon="2.38234">
        <ele>1061</ele>
        <time>2010-01-01T02:35:25Z</time>
      </trkpt>
      <trkpt lat="42.13716" lon="2.38227">
        <ele>1061</ele>
        <time>2010-01-01T02:35:31Z</time>
      </trkpt>
      <trkpt lat="42.13709" lon="2.38216">
        <ele>1059</ele>
        <time>2010-01-01T02:35:36Z</time>
      </trkpt>
      <trkpt lat="42.13704" lon="2.38214">
        <ele>1059</ele>
        <time>2010-01-01T02:35:38Z</time>
      </trkpt>
      <trkpt lat="42.13701" lon="2.38208">
        <ele>1057</ele>
        <time>2010-01-01T02:35:40Z</time>
      </trkpt>
      <trkpt lat="42.13696" lon="2.38207">
        <ele>1057</ele>
        <time>2010-01-01T02:35:41Z</time>
      </trkpt>
      <trkpt lat="42.13685" lon="2.38209">
        <ele>1057</ele>
        <time>2010-01-01T02:35:46Z</time>
      </trkpt>
      <trkpt lat="42.1368" lon="2.38208">
        <ele>1057</ele>
        <time>2010-01-01T02:35:48Z</time>
      </trkpt>
      <trkpt lat="42.13674" lon="2.38204">
        <ele>1055</ele>
        <time>2010-01-01T02:35:51Z</time>
      </trkpt>
      <trkpt lat="42.13664" lon="2.38202">
        <ele>1055</ele>
        <time>2010-01-01T02:35:55Z</time>
      </trkpt>
      <trkpt lat="42.13654" lon="2.38195">
        <ele>1054</ele>
        <time>2010-01-01T02:35:59Z</time>
      </trkpt>
      <trkpt lat="42.13618" lon="2.38181">
        <ele>1059</ele>
        <time>2010-01-01T02:36:14Z</time>
      </trkpt>
      <trkpt lat="42.13613" lon="2.38176">
        <ele>1060</ele>
        <time>2010-01-01T02:36:17Z</time>
      </trkpt>
      <trkpt lat="42.13604" lon="2.3813">
        <ele>1053</ele>
        <time>2010-01-01T02:36:31Z</time>
      </trkpt>
      <trkpt lat="42.13598" lon="2.38125">
        <ele>1055</ele>
        <time>2010-01-01T02:36:34Z</time>
      </trkpt>
      <trkpt lat="42.13573" lon="2.38121">
        <ele>1065</ele>
        <time>2010-01-01T02:36:44Z</time>
      </trkpt>
      <trkpt lat="42.13562" lon="2.38106">
        <ele>1069</ele>
        <time>2010-01-01T02:36:50Z</time>
      </trkpt>
      <trkpt lat="42.13583" lon="2.38081">
        <ele>1060</ele>
        <time>2010-01-01T02:37:01Z</time>
      </trkpt>
      <trkpt lat="42.13593" lon="2.38077">
        <ele>1060</ele>
        <time>2010-01-01T02:37:05Z</time>
      </trkpt>
      <trkpt lat="42.13596" lon="2.38073">
        <ele>1061</ele>
        <time>2010-01-01T02:37:07Z</time>
      </trkpt>
      <trkpt lat="42.13587" lon="2.38072">
        <ele>1062</ele>
        <time>2010-01-01T02:37:11Z</time>
      </trkpt>
      <trkpt lat="42.13571" lon="2.38084">
        <ele>1064</ele>
        <time>2010-01-01T02:37:18Z</time>
      </trkpt>
      <trkpt lat="42.13588" lon="2.38089">
        <ele>1059</ele>
        <time>2010-01-01T02:37:25Z</time>
      </trkpt>
      <trkpt lat="42.13593" lon="2.38094">
        <ele>1057</ele>
        <time>2010-01-01T02:37:28Z</time>
      </trkpt>
      <trkpt lat="42.13631" lon="2.3809">
        <ele>1053</ele>
        <time>2010-01-01T02:37:43Z</time>
      </trkpt>
      <trkpt lat="42.13646" lon="2.38084">
        <ele>1054</ele>
        <time>2010-01-01T02:37:49Z</time>
      </trkpt>
      <trkpt lat="42.13655" lon="2.38084">
        <ele>1054</ele>
        <time>2010-01-01T02:37:53Z</time>
      </trkpt>
      <trkpt lat="42.13659" lon="2.38086">
        <ele>1054</ele>
        <time>2010-01-01T02:37:55Z</time>
      </trkpt>
      <trkpt lat="42.13654" lon="2.38088">
        <ele>1053</ele>
        <time>2010-01-01T02:37:57Z</time>
      </trkpt>
      <trkpt lat="42.13632" lon="2.38079">
        <ele>1056</ele>
        <time>2010-01-01T02:38:06Z</time>
      </trkpt>
      <trkpt lat="42.13639" lon="2.38073">
        <ele>1059</ele>
        <time>2010-01-01T02:38:09Z</time>
      </trkpt>
      <trkpt lat="42.13619" lon="2.38071">
        <ele>1060</ele>
        <time>2010-01-01T02:38:18Z</time>
      </trkpt>
      <trkpt lat="42.13637" lon="2.38073">
        <ele>1059</ele>
        <time>2010-01-01T02:38:25Z</time>
      </trkpt>
      <trkpt lat="42.13653" lon="2.38068">
        <ele>1060</ele>
        <time>2010-01-01T02:38:32Z</time>
      </trkpt>
      <trkpt lat="42.13663" lon="2.3806">
        <ele>1063</ele>
        <time>2010-01-01T02:38:36Z</time>
      </trkpt>
      <trkpt lat="42.13703" lon="2.38061">
        <ele>1056</ele>
        <time>2010-01-01T02:38:52Z</time>
      </trkpt>
      <trkpt lat="42.13708" lon="2.38062">
        <ele>1055</ele>
        <time>2010-01-01T02:38:54Z</time>
      </trkpt>
      <trkpt lat="42.13719" lon="2.38057">
        <ele>1055</ele>
        <time>2010-01-01T02:38:59Z</time>
      </trkpt>
      <trkpt lat="42.13736" lon="2.3806">
        <ele>1052</ele>
        <time>2010-01-01T02:39:06Z</time>
      </trkpt>
      <trkpt lat="42.13741" lon="2.38058">
        <ele>1051</ele>
        <time>2010-01-01T02:39:08Z</time>
      </trkpt>
      <trkpt lat="42.13749" lon="2.38052">
        <ele>1052</ele>
        <time>2010-01-01T02:39:11Z</time>
      </trkpt>
      <trkpt lat="42.13759" lon="2.38051">
        <ele>1050</ele>
        <time>2010-01-01T02:39:15Z</time>
      </trkpt>
      <trkpt lat="42.13768" lon="2.38048">
        <ele>1049</ele>
        <time>2010-01-01T02:39:19Z</time>
      </trkpt>
      <trkpt lat="42.13788" lon="2.38046">
        <ele>1046</ele>
        <time>2010-01-01T02:39:27Z</time>
      </trkpt>
      <trkpt lat="42.13791" lon="2.3804">
        <ele>1047</ele>
        <time>2010-01-01T02:39:29Z</time>
      </trkpt>
      <trkpt lat="42.1379" lon="2.38034">
        <ele>1049</ele>
        <time>2010-01-01T02:39:31Z</time>
      </trkpt>
      <trkpt lat="42.13796" lon="2.38033">
        <ele>1048</ele>
        <time>2010-01-01T02:39:34Z</time>
      </trkpt>
      <trkpt lat="42.13813" lon="2.38012">
        <ele>1048</ele>
        <time>2010-01-01T02:39:43Z</time>
      </trkpt>
      <trkpt lat="42.13828" lon="2.38011">
        <ele>1043</ele>
        <time>2010-01-01T02:39:49Z</time>
      </trkpt>
      <trkpt lat="42.13833" lon="2.38008">
        <ele>1042</ele>
        <time>2010-01-01T02:39:51Z</time>
      </trkpt>
      <trkpt lat="42.13837" lon="2.38003">
        <ele>1042</ele>
        <time>2010-01-01T02:39:53Z</time>
      </trkpt>
      <trkpt lat="42.13842" lon="2.38">
        <ele>1042</ele>
        <time>2010-01-01T02:39:55Z</time>
      </trkpt>
      <trkpt lat="42.13829" lon="2.37984">
        <ele>1050</ele>
        <time>2010-01-01T02:40:02Z</time>
      </trkpt>
      <trkpt lat="42.1383" lon="2.37978">
        <ele>1052</ele>
        <time>2010-01-01T02:40:04Z</time>
      </trkpt>
      <trkpt lat="42.13844" lon="2.37966">
        <ele>1050</ele>
        <time>2010-01-01T02:40:11Z</time>
      </trkpt>
      <trkpt lat="42.1385" lon="2.37965">
        <ele>1048</ele>
        <time>2010-01-01T02:40:13Z</time>
      </trkpt>
      <trkpt lat="42.13859" lon="2.37959">
        <ele>1046</ele>
        <time>2010-01-01T02:40:17Z</time>
      </trkpt>
      <trkpt lat="42.13863" lon="2.37957">
        <ele>1045</ele>
        <time>2010-01-01T02:40:19Z</time>
      </trkpt>
      <trkpt lat="42.13871" lon="2.37948">
        <ele>1046</ele>
        <time>2010-01-01T02:40:23Z</time>
      </trkpt>
      <trkpt lat="42.13876" lon="2.37945">
        <ele>1046</ele>
        <time>2010-01-01T02:40:25Z</time>
      </trkpt>
      <trkpt lat="42.13879" lon="2.3794">
        <ele>1047</ele>
        <time>2010-01-01T02:40:27Z</time>
      </trkpt>
      <trkpt lat="42.13883" lon="2.37936">
        <ele>1047</ele>
        <time>2010-01-01T02:40:29Z</time>
      </trkpt>
      <trkpt lat="42.13893" lon="2.37931">
        <ele>1047</ele>
        <time>2010-01-01T02:40:33Z</time>
      </trkpt>
      <trkpt lat="42.13894" lon="2.37925">
        <ele>1048</ele>
        <time>2010-01-01T02:40:35Z</time>
      </trkpt>
      <trkpt lat="42.139" lon="2.3792">
        <ele>1047</ele>
        <time>2010-01-01T02:40:38Z</time>
      </trkpt>
      <trkpt lat="42.13911" lon="2.37915">
        <ele>1046</ele>
        <time>2010-01-01T02:40:43Z</time>
      </trkpt>
      <trkpt lat="42.13913" lon="2.3791">
        <ele>1046</ele>
        <time>2010-01-01T02:40:45Z</time>
      </trkpt>
      <trkpt lat="42.13921" lon="2.37901">
        <ele>1046</ele>
        <time>2010-01-01T02:40:49Z</time>
      </trkpt>
      <trkpt lat="42.13935" lon="2.37892">
        <ele>1045</ele>
        <time>2010-01-01T02:40:55Z</time>
      </trkpt>
      <trkpt lat="42.13944" lon="2.37885">
        <ele>1044</ele>
        <time>2010-01-01T02:40:59Z</time>
      </trkpt>
      <trkpt lat="42.13947" lon="2.37879">
        <ele>1044</ele>
        <time>2010-01-01T02:41:01Z</time>
      </trkpt>
      <trkpt lat="42.1395" lon="2.37873">
        <ele>1044</ele>
        <time>2010-01-01T02:41:03Z</time>
      </trkpt>
      <trkpt lat="42.13946" lon="2.37866">
        <ele>1046</ele>
        <time>2010-01-01T02:41:06Z</time>
      </trkpt>
      <trkpt lat="42.13948" lon="2.37858">
        <ele>1046</ele>
        <time>2010-01-01T02:41:08Z</time>
      </trkpt>
      <trkpt lat="42.13946" lon="2.37852">
        <ele>1047</ele>
        <time>2010-01-01T02:41:10Z</time>
      </trkpt>
      <trkpt lat="42.13947" lon="2.37845">
        <ele>1048</ele>
        <time>2010-01-01T02:41:12Z</time>
      </trkpt>
      <trkpt lat="42.13946" lon="2.37839">
        <ele>1049</ele>
        <time>2010-01-01T02:41:14Z</time>
      </trkpt>
      <trkpt lat="42.1395" lon="2.37836">
        <ele>1048</ele>
        <time>2010-01-01T02:41:16Z</time>
      </trkpt>
      <trkpt lat="42.13951" lon="2.37828">
        <ele>1048</ele>
        <time>2010-01-01T02:41:18Z</time>
      </trkpt>
      <trkpt lat="42.13957" lon="2.37829">
        <ele>1046</ele>
        <time>2010-01-01T02:41:21Z</time>
      </trkpt>
      <trkpt lat="42.13961" lon="2.37826">
        <ele>1045</ele>
        <time>2010-01-01T02:41:23Z</time>
      </trkpt>
      <trkpt lat="42.13963" lon="2.37818">
        <ele>1044</ele>
        <time>2010-01-01T02:41:25Z</time>
      </trkpt>
      <trkpt lat="42.13968" lon="2.37814">
        <ele>1042</ele>
        <time>2010-01-01T02:41:28Z</time>
      </trkpt>
      <trkpt lat="42.13974" lon="2.37802">
        <ele>1040</ele>
        <time>2010-01-01T02:41:32Z</time>
      </trkpt>
      <trkpt lat="42.13975" lon="2.37796">
        <ele>1039</ele>
        <time>2010-01-01T02:41:34Z</time>
      </trkpt>
      <trkpt lat="42.13972" lon="2.37788">
        <ele>1040</ele>
        <time>2010-01-01T02:41:36Z</time>
      </trkpt>
      <trkpt lat="42.13968" lon="2.3776">
        <ele>1043</ele>
        <time>2010-01-01T02:41:45Z</time>
      </trkpt>
      <trkpt lat="42.13973" lon="2.37748">
        <ele>1041</ele>
        <time>2010-01-01T02:41:49Z</time>
      </trkpt>
      <trkpt lat="42.13984" lon="2.37733">
        <ele>1039</ele>
        <time>2010-01-01T02:41:55Z</time>
      </trkpt>
      <trkpt lat="42.13984" lon="2.37725">
        <ele>1039</ele>
        <time>2010-01-01T02:41:58Z</time>
      </trkpt>
      <trkpt lat="42.13994" lon="2.37715">
        <ele>1036</ele>
        <time>2010-01-01T02:42:03Z</time>
      </trkpt>
      <trkpt lat="42.13996" lon="2.37695">
        <ele>1037</ele>
        <time>2010-01-01T02:42:09Z</time>
      </trkpt>
      <trkpt lat="42.14" lon="2.37689">
        <ele>1036</ele>
        <time>2010-01-01T02:42:11Z</time>
      </trkpt>
      <trkpt lat="42.14002" lon="2.37683">
        <ele>1035</ele>
        <time>2010-01-01T02:42:13Z</time>
      </trkpt>
      <trkpt lat="42.14001" lon="2.37677">
        <ele>1036</ele>
        <time>2010-01-01T02:42:15Z</time>
      </trkpt>
      <trkpt lat="42.14004" lon="2.37673">
        <ele>1034</ele>
        <time>2010-01-01T02:42:17Z</time>
      </trkpt>
      <trkpt lat="42.14001" lon="2.37668">
        <ele>1036</ele>
        <time>2010-01-01T02:42:18Z</time>
      </trkpt>
      <trkpt lat="42.14004" lon="2.37662">
        <ele>1035</ele>
        <time>2010-01-01T02:42:20Z</time>
      </trkpt>
      <trkpt lat="42.14002" lon="2.37656">
        <ele>1035</ele>
        <time>2010-01-01T02:42:22Z</time>
      </trkpt>
      <trkpt lat="42.13998" lon="2.37653">
        <ele>1036</ele>
        <time>2010-01-01T02:42:24Z</time>
      </trkpt>
      <trkpt lat="42.14003" lon="2.37655">
        <ele>1035</ele>
        <time>2010-01-01T02:42:26Z</time>
      </trkpt>
      <trkpt lat="42.14018" lon="2.37653">
        <ele>1028</ele>
        <time>2010-01-01T02:42:32Z</time>
      </trkpt>
      <trkpt lat="42.14017" lon="2.37647">
        <ele>1029</ele>
        <time>2010-01-01T02:42:34Z</time>
      </trkpt>
      <trkpt lat="42.14021" lon="2.37643">
        <ele>1027</ele>
        <time>2010-01-01T02:42:36Z</time>
      </trkpt>
      <trkpt lat="42.14025" lon="2.37641">
        <ele>1026</ele>
        <time>2010-01-01T02:42:38Z</time>
      </trkpt>
      <trkpt lat="42.14026" lon="2.37635">
        <ele>1025</ele>
        <time>2010-01-01T02:42:40Z</time>
      </trkpt>
      <trkpt lat="42.1403" lon="2.37629">
        <ele>1024</ele>
        <time>2010-01-01T02:42:42Z</time>
      </trkpt>
      <trkpt lat="42.14041" lon="2.37627">
        <ele>1020</ele>
        <time>2010-01-01T02:42:47Z</time>
      </trkpt>
      <trkpt lat="42.14053" lon="2.37615">
        <ele>1015</ele>
        <time>2010-01-01T02:42:53Z</time>
      </trkpt>
      <trkpt lat="42.14059" lon="2.37616">
        <ele>1013</ele>
        <time>2010-01-01T02:42:55Z</time>
      </trkpt>
      <trkpt lat="42.14069" lon="2.37614">
        <ele>1009</ele>
        <time>2010-01-01T02:42:59Z</time>
      </trkpt>
      <trkpt lat="42.14072" lon="2.37609">
        <ele>1008</ele>
        <time>2010-01-01T02:43:01Z</time>
      </trkpt>
      <trkpt lat="42.14077" lon="2.37607">
        <ele>1006</ele>
        <time>2010-01-01T02:43:03Z</time>
      </trkpt>
      <trkpt lat="42.14077" lon="2.376">
        <ele>1006</ele>
        <time>2010-01-01T02:43:05Z</time>
      </trkpt>
      <trkpt lat="42.14069" lon="2.37588">
        <ele>1010</ele>
        <time>2010-01-01T02:43:10Z</time>
      </trkpt>
      <trkpt lat="42.14071" lon="2.37579">
        <ele>1010</ele>
        <time>2010-01-01T02:43:12Z</time>
      </trkpt>
      <trkpt lat="42.14075" lon="2.37576">
        <ele>1009</ele>
        <time>2010-01-01T02:43:14Z</time>
      </trkpt>
      <trkpt lat="42.14079" lon="2.37581">
        <ele>1007</ele>
        <time>2010-01-01T02:43:16Z</time>
      </trkpt>
      <trkpt lat="42.1408" lon="2.37588">
        <ele>1006</ele>
        <time>2010-01-01T02:43:18Z</time>
      </trkpt>
      <trkpt lat="42.14076" lon="2.37596">
        <ele>1007</ele>
        <time>2010-01-01T02:43:21Z</time>
      </trkpt>
      <trkpt lat="42.14072" lon="2.37598">
        <ele>1008</ele>
        <time>2010-01-01T02:43:23Z</time>
      </trkpt>
      <trkpt lat="42.14067" lon="2.37597">
        <ele>1010</ele>
        <time>2010-01-01T02:43:25Z</time>
      </trkpt>
      <trkpt lat="42.14057" lon="2.37589">
        <ele>1014</ele>
        <time>2010-01-01T02:43:30Z</time>
      </trkpt>
      <trkpt lat="42.14062" lon="2.37587">
        <ele>1012</ele>
        <time>2010-01-01T02:43:32Z</time>
      </trkpt>
      <trkpt lat="42.14063" lon="2.37577">
        <ele>1013</ele>
        <time>2010-01-01T02:43:35Z</time>
      </trkpt>
      <trkpt lat="42.14055" lon="2.37578">
        <ele>1015</ele>
        <time>2010-01-01T02:43:38Z</time>
      </trkpt>
      <trkpt lat="42.14052" lon="2.37582">
        <ele>1016</ele>
        <time>2010-01-01T02:43:40Z</time>
      </trkpt>
      <trkpt lat="42.14042" lon="2.37572">
        <ele>1018</ele>
        <time>2010-01-01T02:43:45Z</time>
      </trkpt>
      <trkpt lat="42.14037" lon="2.3757">
        <ele>1019</ele>
        <time>2010-01-01T02:43:47Z</time>
      </trkpt>
      <trkpt lat="42.14042" lon="2.37564">
        <ele>1018</ele>
        <time>2010-01-01T02:43:50Z</time>
      </trkpt>
      <trkpt lat="42.14046" lon="2.37549">
        <ele>1018</ele>
        <time>2010-01-01T02:43:54Z</time>
      </trkpt>
      <trkpt lat="42.14051" lon="2.37547">
        <ele>1017</ele>
        <time>2010-01-01T02:43:56Z</time>
      </trkpt>
      <trkpt lat="42.14055" lon="2.37542">
        <ele>1017</ele>
        <time>2010-01-01T02:43:59Z</time>
      </trkpt>
      <trkpt lat="42.14083" lon="2.37539">
        <ele>1013</ele>
        <time>2010-01-01T02:44:10Z</time>
      </trkpt>
      <trkpt lat="42.14089" lon="2.37535">
        <ele>1012</ele>
        <time>2010-01-01T02:44:13Z</time>
      </trkpt>
      <trkpt lat="42.14083" lon="2.37534">
        <ele>1013</ele>
        <time>2010-01-01T02:44:15Z</time>
      </trkpt>
      <trkpt lat="42.14067" lon="2.37525">
        <ele>1017</ele>
        <time>2010-01-01T02:44:22Z</time>
      </trkpt>
      <trkpt lat="42.14081" lon="2.37526">
        <ele>1014</ele>
        <time>2010-01-01T02:44:28Z</time>
      </trkpt>
      <trkpt lat="42.14122" lon="2.37534">
        <ele>1009</ele>
        <time>2010-01-01T02:44:44Z</time>
      </trkpt>
      <trkpt lat="42.14125" lon="2.3753">
        <ele>1008</ele>
        <time>2010-01-01T02:44:46Z</time>
      </trkpt>
      <trkpt lat="42.14135" lon="2.37527">
        <ele>1006</ele>
        <time>2010-01-01T02:44:50Z</time>
      </trkpt>
      <trkpt lat="42.14152" lon="2.37538">
        <ele>1008</ele>
        <time>2010-01-01T02:44:58Z</time>
      </trkpt>
      <trkpt lat="42.14162" lon="2.37543">
        <ele>1010</ele>
        <time>2010-01-01T02:45:02Z</time>
      </trkpt>
      <trkpt lat="42.14167" lon="2.37547">
        <ele>1012</ele>
        <time>2010-01-01T02:45:04Z</time>
      </trkpt>
      <trkpt lat="42.14175" lon="2.37567">
        <ele>1015</ele>
        <time>2010-01-01T02:45:11Z</time>
      </trkpt>
      <trkpt lat="42.14183" lon="2.37577">
        <ele>1016</ele>
        <time>2010-01-01T02:45:16Z</time>
      </trkpt>
      <trkpt lat="42.14202" lon="2.37583">
        <ele>1019</ele>
        <time>2010-01-01T02:45:23Z</time>
      </trkpt>
      <trkpt lat="42.14227" lon="2.37589">
        <ele>1025</ele>
        <time>2010-01-01T02:45:33Z</time>
      </trkpt>
      <trkpt lat="42.14212" lon="2.37581">
        <ele>1021</ele>
        <time>2010-01-01T02:45:40Z</time>
      </trkpt>
      <trkpt lat="42.14219" lon="2.3758">
        <ele>1023</ele>
        <time>2010-01-01T02:45:43Z</time>
      </trkpt>
      <trkpt lat="42.14227" lon="2.37581">
        <ele>1024</ele>
        <time>2010-01-01T02:45:46Z</time>
      </trkpt>
      <trkpt lat="42.14232" lon="2.37584">
        <ele>1025</ele>
        <time>2010-01-01T02:45:48Z</time>
      </trkpt>
      <trkpt lat="42.14242" lon="2.37584">
        <ele>1027</ele>
        <time>2010-01-01T02:45:52Z</time>
      </trkpt>
      <trkpt lat="42.14252" lon="2.37587">
        <ele>1029</ele>
        <time>2010-01-01T02:45:56Z</time>
      </trkpt>
      <trkpt lat="42.14253" lon="2.37594">
        <ele>1030</ele>
        <time>2010-01-01T02:45:58Z</time>
      </trkpt>
      <trkpt lat="42.14247" lon="2.37592">
        <ele>1028</ele>
        <time>2010-01-01T02:46:01Z</time>
      </trkpt>
      <trkpt lat="42.14244" lon="2.37599">
        <ele>1028</ele>
        <time>2010-01-01T02:46:03Z</time>
      </trkpt>
      <trkpt lat="42.14245" lon="2.37606">
        <ele>1029</ele>
        <time>2010-01-01T02:46:05Z</time>
      </trkpt>
      <trkpt lat="42.14251" lon="2.37617">
        <ele>1030</ele>
        <time>2010-01-01T02:46:09Z</time>
      </trkpt>
      <trkpt lat="42.14276" lon="2.37634">
        <ele>1033</ele>
        <time>2010-01-01T02:46:21Z</time>
      </trkpt>
      <trkpt lat="42.14288" lon="2.37645">
        <ele>1031</ele>
        <time>2010-01-01T02:46:26Z</time>
      </trkpt>
      <trkpt lat="42.14297" lon="2.3765">
        <ele>1029</ele>
        <time>2010-01-01T02:46:30Z</time>
      </trkpt>
      <trkpt lat="42.14315" lon="2.37668">
        <ele>1025</ele>
        <time>2010-01-01T02:46:39Z</time>
      </trkpt>
      <trkpt lat="42.14318" lon="2.37672">
        <ele>1024</ele>
        <time>2010-01-01T02:46:41Z</time>
      </trkpt>
      <trkpt lat="42.14324" lon="2.37692">
        <ele>1018</ele>
        <time>2010-01-01T02:46:47Z</time>
      </trkpt>
      <trkpt lat="42.14327" lon="2.37698">
        <ele>1019</ele>
        <time>2010-01-01T02:46:50Z</time>
      </trkpt>
      <trkpt lat="42.14332" lon="2.377">
        <ele>1021</ele>
        <time>2010-01-01T02:46:52Z</time>
      </trkpt>
      <trkpt lat="42.14341" lon="2.37708">
        <ele>1027</ele>
        <time>2010-01-01T02:46:56Z</time>
      </trkpt>
      <trkpt lat="42.1435" lon="2.3771">
        <ele>1033</ele>
        <time>2010-01-01T02:47:00Z</time>
      </trkpt>
      <trkpt lat="42.14355" lon="2.37712">
        <ele>1035</ele>
        <time>2010-01-01T02:47:02Z</time>
      </trkpt>
      <trkpt lat="42.14358" lon="2.37717">
        <ele>1038</ele>
        <time>2010-01-01T02:47:04Z</time>
      </trkpt>
      <trkpt lat="42.1436" lon="2.37724">
        <ele>1038</ele>
        <time>2010-01-01T02:47:06Z</time>
      </trkpt>
      <trkpt lat="42.14369" lon="2.37737">
        <ele>1039</ele>
        <time>2010-01-01T02:47:11Z</time>
      </trkpt>
      <trkpt lat="42.14358" lon="2.37744">
        <ele>1033</ele>
        <time>2010-01-01T02:47:16Z</time>
      </trkpt>
      <trkpt lat="42.14371" lon="2.37749">
        <ele>1037</ele>
        <time>2010-01-01T02:47:22Z</time>
      </trkpt>
      <trkpt lat="42.14379" lon="2.37749">
        <ele>1040</ele>
        <time>2010-01-01T02:47:25Z</time>
      </trkpt>
      <trkpt lat="42.14372" lon="2.37756">
        <ele>1036</ele>
        <time>2010-01-01T02:47:28Z</time>
      </trkpt>
      <trkpt lat="42.14371" lon="2.37767">
        <ele>1032</ele>
        <time>2010-01-01T02:47:31Z</time>
      </trkpt>
      <trkpt lat="42.14371" lon="2.37765">
        <ele>1033</ele>
        <time>2010-01-01T02:47:32Z</time>
      </trkpt>
      <trkpt lat="42.14368" lon="2.37764">
        <ele>1032</ele>
        <time>2010-01-01T02:47:33Z</time>
      </trkpt>
      <trkpt lat="42.14364" lon="2.3776">
        <ele>1032</ele>
        <time>2010-01-01T02:47:35Z</time>
      </trkpt>
      <trkpt lat="42.14362" lon="2.37763">
        <ele>1030</ele>
        <time>2010-01-01T02:47:36Z</time>
      </trkpt>
      <trkpt lat="42.14359" lon="2.37763">
        <ele>1028</ele>
        <time>2010-01-01T02:47:38Z</time>
      </trkpt>
      <trkpt lat="42.14357" lon="2.37756">
        <ele>1030</ele>
        <time>2010-01-01T02:47:40Z</time>
      </trkpt>
      <trkpt lat="42.1435" lon="2.37754">
        <ele>1025</ele>
        <time>2010-01-01T02:47:43Z</time>
      </trkpt>
      <trkpt lat="42.14343" lon="2.37756">
        <ele>1021</ele>
        <time>2010-01-01T02:47:45Z</time>
      </trkpt>
      <trkpt lat="42.14336" lon="2.37763">
        <ele>1014</ele>
        <time>2010-01-01T02:47:49Z</time>
      </trkpt>
      <trkpt lat="42.14328" lon="2.37779">
        <ele>1006</ele>
        <time>2010-01-01T02:47:55Z</time>
      </trkpt>
      <trkpt lat="42.14322" lon="2.37785">
        <ele>999</ele>
        <time>2010-01-01T02:47:58Z</time>
      </trkpt>
      <trkpt lat="42.14317" lon="2.37797">
        <ele>989</ele>
        <time>2010-01-01T02:48:02Z</time>
      </trkpt>
      <trkpt lat="42.14311" lon="2.37791">
        <ele>987</ele>
        <time>2010-01-01T02:48:05Z</time>
      </trkpt>
      <trkpt lat="42.14306" lon="2.37798">
        <ele>976</ele>
        <time>2010-01-01T02:48:08Z</time>
      </trkpt>
      <trkpt lat="42.143" lon="2.37795">
        <ele>968</ele>
        <time>2010-01-01T02:48:10Z</time>
      </trkpt>
      <trkpt lat="42.143" lon="2.37792">
        <ele>971</ele>
        <time>2010-01-01T02:48:11Z</time>
      </trkpt>
      <trkpt lat="42.14307" lon="2.37782">
        <ele>990</ele>
        <time>2010-01-01T02:48:15Z</time>
      </trkpt>
      <trkpt lat="42.14309" lon="2.37772">
        <ele>995</ele>
        <time>2010-01-01T02:48:18Z</time>
      </trkpt>
      <trkpt lat="42.14309" lon="2.37764">
        <ele>996</ele>
        <time>2010-01-01T02:48:20Z</time>
      </trkpt>
      <trkpt lat="42.14305" lon="2.37763">
        <ele>993</ele>
        <time>2010-01-01T02:48:22Z</time>
      </trkpt>
      <trkpt lat="42.14301" lon="2.3775">
        <ele>984</ele>
        <time>2010-01-01T02:48:26Z</time>
      </trkpt>
      <trkpt lat="42.14301" lon="2.37747">
        <ele>986</ele>
        <time>2010-01-01T02:48:27Z</time>
      </trkpt>
      <trkpt lat="42.14289" lon="2.37747">
        <ele>960</ele>
        <time>2010-01-01T02:48:32Z</time>
      </trkpt>
      <trkpt lat="42.14286" lon="2.3775">
        <ele>952</ele>
        <time>2010-01-01T02:48:34Z</time>
      </trkpt>
      <trkpt lat="42.14279" lon="2.3774">
        <ele>948</ele>
        <time>2010-01-01T02:48:38Z</time>
      </trkpt>
      <trkpt lat="42.14276" lon="2.37742">
        <ele>941</ele>
        <time>2010-01-01T02:48:39Z</time>
      </trkpt>
      <trkpt lat="42.14271" lon="2.37742">
        <ele>936</ele>
        <time>2010-01-01T02:48:41Z</time>
      </trkpt>
      <trkpt lat="42.14267" lon="2.37729">
        <ele>942</ele>
        <time>2010-01-01T02:48:45Z</time>
      </trkpt>
      <trkpt lat="42.14266" lon="2.37726">
        <ele>942</ele>
        <time>2010-01-01T02:48:46Z</time>
      </trkpt>
      <trkpt lat="42.14263" lon="2.37726">
        <ele>938</ele>
        <time>2010-01-01T02:48:47Z</time>
      </trkpt>
      <trkpt lat="42.14262" lon="2.37714">
        <ele>950</ele>
        <time>2010-01-01T02:48:51Z</time>
      </trkpt>
      <trkpt lat="42.1426" lon="2.37708">
        <ele>953</ele>
        <time>2010-01-01T02:48:53Z</time>
      </trkpt>
      <trkpt lat="42.14261" lon="2.37706">
        <ele>956</ele>
        <time>2010-01-01T02:48:54Z</time>
      </trkpt>
      <trkpt lat="42.14255" lon="2.37704">
        <ele>949</ele>
        <time>2010-01-01T02:48:56Z</time>
      </trkpt>
      <trkpt lat="42.14256" lon="2.37702">
        <ele>952</ele>
        <time>2010-01-01T02:48:56Z</time>
      </trkpt>
      <trkpt lat="42.14262" lon="2.37695">
        <ele>972</ele>
        <time>2010-01-01T02:49:00Z</time>
      </trkpt>
      <trkpt lat="42.14263" lon="2.37696">
        <ele>975</ele>
        <time>2010-01-01T02:49:00Z</time>
      </trkpt>
      <trkpt lat="42.14261" lon="2.37695">
        <ele>970</ele>
        <time>2010-01-01T02:49:01Z</time>
      </trkpt>
      <trkpt lat="42.14258" lon="2.37698">
        <ele>962</ele>
        <time>2010-01-01T02:49:03Z</time>
      </trkpt>
      <trkpt lat="42.14257" lon="2.37696">
        <ele>962</ele>
        <time>2010-01-01T02:49:03Z</time>
      </trkpt>
      <trkpt lat="42.14266" lon="2.37688">
        <ele>989</ele>
        <time>2010-01-01T02:49:08Z</time>
      </trkpt>
      <trkpt lat="42.14269" lon="2.37681">
        <ele>1002</ele>
        <time>2010-01-01T02:49:10Z</time>
      </trkpt>
      <trkpt lat="42.14266" lon="2.3768">
        <ele>998</ele>
        <time>2010-01-01T02:49:11Z</time>
      </trkpt>
      <trkpt lat="42.14255" lon="2.3769">
        <ele>968</ele>
        <time>2010-01-01T02:49:16Z</time>
      </trkpt>
      <trkpt lat="42.1425" lon="2.37692">
        <ele>956</ele>
        <time>2010-01-01T02:49:19Z</time>
      </trkpt>
      <trkpt lat="42.14253" lon="2.37684">
        <ele>975</ele>
        <time>2010-01-01T02:49:21Z</time>
      </trkpt>
      <trkpt lat="42.14239" lon="2.37677">
        <ele>974</ele>
        <time>2010-01-01T02:49:27Z</time>
      </trkpt>
      <trkpt lat="42.14237" lon="2.37678">
        <ele>971</ele>
        <time>2010-01-01T02:49:28Z</time>
      </trkpt>
      <trkpt lat="42.14236" lon="2.37676">
        <ele>974</ele>
        <time>2010-01-01T02:49:29Z</time>
      </trkpt>
      <trkpt lat="42.14235" lon="2.37677">
        <ele>971</ele>
        <time>2010-01-01T02:49:29Z</time>
      </trkpt>
      <trkpt lat="42.14238" lon="2.37677">
        <ele>972</ele>
        <time>2010-01-01T02:49:30Z</time>
      </trkpt>
      <trkpt lat="42.14238" lon="2.37683">
        <ele>963</ele>
        <time>2010-01-01T02:49:31Z</time>
      </trkpt>
      <trkpt lat="42.1424" lon="2.37685">
        <ele>960</ele>
        <time>2010-01-01T02:49:33Z</time>
      </trkpt>
      <trkpt lat="42.14236" lon="2.37691">
        <ele>945</ele>
        <time>2010-01-01T02:49:35Z</time>
      </trkpt>
      <trkpt lat="42.14236" lon="2.37695">
        <ele>937</ele>
        <time>2010-01-01T02:49:36Z</time>
      </trkpt>
      <trkpt lat="42.14232" lon="2.37684">
        <ele>954</ele>
        <time>2010-01-01T02:49:40Z</time>
      </trkpt>
      <trkpt lat="42.14234" lon="2.37687">
        <ele>951</ele>
        <time>2010-01-01T02:49:41Z</time>
      </trkpt>
      <trkpt lat="42.14236" lon="2.37685">
        <ele>956</ele>
        <time>2010-01-01T02:49:42Z</time>
      </trkpt>
      <trkpt lat="42.14232" lon="2.37676">
        <ele>969</ele>
        <time>2010-01-01T02:49:45Z</time>
      </trkpt>
      <trkpt lat="42.1423" lon="2.37676">
        <ele>966</ele>
        <time>2010-01-01T02:49:46Z</time>
      </trkpt>
      <trkpt lat="42.14227" lon="2.37673">
        <ele>971</ele>
        <time>2010-01-01T02:49:47Z</time>
      </trkpt>
      <trkpt lat="42.14227" lon="2.37674">
        <ele>968</ele>
        <time>2010-01-01T02:49:48Z</time>
      </trkpt>
      <trkpt lat="42.14228" lon="2.37672">
        <ele>973</ele>
        <time>2010-01-01T02:49:48Z</time>
      </trkpt>
      <trkpt lat="42.14224" lon="2.37678">
        <ele>958</ele>
        <time>2010-01-01T02:49:50Z</time>
      </trkpt>
      <trkpt lat="42.14225" lon="2.37672">
        <ele>971</ele>
        <time>2010-01-01T02:49:52Z</time>
      </trkpt>
      <trkpt lat="42.14218" lon="2.37681">
        <ele>949</ele>
        <time>2010-01-01T02:49:56Z</time>
      </trkpt>
      <trkpt lat="42.14213" lon="2.37681">
        <ele>946</ele>
        <time>2010-01-01T02:49:58Z</time>
      </trkpt>
      <trkpt lat="42.14212" lon="2.37685">
        <ele>940</ele>
        <time>2010-01-01T02:50:00Z</time>
      </trkpt>
      <trkpt lat="42.14213" lon="2.37688">
        <ele>934</ele>
        <time>2010-01-01T02:50:01Z</time>
      </trkpt>
      <trkpt lat="42.1422" lon="2.37679">
        <ele>954</ele>
        <time>2010-01-01T02:50:04Z</time>
      </trkpt>
      <trkpt lat="42.14223" lon="2.3768">
        <ele>953</ele>
        <time>2010-01-01T02:50:06Z</time>
      </trkpt>
      <trkpt lat="42.14221" lon="2.37677">
        <ele>957</ele>
        <time>2010-01-01T02:50:07Z</time>
      </trkpt>
      <trkpt lat="42.14217" lon="2.37681">
        <ele>949</ele>
        <time>2010-01-01T02:50:09Z</time>
      </trkpt>
      <trkpt lat="42.14218" lon="2.37683">
        <ele>946</ele>
        <time>2010-01-01T02:50:09Z</time>
      </trkpt>
      <trkpt lat="42.14217" lon="2.37688">
        <ele>936</ele>
        <time>2010-01-01T02:50:11Z</time>
      </trkpt>
      <trkpt lat="42.14211" lon="2.37687">
        <ele>936</ele>
        <time>2010-01-01T02:50:13Z</time>
      </trkpt>
      <trkpt lat="42.14208" lon="2.3769">
        <ele>928</ele>
        <time>2010-01-01T02:50:15Z</time>
      </trkpt>
      <trkpt lat="42.14199" lon="2.3767">
        <ele>959</ele>
        <time>2010-01-01T02:50:22Z</time>
      </trkpt>
      <trkpt lat="42.14199" lon="2.37667">
        <ele>964</ele>
        <time>2010-01-01T02:50:23Z</time>
      </trkpt>
      <trkpt lat="42.1419" lon="2.37658">
        <ele>969</ele>
        <time>2010-01-01T02:50:27Z</time>
      </trkpt>
      <trkpt lat="42.14191" lon="2.37656">
        <ele>972</ele>
        <time>2010-01-01T02:50:28Z</time>
      </trkpt>
      <trkpt lat="42.14189" lon="2.37645">
        <ele>982</ele>
        <time>2010-01-01T02:50:31Z</time>
      </trkpt>
      <trkpt lat="42.14186" lon="2.37635">
        <ele>990</ele>
        <time>2010-01-01T02:50:35Z</time>
      </trkpt>
      <trkpt lat="42.14179" lon="2.37629">
        <ele>991</ele>
        <time>2010-01-01T02:50:38Z</time>
      </trkpt>
      <trkpt lat="42.14176" lon="2.37629">
        <ele>990</ele>
        <time>2010-01-01T02:50:39Z</time>
      </trkpt>
      <trkpt lat="42.14171" lon="2.37631">
        <ele>987</ele>
        <time>2010-01-01T02:50:41Z</time>
      </trkpt>
      <trkpt lat="42.14171" lon="2.37632">
        <ele>986</ele>
        <time>2010-01-01T02:50:42Z</time>
      </trkpt>
      <trkpt lat="42.14175" lon="2.37632">
        <ele>987</ele>
        <time>2010-01-01T02:50:43Z</time>
      </trkpt>
      <trkpt lat="42.14178" lon="2.37636">
        <ele>986</ele>
        <time>2010-01-01T02:50:45Z</time>
      </trkpt>
      <trkpt lat="42.14173" lon="2.37666">
        <ele>960</ele>
        <time>2010-01-01T02:50:54Z</time>
      </trkpt>
      <trkpt lat="42.14161" lon="2.37654">
        <ele>966</ele>
        <time>2010-01-01T02:51:00Z</time>
      </trkpt>
      <trkpt lat="42.14171" lon="2.37638">
        <ele>981</ele>
        <time>2010-01-01T02:51:06Z</time>
      </trkpt>
      <trkpt lat="42.14174" lon="2.37619">
        <ele>998</ele>
        <time>2010-01-01T02:51:12Z</time>
      </trkpt>
      <trkpt lat="42.1418" lon="2.37599">
        <ele>1010</ele>
        <time>2010-01-01T02:51:19Z</time>
      </trkpt>
      <trkpt lat="42.14176" lon="2.37595">
        <ele>1011</ele>
        <time>2010-01-01T02:51:20Z</time>
      </trkpt>
      <trkpt lat="42.14177" lon="2.37588">
        <ele>1014</ele>
        <time>2010-01-01T02:51:23Z</time>
      </trkpt>
      <trkpt lat="42.14173" lon="2.37585">
        <ele>1015</ele>
        <time>2010-01-01T02:51:25Z</time>
      </trkpt>
      <trkpt lat="42.14157" lon="2.37583">
        <ele>1014</ele>
        <time>2010-01-01T02:51:31Z</time>
      </trkpt>
      <trkpt lat="42.14154" lon="2.37584">
        <ele>1014</ele>
        <time>2010-01-01T02:51:32Z</time>
      </trkpt>
      <trkpt lat="42.14133" lon="2.37613">
        <ele>993</ele>
        <time>2010-01-01T02:51:44Z</time>
      </trkpt>
      <trkpt lat="42.14151" lon="2.37629">
        <ele>982</ele>
        <time>2010-01-01T02:51:53Z</time>
      </trkpt>
      <trkpt lat="42.14157" lon="2.37638">
        <ele>976</ele>
        <time>2010-01-01T02:51:56Z</time>
      </trkpt>
      <trkpt lat="42.14171" lon="2.37614">
        <ele>1000</ele>
        <time>2010-01-01T02:52:05Z</time>
      </trkpt>
      <trkpt lat="42.14167" lon="2.37616">
        <ele>997</ele>
        <time>2010-01-01T02:52:07Z</time>
      </trkpt>
      <trkpt lat="42.14163" lon="2.37623">
        <ele>990</ele>
        <time>2010-01-01T02:52:10Z</time>
      </trkpt>
      <trkpt lat="42.14163" lon="2.37636">
        <ele>980</ele>
        <time>2010-01-01T02:52:13Z</time>
      </trkpt>
      <trkpt lat="42.14168" lon="2.37633">
        <ele>984</ele>
        <time>2010-01-01T02:52:16Z</time>
      </trkpt>
      <trkpt lat="42.14172" lon="2.37638">
        <ele>982</ele>
        <time>2010-01-01T02:52:18Z</time>
      </trkpt>
      <trkpt lat="42.14187" lon="2.37637">
        <ele>989</ele>
        <time>2010-01-01T02:52:24Z</time>
      </trkpt>
      <trkpt lat="42.14188" lon="2.37645">
        <ele>982</ele>
        <time>2010-01-01T02:52:26Z</time>
      </trkpt>
      <trkpt lat="42.14187" lon="2.3765">
        <ele>977</ele>
        <time>2010-01-01T02:52:28Z</time>
      </trkpt>
      <trkpt lat="42.14189" lon="2.37656">
        <ele>972</ele>
        <time>2010-01-01T02:52:30Z</time>
      </trkpt>
      <trkpt lat="42.14194" lon="2.37663">
        <ele>965</ele>
        <time>2010-01-01T02:52:32Z</time>
      </trkpt>
      <trkpt lat="42.14198" lon="2.37663">
        <ele>967</ele>
        <time>2010-01-01T02:52:34Z</time>
      </trkpt>
      <trkpt lat="42.14202" lon="2.37673">
        <ele>955</ele>
        <time>2010-01-01T02:52:37Z</time>
      </trkpt>
      <trkpt lat="42.14203" lon="2.37684">
        <ele>937</ele>
        <time>2010-01-01T02:52:41Z</time>
      </trkpt>
      <trkpt lat="42.14207" lon="2.37687">
        <ele>933</ele>
        <time>2010-01-01T02:52:42Z</time>
      </trkpt>
      <trkpt lat="42.1421" lon="2.37687">
        <ele>935</ele>
        <time>2010-01-01T02:52:43Z</time>
      </trkpt>
      <trkpt lat="42.14213" lon="2.37684">
        <ele>942</ele>
        <time>2010-01-01T02:52:45Z</time>
      </trkpt>
      <trkpt lat="42.1422" lon="2.37682">
        <ele>948</ele>
        <time>2010-01-01T02:52:48Z</time>
      </trkpt>
      <trkpt lat="42.1422" lon="2.37683">
        <ele>945</ele>
        <time>2010-01-01T02:52:48Z</time>
      </trkpt>
      <trkpt lat="42.14223" lon="2.37682">
        <ele>950</ele>
        <time>2010-01-01T02:52:50Z</time>
      </trkpt>
      <trkpt lat="42.14221" lon="2.37695">
        <ele>925</ele>
        <time>2010-01-01T02:52:54Z</time>
      </trkpt>
      <trkpt lat="42.14217" lon="2.37698">
        <ele>922</ele>
        <time>2010-01-01T02:52:56Z</time>
      </trkpt>
      <trkpt lat="42.14215" lon="2.37706">
        <ele>915</ele>
        <time>2010-01-01T02:52:58Z</time>
      </trkpt>
      <trkpt lat="42.14213" lon="2.37705">
        <ele>916</ele>
        <time>2010-01-01T02:52:59Z</time>
      </trkpt>
      <trkpt lat="42.14211" lon="2.37707">
        <ele>914</ele>
        <time>2010-01-01T02:53:00Z</time>
      </trkpt>
      <trkpt lat="42.14206" lon="2.37696">
        <ele>919</ele>
        <time>2010-01-01T02:53:04Z</time>
      </trkpt>
      <trkpt lat="42.14204" lon="2.37695">
        <ele>919</ele>
        <time>2010-01-01T02:53:05Z</time>
      </trkpt>
      <trkpt lat="42.14205" lon="2.37704">
        <ele>914</ele>
        <time>2010-01-01T02:53:08Z</time>
      </trkpt>
      <trkpt lat="42.14207" lon="2.37703">
        <ele>915</ele>
        <time>2010-01-01T02:53:08Z</time>
      </trkpt>
      <trkpt lat="42.14206" lon="2.3771">
        <ele>910</ele>
        <time>2010-01-01T02:53:11Z</time>
      </trkpt>
      <trkpt lat="42.14206" lon="2.37707">
        <ele>912</ele>
        <time>2010-01-01T02:53:12Z</time>
      </trkpt>
      <trkpt lat="42.14195" lon="2.37692">
        <ele>921</ele>
        <time>2010-01-01T02:53:18Z</time>
      </trkpt>
      <trkpt lat="42.14198" lon="2.37694">
        <ele>919</ele>
        <time>2010-01-01T02:53:19Z</time>
      </trkpt>
      <trkpt lat="42.14202" lon="2.37692">
        <ele>924</ele>
        <time>2010-01-01T02:53:21Z</time>
      </trkpt>
      <trkpt lat="42.14203" lon="2.37692">
        <ele>923</ele>
        <time>2010-01-01T02:53:21Z</time>
      </trkpt>
      <trkpt lat="42.142" lon="2.37706">
        <ele>911</ele>
        <time>2010-01-01T02:53:25Z</time>
      </trkpt>
      <trkpt lat="42.14197" lon="2.37704">
        <ele>911</ele>
        <time>2010-01-01T02:53:27Z</time>
      </trkpt>
      <trkpt lat="42.14191" lon="2.37707">
        <ele>909</ele>
        <time>2010-01-01T02:53:30Z</time>
      </trkpt>
      <trkpt lat="42.1419" lon="2.37711">
        <ele>906</ele>
        <time>2010-01-01T02:53:31Z</time>
      </trkpt>
      <trkpt lat="42.14186" lon="2.37715">
        <ele>904</ele>
        <time>2010-01-01T02:53:33Z</time>
      </trkpt>
      <trkpt lat="42.14183" lon="2.3771">
        <ele>908</ele>
        <time>2010-01-01T02:53:35Z</time>
      </trkpt>
      <trkpt lat="42.14185" lon="2.37716">
        <ele>903</ele>
        <time>2010-01-01T02:53:37Z</time>
      </trkpt>
      <trkpt lat="42.14182" lon="2.37717">
        <ele>903</ele>
        <time>2010-01-01T02:53:38Z</time>
      </trkpt>
      <trkpt lat="42.14179" lon="2.37727">
        <ele>898</ele>
        <time>2010-01-01T02:53:41Z</time>
      </trkpt>
      <trkpt lat="42.14178" lon="2.37724">
        <ele>899</ele>
        <time>2010-01-01T02:53:42Z</time>
      </trkpt>
      <trkpt lat="42.14181" lon="2.37722">
        <ele>899</ele>
        <time>2010-01-01T02:53:44Z</time>
      </trkpt>
      <trkpt lat="42.14186" lon="2.37715">
        <ele>904</ele>
        <time>2010-01-01T02:53:46Z</time>
      </trkpt>
      <trkpt lat="42.14194" lon="2.37709">
        <ele>907</ele>
        <time>2010-01-01T02:53:50Z</time>
      </trkpt>
      <trkpt lat="42.14193" lon="2.37711">
        <ele>906</ele>
        <time>2010-01-01T02:53:51Z</time>
      </trkpt>
      <trkpt lat="42.14197" lon="2.37715">
        <ele>904</ele>
        <time>2010-01-01T02:53:53Z</time>
      </trkpt>
      <trkpt lat="42.14204" lon="2.37728">
        <ele>899</ele>
        <time>2010-01-01T02:53:58Z</time>
      </trkpt>
      <trkpt lat="42.14211" lon="2.37733">
        <ele>898</ele>
        <time>2010-01-01T02:54:01Z</time>
      </trkpt>
      <trkpt lat="42.14225" lon="2.37734">
        <ele>902</ele>
        <time>2010-01-01T02:54:07Z</time>
      </trkpt>
      <trkpt lat="42.14221" lon="2.37741">
        <ele>896</ele>
        <time>2010-01-01T02:54:09Z</time>
      </trkpt>
      <trkpt lat="42.14219" lon="2.37748">
        <ele>892</ele>
        <time>2010-01-01T02:54:11Z</time>
      </trkpt>
      <trkpt lat="42.14216" lon="2.37751">
        <ele>890</ele>
        <time>2010-01-01T02:54:13Z</time>
      </trkpt>
      <trkpt lat="42.1421" lon="2.37763">
        <ele>884</ele>
        <time>2010-01-01T02:54:17Z</time>
      </trkpt>
      <trkpt lat="42.14207" lon="2.37767">
        <ele>880</ele>
        <time>2010-01-01T02:54:19Z</time>
      </trkpt>
      <trkpt lat="42.14202" lon="2.37768">
        <ele>879</ele>
        <time>2010-01-01T02:54:21Z</time>
      </trkpt>
      <trkpt lat="42.14203" lon="2.37766">
        <ele>880</ele>
        <time>2010-01-01T02:54:22Z</time>
      </trkpt>
      <trkpt lat="42.14202" lon="2.37766">
        <ele>880</ele>
        <time>2010-01-01T02:54:22Z</time>
      </trkpt>
      <trkpt lat="42.14204" lon="2.37752">
        <ele>888</ele>
        <time>2010-01-01T02:54:26Z</time>
      </trkpt>
      <trkpt lat="42.14202" lon="2.37752">
        <ele>888</ele>
        <time>2010-01-01T02:54:27Z</time>
      </trkpt>
      <trkpt lat="42.14202" lon="2.37749">
        <ele>890</ele>
        <time>2010-01-01T02:54:28Z</time>
      </trkpt>
      <trkpt lat="42.14198" lon="2.37746">
        <ele>891</ele>
        <time>2010-01-01T02:54:29Z</time>
      </trkpt>
      <trkpt lat="42.14192" lon="2.37746">
        <ele>890</ele>
        <time>2010-01-01T02:54:32Z</time>
      </trkpt>
      <trkpt lat="42.1419" lon="2.37742">
        <ele>892</ele>
        <time>2010-01-01T02:54:33Z</time>
      </trkpt>
      <trkpt lat="42.14187" lon="2.37742">
        <ele>892</ele>
        <time>2010-01-01T02:54:34Z</time>
      </trkpt>
      <trkpt lat="42.14185" lon="2.37735">
        <ele>895</ele>
        <time>2010-01-01T02:54:37Z</time>
      </trkpt>
      <trkpt lat="42.14183" lon="2.37741">
        <ele>893</ele>
        <time>2010-01-01T02:54:38Z</time>
      </trkpt>
      <trkpt lat="42.14185" lon="2.37747">
        <ele>891</ele>
        <time>2010-01-01T02:54:40Z</time>
      </trkpt>
      <trkpt lat="42.14184" lon="2.37751">
        <ele>889</ele>
        <time>2010-01-01T02:54:42Z</time>
      </trkpt>
      <trkpt lat="42.14173" lon="2.37747">
        <ele>893</ele>
        <time>2010-01-01T02:54:46Z</time>
      </trkpt>
      <trkpt lat="42.14173" lon="2.37753">
        <ele>889</ele>
        <time>2010-01-01T02:54:48Z</time>
      </trkpt>
      <trkpt lat="42.14178" lon="2.37763">
        <ele>881</ele>
        <time>2010-01-01T02:54:52Z</time>
      </trkpt>
      <trkpt lat="42.14178" lon="2.37768">
        <ele>878</ele>
        <time>2010-01-01T02:54:53Z</time>
      </trkpt>
      <trkpt lat="42.14182" lon="2.37769">
        <ele>877</ele>
        <time>2010-01-01T02:54:54Z</time>
      </trkpt>
      <trkpt lat="42.14185" lon="2.37773">
        <ele>874</ele>
        <time>2010-01-01T02:54:56Z</time>
      </trkpt>
      <trkpt lat="42.14188" lon="2.37782">
        <ele>868</ele>
        <time>2010-01-01T02:54:59Z</time>
      </trkpt>
      <trkpt lat="42.1419" lon="2.37782">
        <ele>868</ele>
        <time>2010-01-01T02:55:00Z</time>
      </trkpt>
      <trkpt lat="42.14189" lon="2.37783">
        <ele>866</ele>
        <time>2010-01-01T02:55:00Z</time>
      </trkpt>
      <trkpt lat="42.14195" lon="2.37783">
        <ele>867</ele>
        <time>2010-01-01T02:55:03Z</time>
      </trkpt>
      <trkpt lat="42.14195" lon="2.3779">
        <ele>861</ele>
        <time>2010-01-01T02:55:05Z</time>
      </trkpt>
      <trkpt lat="42.14191" lon="2.37794">
        <ele>857</ele>
        <time>2010-01-01T02:55:07Z</time>
      </trkpt>
      <trkpt lat="42.14187" lon="2.37811">
        <ele>846</ele>
        <time>2010-01-01T02:55:12Z</time>
      </trkpt>
      <trkpt lat="42.14187" lon="2.37816">
        <ele>842</ele>
        <time>2010-01-01T02:55:14Z</time>
      </trkpt>
      <trkpt lat="42.14183" lon="2.37821">
        <ele>838</ele>
        <time>2010-01-01T02:55:16Z</time>
      </trkpt>
      <trkpt lat="42.14195" lon="2.37816">
        <ele>844</ele>
        <time>2010-01-01T02:55:21Z</time>
      </trkpt>
      <trkpt lat="42.14196" lon="2.37819">
        <ele>843</ele>
        <time>2010-01-01T02:55:21Z</time>
      </trkpt>
      <trkpt lat="42.14199" lon="2.37819">
        <ele>846</ele>
        <time>2010-01-01T02:55:23Z</time>
      </trkpt>
      <trkpt lat="42.14204" lon="2.37827">
        <ele>846</ele>
        <time>2010-01-01T02:55:26Z</time>
      </trkpt>
      <trkpt lat="42.14209" lon="2.37827">
        <ele>850</ele>
        <time>2010-01-01T02:55:28Z</time>
      </trkpt>
      <trkpt lat="42.14197" lon="2.37847">
        <ele>836</ele>
        <time>2010-01-01T02:55:35Z</time>
      </trkpt>
      <trkpt lat="42.14198" lon="2.37853">
        <ele>836</ele>
        <time>2010-01-01T02:55:37Z</time>
      </trkpt>
      <trkpt lat="42.14194" lon="2.37858">
        <ele>833</ele>
        <time>2010-01-01T02:55:40Z</time>
      </trkpt>
      <trkpt lat="42.14186" lon="2.37874">
        <ele>830</ele>
        <time>2010-01-01T02:55:45Z</time>
      </trkpt>
      <trkpt lat="42.14183" lon="2.3789">
        <ele>823</ele>
        <time>2010-01-01T02:55:50Z</time>
      </trkpt>
      <trkpt lat="42.14186" lon="2.37896">
        <ele>822</ele>
        <time>2010-01-01T02:55:52Z</time>
      </trkpt>
      <trkpt lat="42.14185" lon="2.37902">
        <ele>821</ele>
        <time>2010-01-01T02:55:54Z</time>
      </trkpt>
      <trkpt lat="42.14187" lon="2.37903">
        <ele>821</ele>
        <time>2010-01-01T02:55:55Z</time>
      </trkpt>
      <trkpt lat="42.14185" lon="2.37912">
        <ele>819</ele>
        <time>2010-01-01T02:55:58Z</time>
      </trkpt>
      <trkpt lat="42.14186" lon="2.37924">
        <ele>814</ele>
        <time>2010-01-01T02:56:01Z</time>
      </trkpt>
      <trkpt lat="42.14189" lon="2.37946">
        <ele>804</ele>
        <time>2010-01-01T02:56:08Z</time>
      </trkpt>
      <trkpt lat="42.14196" lon="2.37939">
        <ele>807</ele>
        <time>2010-01-01T02:56:11Z</time>
      </trkpt>
      <trkpt lat="42.14204" lon="2.37939">
        <ele>810</ele>
        <time>2010-01-01T02:56:15Z</time>
      </trkpt>
      <trkpt lat="42.14208" lon="2.37942">
        <ele>810</ele>
        <time>2010-01-01T02:56:16Z</time>
      </trkpt>
      <trkpt lat="42.1421" lon="2.37946">
        <ele>809</ele>
        <time>2010-01-01T02:56:18Z</time>
      </trkpt>
      <trkpt lat="42.1421" lon="2.37957">
        <ele>805</ele>
        <time>2010-01-01T02:56:21Z</time>
      </trkpt>
      <trkpt lat="42.14204" lon="2.37979">
        <ele>796</ele>
        <time>2010-01-01T02:56:28Z</time>
      </trkpt>
      <trkpt lat="42.14194" lon="2.37987">
        <ele>795</ele>
        <time>2010-01-01T02:56:33Z</time>
      </trkpt>
      <trkpt lat="42.14176" lon="2.38017">
        <ele>798</ele>
        <time>2010-01-01T02:56:44Z</time>
      </trkpt>
      <trkpt lat="42.14178" lon="2.3802">
        <ele>797</ele>
        <time>2010-01-01T02:56:46Z</time>
      </trkpt>
      <trkpt lat="42.14185" lon="2.38018">
        <ele>794</ele>
        <time>2010-01-01T02:56:48Z</time>
      </trkpt>
      <trkpt lat="42.14185" lon="2.38016">
        <ele>794</ele>
        <time>2010-01-01T02:56:49Z</time>
      </trkpt>
      <trkpt lat="42.14196" lon="2.38032">
        <ele>787</ele>
        <time>2010-01-01T02:56:55Z</time>
      </trkpt>
      <trkpt lat="42.14194" lon="2.38046">
        <ele>785</ele>
        <time>2010-01-01T02:57:00Z</time>
      </trkpt>
      <trkpt lat="42.14189" lon="2.38054">
        <ele>786</ele>
        <time>2010-01-01T02:57:03Z</time>
      </trkpt>
      <trkpt lat="42.14194" lon="2.38056">
        <ele>783</ele>
        <time>2010-01-01T02:57:05Z</time>
      </trkpt>
      <trkpt lat="42.14195" lon="2.38064">
        <ele>783</ele>
        <time>2010-01-01T02:57:07Z</time>
      </trkpt>
      <trkpt lat="42.14192" lon="2.38069">
        <ele>784</ele>
        <time>2010-01-01T02:57:09Z</time>
      </trkpt>
      <trkpt lat="42.14185" lon="2.38096">
        <ele>787</ele>
        <time>2010-01-01T02:57:18Z</time>
      </trkpt>
      <trkpt lat="42.14193" lon="2.38098">
        <ele>783</ele>
        <time>2010-01-01T02:57:21Z</time>
      </trkpt>
      <trkpt lat="42.14223" lon="2.38088">
        <ele>772</ele>
        <time>2010-01-01T02:57:33Z</time>
      </trkpt>
      <trkpt lat="42.14232" lon="2.38087">
        <ele>772</ele>
        <time>2010-01-01T02:57:37Z</time>
      </trkpt>
      <trkpt lat="42.14221" lon="2.38106">
        <ele>770</ele>
        <time>2010-01-01T02:57:43Z</time>
      </trkpt>
      <trkpt lat="42.14221" lon="2.38113">
        <ele>770</ele>
        <time>2010-01-01T02:57:46Z</time>
      </trkpt>
      <trkpt lat="42.14215" lon="2.38125">
        <ele>772</ele>
        <time>2010-01-01T02:57:50Z</time>
      </trkpt>
      <trkpt lat="42.14212" lon="2.38137">
        <ele>774</ele>
        <time>2010-01-01T02:57:54Z</time>
      </trkpt>
      <trkpt lat="42.14202" lon="2.38153">
        <ele>779</ele>
        <time>2010-01-01T02:58:00Z</time>
      </trkpt>
      <trkpt lat="42.14203" lon="2.3816">
        <ele>779</ele>
        <time>2010-01-01T02:58:02Z</time>
      </trkpt>
      <trkpt lat="42.14201" lon="2.38167">
        <ele>780</ele>
        <time>2010-01-01T02:58:04Z</time>
      </trkpt>
      <trkpt lat="42.14203" lon="2.38173">
        <ele>778</ele>
        <time>2010-01-01T02:58:06Z</time>
      </trkpt>
      <trkpt lat="42.14207" lon="2.38176">
        <ele>776</ele>
        <time>2010-01-01T02:58:08Z</time>
      </trkpt>
      <trkpt lat="42.14219" lon="2.38176">
        <ele>769</ele>
        <time>2010-01-01T02:58:13Z</time>
      </trkpt>
      <trkpt lat="42.14223" lon="2.38179">
        <ele>766</ele>
        <time>2010-01-01T02:58:15Z</time>
      </trkpt>
      <trkpt lat="42.14233" lon="2.38182">
        <ele>761</ele>
        <time>2010-01-01T02:58:19Z</time>
      </trkpt>
      <trkpt lat="42.1424" lon="2.3818">
        <ele>759</ele>
        <time>2010-01-01T02:58:22Z</time>
      </trkpt>
      <trkpt lat="42.14246" lon="2.3818">
        <ele>756</ele>
        <time>2010-01-01T02:58:24Z</time>
      </trkpt>
      <trkpt lat="42.14257" lon="2.38184">
        <ele>752</ele>
        <time>2010-01-01T02:58:29Z</time>
      </trkpt>
      <trkpt lat="42.14261" lon="2.38189">
        <ele>750</ele>
        <time>2010-01-01T02:58:31Z</time>
      </trkpt>
      <trkpt lat="42.14267" lon="2.3819">
        <ele>748</ele>
        <time>2010-01-01T02:58:33Z</time>
      </trkpt>
      <trkpt lat="42.14274" lon="2.38196">
        <ele>745</ele>
        <time>2010-01-01T02:58:36Z</time>
      </trkpt>
      <trkpt lat="42.14277" lon="2.38202">
        <ele>743</ele>
        <time>2010-01-01T02:58:39Z</time>
      </trkpt>
      <trkpt lat="42.14282" lon="2.38205">
        <ele>743</ele>
        <time>2010-01-01T02:58:41Z</time>
      </trkpt>
      <trkpt lat="42.14295" lon="2.38205">
        <ele>744</ele>
        <time>2010-01-01T02:58:46Z</time>
      </trkpt>
      <trkpt lat="42.1432" lon="2.38198">
        <ele>753</ele>
        <time>2010-01-01T02:58:56Z</time>
      </trkpt>
      <trkpt lat="42.14323" lon="2.38314">
        <ele>726</ele>
        <time>2010-01-01T02:59:30Z</time>
      </trkpt>
      <trkpt lat="42.14312" lon="2.38334">
        <ele>729</ele>
        <time>2010-01-01T02:59:38Z</time>
      </trkpt>
      <trkpt lat="42.1431" lon="2.38342">
        <ele>731</ele>
        <time>2010-01-01T02:59:40Z</time>
      </trkpt>
      <trkpt lat="42.14314" lon="2.38347">
        <ele>729</ele>
        <time>2010-01-01T02:59:43Z</time>
      </trkpt>
      <trkpt lat="42.14316" lon="2.38359">
        <ele>728</ele>
        <time>2010-01-01T02:59:46Z</time>
      </trkpt>
      <trkpt lat="42.14315" lon="2.38367">
        <ele>729</ele>
        <time>2010-01-01T02:59:49Z</time>
      </trkpt>
      <trkpt lat="42.14324" lon="2.38367">
        <ele>725</ele>
        <time>2010-01-01T02:59:52Z</time>
      </trkpt>
      <trkpt lat="42.14324" lon="2.38377">
        <ele>726</ele>
        <time>2010-01-01T02:59:55Z</time>
      </trkpt>
      <trkpt lat="42.14321" lon="2.38396">
        <ele>728</ele>
        <time>2010-01-01T03:00:01Z</time>
      </trkpt>
      <trkpt lat="42.14326" lon="2.38412">
        <ele>726</ele>
        <time>2010-01-01T03:00:06Z</time>
      </trkpt>
      <trkpt lat="42.1433" lon="2.38415">
        <ele>724</ele>
        <time>2010-01-01T03:00:08Z</time>
      </trkpt>
      <trkpt lat="42.14332" lon="2.38422">
        <ele>724</ele>
        <time>2010-01-01T03:00:10Z</time>
      </trkpt>
      <trkpt lat="42.14336" lon="2.38427">
        <ele>724</ele>
        <time>2010-01-01T03:00:12Z</time>
      </trkpt>
      <trkpt lat="42.14347" lon="2.3843">
        <ele>720</ele>
        <time>2010-01-01T03:00:17Z</time>
      </trkpt>
      <trkpt lat="42.14352" lon="2.3843">
        <ele>718</ele>
        <time>2010-01-01T03:00:19Z</time>
      </trkpt>
      <trkpt lat="42.14364" lon="2.38434">
        <ele>715</ele>
        <time>2010-01-01T03:00:24Z</time>
      </trkpt>
      <trkpt lat="42.14389" lon="2.38436">
        <ele>709</ele>
        <time>2010-01-01T03:00:34Z</time>
      </trkpt>
      <trkpt lat="42.144" lon="2.38438">
        <ele>706</ele>
        <time>2010-01-01T03:00:38Z</time>
      </trkpt>
      <trkpt lat="42.14414" lon="2.38435">
        <ele>702</ele>
        <time>2010-01-01T03:00:44Z</time>
      </trkpt>
      <trkpt lat="42.14418" lon="2.38433">
        <ele>702</ele>
        <time>2010-01-01T03:00:46Z</time>
      </trkpt>
      <trkpt lat="42.14424" lon="2.38432">
        <ele>700</ele>
        <time>2010-01-01T03:00:48Z</time>
      </trkpt>
      <trkpt lat="42.14435" lon="2.38436">
        <ele>698</ele>
        <time>2010-01-01T03:00:53Z</time>
      </trkpt>
      <trkpt lat="42.14444" lon="2.38443">
        <ele>695</ele>
        <time>2010-01-01T03:00:57Z</time>
      </trkpt>
      <trkpt lat="42.1445" lon="2.38454">
        <ele>693</ele>
        <time>2010-01-01T03:01:01Z</time>
      </trkpt>
      <trkpt lat="42.14449" lon="2.38463">
        <ele>693</ele>
        <time>2010-01-01T03:01:04Z</time>
      </trkpt>
      <trkpt lat="42.1444" lon="2.38482">
        <ele>695</ele>
        <time>2010-01-01T03:01:10Z</time>
      </trkpt>
      <trkpt lat="42.14445" lon="2.3851">
        <ele>691</ele>
        <time>2010-01-01T03:01:19Z</time>
      </trkpt>
      <trkpt lat="42.14443" lon="2.38517">
        <ele>690</ele>
        <time>2010-01-01T03:01:21Z</time>
      </trkpt>
      <trkpt lat="42.14443" lon="2.38525">
        <ele>689</ele>
        <time>2010-01-01T03:01:23Z</time>
      </trkpt>
      <trkpt lat="42.14447" lon="2.38529">
        <ele>687</ele>
        <time>2010-01-01T03:01:25Z</time>
      </trkpt>
      <trkpt lat="42.14444" lon="2.38535">
        <ele>688</ele>
        <time>2010-01-01T03:01:27Z</time>
      </trkpt>
      <trkpt lat="42.14442" lon="2.38555">
        <ele>688</ele>
        <time>2010-01-01T03:01:34Z</time>
      </trkpt>
      <trkpt lat="42.14438" lon="2.38561">
        <ele>689</ele>
        <time>2010-01-01T03:01:36Z</time>
      </trkpt>
      <trkpt lat="42.14434" lon="2.38586">
        <ele>689</ele>
        <time>2010-01-01T03:01:43Z</time>
      </trkpt>
      <trkpt lat="42.14436" lon="2.38592">
        <ele>687</ele>
        <time>2010-01-01T03:01:45Z</time>
      </trkpt>
      <trkpt lat="42.14434" lon="2.38604">
        <ele>688</ele>
        <time>2010-01-01T03:01:49Z</time>
      </trkpt>
      <trkpt lat="42.14437" lon="2.38617">
        <ele>686</ele>
        <time>2010-01-01T03:01:53Z</time>
      </trkpt>
      <trkpt lat="42.14437" lon="2.38625">
        <ele>685</ele>
        <time>2010-01-01T03:01:56Z</time>
      </trkpt>
      <trkpt lat="42.14442" lon="2.38635">
        <ele>683</ele>
        <time>2010-01-01T03:01:59Z</time>
      </trkpt>
      <trkpt lat="42.14446" lon="2.38651">
        <ele>680</ele>
        <time>2010-01-01T03:02:04Z</time>
      </trkpt>
      <trkpt lat="42.14443" lon="2.3867">
        <ele>679</ele>
        <time>2010-01-01T03:02:10Z</time>
      </trkpt>
      <trkpt lat="42.14439" lon="2.38679">
        <ele>681</ele>
        <time>2010-01-01T03:02:13Z</time>
      </trkpt>
      <trkpt lat="42.14438" lon="2.3869">
        <ele>682</ele>
        <time>2010-01-01T03:02:16Z</time>
      </trkpt>
      <trkpt lat="42.1444" lon="2.38705">
        <ele>683</ele>
        <time>2010-01-01T03:02:21Z</time>
      </trkpt>
      <trkpt lat="42.14444" lon="2.3871">
        <ele>682</ele>
        <time>2010-01-01T03:02:23Z</time>
      </trkpt>
      <trkpt lat="42.14446" lon="2.38718">
        <ele>682</ele>
        <time>2010-01-01T03:02:26Z</time>
      </trkpt>
      <trkpt lat="42.14445" lon="2.38729">
        <ele>685</ele>
        <time>2010-01-01T03:02:29Z</time>
      </trkpt>
      <trkpt lat="42.14447" lon="2.38735">
        <ele>685</ele>
        <time>2010-01-01T03:02:31Z</time>
      </trkpt>
      <trkpt lat="42.1446" lon="2.3875">
        <ele>684</ele>
        <time>2010-01-01T03:02:38Z</time>
      </trkpt>
      <trkpt lat="42.14467" lon="2.38755">
        <ele>683</ele>
        <time>2010-01-01T03:02:41Z</time>
      </trkpt>
      <trkpt lat="42.14473" lon="2.38761">
        <ele>682</ele>
        <time>2010-01-01T03:02:44Z</time>
      </trkpt>
      <trkpt lat="42.14476" lon="2.38767">
        <ele>683</ele>
        <time>2010-01-01T03:02:46Z</time>
      </trkpt>
      <trkpt lat="42.14481" lon="2.3877">
        <ele>681</ele>
        <time>2010-01-01T03:02:48Z</time>
      </trkpt>
      <trkpt lat="42.14499" lon="2.38787">
        <ele>678</ele>
        <time>2010-01-01T03:02:57Z</time>
      </trkpt>
      <trkpt lat="42.14504" lon="2.38793">
        <ele>677</ele>
        <time>2010-01-01T03:03:00Z</time>
      </trkpt>
      <trkpt lat="42.14509" lon="2.38796">
        <ele>676</ele>
        <time>2010-01-01T03:03:02Z</time>
      </trkpt>
      <trkpt lat="42.14513" lon="2.38809">
        <ele>676</ele>
        <time>2010-01-01T03:03:06Z</time>
      </trkpt>
      <trkpt lat="42.1452" lon="2.38819">
        <ele>674</ele>
        <time>2010-01-01T03:03:10Z</time>
      </trkpt>
      <trkpt lat="42.14526" lon="2.38838">
        <ele>673</ele>
        <time>2010-01-01T03:03:17Z</time>
      </trkpt>
      <trkpt lat="42.14525" lon="2.38846">
        <ele>673</ele>
        <time>2010-01-01T03:03:19Z</time>
      </trkpt>
      <trkpt lat="42.14518" lon="2.38857">
        <ele>675</ele>
        <time>2010-01-01T03:03:23Z</time>
      </trkpt>
      <trkpt lat="42.14517" lon="2.38863">
        <ele>675</ele>
        <time>2010-01-01T03:03:25Z</time>
      </trkpt>
      <trkpt lat="42.14518" lon="2.38876">
        <ele>675</ele>
        <time>2010-01-01T03:03:29Z</time>
      </trkpt>
      <trkpt lat="42.14514" lon="2.38882">
        <ele>676</ele>
        <time>2010-01-01T03:03:31Z</time>
      </trkpt>
      <trkpt lat="42.14513" lon="2.38888">
        <ele>676</ele>
        <time>2010-01-01T03:03:33Z</time>
      </trkpt>
      <trkpt lat="42.14507" lon="2.38927">
        <ele>674</ele>
        <time>2010-01-01T03:03:45Z</time>
      </trkpt>
      <trkpt lat="42.14499" lon="2.38954">
        <ele>673</ele>
        <time>2010-01-01T03:03:54Z</time>
      </trkpt>
      <trkpt lat="42.14498" lon="2.38975">
        <ele>671</ele>
        <time>2010-01-01T03:04:00Z</time>
      </trkpt>
      <trkpt lat="42.14491" lon="2.38995">
        <ele>671</ele>
        <time>2010-01-01T03:04:06Z</time>
      </trkpt>
      <trkpt lat="42.14491" lon="2.39003">
        <ele>670</ele>
        <time>2010-01-01T03:04:09Z</time>
      </trkpt>
      <trkpt lat="42.14486" lon="2.39016">
        <ele>669</ele>
        <time>2010-01-01T03:04:13Z</time>
      </trkpt>
      <trkpt lat="42.14485" lon="2.3903">
        <ele>668</ele>
        <time>2010-01-01T03:04:17Z</time>
      </trkpt>
      <trkpt lat="42.14479" lon="2.39049">
        <ele>667</ele>
        <time>2010-01-01T03:04:24Z</time>
      </trkpt>
      <trkpt lat="42.14479" lon="2.39057">
        <ele>666</ele>
        <time>2010-01-01T03:04:26Z</time>
      </trkpt>
      <trkpt lat="42.14478" lon="2.39062">
        <ele>666</ele>
        <time>2010-01-01T03:04:28Z</time>
      </trkpt>
      <trkpt lat="42.14478" lon="2.39068">
        <ele>665</ele>
        <time>2010-01-01T03:04:29Z</time>
      </trkpt>
      <trkpt lat="42.14472" lon="2.39094">
        <ele>664</ele>
        <time>2010-01-01T03:04:37Z</time>
      </trkpt>
      <trkpt lat="42.14462" lon="2.39111">
        <ele>666</ele>
        <time>2010-01-01T03:04:44Z</time>
      </trkpt>
      <trkpt lat="42.14458" lon="2.39125">
        <ele>666</ele>
        <time>2010-01-01T03:04:48Z</time>
      </trkpt>
      <trkpt lat="42.14462" lon="2.39131">
        <ele>663</ele>
        <time>2010-01-01T03:04:50Z</time>
      </trkpt>
      <trkpt lat="42.14456" lon="2.39157">
        <ele>661</ele>
        <time>2010-01-01T03:04:59Z</time>
      </trkpt>
      <trkpt lat="42.14455" lon="2.39179">
        <ele>656</ele>
        <time>2010-01-01T03:05:05Z</time>
      </trkpt>
      <trkpt lat="42.14452" lon="2.39187">
        <ele>655</ele>
        <time>2010-01-01T03:05:08Z</time>
      </trkpt>
      <trkpt lat="42.14449" lon="2.39227">
        <ele>649</ele>
        <time>2010-01-01T03:05:20Z</time>
      </trkpt>
      <trkpt lat="42.14453" lon="2.39239">
        <ele>647</ele>
        <time>2010-01-01T03:05:24Z</time>
      </trkpt>
      <trkpt lat="42.14451" lon="2.39247">
        <ele>647</ele>
        <time>2010-01-01T03:05:26Z</time>
      </trkpt>
      <trkpt lat="42.14451" lon="2.39253">
        <ele>646</ele>
        <time>2010-01-01T03:05:28Z</time>
      </trkpt>
      <trkpt lat="42.14455" lon="2.39273">
        <ele>644</ele>
        <time>2010-01-01T03:05:34Z</time>
      </trkpt>
      <trkpt lat="42.14453" lon="2.3928">
        <ele>644</ele>
        <time>2010-01-01T03:05:36Z</time>
      </trkpt>
      <trkpt lat="42.14452" lon="2.39295">
        <ele>643</ele>
        <time>2010-01-01T03:05:41Z</time>
      </trkpt>
      <trkpt lat="42.14449" lon="2.39308">
        <ele>643</ele>
        <time>2010-01-01T03:05:45Z</time>
      </trkpt>
      <trkpt lat="42.14443" lon="2.39319">
        <ele>644</ele>
        <time>2010-01-01T03:05:49Z</time>
      </trkpt>
      <trkpt lat="42.14436" lon="2.39328">
        <ele>646</ele>
        <time>2010-01-01T03:05:53Z</time>
      </trkpt>
      <trkpt lat="42.14431" lon="2.39341">
        <ele>646</ele>
        <time>2010-01-01T03:05:57Z</time>
      </trkpt>
      <trkpt lat="42.1443" lon="2.39367">
        <ele>646</ele>
        <time>2010-01-01T03:06:05Z</time>
      </trkpt>
      <trkpt lat="42.14433" lon="2.39374">
        <ele>647</ele>
        <time>2010-01-01T03:06:07Z</time>
      </trkpt>
      <trkpt lat="42.14449" lon="2.39389">
        <ele>645</ele>
        <time>2010-01-01T03:06:15Z</time>
      </trkpt>
      <trkpt lat="42.14469" lon="2.39398">
        <ele>642</ele>
        <time>2010-01-01T03:06:23Z</time>
      </trkpt>
      <trkpt lat="42.14472" lon="2.39404">
        <ele>642</ele>
        <time>2010-01-01T03:06:26Z</time>
      </trkpt>
      <trkpt lat="42.14486" lon="2.39414">
        <ele>640</ele>
        <time>2010-01-01T03:06:32Z</time>
      </trkpt>
      <trkpt lat="42.1449" lon="2.39411">
        <ele>638</ele>
        <time>2010-01-01T03:06:34Z</time>
      </trkpt>
      <trkpt lat="42.14495" lon="2.39412">
        <ele>636</ele>
        <time>2010-01-01T03:06:36Z</time>
      </trkpt>
      <trkpt lat="42.14505" lon="2.39416">
        <ele>634</ele>
        <time>2010-01-01T03:06:40Z</time>
      </trkpt>
      <trkpt lat="42.14508" lon="2.39421">
        <ele>634</ele>
        <time>2010-01-01T03:06:42Z</time>
      </trkpt>
      <trkpt lat="42.14519" lon="2.39444">
        <ele>633</ele>
        <time>2010-01-01T03:06:50Z</time>
      </trkpt>
      <trkpt lat="42.14534" lon="2.39491">
        <ele>631</ele>
        <time>2010-01-01T03:07:05Z</time>
      </trkpt>
      <trkpt lat="42.14534" lon="2.39497">
        <ele>631</ele>
        <time>2010-01-01T03:07:07Z</time>
      </trkpt>
      <trkpt lat="42.14533" lon="2.39514">
        <ele>630</ele>
        <time>2010-01-01T03:07:12Z</time>
      </trkpt>
      <trkpt lat="42.14528" lon="2.39517">
        <ele>631</ele>
        <time>2010-01-01T03:07:14Z</time>
      </trkpt>
      <trkpt lat="42.14537" lon="2.39507">
        <ele>630</ele>
        <time>2010-01-01T03:07:18Z</time>
      </trkpt>
      <trkpt lat="42.14559" lon="2.39499">
        <ele>628</ele>
        <time>2010-01-01T03:07:28Z</time>
      </trkpt>
      <trkpt lat="42.14547" lon="2.39514">
        <ele>628</ele>
        <time>2010-01-01T03:07:34Z</time>
      </trkpt>
      <trkpt lat="42.14544" lon="2.39525">
        <ele>628</ele>
        <time>2010-01-01T03:07:38Z</time>
      </trkpt>
      <trkpt lat="42.1454" lon="2.39533">
        <ele>628</ele>
        <time>2010-01-01T03:07:41Z</time>
      </trkpt>
      <trkpt lat="42.14541" lon="2.39546">
        <ele>626</ele>
        <time>2010-01-01T03:07:45Z</time>
      </trkpt>
      <trkpt lat="42.14539" lon="2.39556">
        <ele>625</ele>
        <time>2010-01-01T03:07:48Z</time>
      </trkpt>
      <trkpt lat="42.1452" lon="2.39589">
        <ele>628</ele>
        <time>2010-01-01T03:08:00Z</time>
      </trkpt>
      <trkpt lat="42.14516" lon="2.39599">
        <ele>629</ele>
        <time>2010-01-01T03:08:03Z</time>
      </trkpt>
      <trkpt lat="42.1451" lon="2.39597">
        <ele>632</ele>
        <time>2010-01-01T03:08:06Z</time>
      </trkpt>
      <trkpt lat="42.14509" lon="2.39605">
        <ele>631</ele>
        <time>2010-01-01T03:08:08Z</time>
      </trkpt>
      <trkpt lat="42.1449" lon="2.39624">
        <ele>634</ele>
        <time>2010-01-01T03:08:17Z</time>
      </trkpt>
      <trkpt lat="42.14468" lon="2.39634">
        <ele>637</ele>
        <time>2010-01-01T03:08:27Z</time>
      </trkpt>
      <trkpt lat="42.14447" lon="2.39688">
        <ele>635</ele>
        <time>2010-01-01T03:08:45Z</time>
      </trkpt>
      <trkpt lat="42.14443" lon="2.39723">
        <ele>635</ele>
        <time>2010-01-01T03:08:55Z</time>
      </trkpt>
      <trkpt lat="42.14428" lon="2.39749">
        <ele>640</ele>
        <time>2010-01-01T03:09:05Z</time>
      </trkpt>
      <trkpt lat="42.14434" lon="2.39759">
        <ele>639</ele>
        <time>2010-01-01T03:09:09Z</time>
      </trkpt>
      <trkpt lat="42.14439" lon="2.39765">
        <ele>638</ele>
        <time>2010-01-01T03:09:11Z</time>
      </trkpt>
      <trkpt lat="42.14456" lon="2.39774">
        <ele>635</ele>
        <time>2010-01-01T03:09:19Z</time>
      </trkpt>
      <trkpt lat="42.14459" lon="2.39794">
        <ele>636</ele>
        <time>2010-01-01T03:09:24Z</time>
      </trkpt>
      <trkpt lat="42.14443" lon="2.39814">
        <ele>641</ele>
        <time>2010-01-01T03:09:33Z</time>
      </trkpt>
      <trkpt lat="42.14459" lon="2.39861">
        <ele>637</ele>
        <time>2010-01-01T03:09:49Z</time>
      </trkpt>
      <trkpt lat="42.14463" lon="2.3991">
        <ele>639</ele>
        <time>2010-01-01T03:10:03Z</time>
      </trkpt>
      <trkpt lat="42.1433" lon="2.39757">
        <ele>666</ele>
        <time>2010-01-01T03:11:13Z</time>
      </trkpt>
      <trkpt lat="42.14321" lon="2.39757">
        <ele>668</ele>
        <time>2010-01-01T03:11:17Z</time>
      </trkpt>
      <trkpt lat="42.14312" lon="2.3976">
        <ele>669</ele>
        <time>2010-01-01T03:11:20Z</time>
      </trkpt>
      <trkpt lat="42.14301" lon="2.39757">
        <ele>671</ele>
        <time>2010-01-01T03:11:25Z</time>
      </trkpt>
      <trkpt lat="42.14284" lon="2.39766">
        <ele>673</ele>
        <time>2010-01-01T03:11:32Z</time>
      </trkpt>
      <trkpt lat="42.14263" lon="2.39756">
        <ele>679</ele>
        <time>2010-01-01T03:11:41Z</time>
      </trkpt>
      <trkpt lat="42.14269" lon="2.39753">
        <ele>677</ele>
        <time>2010-01-01T03:11:44Z</time>
      </trkpt>
      <trkpt lat="42.14265" lon="2.39748">
        <ele>679</ele>
        <time>2010-01-01T03:11:46Z</time>
      </trkpt>
      <trkpt lat="42.14255" lon="2.39744">
        <ele>683</ele>
        <time>2010-01-01T03:11:50Z</time>
      </trkpt>
      <trkpt lat="42.14251" lon="2.3974">
        <ele>684</ele>
        <time>2010-01-01T03:11:52Z</time>
      </trkpt>
      <trkpt lat="42.14249" lon="2.39746">
        <ele>684</ele>
        <time>2010-01-01T03:11:54Z</time>
      </trkpt>
      <trkpt lat="42.14245" lon="2.39744">
        <ele>686</ele>
        <time>2010-01-01T03:11:56Z</time>
      </trkpt>
      <trkpt lat="42.14242" lon="2.39738">
        <ele>688</ele>
        <time>2010-01-01T03:11:58Z</time>
      </trkpt>
      <trkpt lat="42.14238" lon="2.39736">
        <ele>690</ele>
        <time>2010-01-01T03:12:00Z</time>
      </trkpt>
      <trkpt lat="42.14226" lon="2.39731">
        <ele>695</ele>
        <time>2010-01-01T03:12:05Z</time>
      </trkpt>
      <trkpt lat="42.14215" lon="2.39725">
        <ele>700</ele>
        <time>2010-01-01T03:12:09Z</time>
      </trkpt>
      <trkpt lat="42.1421" lon="2.39726">
        <ele>701</ele>
        <time>2010-01-01T03:12:12Z</time>
      </trkpt>
      <trkpt lat="42.1421" lon="2.39718">
        <ele>703</ele>
        <time>2010-01-01T03:12:14Z</time>
      </trkpt>
      <trkpt lat="42.14204" lon="2.39711">
        <ele>706</ele>
        <time>2010-01-01T03:12:17Z</time>
      </trkpt>
      <trkpt lat="42.1419" lon="2.39709">
        <ele>711</ele>
        <time>2010-01-01T03:12:23Z</time>
      </trkpt>
      <trkpt lat="42.14181" lon="2.39717">
        <ele>713</ele>
        <time>2010-01-01T03:12:27Z</time>
      </trkpt>
      <trkpt lat="42.14169" lon="2.3972">
        <ele>716</ele>
        <time>2010-01-01T03:12:32Z</time>
      </trkpt>
      <trkpt lat="42.14161" lon="2.39718">
        <ele>719</ele>
        <time>2010-01-01T03:12:35Z</time>
      </trkpt>
      <trkpt lat="42.14166" lon="2.39721">
        <ele>717</ele>
        <time>2010-01-01T03:12:37Z</time>
      </trkpt>
      <trkpt lat="42.14162" lon="2.39722">
        <ele>719</ele>
        <time>2010-01-01T03:12:39Z</time>
      </trkpt>
      <trkpt lat="42.14153" lon="2.39717">
        <ele>722</ele>
        <time>2010-01-01T03:12:43Z</time>
      </trkpt>
      <trkpt lat="42.14148" lon="2.39725">
        <ele>724</ele>
        <time>2010-01-01T03:12:46Z</time>
      </trkpt>
      <trkpt lat="42.14141" lon="2.39729">
        <ele>726</ele>
        <time>2010-01-01T03:12:49Z</time>
      </trkpt>
      <trkpt lat="42.14131" lon="2.39732">
        <ele>729</ele>
        <time>2010-01-01T03:12:53Z</time>
      </trkpt>
      <trkpt lat="42.14127" lon="2.39741">
        <ele>730</ele>
        <time>2010-01-01T03:12:56Z</time>
      </trkpt>
      <trkpt lat="42.14117" lon="2.39754">
        <ele>733</ele>
        <time>2010-01-01T03:13:02Z</time>
      </trkpt>
      <trkpt lat="42.14123" lon="2.39758">
        <ele>730</ele>
        <time>2010-01-01T03:13:04Z</time>
      </trkpt>
      <trkpt lat="42.14112" lon="2.3975">
        <ele>735</ele>
        <time>2010-01-01T03:13:09Z</time>
      </trkpt>
      <trkpt lat="42.14097" lon="2.39735">
        <ele>740</ele>
        <time>2010-01-01T03:13:17Z</time>
      </trkpt>
      <trkpt lat="42.14085" lon="2.39737">
        <ele>742</ele>
        <time>2010-01-01T03:13:21Z</time>
      </trkpt>
      <trkpt lat="42.1408" lon="2.39741">
        <ele>743</ele>
        <time>2010-01-01T03:13:24Z</time>
      </trkpt>
      <trkpt lat="42.14075" lon="2.39749">
        <ele>744</ele>
        <time>2010-01-01T03:13:27Z</time>
      </trkpt>
      <trkpt lat="42.14083" lon="2.39758">
        <ele>741</ele>
        <time>2010-01-01T03:13:31Z</time>
      </trkpt>
      <trkpt lat="42.14083" lon="2.39765">
        <ele>740</ele>
        <time>2010-01-01T03:13:33Z</time>
      </trkpt>
      <trkpt lat="42.1407" lon="2.39768">
        <ele>743</ele>
        <time>2010-01-01T03:13:38Z</time>
      </trkpt>
      <trkpt lat="42.14076" lon="2.39776">
        <ele>741</ele>
        <time>2010-01-01T03:13:42Z</time>
      </trkpt>
      <trkpt lat="42.14081" lon="2.39772">
        <ele>740</ele>
        <time>2010-01-01T03:13:44Z</time>
      </trkpt>
      <trkpt lat="42.14074" lon="2.3977">
        <ele>742</ele>
        <time>2010-01-01T03:13:47Z</time>
      </trkpt>
      <trkpt lat="42.14051" lon="2.3976">
        <ele>751</ele>
        <time>2010-01-01T03:13:56Z</time>
      </trkpt>
      <trkpt lat="42.14052" lon="2.39752">
        <ele>751</ele>
        <time>2010-01-01T03:13:59Z</time>
      </trkpt>
      <trkpt lat="42.1405" lon="2.3976">
        <ele>751</ele>
        <time>2010-01-01T03:14:01Z</time>
      </trkpt>
      <trkpt lat="42.14045" lon="2.39761">
        <ele>753</ele>
        <time>2010-01-01T03:14:03Z</time>
      </trkpt>
      <trkpt lat="42.14009" lon="2.39761">
        <ele>769</ele>
        <time>2010-01-01T03:14:17Z</time>
      </trkpt>
      <trkpt lat="42.14005" lon="2.39758">
        <ele>772</ele>
        <time>2010-01-01T03:14:19Z</time>
      </trkpt>
      <trkpt lat="42.13992" lon="2.39763">
        <ele>778</ele>
        <time>2010-01-01T03:14:25Z</time>
      </trkpt>
      <trkpt lat="42.13987" lon="2.39762">
        <ele>782</ele>
        <time>2010-01-01T03:14:27Z</time>
      </trkpt>
      <trkpt lat="42.13982" lon="2.39767">
        <ele>784</ele>
        <time>2010-01-01T03:14:29Z</time>
      </trkpt>
      <trkpt lat="42.13976" lon="2.39767">
        <ele>787</ele>
        <time>2010-01-01T03:14:32Z</time>
      </trkpt>
      <trkpt lat="42.13987" lon="2.3976">
        <ele>782</ele>
        <time>2010-01-01T03:14:37Z</time>
      </trkpt>
      <trkpt lat="42.14004" lon="2.39754">
        <ele>773</ele>
        <time>2010-01-01T03:14:44Z</time>
      </trkpt>
      <trkpt lat="42.13997" lon="2.39756">
        <ele>776</ele>
        <time>2010-01-01T03:14:47Z</time>
      </trkpt>
      <trkpt lat="42.13994" lon="2.39751">
        <ele>779</ele>
        <time>2010-01-01T03:14:49Z</time>
      </trkpt>
      <trkpt lat="42.13986" lon="2.39748">
        <ele>785</ele>
        <time>2010-01-01T03:14:52Z</time>
      </trkpt>
      <trkpt lat="42.13965" lon="2.39734">
        <ele>801</ele>
        <time>2010-01-01T03:15:01Z</time>
      </trkpt>
      <trkpt lat="42.13962" lon="2.39742">
        <ele>801</ele>
        <time>2010-01-01T03:15:04Z</time>
      </trkpt>
      <trkpt lat="42.13954" lon="2.39748">
        <ele>805</ele>
        <time>2010-01-01T03:15:08Z</time>
      </trkpt>
      <trkpt lat="42.13947" lon="2.39758">
        <ele>806</ele>
        <time>2010-01-01T03:15:12Z</time>
      </trkpt>
      <trkpt lat="42.13942" lon="2.39759">
        <ele>808</ele>
        <time>2010-01-01T03:15:14Z</time>
      </trkpt>
      <trkpt lat="42.13932" lon="2.39773">
        <ele>810</ele>
        <time>2010-01-01T03:15:19Z</time>
      </trkpt>
      <trkpt lat="42.13922" lon="2.39778">
        <ele>813</ele>
        <time>2010-01-01T03:15:23Z</time>
      </trkpt>
      <trkpt lat="42.13926" lon="2.39773">
        <ele>813</ele>
        <time>2010-01-01T03:15:25Z</time>
      </trkpt>
      <trkpt lat="42.13925" lon="2.39766">
        <ele>816</ele>
        <time>2010-01-01T03:15:27Z</time>
      </trkpt>
      <trkpt lat="42.13921" lon="2.39762">
        <ele>819</ele>
        <time>2010-01-01T03:15:29Z</time>
      </trkpt>
      <trkpt lat="42.13911" lon="2.39756">
        <ele>827</ele>
        <time>2010-01-01T03:15:34Z</time>
      </trkpt>
      <trkpt lat="42.13909" lon="2.39748">
        <ele>830</ele>
        <time>2010-01-01T03:15:36Z</time>
      </trkpt>
      <trkpt lat="42.13913" lon="2.39744">
        <ele>829</ele>
        <time>2010-01-01T03:15:38Z</time>
      </trkpt>
      <trkpt lat="42.13919" lon="2.39746">
        <ele>825</ele>
        <time>2010-01-01T03:15:40Z</time>
      </trkpt>
      <trkpt lat="42.13911" lon="2.39739">
        <ele>831</ele>
        <time>2010-01-01T03:15:44Z</time>
      </trkpt>
      <trkpt lat="42.13907" lon="2.39745">
        <ele>832</ele>
        <time>2010-01-01T03:15:46Z</time>
      </trkpt>
      <trkpt lat="42.13898" lon="2.39751">
        <ele>836</ele>
        <time>2010-01-01T03:15:51Z</time>
      </trkpt>
      <trkpt lat="42.13893" lon="2.39756">
        <ele>836</ele>
        <time>2010-01-01T03:15:53Z</time>
      </trkpt>
      <trkpt lat="42.13892" lon="2.39748">
        <ele>839</ele>
        <time>2010-01-01T03:15:55Z</time>
      </trkpt>
      <trkpt lat="42.13888" lon="2.39744">
        <ele>842</ele>
        <time>2010-01-01T03:15:57Z</time>
      </trkpt>
      <trkpt lat="42.13883" lon="2.39742">
        <ele>844</ele>
        <time>2010-01-01T03:15:59Z</time>
      </trkpt>
      <trkpt lat="42.13873" lon="2.39727">
        <ele>849</ele>
        <time>2010-01-01T03:16:05Z</time>
      </trkpt>
      <trkpt lat="42.1386" lon="2.39725">
        <ele>854</ele>
        <time>2010-01-01T03:16:10Z</time>
      </trkpt>
      <trkpt lat="42.13855" lon="2.39727">
        <ele>857</ele>
        <time>2010-01-01T03:16:12Z</time>
      </trkpt>
      <trkpt lat="42.13852" lon="2.39723">
        <ele>859</ele>
        <time>2010-01-01T03:16:14Z</time>
      </trkpt>
      <trkpt lat="42.13846" lon="2.39708">
        <ele>863</ele>
        <time>2010-01-01T03:16:19Z</time>
      </trkpt>
      <trkpt lat="42.13845" lon="2.39691">
        <ele>863</ele>
        <time>2010-01-01T03:16:24Z</time>
      </trkpt>
      <trkpt lat="42.13846" lon="2.39698">
        <ele>863</ele>
        <time>2010-01-01T03:16:26Z</time>
      </trkpt>
      <trkpt lat="42.13845" lon="2.39704">
        <ele>863</ele>
        <time>2010-01-01T03:16:28Z</time>
      </trkpt>
      <trkpt lat="42.13833" lon="2.39717">
        <ele>869</ele>
        <time>2010-01-01T03:16:34Z</time>
      </trkpt>
      <trkpt lat="42.13831" lon="2.39722">
        <ele>870</ele>
        <time>2010-01-01T03:16:36Z</time>
      </trkpt>
      <trkpt lat="42.13826" lon="2.39726">
        <ele>872</ele>
        <time>2010-01-01T03:16:38Z</time>
      </trkpt>
      <trkpt lat="42.13822" lon="2.39729">
        <ele>874</ele>
        <time>2010-01-01T03:16:40Z</time>
      </trkpt>
      <trkpt lat="42.13815" lon="2.39727">
        <ele>878</ele>
        <time>2010-01-01T03:16:43Z</time>
      </trkpt>
      <trkpt lat="42.13813" lon="2.39732">
        <ele>879</ele>
        <time>2010-01-01T03:16:45Z</time>
      </trkpt>
      <trkpt lat="42.13816" lon="2.3974">
        <ele>876</ele>
        <time>2010-01-01T03:16:47Z</time>
      </trkpt>
      <trkpt lat="42.13813" lon="2.39735">
        <ele>878</ele>
        <time>2010-01-01T03:16:49Z</time>
      </trkpt>
      <trkpt lat="42.13807" lon="2.39731">
        <ele>882</ele>
        <time>2010-01-01T03:16:52Z</time>
      </trkpt>
      <trkpt lat="42.13801" lon="2.39733">
        <ele>885</ele>
        <time>2010-01-01T03:16:54Z</time>
      </trkpt>
      <trkpt lat="42.13799" lon="2.39727">
        <ele>887</ele>
        <time>2010-01-01T03:16:56Z</time>
      </trkpt>
      <trkpt lat="42.13785" lon="2.39735">
        <ele>895</ele>
        <time>2010-01-01T03:17:02Z</time>
      </trkpt>
      <trkpt lat="42.13779" lon="2.39735">
        <ele>898</ele>
        <time>2010-01-01T03:17:05Z</time>
      </trkpt>
      <trkpt lat="42.13785" lon="2.39738">
        <ele>894</ele>
        <time>2010-01-01T03:17:07Z</time>
      </trkpt>
      <trkpt lat="42.13772" lon="2.39733">
        <ele>903</ele>
        <time>2010-01-01T03:17:13Z</time>
      </trkpt>
      <trkpt lat="42.13764" lon="2.39732">
        <ele>908</ele>
        <time>2010-01-01T03:17:16Z</time>
      </trkpt>
      <trkpt lat="42.1376" lon="2.39733">
        <ele>910</ele>
        <time>2010-01-01T03:17:18Z</time>
      </trkpt>
      <trkpt lat="42.13756" lon="2.39728">
        <ele>913</ele>
        <time>2010-01-01T03:17:20Z</time>
      </trkpt>
      <trkpt lat="42.13752" lon="2.39731">
        <ele>915</ele>
        <time>2010-01-01T03:17:22Z</time>
      </trkpt>
      <trkpt lat="42.13753" lon="2.39737">
        <ele>913</ele>
        <time>2010-01-01T03:17:24Z</time>
      </trkpt>
      <trkpt lat="42.13752" lon="2.39751">
        <ele>912</ele>
        <time>2010-01-01T03:17:28Z</time>
      </trkpt>
      <trkpt lat="42.13748" lon="2.39748">
        <ele>916</ele>
        <time>2010-01-01T03:17:30Z</time>
      </trkpt>
      <trkpt lat="42.13751" lon="2.39754">
        <ele>912</ele>
        <time>2010-01-01T03:17:32Z</time>
      </trkpt>
      <trkpt lat="42.13754" lon="2.39758">
        <ele>909</ele>
        <time>2010-01-01T03:17:34Z</time>
      </trkpt>
      <trkpt lat="42.13744" lon="2.39756">
        <ele>917</ele>
        <time>2010-01-01T03:17:38Z</time>
      </trkpt>
      <trkpt lat="42.13742" lon="2.39762">
        <ele>917</ele>
        <time>2010-01-01T03:17:40Z</time>
      </trkpt>
      <trkpt lat="42.13736" lon="2.39763">
        <ele>922</ele>
        <time>2010-01-01T03:17:42Z</time>
      </trkpt>
      <trkpt lat="42.13727" lon="2.39755">
        <ele>931</ele>
        <time>2010-01-01T03:17:46Z</time>
      </trkpt>
      <trkpt lat="42.13721" lon="2.39755">
        <ele>936</ele>
        <time>2010-01-01T03:17:49Z</time>
      </trkpt>
      <trkpt lat="42.13716" lon="2.3975">
        <ele>941</ele>
        <time>2010-01-01T03:17:51Z</time>
      </trkpt>
      <trkpt lat="42.13716" lon="2.39743">
        <ele>942</ele>
        <time>2010-01-01T03:17:53Z</time>
      </trkpt>
      <trkpt lat="42.13726" lon="2.39747">
        <ele>933</ele>
        <time>2010-01-01T03:17:58Z</time>
      </trkpt>
      <trkpt lat="42.13732" lon="2.39744">
        <ele>929</ele>
        <time>2010-01-01T03:18:00Z</time>
      </trkpt>
      <trkpt lat="42.1374" lon="2.3975">
        <ele>922</ele>
        <time>2010-01-01T03:18:04Z</time>
      </trkpt>
      <trkpt lat="42.13726" lon="2.39753">
        <ele>932</ele>
        <time>2010-01-01T03:18:09Z</time>
      </trkpt>
      <trkpt lat="42.13717" lon="2.39745">
        <ele>941</ele>
        <time>2010-01-01T03:18:14Z</time>
      </trkpt>
      <trkpt lat="42.13711" lon="2.39742">
        <ele>946</ele>
        <time>2010-01-01T03:18:16Z</time>
      </trkpt>
      <trkpt lat="42.13708" lon="2.39733">
        <ele>950</ele>
        <time>2010-01-01T03:18:19Z</time>
      </trkpt>
      <trkpt lat="42.13704" lon="2.3973">
        <ele>954</ele>
        <time>2010-01-01T03:18:21Z</time>
      </trkpt>
      <trkpt lat="42.13698" lon="2.3973">
        <ele>958</ele>
        <time>2010-01-01T03:18:24Z</time>
      </trkpt>
      <trkpt lat="42.13682" lon="2.39736">
        <ele>967</ele>
        <time>2010-01-01T03:18:30Z</time>
      </trkpt>
      <trkpt lat="42.13678" lon="2.39723">
        <ele>971</ele>
        <time>2010-01-01T03:18:34Z</time>
      </trkpt>
      <trkpt lat="42.13668" lon="2.3971">
        <ele>977</ele>
        <time>2010-01-01T03:18:40Z</time>
      </trkpt>
      <trkpt lat="42.13668" lon="2.39704">
        <ele>977</ele>
        <time>2010-01-01T03:18:42Z</time>
      </trkpt>
      <trkpt lat="42.13673" lon="2.39702">
        <ele>974</ele>
        <time>2010-01-01T03:18:44Z</time>
      </trkpt>
      <trkpt lat="42.13675" lon="2.39695">
        <ele>974</ele>
        <time>2010-01-01T03:18:46Z</time>
      </trkpt>
      <trkpt lat="42.13679" lon="2.39694">
        <ele>971</ele>
        <time>2010-01-01T03:18:48Z</time>
      </trkpt>
      <trkpt lat="42.13684" lon="2.39693">
        <ele>969</ele>
        <time>2010-01-01T03:18:50Z</time>
      </trkpt>
      <trkpt lat="42.13688" lon="2.39696">
        <ele>967</ele>
        <time>2010-01-01T03:18:52Z</time>
      </trkpt>
      <trkpt lat="42.13693" lon="2.397">
        <ele>964</ele>
        <time>2010-01-01T03:18:54Z</time>
      </trkpt>
      <trkpt lat="42.13696" lon="2.39705">
        <ele>962</ele>
        <time>2010-01-01T03:18:56Z</time>
      </trkpt>
      <trkpt lat="42.137" lon="2.39704">
        <ele>959</ele>
        <time>2010-01-01T03:18:58Z</time>
      </trkpt>
      <trkpt lat="42.13696" lon="2.39701">
        <ele>962</ele>
        <time>2010-01-01T03:19:00Z</time>
      </trkpt>
      <trkpt lat="42.13694" lon="2.39695">
        <ele>964</ele>
        <time>2010-01-01T03:19:02Z</time>
      </trkpt>
      <trkpt lat="42.13684" lon="2.39693">
        <ele>969</ele>
        <time>2010-01-01T03:19:06Z</time>
      </trkpt>
      <trkpt lat="42.13688" lon="2.39697">
        <ele>967</ele>
        <time>2010-01-01T03:19:07Z</time>
      </trkpt>
      <trkpt lat="42.13693" lon="2.39694">
        <ele>964</ele>
        <time>2010-01-01T03:19:10Z</time>
      </trkpt>
      <trkpt lat="42.13696" lon="2.39689">
        <ele>962</ele>
        <time>2010-01-01T03:19:12Z</time>
      </trkpt>
      <trkpt lat="42.13694" lon="2.39681">
        <ele>962</ele>
        <time>2010-01-01T03:19:14Z</time>
      </trkpt>
      <trkpt lat="42.13691" lon="2.39677">
        <ele>963</ele>
        <time>2010-01-01T03:19:16Z</time>
      </trkpt>
      <trkpt lat="42.13692" lon="2.39683">
        <ele>964</ele>
        <time>2010-01-01T03:19:18Z</time>
      </trkpt>
      <trkpt lat="42.13689" lon="2.39689">
        <ele>966</ele>
        <time>2010-01-01T03:19:20Z</time>
      </trkpt>
      <trkpt lat="42.13688" lon="2.39697">
        <ele>967</ele>
        <time>2010-01-01T03:19:22Z</time>
      </trkpt>
      <trkpt lat="42.13691" lon="2.39702">
        <ele>965</ele>
        <time>2010-01-01T03:19:24Z</time>
      </trkpt>
      <trkpt lat="42.13688" lon="2.39713">
        <ele>966</ele>
        <time>2010-01-01T03:19:28Z</time>
      </trkpt>
      <trkpt lat="42.13688" lon="2.3972">
        <ele>966</ele>
        <time>2010-01-01T03:19:30Z</time>
      </trkpt>
      <trkpt lat="42.13683" lon="2.39721">
        <ele>969</ele>
        <time>2010-01-01T03:19:32Z</time>
      </trkpt>
      <trkpt lat="42.13677" lon="2.39733">
        <ele>970</ele>
        <time>2010-01-01T03:19:36Z</time>
      </trkpt>
      <trkpt lat="42.13665" lon="2.39742">
        <ele>976</ele>
        <time>2010-01-01T03:19:42Z</time>
      </trkpt>
      <trkpt lat="42.13657" lon="2.39753">
        <ele>979</ele>
        <time>2010-01-01T03:19:46Z</time>
      </trkpt>
      <trkpt lat="42.13652" lon="2.39756">
        <ele>981</ele>
        <time>2010-01-01T03:19:48Z</time>
      </trkpt>
      <trkpt lat="42.1365" lon="2.39743">
        <ele>984</ele>
        <time>2010-01-01T03:19:52Z</time>
      </trkpt>
      <trkpt lat="42.13653" lon="2.39738">
        <ele>982</ele>
        <time>2010-01-01T03:19:54Z</time>
      </trkpt>
      <trkpt lat="42.13649" lon="2.3972">
        <ele>985</ele>
        <time>2010-01-01T03:20:00Z</time>
      </trkpt>
      <trkpt lat="42.13645" lon="2.39724">
        <ele>987</ele>
        <time>2010-01-01T03:20:02Z</time>
      </trkpt>
      <trkpt lat="42.13641" lon="2.39723">
        <ele>989</ele>
        <time>2010-01-01T03:20:03Z</time>
      </trkpt>
      <trkpt lat="42.13631" lon="2.39729">
        <ele>996</ele>
        <time>2010-01-01T03:20:08Z</time>
      </trkpt>
      <trkpt lat="42.13631" lon="2.39722">
        <ele>996</ele>
        <time>2010-01-01T03:20:10Z</time>
      </trkpt>
      <trkpt lat="42.13627" lon="2.39717">
        <ele>999</ele>
        <time>2010-01-01T03:20:12Z</time>
      </trkpt>
      <trkpt lat="42.13618" lon="2.39716">
        <ele>1006</ele>
        <time>2010-01-01T03:20:16Z</time>
      </trkpt>
      <trkpt lat="42.1362" lon="2.39721">
        <ele>1005</ele>
        <time>2010-01-01T03:20:18Z</time>
      </trkpt>
      <trkpt lat="42.13622" lon="2.39708">
        <ele>1002</ele>
        <time>2010-01-01T03:20:21Z</time>
      </trkpt>
      <trkpt lat="42.13602" lon="2.39676">
        <ele>1009</ele>
        <time>2010-01-01T03:20:34Z</time>
      </trkpt>
      <trkpt lat="42.13606" lon="2.39673">
        <ele>1006</ele>
        <time>2010-01-01T03:20:36Z</time>
      </trkpt>
      <trkpt lat="42.13605" lon="2.39665">
        <ele>1005</ele>
        <time>2010-01-01T03:20:38Z</time>
      </trkpt>
      <trkpt lat="42.13612" lon="2.39654">
        <ele>999</ele>
        <time>2010-01-01T03:20:42Z</time>
      </trkpt>
      <trkpt lat="42.13598" lon="2.39647">
        <ele>1007</ele>
        <time>2010-01-01T03:20:48Z</time>
      </trkpt>
      <trkpt lat="42.13583" lon="2.39635">
        <ele>1016</ele>
        <time>2010-01-01T03:20:55Z</time>
      </trkpt>
      <trkpt lat="42.13579" lon="2.39633">
        <ele>1018</ele>
        <time>2010-01-01T03:20:57Z</time>
      </trkpt>
      <trkpt lat="42.13571" lon="2.39633">
        <ele>1022</ele>
        <time>2010-01-01T03:21:00Z</time>
      </trkpt>
      <trkpt lat="42.13527" lon="2.39617">
        <ele>1045</ele>
        <time>2010-01-01T03:21:18Z</time>
      </trkpt>
      <trkpt lat="42.135" lon="2.3956">
        <ele>1036</ele>
        <time>2010-01-01T03:21:38Z</time>
      </trkpt>
      <trkpt lat="42.1349" lon="2.39553">
        <ele>1041</ele>
        <time>2010-01-01T03:21:43Z</time>
      </trkpt>
      <trkpt lat="42.13482" lon="2.39551">
        <ele>1047</ele>
        <time>2010-01-01T03:21:46Z</time>
      </trkpt>
      <trkpt lat="42.13477" lon="2.39552">
        <ele>1053</ele>
        <time>2010-01-01T03:21:48Z</time>
      </trkpt>
      <trkpt lat="42.13457" lon="2.39533">
        <ele>1052</ele>
        <time>2010-01-01T03:21:57Z</time>
      </trkpt>
      <trkpt lat="42.13446" lon="2.39526">
        <ele>1055</ele>
        <time>2010-01-01T03:22:03Z</time>
      </trkpt>
      <trkpt lat="42.13438" lon="2.39517">
        <ele>1063</ele>
        <time>2010-01-01T03:22:07Z</time>
      </trkpt>
      <trkpt lat="42.13437" lon="2.39503">
        <ele>1060</ele>
        <time>2010-01-01T03:22:11Z</time>
      </trkpt>
      <trkpt lat="42.13418" lon="2.39503">
        <ele>1083</ele>
        <time>2010-01-01T03:22:19Z</time>
      </trkpt>
      <trkpt lat="42.13415" lon="2.39501">
        <ele>1086</ele>
        <time>2010-01-01T03:22:20Z</time>
      </trkpt>
      <trkpt lat="42.1341" lon="2.39506">
        <ele>1093</ele>
        <time>2010-01-01T03:22:22Z</time>
      </trkpt>
      <trkpt lat="42.13403" lon="2.395">
        <ele>1098</ele>
        <time>2010-01-01T03:22:25Z</time>
      </trkpt>
      <trkpt lat="42.13399" lon="2.39498">
        <ele>1103</ele>
        <time>2010-01-01T03:22:27Z</time>
      </trkpt>
      <trkpt lat="42.13392" lon="2.39489">
        <ele>1108</ele>
        <time>2010-01-01T03:22:31Z</time>
      </trkpt>
      <trkpt lat="42.13384" lon="2.39486">
        <ele>1114</ele>
        <time>2010-01-01T03:22:34Z</time>
      </trkpt>
      <trkpt lat="42.13379" lon="2.39481">
        <ele>1119</ele>
        <time>2010-01-01T03:22:37Z</time>
      </trkpt>
      <trkpt lat="42.13376" lon="2.39481">
        <ele>1122</ele>
        <time>2010-01-01T03:22:38Z</time>
      </trkpt>
      <trkpt lat="42.13365" lon="2.39467">
        <ele>1132</ele>
        <time>2010-01-01T03:22:44Z</time>
      </trkpt>
      <trkpt lat="42.13361" lon="2.39456">
        <ele>1138</ele>
        <time>2010-01-01T03:22:48Z</time>
      </trkpt>
      <trkpt lat="42.13359" lon="2.3946">
        <ele>1139</ele>
        <time>2010-01-01T03:22:49Z</time>
      </trkpt>
      <trkpt lat="42.13359" lon="2.39466">
        <ele>1138</ele>
        <time>2010-01-01T03:22:51Z</time>
      </trkpt>
      <trkpt lat="42.13364" lon="2.39475">
        <ele>1133</ele>
        <time>2010-01-01T03:22:54Z</time>
      </trkpt>
      <trkpt lat="42.13359" lon="2.39474">
        <ele>1138</ele>
        <time>2010-01-01T03:22:56Z</time>
      </trkpt>
      <trkpt lat="42.13354" lon="2.39471">
        <ele>1141</ele>
        <time>2010-01-01T03:22:59Z</time>
      </trkpt>
      <trkpt lat="42.13352" lon="2.39472">
        <ele>1142</ele>
        <time>2010-01-01T03:22:59Z</time>
      </trkpt>
      <trkpt lat="42.13353" lon="2.39475">
        <ele>1143</ele>
        <time>2010-01-01T03:23:00Z</time>
      </trkpt>
      <trkpt lat="42.1336" lon="2.39484">
        <ele>1141</ele>
        <time>2010-01-01T03:23:05Z</time>
      </trkpt>
      <trkpt lat="42.1336" lon="2.39486">
        <ele>1142</ele>
        <time>2010-01-01T03:23:05Z</time>
      </trkpt>
      <trkpt lat="42.13358" lon="2.39486">
        <ele>1143</ele>
        <time>2010-01-01T03:23:06Z</time>
      </trkpt>
      <trkpt lat="42.13356" lon="2.39489">
        <ele>1146</ele>
        <time>2010-01-01T03:23:07Z</time>
      </trkpt>
      <trkpt lat="42.13351" lon="2.39491">
        <ele>1150</ele>
        <time>2010-01-01T03:23:09Z</time>
      </trkpt>
      <trkpt lat="42.13347" lon="2.39489">
        <ele>1153</ele>
        <time>2010-01-01T03:23:11Z</time>
      </trkpt>
      <trkpt lat="42.13344" lon="2.39483">
        <ele>1152</ele>
        <time>2010-01-01T03:23:13Z</time>
      </trkpt>
      <trkpt lat="42.13349" lon="2.39485">
        <ele>1150</ele>
        <time>2010-01-01T03:23:15Z</time>
      </trkpt>
      <trkpt lat="42.13353" lon="2.39493">
        <ele>1150</ele>
        <time>2010-01-01T03:23:18Z</time>
      </trkpt>
      <trkpt lat="42.13353" lon="2.395">
        <ele>1153</ele>
        <time>2010-01-01T03:23:21Z</time>
      </trkpt>
      <trkpt lat="42.13349" lon="2.395">
        <ele>1155</ele>
        <time>2010-01-01T03:23:22Z</time>
      </trkpt>
      <trkpt lat="42.13351" lon="2.39503">
        <ele>1156</ele>
        <time>2010-01-01T03:23:23Z</time>
      </trkpt>
      <trkpt lat="42.13356" lon="2.3951">
        <ele>1154</ele>
        <time>2010-01-01T03:23:26Z</time>
      </trkpt>
      <trkpt lat="42.13352" lon="2.39511">
        <ele>1157</ele>
        <time>2010-01-01T03:23:28Z</time>
      </trkpt>
      <trkpt lat="42.13343" lon="2.39498">
        <ele>1160</ele>
        <time>2010-01-01T03:23:33Z</time>
      </trkpt>
      <trkpt lat="42.13341" lon="2.395">
        <ele>1162</ele>
        <time>2010-01-01T03:23:34Z</time>
      </trkpt>
      <trkpt lat="42.13339" lon="2.39499">
        <ele>1163</ele>
        <time>2010-01-01T03:23:35Z</time>
      </trkpt>
      <trkpt lat="42.13338" lon="2.39505">
        <ele>1166</ele>
        <time>2010-01-01T03:23:36Z</time>
      </trkpt>
      <trkpt lat="42.13336" lon="2.39507">
        <ele>1168</ele>
        <time>2010-01-01T03:23:38Z</time>
      </trkpt>
      <trkpt lat="42.13336" lon="2.39504">
        <ele>1167</ele>
        <time>2010-01-01T03:23:39Z</time>
      </trkpt>
      <trkpt lat="42.13332" lon="2.39504">
        <ele>1170</ele>
        <time>2010-01-01T03:23:40Z</time>
      </trkpt>
      <trkpt lat="42.13329" lon="2.39503">
        <ele>1172</ele>
        <time>2010-01-01T03:23:41Z</time>
      </trkpt>
      <trkpt lat="42.13328" lon="2.39504">
        <ele>1173</ele>
        <time>2010-01-01T03:23:42Z</time>
      </trkpt>
      <trkpt lat="42.13336" lon="2.39507">
        <ele>1168</ele>
        <time>2010-01-01T03:23:45Z</time>
      </trkpt>
      <trkpt lat="42.13332" lon="2.39499">
        <ele>1168</ele>
        <time>2010-01-01T03:23:48Z</time>
      </trkpt>
      <trkpt lat="42.13327" lon="2.39493">
        <ele>1167</ele>
        <time>2010-01-01T03:23:51Z</time>
      </trkpt>
      <trkpt lat="42.13323" lon="2.39483">
        <ele>1165</ele>
        <time>2010-01-01T03:23:54Z</time>
      </trkpt>
      <trkpt lat="42.13317" lon="2.39473">
        <ele>1164</ele>
        <time>2010-01-01T03:23:58Z</time>
      </trkpt>
      <trkpt lat="42.13309" lon="2.39466">
        <ele>1169</ele>
        <time>2010-01-01T03:24:02Z</time>
      </trkpt>
      <trkpt lat="42.13303" lon="2.39468">
        <ele>1171</ele>
        <time>2010-01-01T03:24:04Z</time>
      </trkpt>
      <trkpt lat="42.13301" lon="2.3947">
        <ele>1171</ele>
        <time>2010-01-01T03:24:06Z</time>
      </trkpt>
      <trkpt lat="42.13304" lon="2.39481">
        <ele>1174</ele>
        <time>2010-01-01T03:24:09Z</time>
      </trkpt>
      <trkpt lat="42.13307" lon="2.39486">
        <ele>1174</ele>
        <time>2010-01-01T03:24:11Z</time>
      </trkpt>
      <trkpt lat="42.13309" lon="2.3947">
        <ele>1169</ele>
        <time>2010-01-01T03:24:15Z</time>
      </trkpt>
      <trkpt lat="42.13307" lon="2.39472">
        <ele>1169</ele>
        <time>2010-01-01T03:24:16Z</time>
      </trkpt>
      <trkpt lat="42.13301" lon="2.39472">
        <ele>1171</ele>
        <time>2010-01-01T03:24:18Z</time>
      </trkpt>
      <trkpt lat="42.13296" lon="2.39474">
        <ele>1172</ele>
        <time>2010-01-01T03:24:21Z</time>
      </trkpt>
      <trkpt lat="42.13295" lon="2.39476">
        <ele>1173</ele>
        <time>2010-01-01T03:24:21Z</time>
      </trkpt>
      <trkpt lat="42.13291" lon="2.39476">
        <ele>1173</ele>
        <time>2010-01-01T03:24:23Z</time>
      </trkpt>
      <trkpt lat="42.13291" lon="2.39478">
        <ele>1174</ele>
        <time>2010-01-01T03:24:23Z</time>
      </trkpt>
      <trkpt lat="42.13288" lon="2.39476">
        <ele>1173</ele>
        <time>2010-01-01T03:24:25Z</time>
      </trkpt>
      <trkpt lat="42.13286" lon="2.39472">
        <ele>1173</ele>
        <time>2010-01-01T03:24:26Z</time>
      </trkpt>
      <trkpt lat="42.13283" lon="2.3947">
        <ele>1173</ele>
        <time>2010-01-01T03:24:27Z</time>
      </trkpt>
      <trkpt lat="42.1328" lon="2.39471">
        <ele>1173</ele>
        <time>2010-01-01T03:24:29Z</time>
      </trkpt>
      <trkpt lat="42.13279" lon="2.39474">
        <ele>1174</ele>
        <time>2010-01-01T03:24:30Z</time>
      </trkpt>
      <trkpt lat="42.13281" lon="2.39478">
        <ele>1175</ele>
        <time>2010-01-01T03:24:31Z</time>
      </trkpt>
      <trkpt lat="42.13282" lon="2.39473">
        <ele>1173</ele>
        <time>2010-01-01T03:24:33Z</time>
      </trkpt>
      <trkpt lat="42.1328" lon="2.39467">
        <ele>1174</ele>
        <time>2010-01-01T03:24:35Z</time>
      </trkpt>
      <trkpt lat="42.13278" lon="2.39476">
        <ele>1174</ele>
        <time>2010-01-01T03:24:37Z</time>
      </trkpt>
      <trkpt lat="42.13279" lon="2.39483">
        <ele>1176</ele>
        <time>2010-01-01T03:24:39Z</time>
      </trkpt>
      <trkpt lat="42.13292" lon="2.39503">
        <ele>1185</ele>
        <time>2010-01-01T03:24:47Z</time>
      </trkpt>
      <trkpt lat="42.1329" lon="2.39502">
        <ele>1183</ele>
        <time>2010-01-01T03:24:48Z</time>
      </trkpt>
      <trkpt lat="42.1329" lon="2.39504">
        <ele>1188</ele>
        <time>2010-01-01T03:24:49Z</time>
      </trkpt>
      <trkpt lat="42.13286" lon="2.39499">
        <ele>1180</ele>
        <time>2010-01-01T03:24:51Z</time>
      </trkpt>
      <trkpt lat="42.13276" lon="2.39492">
        <ele>1179</ele>
        <time>2010-01-01T03:24:56Z</time>
      </trkpt>
      <trkpt lat="42.13271" lon="2.39493">
        <ele>1180</ele>
        <time>2010-01-01T03:24:58Z</time>
      </trkpt>
      <trkpt lat="42.1327" lon="2.39491">
        <ele>1179</ele>
        <time>2010-01-01T03:24:59Z</time>
      </trkpt>
      <trkpt lat="42.13266" lon="2.39491">
        <ele>1180</ele>
        <time>2010-01-01T03:25:00Z</time>
      </trkpt>
      <trkpt lat="42.13263" lon="2.39484">
        <ele>1179</ele>
        <time>2010-01-01T03:25:03Z</time>
      </trkpt>
      <trkpt lat="42.13262" lon="2.39485">
        <ele>1179</ele>
        <time>2010-01-01T03:25:03Z</time>
      </trkpt>
      <trkpt lat="42.13262" lon="2.39489">
        <ele>1180</ele>
        <time>2010-01-01T03:25:04Z</time>
      </trkpt>
      <trkpt lat="42.13273" lon="2.39497">
        <ele>1180</ele>
        <time>2010-01-01T03:25:09Z</time>
      </trkpt>
      <trkpt lat="42.13277" lon="2.39503">
        <ele>1185</ele>
        <time>2010-01-01T03:25:12Z</time>
      </trkpt>
      <trkpt lat="42.13274" lon="2.39506">
        <ele>1190</ele>
        <time>2010-01-01T03:25:13Z</time>
      </trkpt>
      <trkpt lat="42.13271" lon="2.39505">
        <ele>1189</ele>
        <time>2010-01-01T03:25:15Z</time>
      </trkpt>
      <trkpt lat="42.13265" lon="2.39495">
        <ele>1181</ele>
        <time>2010-01-01T03:25:18Z</time>
      </trkpt>
      <trkpt lat="42.1326" lon="2.39491">
        <ele>1181</ele>
        <time>2010-01-01T03:25:21Z</time>
      </trkpt>
      <trkpt lat="42.13252" lon="2.39481">
        <ele>1180</ele>
        <time>2010-01-01T03:25:25Z</time>
      </trkpt>
      <trkpt lat="42.13254" lon="2.39486">
        <ele>1181</ele>
        <time>2010-01-01T03:25:27Z</time>
      </trkpt>
      <trkpt lat="42.13258" lon="2.39491">
        <ele>1181</ele>
        <time>2010-01-01T03:25:29Z</time>
      </trkpt>
      <trkpt lat="42.13257" lon="2.39487">
        <ele>1181</ele>
        <time>2010-01-01T03:25:30Z</time>
      </trkpt>
      <trkpt lat="42.13247" lon="2.39478">
        <ele>1180</ele>
        <time>2010-01-01T03:25:35Z</time>
      </trkpt>
      <trkpt lat="42.1324" lon="2.39475">
        <ele>1180</ele>
        <time>2010-01-01T03:25:38Z</time>
      </trkpt>
      <trkpt lat="42.13235" lon="2.39486">
        <ele>1183</ele>
        <time>2010-01-01T03:25:42Z</time>
      </trkpt>
      <trkpt lat="42.13236" lon="2.39488">
        <ele>1184</ele>
        <time>2010-01-01T03:25:42Z</time>
      </trkpt>
      <trkpt lat="42.13236" lon="2.39483">
        <ele>1182</ele>
        <time>2010-01-01T03:25:44Z</time>
      </trkpt>
      <trkpt lat="42.13235" lon="2.39483">
        <ele>1182</ele>
        <time>2010-01-01T03:25:44Z</time>
      </trkpt>
      <trkpt lat="42.13233" lon="2.39488">
        <ele>1184</ele>
        <time>2010-01-01T03:25:46Z</time>
      </trkpt>
      <trkpt lat="42.13231" lon="2.39488">
        <ele>1184</ele>
        <time>2010-01-01T03:25:47Z</time>
      </trkpt>
      <trkpt lat="42.13225" lon="2.39481">
        <ele>1183</ele>
        <time>2010-01-01T03:25:50Z</time>
      </trkpt>
      <trkpt lat="42.13223" lon="2.3948">
        <ele>1183</ele>
        <time>2010-01-01T03:25:51Z</time>
      </trkpt>
      <trkpt lat="42.13218" lon="2.39476">
        <ele>1182</ele>
        <time>2010-01-01T03:25:53Z</time>
      </trkpt>
      <trkpt lat="42.13215" lon="2.3948">
        <ele>1185</ele>
        <time>2010-01-01T03:25:55Z</time>
      </trkpt>
      <trkpt lat="42.13221" lon="2.39478">
        <ele>1182</ele>
        <time>2010-01-01T03:25:57Z</time>
      </trkpt>
      <trkpt lat="42.13216" lon="2.39474">
        <ele>1182</ele>
        <time>2010-01-01T03:25:59Z</time>
      </trkpt>
      <trkpt lat="42.13224" lon="2.39466">
        <ele>1180</ele>
        <time>2010-01-01T03:26:03Z</time>
      </trkpt>
      <trkpt lat="42.13221" lon="2.39465">
        <ele>1181</ele>
        <time>2010-01-01T03:26:04Z</time>
      </trkpt>
      <trkpt lat="42.13213" lon="2.39469">
        <ele>1182</ele>
        <time>2010-01-01T03:26:08Z</time>
      </trkpt>
      <trkpt lat="42.13206" lon="2.39468">
        <ele>1184</ele>
        <time>2010-01-01T03:26:11Z</time>
      </trkpt>
      <trkpt lat="42.13204" lon="2.39471">
        <ele>1184</ele>
        <time>2010-01-01T03:26:12Z</time>
      </trkpt>
      <trkpt lat="42.13202" lon="2.39462">
        <ele>1186</ele>
        <time>2010-01-01T03:26:15Z</time>
      </trkpt>
      <trkpt lat="42.13197" lon="2.39461">
        <ele>1188</ele>
        <time>2010-01-01T03:26:17Z</time>
      </trkpt>
      <trkpt lat="42.13188" lon="2.39439">
        <ele>1197</ele>
        <time>2010-01-01T03:26:24Z</time>
      </trkpt>
      <trkpt lat="42.13194" lon="2.39432">
        <ele>1198</ele>
        <time>2010-01-01T03:26:27Z</time>
      </trkpt>
      <trkpt lat="42.13198" lon="2.39424">
        <ele>1201</ele>
        <time>2010-01-01T03:26:30Z</time>
      </trkpt>
      <trkpt lat="42.13207" lon="2.39424">
        <ele>1200</ele>
        <time>2010-01-01T03:26:34Z</time>
      </trkpt>
      <trkpt lat="42.13212" lon="2.3941">
        <ele>1207</ele>
        <time>2010-01-01T03:26:38Z</time>
      </trkpt>
      <trkpt lat="42.13215" lon="2.39409">
        <ele>1208</ele>
        <time>2010-01-01T03:26:40Z</time>
      </trkpt>
      <trkpt lat="42.13223" lon="2.39399">
        <ele>1214</ele>
        <time>2010-01-01T03:26:44Z</time>
      </trkpt>
      <trkpt lat="42.13248" lon="2.39403">
        <ele>1214</ele>
        <time>2010-01-01T03:26:54Z</time>
      </trkpt>
      <trkpt lat="42.13259" lon="2.39397">
        <ele>1214</ele>
        <time>2010-01-01T03:26:58Z</time>
      </trkpt>
      <trkpt lat="42.13264" lon="2.39396">
        <ele>1212</ele>
        <time>2010-01-01T03:27:01Z</time>
      </trkpt>
      <trkpt lat="42.13267" lon="2.39393">
        <ele>1211</ele>
        <time>2010-01-01T03:27:02Z</time>
      </trkpt>
      <trkpt lat="42.13265" lon="2.39386">
        <ele>1212</ele>
        <time>2010-01-01T03:27:04Z</time>
      </trkpt>
      <trkpt lat="42.13263" lon="2.39384">
        <ele>1214</ele>
        <time>2010-01-01T03:27:05Z</time>
      </trkpt>
      <trkpt lat="42.13267" lon="2.39379">
        <ele>1213</ele>
        <time>2010-01-01T03:27:08Z</time>
      </trkpt>
      <trkpt lat="42.13282" lon="2.39378">
        <ele>1206</ele>
        <time>2010-01-01T03:27:14Z</time>
      </trkpt>
      <trkpt lat="42.13288" lon="2.39376">
        <ele>1205</ele>
        <time>2010-01-01T03:27:16Z</time>
      </trkpt>
      <trkpt lat="42.13328" lon="2.39353">
        <ele>1200</ele>
        <time>2010-01-01T03:27:34Z</time>
      </trkpt>
      <trkpt lat="42.13332" lon="2.3935">
        <ele>1199</ele>
        <time>2010-01-01T03:27:36Z</time>
      </trkpt>
      <trkpt lat="42.13336" lon="2.39343">
        <ele>1200</ele>
        <time>2010-01-01T03:27:38Z</time>
      </trkpt>
      <trkpt lat="42.13348" lon="2.39333">
        <ele>1197</ele>
        <time>2010-01-01T03:27:44Z</time>
      </trkpt>
      <trkpt lat="42.13352" lon="2.39313">
        <ele>1204</ele>
        <time>2010-01-01T03:27:50Z</time>
      </trkpt>
      <trkpt lat="42.13355" lon="2.39306">
        <ele>1205</ele>
        <time>2010-01-01T03:27:52Z</time>
      </trkpt>
      <trkpt lat="42.13358" lon="2.39303">
        <ele>1205</ele>
        <time>2010-01-01T03:27:54Z</time>
      </trkpt>
      <trkpt lat="42.1336" lon="2.39297">
        <ele>1207</ele>
        <time>2010-01-01T03:27:56Z</time>
      </trkpt>
      <trkpt lat="42.13382" lon="2.39291">
        <ele>1201</ele>
        <time>2010-01-01T03:28:05Z</time>
      </trkpt>
      <trkpt lat="42.13393" lon="2.39286">
        <ele>1200</ele>
        <time>2010-01-01T03:28:09Z</time>
      </trkpt>
      <trkpt lat="42.13406" lon="2.39284">
        <ele>1194</ele>
        <time>2010-01-01T03:28:14Z</time>
      </trkpt>
      <trkpt lat="42.13419" lon="2.39284">
        <ele>1187</ele>
        <time>2010-01-01T03:28:20Z</time>
      </trkpt>
      <trkpt lat="42.13426" lon="2.39276">
        <ele>1189</ele>
        <time>2010-01-01T03:28:23Z</time>
      </trkpt>
      <trkpt lat="42.13436" lon="2.3927">
        <ele>1189</ele>
        <time>2010-01-01T03:28:28Z</time>
      </trkpt>
      <trkpt lat="42.13442" lon="2.39262">
        <ele>1192</ele>
        <time>2010-01-01T03:28:31Z</time>
      </trkpt>
      <trkpt lat="42.13441" lon="2.39255">
        <ele>1196</ele>
        <time>2010-01-01T03:28:33Z</time>
      </trkpt>
      <trkpt lat="42.13445" lon="2.39245">
        <ele>1201</ele>
        <time>2010-01-01T03:28:36Z</time>
      </trkpt>
      <trkpt lat="42.13458" lon="2.39237">
        <ele>1201</ele>
        <time>2010-01-01T03:28:42Z</time>
      </trkpt>
      <trkpt lat="42.13464" lon="2.39227">
        <ele>1203</ele>
        <time>2010-01-01T03:28:46Z</time>
      </trkpt>
      <trkpt lat="42.13474" lon="2.39217">
        <ele>1201</ele>
        <time>2010-01-01T03:28:51Z</time>
      </trkpt>
      <trkpt lat="42.13487" lon="2.39208">
        <ele>1191</ele>
        <time>2010-01-01T03:28:57Z</time>
      </trkpt>
      <trkpt lat="42.13503" lon="2.39194">
        <ele>1182</ele>
        <time>2010-01-01T03:29:05Z</time>
      </trkpt>
      <trkpt lat="42.13507" lon="2.39186">
        <ele>1185</ele>
        <time>2010-01-01T03:29:07Z</time>
      </trkpt>
      <trkpt lat="42.13514" lon="2.39176">
        <ele>1184</ele>
        <time>2010-01-01T03:29:12Z</time>
      </trkpt>
      <trkpt lat="42.13522" lon="2.39158">
        <ele>1188</ele>
        <time>2010-01-01T03:29:18Z</time>
      </trkpt>
      <trkpt lat="42.13522" lon="2.39148">
        <ele>1193</ele>
        <time>2010-01-01T03:29:21Z</time>
      </trkpt>
      <trkpt lat="42.13537" lon="2.39103">
        <ele>1197</ele>
        <time>2010-01-01T03:29:35Z</time>
      </trkpt>
      <trkpt lat="42.13546" lon="2.39059">
        <ele>1197</ele>
        <time>2010-01-01T03:29:49Z</time>
      </trkpt>
      <trkpt lat="42.13552" lon="2.3905">
        <ele>1195</ele>
        <time>2010-01-01T03:29:52Z</time>
      </trkpt>
      <trkpt lat="42.13556" lon="2.39039">
        <ele>1195</ele>
        <time>2010-01-01T03:29:56Z</time>
      </trkpt>
      <trkpt lat="42.13557" lon="2.39027">
        <ele>1196</ele>
        <time>2010-01-01T03:29:59Z</time>
      </trkpt>
      <trkpt lat="42.13561" lon="2.39016">
        <ele>1195</ele>
        <time>2010-01-01T03:30:03Z</time>
      </trkpt>
      <trkpt lat="42.13566" lon="2.39006">
        <ele>1193</ele>
        <time>2010-01-01T03:30:07Z</time>
      </trkpt>
      <trkpt lat="42.13576" lon="2.38992">
        <ele>1189</ele>
        <time>2010-01-01T03:30:13Z</time>
      </trkpt>
      <trkpt lat="42.13592" lon="2.38975">
        <ele>1185</ele>
        <time>2010-01-01T03:30:21Z</time>
      </trkpt>
      <trkpt lat="42.13593" lon="2.38966">
        <ele>1184</ele>
        <time>2010-01-01T03:30:23Z</time>
      </trkpt>
      <trkpt lat="42.13597" lon="2.38961">
        <ele>1183</ele>
        <time>2010-01-01T03:30:25Z</time>
      </trkpt>
      <trkpt lat="42.136" lon="2.38964">
        <ele>1182</ele>
        <time>2010-01-01T03:30:27Z</time>
      </trkpt>
      <trkpt lat="42.13597" lon="2.38965">
        <ele>1183</ele>
        <time>2010-01-01T03:30:28Z</time>
      </trkpt>
      <trkpt lat="42.13591" lon="2.38951">
        <ele>1185</ele>
        <time>2010-01-01T03:30:33Z</time>
      </trkpt>
      <trkpt lat="42.13585" lon="2.38942">
        <ele>1187</ele>
        <time>2010-01-01T03:30:37Z</time>
      </trkpt>
      <trkpt lat="42.13583" lon="2.38934">
        <ele>1187</ele>
        <time>2010-01-01T03:30:39Z</time>
      </trkpt>
      <trkpt lat="42.13578" lon="2.38932">
        <ele>1189</ele>
        <time>2010-01-01T03:30:41Z</time>
      </trkpt>
      <trkpt lat="42.13573" lon="2.38922">
        <ele>1191</ele>
        <time>2010-01-01T03:30:45Z</time>
      </trkpt>
      <trkpt lat="42.13558" lon="2.38913">
        <ele>1195</ele>
        <time>2010-01-01T03:30:51Z</time>
      </trkpt>
      <trkpt lat="42.13547" lon="2.38909">
        <ele>1200</ele>
        <time>2010-01-01T03:30:56Z</time>
      </trkpt>
      <trkpt lat="42.13526" lon="2.38896">
        <ele>1207</ele>
        <time>2010-01-01T03:31:05Z</time>
      </trkpt>
      <trkpt lat="42.13521" lon="2.38894">
        <ele>1210</ele>
        <time>2010-01-01T03:31:07Z</time>
      </trkpt>
      <trkpt lat="42.13515" lon="2.38894">
        <ele>1213</ele>
        <time>2010-01-01T03:31:10Z</time>
      </trkpt>
      <trkpt lat="42.135" lon="2.38882">
        <ele>1218</ele>
        <time>2010-01-01T03:31:17Z</time>
      </trkpt>
      <trkpt lat="42.13487" lon="2.38877">
        <ele>1222</ele>
        <time>2010-01-01T03:31:22Z</time>
      </trkpt>
      <trkpt lat="42.13479" lon="2.38877">
        <ele>1225</ele>
        <time>2010-01-01T03:31:25Z</time>
      </trkpt>
      <trkpt lat="42.13469" lon="2.38872">
        <ele>1228</ele>
        <time>2010-01-01T03:31:30Z</time>
      </trkpt>
      <trkpt lat="42.13457" lon="2.38872">
        <ele>1233</ele>
        <time>2010-01-01T03:31:35Z</time>
      </trkpt>
      <trkpt lat="42.1345" lon="2.3887">
        <ele>1235</ele>
        <time>2010-01-01T03:31:37Z</time>
      </trkpt>
      <trkpt lat="42.13447" lon="2.38873">
        <ele>1238</ele>
        <time>2010-01-01T03:31:39Z</time>
      </trkpt>
      <trkpt lat="42.13437" lon="2.38871">
        <ele>1240</ele>
        <time>2010-01-01T03:31:43Z</time>
      </trkpt>
      <trkpt lat="42.13431" lon="2.38868">
        <ele>1240</ele>
        <time>2010-01-01T03:31:45Z</time>
      </trkpt>
      <trkpt lat="42.13425" lon="2.38872">
        <ele>1244</ele>
        <time>2010-01-01T03:31:48Z</time>
      </trkpt>
      <trkpt lat="42.13421" lon="2.38873">
        <ele>1246</ele>
        <time>2010-01-01T03:31:49Z</time>
      </trkpt>
      <trkpt lat="42.13409" lon="2.3887">
        <ele>1247</ele>
        <time>2010-01-01T03:31:54Z</time>
      </trkpt>
      <trkpt lat="42.13405" lon="2.38875">
        <ele>1252</ele>
        <time>2010-01-01T03:31:57Z</time>
      </trkpt>
      <trkpt lat="42.13391" lon="2.38874">
        <ele>1256</ele>
        <time>2010-01-01T03:32:02Z</time>
      </trkpt>
      <trkpt lat="42.13389" lon="2.38876">
        <ele>1257</ele>
        <time>2010-01-01T03:32:03Z</time>
      </trkpt>
      <trkpt lat="42.13389" lon="2.38878">
        <ele>1259</ele>
        <time>2010-01-01T03:32:04Z</time>
      </trkpt>
      <trkpt lat="42.13391" lon="2.38877">
        <ele>1258</ele>
        <time>2010-01-01T03:32:05Z</time>
      </trkpt>
      <trkpt lat="42.13386" lon="2.38879">
        <ele>1261</ele>
        <time>2010-01-01T03:32:07Z</time>
      </trkpt>
      <trkpt lat="42.1338" lon="2.38878">
        <ele>1263</ele>
        <time>2010-01-01T03:32:09Z</time>
      </trkpt>
      <trkpt lat="42.13379" lon="2.38885">
        <ele>1269</ele>
        <time>2010-01-01T03:32:11Z</time>
      </trkpt>
      <trkpt lat="42.13388" lon="2.38889">
        <ele>1266</ele>
        <time>2010-01-01T03:32:15Z</time>
      </trkpt>
      <trkpt lat="42.13388" lon="2.38894">
        <ele>1270</ele>
        <time>2010-01-01T03:32:17Z</time>
      </trkpt>
      <trkpt lat="42.13384" lon="2.38894">
        <ele>1272</ele>
        <time>2010-01-01T03:32:18Z</time>
      </trkpt>
      <trkpt lat="42.13384" lon="2.38902">
        <ele>1277</ele>
        <time>2010-01-01T03:32:20Z</time>
      </trkpt>
      <trkpt lat="42.13388" lon="2.38911">
        <ele>1281</ele>
        <time>2010-01-01T03:32:23Z</time>
      </trkpt>
      <trkpt lat="42.13392" lon="2.38912">
        <ele>1280</ele>
        <time>2010-01-01T03:32:25Z</time>
      </trkpt>
      <trkpt lat="42.13408" lon="2.38924">
        <ele>1278</ele>
        <time>2010-01-01T03:32:32Z</time>
      </trkpt>
      <trkpt lat="42.13406" lon="2.38934">
        <ele>1284</ele>
        <time>2010-01-01T03:32:36Z</time>
      </trkpt>
      <trkpt lat="42.13407" lon="2.38936">
        <ele>1284</ele>
        <time>2010-01-01T03:32:36Z</time>
      </trkpt>
      <trkpt lat="42.1341" lon="2.38935">
        <ele>1281</ele>
        <time>2010-01-01T03:32:38Z</time>
      </trkpt>
      <trkpt lat="42.13407" lon="2.38942">
        <ele>1287</ele>
        <time>2010-01-01T03:32:40Z</time>
      </trkpt>
      <trkpt lat="42.13408" lon="2.38944">
        <ele>1287</ele>
        <time>2010-01-01T03:32:41Z</time>
      </trkpt>
      <trkpt lat="42.13417" lon="2.38943">
        <ele>1281</ele>
        <time>2010-01-01T03:32:45Z</time>
      </trkpt>
      <trkpt lat="42.13418" lon="2.38946">
        <ele>1282</ele>
        <time>2010-01-01T03:32:46Z</time>
      </trkpt>
      <trkpt lat="42.13424" lon="2.38946">
        <ele>1278</ele>
        <time>2010-01-01T03:32:48Z</time>
      </trkpt>
      <trkpt lat="42.13427" lon="2.38947">
        <ele>1277</ele>
        <time>2010-01-01T03:32:50Z</time>
      </trkpt>
      <trkpt lat="42.13427" lon="2.38952">
        <ele>1278</ele>
        <time>2010-01-01T03:32:51Z</time>
      </trkpt>
      <trkpt lat="42.13425" lon="2.38954">
        <ele>1280</ele>
        <time>2010-01-01T03:32:52Z</time>
      </trkpt>
      <trkpt lat="42.13422" lon="2.38965">
        <ele>1284</ele>
        <time>2010-01-01T03:32:56Z</time>
      </trkpt>
      <trkpt lat="42.1342" lon="2.38973">
        <ele>1287</ele>
        <time>2010-01-01T03:32:58Z</time>
      </trkpt>
      <trkpt lat="42.13417" lon="2.38978">
        <ele>1290</ele>
        <time>2010-01-01T03:33:00Z</time>
      </trkpt>
      <trkpt lat="42.13407" lon="2.38985">
        <ele>1298</ele>
        <time>2010-01-01T03:33:05Z</time>
      </trkpt>
      <trkpt lat="42.13397" lon="2.38988">
        <ele>1304</ele>
        <time>2010-01-01T03:33:09Z</time>
      </trkpt>
      <trkpt lat="42.13389" lon="2.38985">
        <ele>1309</ele>
        <time>2010-01-01T03:33:12Z</time>
      </trkpt>
      <trkpt lat="42.13376" lon="2.38991">
        <ele>1313</ele>
        <time>2010-01-01T03:33:17Z</time>
      </trkpt>
      <trkpt lat="42.13371" lon="2.38995">
        <ele>1315</ele>
        <time>2010-01-01T03:33:20Z</time>
      </trkpt>
      <trkpt lat="42.13365" lon="2.38993">
        <ele>1318</ele>
        <time>2010-01-01T03:33:22Z</time>
      </trkpt>
      <trkpt lat="42.1336" lon="2.38994">
        <ele>1320</ele>
        <time>2010-01-01T03:33:24Z</time>
      </trkpt>
      <trkpt lat="42.13344" lon="2.38988">
        <ele>1327</ele>
        <time>2010-01-01T03:33:31Z</time>
      </trkpt>
      <trkpt lat="42.13331" lon="2.38975">
        <ele>1330</ele>
        <time>2010-01-01T03:33:37Z</time>
      </trkpt>
      <trkpt lat="42.13326" lon="2.38975">
        <ele>1333</ele>
        <time>2010-01-01T03:33:39Z</time>
      </trkpt>
      <trkpt lat="42.13323" lon="2.38976">
        <ele>1336</ele>
        <time>2010-01-01T03:33:41Z</time>
      </trkpt>
      <trkpt lat="42.13317" lon="2.38969">
        <ele>1338</ele>
        <time>2010-01-01T03:33:44Z</time>
      </trkpt>
      <trkpt lat="42.1331" lon="2.38964">
        <ele>1341</ele>
        <time>2010-01-01T03:33:47Z</time>
      </trkpt>
      <trkpt lat="42.13303" lon="2.38955">
        <ele>1341</ele>
        <time>2010-01-01T03:33:51Z</time>
      </trkpt>
      <trkpt lat="42.13297" lon="2.38957">
        <ele>1345</ele>
        <time>2010-01-01T03:33:53Z</time>
      </trkpt>
      <trkpt lat="42.13294" lon="2.38962">
        <ele>1350</ele>
        <time>2010-01-01T03:33:55Z</time>
      </trkpt>
      <trkpt lat="42.13291" lon="2.38961">
        <ele>1351</ele>
        <time>2010-01-01T03:33:56Z</time>
      </trkpt>
      <trkpt lat="42.13288" lon="2.38964">
        <ele>1354</ele>
        <time>2010-01-01T03:33:58Z</time>
      </trkpt>
      <trkpt lat="42.13284" lon="2.38963">
        <ele>1356</ele>
        <time>2010-01-01T03:34:00Z</time>
      </trkpt>
      <trkpt lat="42.13282" lon="2.38965">
        <ele>1358</ele>
        <time>2010-01-01T03:34:01Z</time>
      </trkpt>
      <trkpt lat="42.13278" lon="2.38965">
        <ele>1361</ele>
        <time>2010-01-01T03:34:02Z</time>
      </trkpt>
      <trkpt lat="42.13275" lon="2.38967">
        <ele>1363</ele>
        <time>2010-01-01T03:34:04Z</time>
      </trkpt>
      <trkpt lat="42.13273" lon="2.38973">
        <ele>1367</ele>
        <time>2010-01-01T03:34:06Z</time>
      </trkpt>
      <trkpt lat="42.13273" lon="2.38988">
        <ele>1372</ele>
        <time>2010-01-01T03:34:10Z</time>
      </trkpt>
      <trkpt lat="42.13271" lon="2.38994">
        <ele>1375</ele>
        <time>2010-01-01T03:34:12Z</time>
      </trkpt>
      <trkpt lat="42.1327" lon="2.38997">
        <ele>1377</ele>
        <time>2010-01-01T03:34:13Z</time>
      </trkpt>
      <trkpt lat="42.13266" lon="2.39001">
        <ele>1379</ele>
        <time>2010-01-01T03:34:15Z</time>
      </trkpt>
      <trkpt lat="42.13263" lon="2.38999">
        <ele>1380</ele>
        <time>2010-01-01T03:34:16Z</time>
      </trkpt>
      <trkpt lat="42.1325" lon="2.38999">
        <ele>1385</ele>
        <time>2010-01-01T03:34:21Z</time>
      </trkpt>
      <trkpt lat="42.13245" lon="2.39004">
        <ele>1387</ele>
        <time>2010-01-01T03:34:24Z</time>
      </trkpt>
      <trkpt lat="42.13239" lon="2.39006">
        <ele>1389</ele>
        <time>2010-01-01T03:34:26Z</time>
      </trkpt>
      <trkpt lat="42.13235" lon="2.39006">
        <ele>1390</ele>
        <time>2010-01-01T03:34:28Z</time>
      </trkpt>
      <trkpt lat="42.13231" lon="2.39008">
        <ele>1392</ele>
        <time>2010-01-01T03:34:30Z</time>
      </trkpt>
      <trkpt lat="42.1322" lon="2.39008">
        <ele>1395</ele>
        <time>2010-01-01T03:34:34Z</time>
      </trkpt>
      <trkpt lat="42.13217" lon="2.39012">
        <ele>1396</ele>
        <time>2010-01-01T03:34:36Z</time>
      </trkpt>
      <trkpt lat="42.13207" lon="2.39013">
        <ele>1399</ele>
        <time>2010-01-01T03:34:40Z</time>
      </trkpt>
      <trkpt lat="42.13196" lon="2.39019">
        <ele>1403</ele>
        <time>2010-01-01T03:34:44Z</time>
      </trkpt>
      <trkpt lat="42.13185" lon="2.39036">
        <ele>1404</ele>
        <time>2010-01-01T03:34:51Z</time>
      </trkpt>
      <trkpt lat="42.13186" lon="2.3905">
        <ele>1401</ele>
        <time>2010-01-01T03:34:55Z</time>
      </trkpt>
      <trkpt lat="42.13188" lon="2.39059">
        <ele>1398</ele>
        <time>2010-01-01T03:34:58Z</time>
      </trkpt>
      <trkpt lat="42.13176" lon="2.39062">
        <ele>1402</ele>
        <time>2010-01-01T03:35:03Z</time>
      </trkpt>
      <trkpt lat="42.13165" lon="2.39069">
        <ele>1403</ele>
        <time>2010-01-01T03:35:08Z</time>
      </trkpt>
      <trkpt lat="42.13177" lon="2.39057">
        <ele>1403</ele>
        <time>2010-01-01T03:35:14Z</time>
      </trkpt>
      <trkpt lat="42.13179" lon="2.3905">
        <ele>1403</ele>
        <time>2010-01-01T03:35:16Z</time>
      </trkpt>
      <trkpt lat="42.13174" lon="2.3905">
        <ele>1405</ele>
        <time>2010-01-01T03:35:18Z</time>
      </trkpt>
      <trkpt lat="42.13156" lon="2.39057">
        <ele>1412</ele>
        <time>2010-01-01T03:35:26Z</time>
      </trkpt>
      <trkpt lat="42.13153" lon="2.39052">
        <ele>1414</ele>
        <time>2010-01-01T03:35:28Z</time>
      </trkpt>
      <trkpt lat="42.13134" lon="2.39042">
        <ele>1424</ele>
        <time>2010-01-01T03:35:36Z</time>
      </trkpt>
      <trkpt lat="42.13129" lon="2.39043">
        <ele>1426</ele>
        <time>2010-01-01T03:35:38Z</time>
      </trkpt>
      <trkpt lat="42.13125" lon="2.39041">
        <ele>1428</ele>
        <time>2010-01-01T03:35:40Z</time>
      </trkpt>
      <trkpt lat="42.13115" lon="2.39044">
        <ele>1431</ele>
        <time>2010-01-01T03:35:44Z</time>
      </trkpt>
      <trkpt lat="42.13107" lon="2.39049">
        <ele>1435</ele>
        <time>2010-01-01T03:35:47Z</time>
      </trkpt>
      <trkpt lat="42.13096" lon="2.39047">
        <ele>1439</ele>
        <time>2010-01-01T03:35:52Z</time>
      </trkpt>
      <trkpt lat="42.13085" lon="2.39054">
        <ele>1444</ele>
        <time>2010-01-01T03:35:56Z</time>
      </trkpt>
      <trkpt lat="42.13075" lon="2.39054">
        <ele>1446</ele>
        <time>2010-01-01T03:36:00Z</time>
      </trkpt>
      <trkpt lat="42.13072" lon="2.39057">
        <ele>1447</ele>
        <time>2010-01-01T03:36:02Z</time>
      </trkpt>
      <trkpt lat="42.13055" lon="2.39057">
        <ele>1451</ele>
        <time>2010-01-01T03:36:09Z</time>
      </trkpt>
      <trkpt lat="42.13035" lon="2.39061">
        <ele>1453</ele>
        <time>2010-01-01T03:36:17Z</time>
      </trkpt>
      <trkpt lat="42.13032" lon="2.39066">
        <ele>1454</ele>
        <time>2010-01-01T03:36:19Z</time>
      </trkpt>
      <trkpt lat="42.13024" lon="2.3907">
        <ele>1455</ele>
        <time>2010-01-01T03:36:22Z</time>
      </trkpt>
      <trkpt lat="42.13011" lon="2.39082">
        <ele>1457</ele>
        <time>2010-01-01T03:36:28Z</time>
      </trkpt>
      <trkpt lat="42.13006" lon="2.39092">
        <ele>1458</ele>
        <time>2010-01-01T03:36:32Z</time>
      </trkpt>
      <trkpt lat="42.12995" lon="2.39129">
        <ele>1458</ele>
        <time>2010-01-01T03:36:44Z</time>
      </trkpt>
      <trkpt lat="42.12988" lon="2.39137">
        <ele>1458</ele>
        <time>2010-01-01T03:36:48Z</time>
      </trkpt>
      <trkpt lat="42.12983" lon="2.39139">
        <ele>1458</ele>
        <time>2010-01-01T03:36:50Z</time>
      </trkpt>
      <trkpt lat="42.12979" lon="2.39136">
        <ele>1459</ele>
        <time>2010-01-01T03:36:52Z</time>
      </trkpt>
      <trkpt lat="42.12974" lon="2.39138">
        <ele>1460</ele>
        <time>2010-01-01T03:36:54Z</time>
      </trkpt>
      <trkpt lat="42.12973" lon="2.3915">
        <ele>1458</ele>
        <time>2010-01-01T03:36:57Z</time>
      </trkpt>
      <trkpt lat="42.12969" lon="2.39162">
        <ele>1455</ele>
        <time>2010-01-01T03:37:01Z</time>
      </trkpt>
      <trkpt lat="42.1297" lon="2.39175">
        <ele>1454</ele>
        <time>2010-01-01T03:37:05Z</time>
      </trkpt>
      <trkpt lat="42.1296" lon="2.39188">
        <ele>1451</ele>
        <time>2010-01-01T03:37:11Z</time>
      </trkpt>
      <trkpt lat="42.12954" lon="2.392">
        <ele>1449</ele>
        <time>2010-01-01T03:37:15Z</time>
      </trkpt>
      <trkpt lat="42.1295" lon="2.39202">
        <ele>1449</ele>
        <time>2010-01-01T03:37:17Z</time>
      </trkpt>
      <trkpt lat="42.12947" lon="2.39208">
        <ele>1448</ele>
        <time>2010-01-01T03:37:19Z</time>
      </trkpt>
      <trkpt lat="42.12944" lon="2.39221">
        <ele>1448</ele>
        <time>2010-01-01T03:37:23Z</time>
      </trkpt>
      <trkpt lat="42.12937" lon="2.39229">
        <ele>1447</ele>
        <time>2010-01-01T03:37:27Z</time>
      </trkpt>
      <trkpt lat="42.12929" lon="2.39236">
        <ele>1446</ele>
        <time>2010-01-01T03:37:30Z</time>
      </trkpt>
      <trkpt lat="42.12926" lon="2.39241">
        <ele>1447</ele>
        <time>2010-01-01T03:37:32Z</time>
      </trkpt>
      <trkpt lat="42.12921" lon="2.39258">
        <ele>1449</ele>
        <time>2010-01-01T03:37:38Z</time>
      </trkpt>
      <trkpt lat="42.12932" lon="2.39244">
        <ele>1447</ele>
        <time>2010-01-01T03:37:44Z</time>
      </trkpt>
      <trkpt lat="42.12953" lon="2.39227">
        <ele>1448</ele>
        <time>2010-01-01T03:37:54Z</time>
      </trkpt>
      <trkpt lat="42.12957" lon="2.39215">
        <ele>1449</ele>
        <time>2010-01-01T03:37:58Z</time>
      </trkpt>
      <trkpt lat="42.12966" lon="2.39199">
        <ele>1452</ele>
        <time>2010-01-01T03:38:04Z</time>
      </trkpt>
      <trkpt lat="42.12974" lon="2.39191">
        <ele>1453</ele>
        <time>2010-01-01T03:38:08Z</time>
      </trkpt>
      <trkpt lat="42.12978" lon="2.39178">
        <ele>1453</ele>
        <time>2010-01-01T03:38:12Z</time>
      </trkpt>
      <trkpt lat="42.12982" lon="2.39144">
        <ele>1458</ele>
        <time>2010-01-01T03:38:22Z</time>
      </trkpt>
      <trkpt lat="42.12979" lon="2.39131">
        <ele>1461</ele>
        <time>2010-01-01T03:38:26Z</time>
      </trkpt>
      <trkpt lat="42.12954" lon="2.39107">
        <ele>1468</ele>
        <time>2010-01-01T03:38:39Z</time>
      </trkpt>
      <trkpt lat="42.12948" lon="2.39096">
        <ele>1469</ele>
        <time>2010-01-01T03:38:43Z</time>
      </trkpt>
      <trkpt lat="42.12936" lon="2.39089">
        <ele>1469</ele>
        <time>2010-01-01T03:38:48Z</time>
      </trkpt>
      <trkpt lat="42.12933" lon="2.39083">
        <ele>1469</ele>
        <time>2010-01-01T03:38:50Z</time>
      </trkpt>
      <trkpt lat="42.12926" lon="2.39075">
        <ele>1468</ele>
        <time>2010-01-01T03:38:54Z</time>
      </trkpt>
      <trkpt lat="42.12913" lon="2.39053">
        <ele>1467</ele>
        <time>2010-01-01T03:39:02Z</time>
      </trkpt>
      <trkpt lat="42.12902" lon="2.39041">
        <ele>1464</ele>
        <time>2010-01-01T03:39:08Z</time>
      </trkpt>
      <trkpt lat="42.12889" lon="2.39017">
        <ele>1464</ele>
        <time>2010-01-01T03:39:17Z</time>
      </trkpt>
      <trkpt lat="42.12874" lon="2.39009">
        <ele>1463</ele>
        <time>2010-01-01T03:39:23Z</time>
      </trkpt>
      <trkpt lat="42.12867" lon="2.39">
        <ele>1465</ele>
        <time>2010-01-01T03:39:27Z</time>
      </trkpt>
      <trkpt lat="42.12854" lon="2.38991">
        <ele>1465</ele>
        <time>2010-01-01T03:39:33Z</time>
      </trkpt>
      <trkpt lat="42.12846" lon="2.38982">
        <ele>1465</ele>
        <time>2010-01-01T03:39:37Z</time>
      </trkpt>
      <trkpt lat="42.12838" lon="2.38976">
        <ele>1465</ele>
        <time>2010-01-01T03:39:41Z</time>
      </trkpt>
      <trkpt lat="42.1283" lon="2.38966">
        <ele>1465</ele>
        <time>2010-01-01T03:39:45Z</time>
      </trkpt>
      <trkpt lat="42.12813" lon="2.38952">
        <ele>1466</ele>
        <time>2010-01-01T03:39:53Z</time>
      </trkpt>
      <trkpt lat="42.12812" lon="2.38945">
        <ele>1468</ele>
        <time>2010-01-01T03:39:55Z</time>
      </trkpt>
      <trkpt lat="42.12799" lon="2.38908">
        <ele>1468</ele>
        <time>2010-01-01T03:40:07Z</time>
      </trkpt>
      <trkpt lat="42.12791" lon="2.3889">
        <ele>1467</ele>
        <time>2010-01-01T03:40:13Z</time>
      </trkpt>
      <trkpt lat="42.12788" lon="2.38885">
        <ele>1467</ele>
        <time>2010-01-01T03:40:16Z</time>
      </trkpt>
      <trkpt lat="42.12783" lon="2.38881">
        <ele>1467</ele>
        <time>2010-01-01T03:40:18Z</time>
      </trkpt>
      <trkpt lat="42.12778" lon="2.3887">
        <ele>1468</ele>
        <time>2010-01-01T03:40:21Z</time>
      </trkpt>
      <trkpt lat="42.12757" lon="2.38851">
        <ele>1468</ele>
        <time>2010-01-01T03:40:32Z</time>
      </trkpt>
      <trkpt lat="42.12745" lon="2.38838">
        <ele>1470</ele>
        <time>2010-01-01T03:40:38Z</time>
      </trkpt>
      <trkpt lat="42.12734" lon="2.38835">
        <ele>1472</ele>
        <time>2010-01-01T03:40:42Z</time>
      </trkpt>
      <trkpt lat="42.12726" lon="2.38831">
        <ele>1473</ele>
        <time>2010-01-01T03:40:46Z</time>
      </trkpt>
      <trkpt lat="42.12717" lon="2.3883">
        <ele>1473</ele>
        <time>2010-01-01T03:40:50Z</time>
      </trkpt>
      <trkpt lat="42.12708" lon="2.38825">
        <ele>1474</ele>
        <time>2010-01-01T03:40:53Z</time>
      </trkpt>
      <trkpt lat="42.12694" lon="2.38818">
        <ele>1474</ele>
        <time>2010-01-01T03:40:59Z</time>
      </trkpt>
      <trkpt lat="42.12683" lon="2.38817">
        <ele>1475</ele>
        <time>2010-01-01T03:41:04Z</time>
      </trkpt>
      <trkpt lat="42.12679" lon="2.38815">
        <ele>1476</ele>
        <time>2010-01-01T03:41:06Z</time>
      </trkpt>
      <trkpt lat="42.12664" lon="2.38813">
        <ele>1478</ele>
        <time>2010-01-01T03:41:11Z</time>
      </trkpt>
      <trkpt lat="42.12658" lon="2.38813">
        <ele>1479</ele>
        <time>2010-01-01T03:41:14Z</time>
      </trkpt>
      <trkpt lat="42.12653" lon="2.38815">
        <ele>1479</ele>
        <time>2010-01-01T03:41:16Z</time>
      </trkpt>
      <trkpt lat="42.12648" lon="2.38812">
        <ele>1481</ele>
        <time>2010-01-01T03:41:18Z</time>
      </trkpt>
      <trkpt lat="42.12616" lon="2.38817">
        <ele>1485</ele>
        <time>2010-01-01T03:41:31Z</time>
      </trkpt>
      <trkpt lat="42.12614" lon="2.38812">
        <ele>1486</ele>
        <time>2010-01-01T03:41:33Z</time>
      </trkpt>
      <trkpt lat="42.126" lon="2.38804">
        <ele>1489</ele>
        <time>2010-01-01T03:41:39Z</time>
      </trkpt>
      <trkpt lat="42.12581" lon="2.38802">
        <ele>1492</ele>
        <time>2010-01-01T03:41:46Z</time>
      </trkpt>
      <trkpt lat="42.12577" lon="2.38806">
        <ele>1492</ele>
        <time>2010-01-01T03:41:48Z</time>
      </trkpt>
      <trkpt lat="42.12572" lon="2.38805">
        <ele>1491</ele>
        <time>2010-01-01T03:41:50Z</time>
      </trkpt>
      <trkpt lat="42.12564" lon="2.388">
        <ele>1491</ele>
        <time>2010-01-01T03:41:54Z</time>
      </trkpt>
      <trkpt lat="42.12559" lon="2.388">
        <ele>1491</ele>
        <time>2010-01-01T03:41:56Z</time>
      </trkpt>
      <trkpt lat="42.12552" lon="2.38792">
        <ele>1489</ele>
        <time>2010-01-01T03:41:59Z</time>
      </trkpt>
      <trkpt lat="42.12528" lon="2.38789">
        <ele>1472</ele>
        <time>2010-01-01T03:42:09Z</time>
      </trkpt>
      <trkpt lat="42.12523" lon="2.38793">
        <ele>1467</ele>
        <time>2010-01-01T03:42:11Z</time>
      </trkpt>
      <trkpt lat="42.12514" lon="2.38794">
        <ele>1459</ele>
        <time>2010-01-01T03:42:15Z</time>
      </trkpt>
      <trkpt lat="42.12516" lon="2.38789">
        <ele>1462</ele>
        <time>2010-01-01T03:42:17Z</time>
      </trkpt>
      <trkpt lat="42.1252" lon="2.38786">
        <ele>1466</ele>
        <time>2010-01-01T03:42:19Z</time>
      </trkpt>
      <trkpt lat="42.12524" lon="2.38774">
        <ele>1471</ele>
        <time>2010-01-01T03:42:23Z</time>
      </trkpt>
      <trkpt lat="42.12529" lon="2.38749">
        <ele>1474</ele>
        <time>2010-01-01T03:42:30Z</time>
      </trkpt>
      <trkpt lat="42.12533" lon="2.38745">
        <ele>1476</ele>
        <time>2010-01-01T03:42:32Z</time>
      </trkpt>
      <trkpt lat="42.12541" lon="2.3873">
        <ele>1478</ele>
        <time>2010-01-01T03:42:38Z</time>
      </trkpt>
      <trkpt lat="42.12548" lon="2.38705">
        <ele>1478</ele>
        <time>2010-01-01T03:42:45Z</time>
      </trkpt>
      <trkpt lat="42.12553" lon="2.38674">
        <ele>1477</ele>
        <time>2010-01-01T03:42:55Z</time>
      </trkpt>
      <trkpt lat="42.12552" lon="2.38668">
        <ele>1477</ele>
        <time>2010-01-01T03:42:57Z</time>
      </trkpt>
      <trkpt lat="42.12555" lon="2.38663">
        <ele>1477</ele>
        <time>2010-01-01T03:42:59Z</time>
      </trkpt>
      <trkpt lat="42.12553" lon="2.3865">
        <ele>1474</ele>
        <time>2010-01-01T03:43:03Z</time>
      </trkpt>
      <trkpt lat="42.12548" lon="2.38631">
        <ele>1473</ele>
        <time>2010-01-01T03:43:09Z</time>
      </trkpt>
      <trkpt lat="42.1255" lon="2.38611">
        <ele>1472</ele>
        <time>2010-01-01T03:43:14Z</time>
      </trkpt>
      <trkpt lat="42.12549" lon="2.38598">
        <ele>1472</ele>
        <time>2010-01-01T03:43:18Z</time>
      </trkpt>
      <trkpt lat="42.12545" lon="2.3861">
        <ele>1472</ele>
        <time>2010-01-01T03:43:22Z</time>
      </trkpt>
      <trkpt lat="42.12542" lon="2.38615">
        <ele>1473</ele>
        <time>2010-01-01T03:43:24Z</time>
      </trkpt>
      <trkpt lat="42.12533" lon="2.3862">
        <ele>1473</ele>
        <time>2010-01-01T03:43:28Z</time>
      </trkpt>
      <trkpt lat="42.12522" lon="2.38619">
        <ele>1474</ele>
        <time>2010-01-01T03:43:32Z</time>
      </trkpt>
      <trkpt lat="42.12507" lon="2.38614">
        <ele>1476</ele>
        <time>2010-01-01T03:43:39Z</time>
      </trkpt>
      <trkpt lat="42.12492" lon="2.38597">
        <ele>1476</ele>
        <time>2010-01-01T03:43:46Z</time>
      </trkpt>
      <trkpt lat="42.12487" lon="2.38594">
        <ele>1475</ele>
        <time>2010-01-01T03:43:49Z</time>
      </trkpt>
      <trkpt lat="42.12485" lon="2.38588">
        <ele>1474</ele>
        <time>2010-01-01T03:43:51Z</time>
      </trkpt>
      <trkpt lat="42.12473" lon="2.38575">
        <ele>1471</ele>
        <time>2010-01-01T03:43:57Z</time>
      </trkpt>
      <trkpt lat="42.12468" lon="2.38576">
        <ele>1469</ele>
        <time>2010-01-01T03:43:59Z</time>
      </trkpt>
      <trkpt lat="42.1246" lon="2.3857">
        <ele>1467</ele>
        <time>2010-01-01T03:44:03Z</time>
      </trkpt>
      <trkpt lat="42.1245" lon="2.38569">
        <ele>1464</ele>
        <time>2010-01-01T03:44:07Z</time>
      </trkpt>
      <trkpt lat="42.1244" lon="2.38566">
        <ele>1462</ele>
        <time>2010-01-01T03:44:11Z</time>
      </trkpt>
      <trkpt lat="42.12432" lon="2.38573">
        <ele>1461</ele>
        <time>2010-01-01T03:44:14Z</time>
      </trkpt>
      <trkpt lat="42.12422" lon="2.38571">
        <ele>1460</ele>
        <time>2010-01-01T03:44:18Z</time>
      </trkpt>
      <trkpt lat="42.1242" lon="2.38576">
        <ele>1459</ele>
        <time>2010-01-01T03:44:20Z</time>
      </trkpt>
      <trkpt lat="42.12423" lon="2.3858">
        <ele>1459</ele>
        <time>2010-01-01T03:44:22Z</time>
      </trkpt>
      <trkpt lat="42.12427" lon="2.38578">
        <ele>1460</ele>
        <time>2010-01-01T03:44:24Z</time>
      </trkpt>
      <trkpt lat="42.12436" lon="2.38577">
        <ele>1461</ele>
        <time>2010-01-01T03:44:28Z</time>
      </trkpt>
      <trkpt lat="42.12432" lon="2.38581">
        <ele>1460</ele>
        <time>2010-01-01T03:44:29Z</time>
      </trkpt>
      <trkpt lat="42.12435" lon="2.38575">
        <ele>1461</ele>
        <time>2010-01-01T03:44:32Z</time>
      </trkpt>
      <trkpt lat="42.12436" lon="2.38581">
        <ele>1461</ele>
        <time>2010-01-01T03:44:33Z</time>
      </trkpt>
      <trkpt lat="42.1243" lon="2.3858">
        <ele>1460</ele>
        <time>2010-01-01T03:44:36Z</time>
      </trkpt>
      <trkpt lat="42.12446" lon="2.38575">
        <ele>1463</ele>
        <time>2010-01-01T03:44:42Z</time>
      </trkpt>
      <trkpt lat="42.12464" lon="2.38561">
        <ele>1467</ele>
        <time>2010-01-01T03:44:51Z</time>
      </trkpt>
      <trkpt lat="42.12478" lon="2.38552">
        <ele>1469</ele>
        <time>2010-01-01T03:44:57Z</time>
      </trkpt>
      <trkpt lat="42.12483" lon="2.38555">
        <ele>1470</ele>
        <time>2010-01-01T03:44:59Z</time>
      </trkpt>
      <trkpt lat="42.12485" lon="2.38561">
        <ele>1471</ele>
        <time>2010-01-01T03:45:01Z</time>
      </trkpt>
      <trkpt lat="42.12499" lon="2.3858">
        <ele>1476</ele>
        <time>2010-01-01T03:45:09Z</time>
      </trkpt>
      <trkpt lat="42.12503" lon="2.38599">
        <ele>1476</ele>
        <time>2010-01-01T03:45:14Z</time>
      </trkpt>
      <trkpt lat="42.12513" lon="2.38613">
        <ele>1475</ele>
        <time>2010-01-01T03:45:20Z</time>
      </trkpt>
      <trkpt lat="42.12522" lon="2.38618">
        <ele>1474</ele>
        <time>2010-01-01T03:45:24Z</time>
      </trkpt>
      <trkpt lat="42.12532" lon="2.38618">
        <ele>1473</ele>
        <time>2010-01-01T03:45:29Z</time>
      </trkpt>
      <trkpt lat="42.12538" lon="2.38617">
        <ele>1473</ele>
        <time>2010-01-01T03:45:31Z</time>
      </trkpt>
      <trkpt lat="42.12546" lon="2.38607">
        <ele>1472</ele>
        <time>2010-01-01T03:45:35Z</time>
      </trkpt>
      <trkpt lat="42.12546" lon="2.38601">
        <ele>1472</ele>
        <time>2010-01-01T03:45:37Z</time>
      </trkpt>
      <trkpt lat="42.12544" lon="2.38595">
        <ele>1473</ele>
        <time>2010-01-01T03:45:39Z</time>
      </trkpt>
      <trkpt lat="42.1254" lon="2.38589">
        <ele>1473</ele>
        <time>2010-01-01T03:45:41Z</time>
      </trkpt>
      <trkpt lat="42.12535" lon="2.38585">
        <ele>1473</ele>
        <time>2010-01-01T03:45:43Z</time>
      </trkpt>
      <trkpt lat="42.12531" lon="2.38573">
        <ele>1473</ele>
        <time>2010-01-01T03:45:47Z</time>
      </trkpt>
      <trkpt lat="42.12531" lon="2.38559">
        <ele>1473</ele>
        <time>2010-01-01T03:45:51Z</time>
      </trkpt>
      <trkpt lat="42.12529" lon="2.38552">
        <ele>1472</ele>
        <time>2010-01-01T03:45:54Z</time>
      </trkpt>
      <trkpt lat="42.1253" lon="2.38544">
        <ele>1470</ele>
        <time>2010-01-01T03:45:56Z</time>
      </trkpt>
      <trkpt lat="42.1253" lon="2.3853">
        <ele>1467</ele>
        <time>2010-01-01T03:46:00Z</time>
      </trkpt>
      <trkpt lat="42.12533" lon="2.3851">
        <ele>1464</ele>
        <time>2010-01-01T03:46:06Z</time>
      </trkpt>
      <trkpt lat="42.12534" lon="2.38497">
        <ele>1462</ele>
        <time>2010-01-01T03:46:10Z</time>
      </trkpt>
      <trkpt lat="42.12542" lon="2.38478">
        <ele>1458</ele>
        <time>2010-01-01T03:46:17Z</time>
      </trkpt>
      <trkpt lat="42.12546" lon="2.38472">
        <ele>1457</ele>
        <time>2010-01-01T03:46:19Z</time>
      </trkpt>
      <trkpt lat="42.12547" lon="2.38464">
        <ele>1456</ele>
        <time>2010-01-01T03:46:21Z</time>
      </trkpt>
      <trkpt lat="42.12544" lon="2.38459">
        <ele>1454</ele>
        <time>2010-01-01T03:46:23Z</time>
      </trkpt>
      <trkpt lat="42.12545" lon="2.38444">
        <ele>1451</ele>
        <time>2010-01-01T03:46:28Z</time>
      </trkpt>
      <trkpt lat="42.1255" lon="2.3843">
        <ele>1450</ele>
        <time>2010-01-01T03:46:32Z</time>
      </trkpt>
      <trkpt lat="42.12556" lon="2.38418">
        <ele>1449</ele>
        <time>2010-01-01T03:46:37Z</time>
      </trkpt>
      <trkpt lat="42.1255" lon="2.38338">
        <ele>1435</ele>
        <time>2010-01-01T03:47:00Z</time>
      </trkpt>
      <trkpt lat="42.12548" lon="2.38334">
        <ele>1434</ele>
        <time>2010-01-01T03:47:02Z</time>
      </trkpt>
      <trkpt lat="42.12538" lon="2.38324">
        <ele>1431</ele>
        <time>2010-01-01T03:47:07Z</time>
      </trkpt>
      <trkpt lat="42.12535" lon="2.38318">
        <ele>1430</ele>
        <time>2010-01-01T03:47:09Z</time>
      </trkpt>
      <trkpt lat="42.12527" lon="2.38308">
        <ele>1429</ele>
        <time>2010-01-01T03:47:13Z</time>
      </trkpt>
      <trkpt lat="42.12528" lon="2.38304">
        <ele>1429</ele>
        <time>2010-01-01T03:47:15Z</time>
      </trkpt>
      <trkpt lat="42.12519" lon="2.38289">
        <ele>1425</ele>
        <time>2010-01-01T03:47:21Z</time>
      </trkpt>
      <trkpt lat="42.12502" lon="2.38274">
        <ele>1422</ele>
        <time>2010-01-01T03:47:29Z</time>
      </trkpt>
      <trkpt lat="42.12495" lon="2.38264">
        <ele>1421</ele>
        <time>2010-01-01T03:47:33Z</time>
      </trkpt>
      <trkpt lat="42.12485" lon="2.38259">
        <ele>1420</ele>
        <time>2010-01-01T03:47:37Z</time>
      </trkpt>
      <trkpt lat="42.12478" lon="2.38252">
        <ele>1419</ele>
        <time>2010-01-01T03:47:40Z</time>
      </trkpt>
      <trkpt lat="42.12463" lon="2.38233">
        <ele>1419</ele>
        <time>2010-01-01T03:47:49Z</time>
      </trkpt>
      <trkpt lat="42.12457" lon="2.38212">
        <ele>1421</ele>
        <time>2010-01-01T03:47:55Z</time>
      </trkpt>
      <trkpt lat="42.12455" lon="2.38188">
        <ele>1423</ele>
        <time>2010-01-01T03:48:03Z</time>
      </trkpt>
      <trkpt lat="42.12451" lon="2.38162">
        <ele>1424</ele>
        <time>2010-01-01T03:48:10Z</time>
      </trkpt>
      <trkpt lat="42.12452" lon="2.38158">
        <ele>1424</ele>
        <time>2010-01-01T03:48:12Z</time>
      </trkpt>
      <trkpt lat="42.12448" lon="2.38141">
        <ele>1422</ele>
        <time>2010-01-01T03:48:17Z</time>
      </trkpt>
      <trkpt lat="42.12439" lon="2.38131">
        <ele>1423</ele>
        <time>2010-01-01T03:48:21Z</time>
      </trkpt>
      <trkpt lat="42.1243" lon="2.38116">
        <ele>1424</ele>
        <time>2010-01-01T03:48:27Z</time>
      </trkpt>
      <trkpt lat="42.12425" lon="2.38085">
        <ele>1428</ele>
        <time>2010-01-01T03:48:37Z</time>
      </trkpt>
      <trkpt lat="42.12428" lon="2.38078">
        <ele>1427</ele>
        <time>2010-01-01T03:48:39Z</time>
      </trkpt>
      <trkpt lat="42.12427" lon="2.38074">
        <ele>1429</ele>
        <time>2010-01-01T03:48:40Z</time>
      </trkpt>
      <trkpt lat="42.12427" lon="2.38069">
        <ele>1429</ele>
        <time>2010-01-01T03:48:42Z</time>
      </trkpt>
      <trkpt lat="42.12433" lon="2.38055">
        <ele>1430</ele>
        <time>2010-01-01T03:48:47Z</time>
      </trkpt>
      <trkpt lat="42.12434" lon="2.38034">
        <ele>1430</ele>
        <time>2010-01-01T03:48:53Z</time>
      </trkpt>
      <trkpt lat="42.12437" lon="2.38027">
        <ele>1429</ele>
        <time>2010-01-01T03:48:55Z</time>
      </trkpt>
      <trkpt lat="42.1244" lon="2.38024">
        <ele>1428</ele>
        <time>2010-01-01T03:48:57Z</time>
      </trkpt>
      <trkpt lat="42.12444" lon="2.38018">
        <ele>1427</ele>
        <time>2010-01-01T03:48:59Z</time>
      </trkpt>
      <trkpt lat="42.12445" lon="2.38018">
        <ele>1426</ele>
        <time>2010-01-01T03:49:00Z</time>
      </trkpt>
      <trkpt lat="42.12452" lon="2.38011">
        <ele>1425</ele>
        <time>2010-01-01T03:49:03Z</time>
      </trkpt>
      <trkpt lat="42.12463" lon="2.38004">
        <ele>1423</ele>
        <time>2010-01-01T03:49:08Z</time>
      </trkpt>
      <trkpt lat="42.12473" lon="2.37995">
        <ele>1421</ele>
        <time>2010-01-01T03:49:13Z</time>
      </trkpt>
      <trkpt lat="42.12484" lon="2.37977">
        <ele>1419</ele>
        <time>2010-01-01T03:49:20Z</time>
      </trkpt>
      <trkpt lat="42.12486" lon="2.37972">
        <ele>1419</ele>
        <time>2010-01-01T03:49:21Z</time>
      </trkpt>
      <trkpt lat="42.12489" lon="2.3797">
        <ele>1419</ele>
        <time>2010-01-01T03:49:23Z</time>
      </trkpt>
      <trkpt lat="42.12489" lon="2.37963">
        <ele>1418</ele>
        <time>2010-01-01T03:49:25Z</time>
      </trkpt>
      <trkpt lat="42.12491" lon="2.37957">
        <ele>1418</ele>
        <time>2010-01-01T03:49:27Z</time>
      </trkpt>
      <trkpt lat="42.12494" lon="2.37957">
        <ele>1418</ele>
        <time>2010-01-01T03:49:28Z</time>
      </trkpt>
      <trkpt lat="42.12497" lon="2.37932">
        <ele>1417</ele>
        <time>2010-01-01T03:49:36Z</time>
      </trkpt>
      <trkpt lat="42.12496" lon="2.37915">
        <ele>1415</ele>
        <time>2010-01-01T03:49:41Z</time>
      </trkpt>
      <trkpt lat="42.12498" lon="2.37901">
        <ele>1414</ele>
        <time>2010-01-01T03:49:45Z</time>
      </trkpt>
      <trkpt lat="42.12497" lon="2.37889">
        <ele>1413</ele>
        <time>2010-01-01T03:49:49Z</time>
      </trkpt>
      <trkpt lat="42.12503" lon="2.37874">
        <ele>1411</ele>
        <time>2010-01-01T03:49:54Z</time>
      </trkpt>
      <trkpt lat="42.12521" lon="2.37848">
        <ele>1407</ele>
        <time>2010-01-01T03:50:04Z</time>
      </trkpt>
      <trkpt lat="42.12531" lon="2.37845">
        <ele>1406</ele>
        <time>2010-01-01T03:50:08Z</time>
      </trkpt>
      <trkpt lat="42.12537" lon="2.37836">
        <ele>1404</ele>
        <time>2010-01-01T03:50:12Z</time>
      </trkpt>
      <trkpt lat="42.12554" lon="2.37819">
        <ele>1398</ele>
        <time>2010-01-01T03:50:20Z</time>
      </trkpt>
      <trkpt lat="42.1256" lon="2.37815">
        <ele>1397</ele>
        <time>2010-01-01T03:50:23Z</time>
      </trkpt>
      <trkpt lat="42.12563" lon="2.37814">
        <ele>1397</ele>
        <time>2010-01-01T03:50:25Z</time>
      </trkpt>
      <trkpt lat="42.12575" lon="2.37806">
        <ele>1396</ele>
        <time>2010-01-01T03:50:30Z</time>
      </trkpt>
      <trkpt lat="42.12593" lon="2.37775">
        <ele>1393</ele>
        <time>2010-01-01T03:50:41Z</time>
      </trkpt>
      <trkpt lat="42.12597" lon="2.37764">
        <ele>1392</ele>
        <time>2010-01-01T03:50:45Z</time>
      </trkpt>
      <trkpt lat="42.12603" lon="2.37737">
        <ele>1388</ele>
        <time>2010-01-01T03:50:53Z</time>
      </trkpt>
      <trkpt lat="42.12604" lon="2.37732">
        <ele>1387</ele>
        <time>2010-01-01T03:50:55Z</time>
      </trkpt>
      <trkpt lat="42.12603" lon="2.377">
        <ele>1380</ele>
        <time>2010-01-01T03:51:05Z</time>
      </trkpt>
      <trkpt lat="42.12595" lon="2.37646">
        <ele>1368</ele>
        <time>2010-01-01T03:51:21Z</time>
      </trkpt>
      <trkpt lat="42.12595" lon="2.3761">
        <ele>1362</ele>
        <time>2010-01-01T03:51:31Z</time>
      </trkpt>
      <trkpt lat="42.126" lon="2.37565">
        <ele>1360</ele>
        <time>2010-01-01T03:51:45Z</time>
      </trkpt>
      <trkpt lat="42.12598" lon="2.37548">
        <ele>1359</ele>
        <time>2010-01-01T03:51:50Z</time>
      </trkpt>
      <trkpt lat="42.12594" lon="2.37538">
        <ele>1358</ele>
        <time>2010-01-01T03:51:54Z</time>
      </trkpt>
      <trkpt lat="42.1259" lon="2.37536">
        <ele>1357</ele>
        <time>2010-01-01T03:51:55Z</time>
      </trkpt>
      <trkpt lat="42.12562" lon="2.37534">
        <ele>1352</ele>
        <time>2010-01-01T03:52:07Z</time>
      </trkpt>
      <trkpt lat="42.12551" lon="2.37528">
        <ele>1350</ele>
        <time>2010-01-01T03:52:11Z</time>
      </trkpt>
      <trkpt lat="42.12541" lon="2.3752">
        <ele>1349</ele>
        <time>2010-01-01T03:52:16Z</time>
      </trkpt>
      <trkpt lat="42.12533" lon="2.37508">
        <ele>1347</ele>
        <time>2010-01-01T03:52:21Z</time>
      </trkpt>
      <trkpt lat="42.12517" lon="2.37501">
        <ele>1344</ele>
        <time>2010-01-01T03:52:28Z</time>
      </trkpt>
      <trkpt lat="42.12483" lon="2.3748">
        <ele>1335</ele>
        <time>2010-01-01T03:52:43Z</time>
      </trkpt>
      <trkpt lat="42.12473" lon="2.37469">
        <ele>1330</ele>
        <time>2010-01-01T03:52:48Z</time>
      </trkpt>
      <trkpt lat="42.12469" lon="2.37458">
        <ele>1328</ele>
        <time>2010-01-01T03:52:51Z</time>
      </trkpt>
      <trkpt lat="42.12464" lon="2.37428">
        <ele>1325</ele>
        <time>2010-01-01T03:53:01Z</time>
      </trkpt>
      <trkpt lat="42.12461" lon="2.37424">
        <ele>1324</ele>
        <time>2010-01-01T03:53:02Z</time>
      </trkpt>
      <trkpt lat="42.12458" lon="2.37422">
        <ele>1324</ele>
        <time>2010-01-01T03:53:04Z</time>
      </trkpt>
      <trkpt lat="42.1245" lon="2.37418">
        <ele>1322</ele>
        <time>2010-01-01T03:53:07Z</time>
      </trkpt>
      <trkpt lat="42.12446" lon="2.3742">
        <ele>1322</ele>
        <time>2010-01-01T03:53:09Z</time>
      </trkpt>
      <trkpt lat="42.12445" lon="2.37425">
        <ele>1322</ele>
        <time>2010-01-01T03:53:10Z</time>
      </trkpt>
      <trkpt lat="42.12443" lon="2.37428">
        <ele>1321</ele>
        <time>2010-01-01T03:53:12Z</time>
      </trkpt>
      <trkpt lat="42.12441" lon="2.37419">
        <ele>1321</ele>
        <time>2010-01-01T03:53:15Z</time>
      </trkpt>
      <trkpt lat="42.12436" lon="2.3741">
        <ele>1320</ele>
        <time>2010-01-01T03:53:18Z</time>
      </trkpt>
      <trkpt lat="42.12432" lon="2.37411">
        <ele>1319</ele>
        <time>2010-01-01T03:53:19Z</time>
      </trkpt>
      <trkpt lat="42.1243" lon="2.37416">
        <ele>1319</ele>
        <time>2010-01-01T03:53:21Z</time>
      </trkpt>
      <trkpt lat="42.12431" lon="2.37421">
        <ele>1319</ele>
        <time>2010-01-01T03:53:22Z</time>
      </trkpt>
      <trkpt lat="42.12427" lon="2.37411">
        <ele>1318</ele>
        <time>2010-01-01T03:53:26Z</time>
      </trkpt>
      <trkpt lat="42.12423" lon="2.3741">
        <ele>1317</ele>
        <time>2010-01-01T03:53:27Z</time>
      </trkpt>
      <trkpt lat="42.1243" lon="2.37415">
        <ele>1319</ele>
        <time>2010-01-01T03:53:30Z</time>
      </trkpt>
      <trkpt lat="42.12427" lon="2.3741">
        <ele>1318</ele>
        <time>2010-01-01T03:53:32Z</time>
      </trkpt>
      <trkpt lat="42.1242" lon="2.37407">
        <ele>1316</ele>
        <time>2010-01-01T03:53:35Z</time>
      </trkpt>
      <trkpt lat="42.12415" lon="2.37404">
        <ele>1315</ele>
        <time>2010-01-01T03:53:37Z</time>
      </trkpt>
      <trkpt lat="42.12411" lon="2.37403">
        <ele>1315</ele>
        <time>2010-01-01T03:53:39Z</time>
      </trkpt>
      <trkpt lat="42.12409" lon="2.37408">
        <ele>1315</ele>
        <time>2010-01-01T03:53:40Z</time>
      </trkpt>
      <trkpt lat="42.1241" lon="2.37414">
        <ele>1316</ele>
        <time>2010-01-01T03:53:42Z</time>
      </trkpt>
      <trkpt lat="42.1241" lon="2.37408">
        <ele>1315</ele>
        <time>2010-01-01T03:53:44Z</time>
      </trkpt>
      <trkpt lat="42.12405" lon="2.37401">
        <ele>1314</ele>
        <time>2010-01-01T03:53:47Z</time>
      </trkpt>
      <trkpt lat="42.12397" lon="2.374">
        <ele>1312</ele>
        <time>2010-01-01T03:53:50Z</time>
      </trkpt>
      <trkpt lat="42.12388" lon="2.37395">
        <ele>1309</ele>
        <time>2010-01-01T03:53:53Z</time>
      </trkpt>
      <trkpt lat="42.12385" lon="2.37396">
        <ele>1309</ele>
        <time>2010-01-01T03:53:55Z</time>
      </trkpt>
      <trkpt lat="42.12381" lon="2.37393">
        <ele>1309</ele>
        <time>2010-01-01T03:53:57Z</time>
      </trkpt>
      <trkpt lat="42.12373" lon="2.37394">
        <ele>1309</ele>
        <time>2010-01-01T03:54:00Z</time>
      </trkpt>
      <trkpt lat="42.12357" lon="2.37392">
        <ele>1308</ele>
        <time>2010-01-01T03:54:06Z</time>
      </trkpt>
      <trkpt lat="42.12353" lon="2.37389">
        <ele>1308</ele>
        <time>2010-01-01T03:54:08Z</time>
      </trkpt>
      <trkpt lat="42.12347" lon="2.37382">
        <ele>1306</ele>
        <time>2010-01-01T03:54:11Z</time>
      </trkpt>
      <trkpt lat="42.12342" lon="2.37381">
        <ele>1306</ele>
        <time>2010-01-01T03:54:13Z</time>
      </trkpt>
      <trkpt lat="42.12335" lon="2.37371">
        <ele>1303</ele>
        <time>2010-01-01T03:54:17Z</time>
      </trkpt>
      <trkpt lat="42.12331" lon="2.3737">
        <ele>1302</ele>
        <time>2010-01-01T03:54:19Z</time>
      </trkpt>
      <trkpt lat="42.12316" lon="2.37357">
        <ele>1299</ele>
        <time>2010-01-01T03:54:26Z</time>
      </trkpt>
      <trkpt lat="42.12304" lon="2.37353">
        <ele>1298</ele>
        <time>2010-01-01T03:54:31Z</time>
      </trkpt>
      <trkpt lat="42.12298" lon="2.37347">
        <ele>1297</ele>
        <time>2010-01-01T03:54:34Z</time>
      </trkpt>
      <trkpt lat="42.12284" lon="2.3734">
        <ele>1295</ele>
        <time>2010-01-01T03:54:40Z</time>
      </trkpt>
      <trkpt lat="42.1227" lon="2.37338">
        <ele>1296</ele>
        <time>2010-01-01T03:54:46Z</time>
      </trkpt>
      <trkpt lat="42.12265" lon="2.37339">
        <ele>1297</ele>
        <time>2010-01-01T03:54:48Z</time>
      </trkpt>
      <trkpt lat="42.12261" lon="2.37337">
        <ele>1296</ele>
        <time>2010-01-01T03:54:49Z</time>
      </trkpt>
      <trkpt lat="42.12257" lon="2.37337">
        <ele>1297</ele>
        <time>2010-01-01T03:54:51Z</time>
      </trkpt>
      <trkpt lat="42.12249" lon="2.3734">
        <ele>1299</ele>
        <time>2010-01-01T03:54:54Z</time>
      </trkpt>
      <trkpt lat="42.12247" lon="2.37345">
        <ele>1301</ele>
        <time>2010-01-01T03:54:56Z</time>
      </trkpt>
      <trkpt lat="42.12243" lon="2.37346">
        <ele>1302</ele>
        <time>2010-01-01T03:54:58Z</time>
      </trkpt>
      <trkpt lat="42.1224" lon="2.37343">
        <ele>1302</ele>
        <time>2010-01-01T03:54:59Z</time>
      </trkpt>
      <trkpt lat="42.12232" lon="2.37339">
        <ele>1303</ele>
        <time>2010-01-01T03:55:02Z</time>
      </trkpt>
      <trkpt lat="42.1223" lon="2.37329">
        <ele>1301</ele>
        <time>2010-01-01T03:55:06Z</time>
      </trkpt>
      <trkpt lat="42.12231" lon="2.37312">
        <ele>1299</ele>
        <time>2010-01-01T03:55:11Z</time>
      </trkpt>
      <trkpt lat="42.1223" lon="2.37307">
        <ele>1299</ele>
        <time>2010-01-01T03:55:12Z</time>
      </trkpt>
      <trkpt lat="42.12224" lon="2.37298">
        <ele>1301</ele>
        <time>2010-01-01T03:55:16Z</time>
      </trkpt>
      <trkpt lat="42.12224" lon="2.37291">
        <ele>1301</ele>
        <time>2010-01-01T03:55:18Z</time>
      </trkpt>
      <trkpt lat="42.12226" lon="2.37269">
        <ele>1301</ele>
        <time>2010-01-01T03:55:25Z</time>
      </trkpt>
      <trkpt lat="42.12233" lon="2.37262">
        <ele>1297</ele>
        <time>2010-01-01T03:55:28Z</time>
      </trkpt>
      <trkpt lat="42.12236" lon="2.37253">
        <ele>1295</ele>
        <time>2010-01-01T03:55:31Z</time>
      </trkpt>
      <trkpt lat="42.12237" lon="2.37243">
        <ele>1293</ele>
        <time>2010-01-01T03:55:34Z</time>
      </trkpt>
      <trkpt lat="42.12239" lon="2.37238">
        <ele>1291</ele>
        <time>2010-01-01T03:55:36Z</time>
      </trkpt>
      <trkpt lat="42.12238" lon="2.37222">
        <ele>1289</ele>
        <time>2010-01-01T03:55:41Z</time>
      </trkpt>
      <trkpt lat="42.12234" lon="2.37206">
        <ele>1290</ele>
        <time>2010-01-01T03:55:46Z</time>
      </trkpt>
      <trkpt lat="42.12222" lon="2.37182">
        <ele>1293</ele>
        <time>2010-01-01T03:55:54Z</time>
      </trkpt>
      <trkpt lat="42.1221" lon="2.37165">
        <ele>1298</ele>
        <time>2010-01-01T03:56:01Z</time>
      </trkpt>
      <trkpt lat="42.12203" lon="2.37159">
        <ele>1300</ele>
        <time>2010-01-01T03:56:04Z</time>
      </trkpt>
      <trkpt lat="42.12187" lon="2.37152">
        <ele>1307</ele>
        <time>2010-01-01T03:56:11Z</time>
      </trkpt>
      <trkpt lat="42.1217" lon="2.3714">
        <ele>1311</ele>
        <time>2010-01-01T03:56:19Z</time>
      </trkpt>
      <trkpt lat="42.12162" lon="2.3713">
        <ele>1307</ele>
        <time>2010-01-01T03:56:23Z</time>
      </trkpt>
      <trkpt lat="42.12154" lon="2.37125">
        <ele>1305</ele>
        <time>2010-01-01T03:56:27Z</time>
      </trkpt>
      <trkpt lat="42.12145" lon="2.37113">
        <ele>1299</ele>
        <time>2010-01-01T03:56:32Z</time>
      </trkpt>
      <trkpt lat="42.12144" lon="2.37108">
        <ele>1296</ele>
        <time>2010-01-01T03:56:33Z</time>
      </trkpt>
      <trkpt lat="42.12136" lon="2.37104">
        <ele>1295</ele>
        <time>2010-01-01T03:56:37Z</time>
      </trkpt>
      <trkpt lat="42.12133" lon="2.37108">
        <ele>1299</ele>
        <time>2010-01-01T03:56:38Z</time>
      </trkpt>
      <trkpt lat="42.12129" lon="2.37108">
        <ele>1301</ele>
        <time>2010-01-01T03:56:40Z</time>
      </trkpt>
      <trkpt lat="42.12118" lon="2.37102">
        <ele>1302</ele>
        <time>2010-01-01T03:56:45Z</time>
      </trkpt>
      <trkpt lat="42.12114" lon="2.37101">
        <ele>1303</ele>
        <time>2010-01-01T03:56:46Z</time>
      </trkpt>
      <trkpt lat="42.1211" lon="2.37099">
        <ele>1303</ele>
        <time>2010-01-01T03:56:48Z</time>
      </trkpt>
      <trkpt lat="42.12107" lon="2.37095">
        <ele>1302</ele>
        <time>2010-01-01T03:56:50Z</time>
      </trkpt>
      <trkpt lat="42.12099" lon="2.37094">
        <ele>1304</ele>
        <time>2010-01-01T03:56:53Z</time>
      </trkpt>
      <trkpt lat="42.12081" lon="2.37087">
        <ele>1307</ele>
        <time>2010-01-01T03:57:01Z</time>
      </trkpt>
      <trkpt lat="42.12073" lon="2.37086">
        <ele>1309</ele>
        <time>2010-01-01T03:57:04Z</time>
      </trkpt>
      <trkpt lat="42.12064" lon="2.37087">
        <ele>1311</ele>
        <time>2010-01-01T03:57:07Z</time>
      </trkpt>
      <trkpt lat="42.1206" lon="2.37086">
        <ele>1312</ele>
        <time>2010-01-01T03:57:09Z</time>
      </trkpt>
      <trkpt lat="42.12057" lon="2.37082">
        <ele>1311</ele>
        <time>2010-01-01T03:57:11Z</time>
      </trkpt>
      <trkpt lat="42.12044" lon="2.37077">
        <ele>1309</ele>
        <time>2010-01-01T03:57:16Z</time>
      </trkpt>
      <trkpt lat="42.12036" lon="2.37066">
        <ele>1303</ele>
        <time>2010-01-01T03:57:20Z</time>
      </trkpt>
      <trkpt lat="42.12032" lon="2.37067">
        <ele>1304</ele>
        <time>2010-01-01T03:57:22Z</time>
      </trkpt>
      <trkpt lat="42.12023" lon="2.37076">
        <ele>1306</ele>
        <time>2010-01-01T03:57:26Z</time>
      </trkpt>
      <trkpt lat="42.12019" lon="2.37076">
        <ele>1304</ele>
        <time>2010-01-01T03:57:28Z</time>
      </trkpt>
      <trkpt lat="42.12004" lon="2.37082">
        <ele>1300</ele>
        <time>2010-01-01T03:57:34Z</time>
      </trkpt>
      <trkpt lat="42.12" lon="2.37096">
        <ele>1302</ele>
        <time>2010-01-01T03:57:39Z</time>
      </trkpt>
      <trkpt lat="42.11997" lon="2.37101">
        <ele>1301</ele>
        <time>2010-01-01T03:57:41Z</time>
      </trkpt>
      <trkpt lat="42.11994" lon="2.37112">
        <ele>1303</ele>
        <time>2010-01-01T03:57:44Z</time>
      </trkpt>
      <trkpt lat="42.11986" lon="2.37115">
        <ele>1299</ele>
        <time>2010-01-01T03:57:47Z</time>
      </trkpt>
      <trkpt lat="42.11982" lon="2.37126">
        <ele>1298</ele>
        <time>2010-01-01T03:57:51Z</time>
      </trkpt>
      <trkpt lat="42.11972" lon="2.37139">
        <ele>1297</ele>
        <time>2010-01-01T03:57:57Z</time>
      </trkpt>
      <trkpt lat="42.11968" lon="2.37148">
        <ele>1298</ele>
        <time>2010-01-01T03:58:00Z</time>
      </trkpt>
      <trkpt lat="42.11964" lon="2.3715">
        <ele>1298</ele>
        <time>2010-01-01T03:58:01Z</time>
      </trkpt>
      <trkpt lat="42.11956" lon="2.37149">
        <ele>1297</ele>
        <time>2010-01-01T03:58:04Z</time>
      </trkpt>
      <trkpt lat="42.11949" lon="2.37147">
        <ele>1295</ele>
        <time>2010-01-01T03:58:08Z</time>
      </trkpt>
      <trkpt lat="42.11945" lon="2.37144">
        <ele>1294</ele>
        <time>2010-01-01T03:58:09Z</time>
      </trkpt>
      <trkpt lat="42.11933" lon="2.37145">
        <ele>1296</ele>
        <time>2010-01-01T03:58:14Z</time>
      </trkpt>
      <trkpt lat="42.11921" lon="2.37141">
        <ele>1296</ele>
        <time>2010-01-01T03:58:19Z</time>
      </trkpt>
      <trkpt lat="42.11915" lon="2.37135">
        <ele>1294</ele>
        <time>2010-01-01T03:58:22Z</time>
      </trkpt>
      <trkpt lat="42.11906" lon="2.37114">
        <ele>1283</ele>
        <time>2010-01-01T03:58:29Z</time>
      </trkpt>
      <trkpt lat="42.119" lon="2.37107">
        <ele>1280</ele>
        <time>2010-01-01T03:58:32Z</time>
      </trkpt>
      <trkpt lat="42.11896" lon="2.37105">
        <ele>1280</ele>
        <time>2010-01-01T03:58:34Z</time>
      </trkpt>
      <trkpt lat="42.11889" lon="2.371">
        <ele>1279</ele>
        <time>2010-01-01T03:58:37Z</time>
      </trkpt>
      <trkpt lat="42.11888" lon="2.37095">
        <ele>1277</ele>
        <time>2010-01-01T03:58:39Z</time>
      </trkpt>
      <trkpt lat="42.11876" lon="2.37088">
        <ele>1278</ele>
        <time>2010-01-01T03:58:44Z</time>
      </trkpt>
      <trkpt lat="42.11864" lon="2.37088">
        <ele>1282</ele>
        <time>2010-01-01T03:58:49Z</time>
      </trkpt>
      <trkpt lat="42.11861" lon="2.37086">
        <ele>1283</ele>
        <time>2010-01-01T03:58:50Z</time>
      </trkpt>
      <trkpt lat="42.11857" lon="2.37076">
        <ele>1282</ele>
        <time>2010-01-01T03:58:54Z</time>
      </trkpt>
      <trkpt lat="42.11858" lon="2.3706">
        <ele>1277</ele>
        <time>2010-01-01T03:58:58Z</time>
      </trkpt>
      <trkpt lat="42.11855" lon="2.37043">
        <ele>1274</ele>
        <time>2010-01-01T03:59:04Z</time>
      </trkpt>
      <trkpt lat="42.11842" lon="2.37023">
        <ele>1277</ele>
        <time>2010-01-01T03:59:11Z</time>
      </trkpt>
      <trkpt lat="42.1184" lon="2.37015">
        <ele>1275</ele>
        <time>2010-01-01T03:59:14Z</time>
      </trkpt>
      <trkpt lat="42.11839" lon="2.37006">
        <ele>1272</ele>
        <time>2010-01-01T03:59:17Z</time>
      </trkpt>
      <trkpt lat="42.11835" lon="2.36983">
        <ele>1267</ele>
        <time>2010-01-01T03:59:24Z</time>
      </trkpt>
      <trkpt lat="42.1183" lon="2.36975">
        <ele>1266</ele>
        <time>2010-01-01T03:59:27Z</time>
      </trkpt>
      <trkpt lat="42.11818" lon="2.36972">
        <ele>1268</ele>
        <time>2010-01-01T03:59:32Z</time>
      </trkpt>
      <trkpt lat="42.11812" lon="2.36966">
        <ele>1266</ele>
        <time>2010-01-01T03:59:35Z</time>
      </trkpt>
      <trkpt lat="42.11805" lon="2.36962">
        <ele>1266</ele>
        <time>2010-01-01T03:59:38Z</time>
      </trkpt>
      <trkpt lat="42.11801" lon="2.36963">
        <ele>1267</ele>
        <time>2010-01-01T03:59:40Z</time>
      </trkpt>
      <trkpt lat="42.11793" lon="2.36963">
        <ele>1267</ele>
        <time>2010-01-01T03:59:43Z</time>
      </trkpt>
      <trkpt lat="42.11789" lon="2.36965">
        <ele>1268</ele>
        <time>2010-01-01T03:59:44Z</time>
      </trkpt>
      <trkpt lat="42.11786" lon="2.36962">
        <ele>1267</ele>
        <time>2010-01-01T03:59:46Z</time>
      </trkpt>
      <trkpt lat="42.11778" lon="2.3696">
        <ele>1267</ele>
        <time>2010-01-01T03:59:49Z</time>
      </trkpt>
      <trkpt lat="42.11774" lon="2.36957">
        <ele>1265</ele>
        <time>2010-01-01T03:59:51Z</time>
      </trkpt>
      <trkpt lat="42.11766" lon="2.36958">
        <ele>1266</ele>
        <time>2010-01-01T03:59:54Z</time>
      </trkpt>
      <trkpt lat="42.11757" lon="2.36956">
        <ele>1265</ele>
        <time>2010-01-01T03:59:58Z</time>
      </trkpt>
      <trkpt lat="42.11755" lon="2.36952">
        <ele>1264</ele>
        <time>2010-01-01T03:59:59Z</time>
      </trkpt>
      <trkpt lat="42.11751" lon="2.36951">
        <ele>1263</ele>
        <time>2010-01-01T04:00:01Z</time>
      </trkpt>
      <trkpt lat="42.11747" lon="2.36954">
        <ele>1265</ele>
        <time>2010-01-01T04:00:03Z</time>
      </trkpt>
      <trkpt lat="42.11742" lon="2.36954">
        <ele>1264</ele>
        <time>2010-01-01T04:00:04Z</time>
      </trkpt>
      <trkpt lat="42.11736" lon="2.36947">
        <ele>1262</ele>
        <time>2010-01-01T04:00:08Z</time>
      </trkpt>
      <trkpt lat="42.11708" lon="2.36959">
        <ele>1266</ele>
        <time>2010-01-01T04:00:19Z</time>
      </trkpt>
      <trkpt lat="42.11705" lon="2.36957">
        <ele>1265</ele>
        <time>2010-01-01T04:00:21Z</time>
      </trkpt>
      <trkpt lat="42.11701" lon="2.36956">
        <ele>1264</ele>
        <time>2010-01-01T04:00:22Z</time>
      </trkpt>
      <trkpt lat="42.1168" lon="2.36958">
        <ele>1265</ele>
        <time>2010-01-01T04:00:31Z</time>
      </trkpt>
      <trkpt lat="42.11672" lon="2.36956">
        <ele>1264</ele>
        <time>2010-01-01T04:00:34Z</time>
      </trkpt>
      <trkpt lat="42.11666" lon="2.36951">
        <ele>1262</ele>
        <time>2010-01-01T04:00:37Z</time>
      </trkpt>
      <trkpt lat="42.11656" lon="2.36952">
        <ele>1264</ele>
        <time>2010-01-01T04:00:41Z</time>
      </trkpt>
      <trkpt lat="42.11652" lon="2.3695">
        <ele>1263</ele>
        <time>2010-01-01T04:00:43Z</time>
      </trkpt>
      <trkpt lat="42.11641" lon="2.36956">
        <ele>1267</ele>
        <time>2010-01-01T04:00:47Z</time>
      </trkpt>
      <trkpt lat="42.11628" lon="2.36971">
        <ele>1272</ele>
        <time>2010-01-01T04:00:54Z</time>
      </trkpt>
      <trkpt lat="42.11619" lon="2.36971">
        <ele>1272</ele>
        <time>2010-01-01T04:00:58Z</time>
      </trkpt>
      <trkpt lat="42.11616" lon="2.36974">
        <ele>1272</ele>
        <time>2010-01-01T04:00:59Z</time>
      </trkpt>
      <trkpt lat="42.11608" lon="2.36963">
        <ele>1268</ele>
        <time>2010-01-01T04:01:04Z</time>
      </trkpt>
      <trkpt lat="42.11606" lon="2.36957">
        <ele>1267</ele>
        <time>2010-01-01T04:01:06Z</time>
      </trkpt>
      <trkpt lat="42.11603" lon="2.36954">
        <ele>1266</ele>
        <time>2010-01-01T04:01:07Z</time>
      </trkpt>
      <trkpt lat="42.11593" lon="2.36935">
        <ele>1261</ele>
        <time>2010-01-01T04:01:14Z</time>
      </trkpt>
      <trkpt lat="42.11589" lon="2.3691">
        <ele>1260</ele>
        <time>2010-01-01T04:01:22Z</time>
      </trkpt>
      <trkpt lat="42.11592" lon="2.36907">
        <ele>1261</ele>
        <time>2010-01-01T04:01:23Z</time>
      </trkpt>
      <trkpt lat="42.11588" lon="2.36908">
        <ele>1261</ele>
        <time>2010-01-01T04:01:25Z</time>
      </trkpt>
      <trkpt lat="42.11585" lon="2.36906">
        <ele>1261</ele>
        <time>2010-01-01T04:01:27Z</time>
      </trkpt>
      <trkpt lat="42.11583" lon="2.369">
        <ele>1261</ele>
        <time>2010-01-01T04:01:28Z</time>
      </trkpt>
      <trkpt lat="42.1158" lon="2.36898">
        <ele>1260</ele>
        <time>2010-01-01T04:01:30Z</time>
      </trkpt>
      <trkpt lat="42.11576" lon="2.369">
        <ele>1259</ele>
        <time>2010-01-01T04:01:32Z</time>
      </trkpt>
      <trkpt lat="42.11577" lon="2.36905">
        <ele>1259</ele>
        <time>2010-01-01T04:01:33Z</time>
      </trkpt>
      <trkpt lat="42.11581" lon="2.36908">
        <ele>1260</ele>
        <time>2010-01-01T04:01:35Z</time>
      </trkpt>
      <trkpt lat="42.11585" lon="2.36916">
        <ele>1260</ele>
        <time>2010-01-01T04:01:38Z</time>
      </trkpt>
      <trkpt lat="42.11577" lon="2.3692">
        <ele>1258</ele>
        <time>2010-01-01T04:01:41Z</time>
      </trkpt>
      <trkpt lat="42.11574" lon="2.36915">
        <ele>1257</ele>
        <time>2010-01-01T04:01:43Z</time>
      </trkpt>
      <trkpt lat="42.11569" lon="2.36918">
        <ele>1255</ele>
        <time>2010-01-01T04:01:45Z</time>
      </trkpt>
      <trkpt lat="42.11567" lon="2.36924">
        <ele>1254</ele>
        <time>2010-01-01T04:01:47Z</time>
      </trkpt>
      <trkpt lat="42.11564" lon="2.36922">
        <ele>1253</ele>
        <time>2010-01-01T04:01:49Z</time>
      </trkpt>
      <trkpt lat="42.11565" lon="2.36902">
        <ele>1255</ele>
        <time>2010-01-01T04:01:55Z</time>
      </trkpt>
      <trkpt lat="42.11567" lon="2.36895">
        <ele>1257</ele>
        <time>2010-01-01T04:01:57Z</time>
      </trkpt>
      <trkpt lat="42.11565" lon="2.3689">
        <ele>1257</ele>
        <time>2010-01-01T04:01:58Z</time>
      </trkpt>
      <trkpt lat="42.11561" lon="2.36889">
        <ele>1256</ele>
        <time>2010-01-01T04:02:00Z</time>
      </trkpt>
      <trkpt lat="42.11559" lon="2.369">
        <ele>1254</ele>
        <time>2010-01-01T04:02:03Z</time>
      </trkpt>
      <trkpt lat="42.11551" lon="2.36898">
        <ele>1251</ele>
        <time>2010-01-01T04:02:06Z</time>
      </trkpt>
      <trkpt lat="42.11546" lon="2.36905">
        <ele>1248</ele>
        <time>2010-01-01T04:02:09Z</time>
      </trkpt>
      <trkpt lat="42.11542" lon="2.36906">
        <ele>1246</ele>
        <time>2010-01-01T04:02:11Z</time>
      </trkpt>
      <trkpt lat="42.11541" lon="2.36914">
        <ele>1243</ele>
        <time>2010-01-01T04:02:14Z</time>
      </trkpt>
      <trkpt lat="42.11541" lon="2.36923">
        <ele>1243</ele>
        <time>2010-01-01T04:02:16Z</time>
      </trkpt>
      <trkpt lat="42.11536" lon="2.36933">
        <ele>1241</ele>
        <time>2010-01-01T04:02:20Z</time>
      </trkpt>
      <trkpt lat="42.11511" lon="2.36949">
        <ele>1230</ele>
        <time>2010-01-01T04:02:31Z</time>
      </trkpt>
      <trkpt lat="42.11504" lon="2.36965">
        <ele>1230</ele>
        <time>2010-01-01T04:02:36Z</time>
      </trkpt>
      <trkpt lat="42.11504" lon="2.36974">
        <ele>1232</ele>
        <time>2010-01-01T04:02:39Z</time>
      </trkpt>
      <trkpt lat="42.115" lon="2.36976">
        <ele>1231</ele>
        <time>2010-01-01T04:02:41Z</time>
      </trkpt>
      <trkpt lat="42.11489" lon="2.36992">
        <ele>1229</ele>
        <time>2010-01-01T04:02:47Z</time>
      </trkpt>
      <trkpt lat="42.11484" lon="2.36993">
        <ele>1227</ele>
        <time>2010-01-01T04:02:49Z</time>
      </trkpt>
      <trkpt lat="42.11479" lon="2.36998">
        <ele>1226</ele>
        <time>2010-01-01T04:02:52Z</time>
      </trkpt>
      <trkpt lat="42.11476" lon="2.37003">
        <ele>1226</ele>
        <time>2010-01-01T04:02:54Z</time>
      </trkpt>
      <trkpt lat="42.11475" lon="2.37014">
        <ele>1229</ele>
        <time>2010-01-01T04:02:57Z</time>
      </trkpt>
      <trkpt lat="42.11471" lon="2.37023">
        <ele>1229</ele>
        <time>2010-01-01T04:03:00Z</time>
      </trkpt>
      <trkpt lat="42.1147" lon="2.3703">
        <ele>1231</ele>
        <time>2010-01-01T04:03:02Z</time>
      </trkpt>
      <trkpt lat="42.11465" lon="2.37032">
        <ele>1230</ele>
        <time>2010-01-01T04:03:04Z</time>
      </trkpt>
      <trkpt lat="42.11463" lon="2.37047">
        <ele>1234</ele>
        <time>2010-01-01T04:03:09Z</time>
      </trkpt>
      <trkpt lat="42.11456" lon="2.37066">
        <ele>1235</ele>
        <time>2010-01-01T04:03:15Z</time>
      </trkpt>
      <trkpt lat="42.11446" lon="2.37086">
        <ele>1235</ele>
        <time>2010-01-01T04:03:22Z</time>
      </trkpt>
      <trkpt lat="42.11443" lon="2.37107">
        <ele>1239</ele>
        <time>2010-01-01T04:03:28Z</time>
      </trkpt>
      <trkpt lat="42.11435" lon="2.37119">
        <ele>1240</ele>
        <time>2010-01-01T04:03:33Z</time>
      </trkpt>
      <trkpt lat="42.11431" lon="2.37122">
        <ele>1239</ele>
        <time>2010-01-01T04:03:35Z</time>
      </trkpt>
      <trkpt lat="42.11424" lon="2.37143">
        <ele>1243</ele>
        <time>2010-01-01T04:03:42Z</time>
      </trkpt>
      <trkpt lat="42.11415" lon="2.37142">
        <ele>1239</ele>
        <time>2010-01-01T04:03:45Z</time>
      </trkpt>
      <trkpt lat="42.11402" lon="2.37156">
        <ele>1242</ele>
        <time>2010-01-01T04:03:52Z</time>
      </trkpt>
      <trkpt lat="42.11386" lon="2.3716">
        <ele>1241</ele>
        <time>2010-01-01T04:03:59Z</time>
      </trkpt>
      <trkpt lat="42.11382" lon="2.37159">
        <ele>1241</ele>
        <time>2010-01-01T04:04:01Z</time>
      </trkpt>
      <trkpt lat="42.11374" lon="2.3716">
        <ele>1242</ele>
        <time>2010-01-01T04:04:04Z</time>
      </trkpt>
      <trkpt lat="42.11358" lon="2.37149">
        <ele>1236</ele>
        <time>2010-01-01T04:04:11Z</time>
      </trkpt>
      <trkpt lat="42.11346" lon="2.37155">
        <ele>1235</ele>
        <time>2010-01-01T04:04:16Z</time>
      </trkpt>
      <trkpt lat="42.11341" lon="2.37155">
        <ele>1234</ele>
        <time>2010-01-01T04:04:18Z</time>
      </trkpt>
      <trkpt lat="42.11335" lon="2.37167">
        <ele>1237</ele>
        <time>2010-01-01T04:04:22Z</time>
      </trkpt>
      <trkpt lat="42.11329" lon="2.37171">
        <ele>1237</ele>
        <time>2010-01-01T04:04:25Z</time>
      </trkpt>
      <trkpt lat="42.1132" lon="2.37183">
        <ele>1239</ele>
        <time>2010-01-01T04:04:30Z</time>
      </trkpt>
      <trkpt lat="42.11316" lon="2.37185">
        <ele>1238</ele>
        <time>2010-01-01T04:04:32Z</time>
      </trkpt>
      <trkpt lat="42.11312" lon="2.37186">
        <ele>1237</ele>
        <time>2010-01-01T04:04:33Z</time>
      </trkpt>
      <trkpt lat="42.11308" lon="2.37184">
        <ele>1235</ele>
        <time>2010-01-01T04:04:35Z</time>
      </trkpt>
      <trkpt lat="42.11303" lon="2.37185">
        <ele>1233</ele>
        <time>2010-01-01T04:04:37Z</time>
      </trkpt>
      <trkpt lat="42.11281" lon="2.37177">
        <ele>1222</ele>
        <time>2010-01-01T04:04:46Z</time>
      </trkpt>
      <trkpt lat="42.11277" lon="2.37178">
        <ele>1221</ele>
        <time>2010-01-01T04:04:48Z</time>
      </trkpt>
      <trkpt lat="42.11263" lon="2.37189">
        <ele>1216</ele>
        <time>2010-01-01T04:04:54Z</time>
      </trkpt>
      <trkpt lat="42.11262" lon="2.372">
        <ele>1217</ele>
        <time>2010-01-01T04:04:58Z</time>
      </trkpt>
      <trkpt lat="42.11263" lon="2.37211">
        <ele>1220</ele>
        <time>2010-01-01T04:05:01Z</time>
      </trkpt>
      <trkpt lat="42.11253" lon="2.37243">
        <ele>1223</ele>
        <time>2010-01-01T04:05:11Z</time>
      </trkpt>
      <trkpt lat="42.11247" lon="2.37253">
        <ele>1221</ele>
        <time>2010-01-01T04:05:15Z</time>
      </trkpt>
      <trkpt lat="42.11248" lon="2.37258">
        <ele>1223</ele>
        <time>2010-01-01T04:05:16Z</time>
      </trkpt>
      <trkpt lat="42.11245" lon="2.37269">
        <ele>1224</ele>
        <time>2010-01-01T04:05:20Z</time>
      </trkpt>
      <trkpt lat="42.11242" lon="2.37273">
        <ele>1223</ele>
        <time>2010-01-01T04:05:22Z</time>
      </trkpt>
      <trkpt lat="42.11241" lon="2.37279">
        <ele>1223</ele>
        <time>2010-01-01T04:05:24Z</time>
      </trkpt>
      <trkpt lat="42.1123" lon="2.37296">
        <ele>1219</ele>
        <time>2010-01-01T04:05:30Z</time>
      </trkpt>
      <trkpt lat="42.11225" lon="2.37307">
        <ele>1218</ele>
        <time>2010-01-01T04:05:34Z</time>
      </trkpt>
      <trkpt lat="42.11208" lon="2.37333">
        <ele>1213</ele>
        <time>2010-01-01T04:05:45Z</time>
      </trkpt>
      <trkpt lat="42.11207" lon="2.37343">
        <ele>1215</ele>
        <time>2010-01-01T04:05:48Z</time>
      </trkpt>
      <trkpt lat="42.11204" lon="2.37352">
        <ele>1216</ele>
        <time>2010-01-01T04:05:51Z</time>
      </trkpt>
      <trkpt lat="42.11205" lon="2.37364">
        <ele>1219</ele>
        <time>2010-01-01T04:05:54Z</time>
      </trkpt>
      <trkpt lat="42.112" lon="2.37391">
        <ele>1220</ele>
        <time>2010-01-01T04:06:02Z</time>
      </trkpt>
      <trkpt lat="42.11198" lon="2.37397">
        <ele>1220</ele>
        <time>2010-01-01T04:06:04Z</time>
      </trkpt>
      <trkpt lat="42.11195" lon="2.374">
        <ele>1219</ele>
        <time>2010-01-01T04:06:06Z</time>
      </trkpt>
      <trkpt lat="42.11191" lon="2.37415">
        <ele>1220</ele>
        <time>2010-01-01T04:06:10Z</time>
      </trkpt>
      <trkpt lat="42.11184" lon="2.37434">
        <ele>1222</ele>
        <time>2010-01-01T04:06:17Z</time>
      </trkpt>
      <trkpt lat="42.11174" lon="2.37456">
        <ele>1221</ele>
        <time>2010-01-01T04:06:24Z</time>
      </trkpt>
      <trkpt lat="42.11156" lon="2.37483">
        <ele>1218</ele>
        <time>2010-01-01T04:06:35Z</time>
      </trkpt>
      <trkpt lat="42.11153" lon="2.37494">
        <ele>1219</ele>
        <time>2010-01-01T04:06:39Z</time>
      </trkpt>
      <trkpt lat="42.11145" lon="2.37508">
        <ele>1217</ele>
        <time>2010-01-01T04:06:44Z</time>
      </trkpt>
      <trkpt lat="42.11133" lon="2.37523">
        <ele>1216</ele>
        <time>2010-01-01T04:06:50Z</time>
      </trkpt>
      <trkpt lat="42.1113" lon="2.37533">
        <ele>1217</ele>
        <time>2010-01-01T04:06:53Z</time>
      </trkpt>
      <trkpt lat="42.11123" lon="2.37546">
        <ele>1217</ele>
        <time>2010-01-01T04:06:58Z</time>
      </trkpt>
      <trkpt lat="42.11116" lon="2.37551">
        <ele>1217</ele>
        <time>2010-01-01T04:07:02Z</time>
      </trkpt>
      <trkpt lat="42.11111" lon="2.3755">
        <ele>1215</ele>
        <time>2010-01-01T04:07:03Z</time>
      </trkpt>
      <trkpt lat="42.11105" lon="2.37555">
        <ele>1214</ele>
        <time>2010-01-01T04:07:06Z</time>
      </trkpt>
      <trkpt lat="42.11097" lon="2.37558">
        <ele>1212</ele>
        <time>2010-01-01T04:07:10Z</time>
      </trkpt>
      <trkpt lat="42.11087" lon="2.37568">
        <ele>1210</ele>
        <time>2010-01-01T04:07:14Z</time>
      </trkpt>
      <trkpt lat="42.11077" lon="2.37574">
        <ele>1206</ele>
        <time>2010-01-01T04:07:19Z</time>
      </trkpt>
      <trkpt lat="42.11073" lon="2.37575">
        <ele>1205</ele>
        <time>2010-01-01T04:07:21Z</time>
      </trkpt>
      <trkpt lat="42.11059" lon="2.37587">
        <ele>1199</ele>
        <time>2010-01-01T04:07:27Z</time>
      </trkpt>
      <trkpt lat="42.11051" lon="2.37588">
        <ele>1195</ele>
        <time>2010-01-01T04:07:31Z</time>
      </trkpt>
      <trkpt lat="42.1104" lon="2.37596">
        <ele>1190</ele>
        <time>2010-01-01T04:07:36Z</time>
      </trkpt>
      <trkpt lat="42.11037" lon="2.376">
        <ele>1189</ele>
        <time>2010-01-01T04:07:37Z</time>
      </trkpt>
      <trkpt lat="42.11034" lon="2.37616">
        <ele>1187</ele>
        <time>2010-01-01T04:07:42Z</time>
      </trkpt>
      <trkpt lat="42.11027" lon="2.37621">
        <ele>1184</ele>
        <time>2010-01-01T04:07:45Z</time>
      </trkpt>
      <trkpt lat="42.11016" lon="2.37626">
        <ele>1180</ele>
        <time>2010-01-01T04:07:50Z</time>
      </trkpt>
      <trkpt lat="42.11005" lon="2.37634">
        <ele>1176</ele>
        <time>2010-01-01T04:07:55Z</time>
      </trkpt>
      <trkpt lat="42.10995" lon="2.37645">
        <ele>1173</ele>
        <time>2010-01-01T04:08:00Z</time>
      </trkpt>
      <trkpt lat="42.10993" lon="2.37641">
        <ele>1173</ele>
        <time>2010-01-01T04:08:02Z</time>
      </trkpt>
      <trkpt lat="42.10978" lon="2.37645">
        <ele>1167</ele>
        <time>2010-01-01T04:08:08Z</time>
      </trkpt>
      <trkpt lat="42.10974" lon="2.37645">
        <ele>1166</ele>
        <time>2010-01-01T04:08:09Z</time>
      </trkpt>
      <trkpt lat="42.10978" lon="2.37643">
        <ele>1167</ele>
        <time>2010-01-01T04:08:11Z</time>
      </trkpt>
      <trkpt lat="42.10979" lon="2.37639">
        <ele>1167</ele>
        <time>2010-01-01T04:08:12Z</time>
      </trkpt>
      <trkpt lat="42.10978" lon="2.37634">
        <ele>1166</ele>
        <time>2010-01-01T04:08:14Z</time>
      </trkpt>
      <trkpt lat="42.10971" lon="2.37629">
        <ele>1162</ele>
        <time>2010-01-01T04:08:17Z</time>
      </trkpt>
      <trkpt lat="42.10969" lon="2.37625">
        <ele>1161</ele>
        <time>2010-01-01T04:08:19Z</time>
      </trkpt>
      <trkpt lat="42.10962" lon="2.37621">
        <ele>1157</ele>
        <time>2010-01-01T04:08:22Z</time>
      </trkpt>
      <trkpt lat="42.10959" lon="2.37624">
        <ele>1157</ele>
        <time>2010-01-01T04:08:23Z</time>
      </trkpt>
      <trkpt lat="42.10938" lon="2.37625">
        <ele>1149</ele>
        <time>2010-01-01T04:08:31Z</time>
      </trkpt>
      <trkpt lat="42.10918" lon="2.37633">
        <ele>1143</ele>
        <time>2010-01-01T04:08:40Z</time>
      </trkpt>
      <trkpt lat="42.10911" lon="2.37632">
        <ele>1141</ele>
        <time>2010-01-01T04:08:43Z</time>
      </trkpt>
      <trkpt lat="42.109" lon="2.37634">
        <ele>1139</ele>
        <time>2010-01-01T04:08:47Z</time>
      </trkpt>
      <trkpt lat="42.10872" lon="2.3763">
        <ele>1135</ele>
        <time>2010-01-01T04:08:58Z</time>
      </trkpt>
      <trkpt lat="42.10864" lon="2.37633">
        <ele>1134</ele>
        <time>2010-01-01T04:09:02Z</time>
      </trkpt>
      <trkpt lat="42.1086" lon="2.37633">
        <ele>1134</ele>
        <time>2010-01-01T04:09:03Z</time>
      </trkpt>
      <trkpt lat="42.10857" lon="2.37636">
        <ele>1133</ele>
        <time>2010-01-01T04:09:05Z</time>
      </trkpt>
      <trkpt lat="42.10853" lon="2.37637">
        <ele>1133</ele>
        <time>2010-01-01T04:09:06Z</time>
      </trkpt>
      <trkpt lat="42.10847" lon="2.37642">
        <ele>1132</ele>
        <time>2010-01-01T04:09:09Z</time>
      </trkpt>
      <trkpt lat="42.10843" lon="2.37633">
        <ele>1131</ele>
        <time>2010-01-01T04:09:12Z</time>
      </trkpt>
      <trkpt lat="42.1084" lon="2.3763">
        <ele>1130</ele>
        <time>2010-01-01T04:09:14Z</time>
      </trkpt>
      <trkpt lat="42.10836" lon="2.37631">
        <ele>1130</ele>
        <time>2010-01-01T04:09:16Z</time>
      </trkpt>
      <trkpt lat="42.10831" lon="2.37639">
        <ele>1130</ele>
        <time>2010-01-01T04:09:19Z</time>
      </trkpt>
      <trkpt lat="42.10833" lon="2.37635">
        <ele>1129</ele>
        <time>2010-01-01T04:09:20Z</time>
      </trkpt>
      <trkpt lat="42.10831" lon="2.37631">
        <ele>1130</ele>
        <time>2010-01-01T04:09:22Z</time>
      </trkpt>
      <trkpt lat="42.10734" lon="2.37646">
        <ele>1150</ele>
        <time>2010-01-01T04:10:01Z</time>
      </trkpt>
      <trkpt lat="42.10723" lon="2.37643">
        <ele>1154</ele>
        <time>2010-01-01T04:10:05Z</time>
      </trkpt>
      <trkpt lat="42.10717" lon="2.37645">
        <ele>1156</ele>
        <time>2010-01-01T04:10:08Z</time>
      </trkpt>
      <trkpt lat="42.10688" lon="2.37644">
        <ele>1165</ele>
        <time>2010-01-01T04:10:19Z</time>
      </trkpt>
      <trkpt lat="42.10673" lon="2.37648">
        <ele>1169</ele>
        <time>2010-01-01T04:10:26Z</time>
      </trkpt>
      <trkpt lat="42.10647" lon="2.3765">
        <ele>1174</ele>
        <time>2010-01-01T04:10:36Z</time>
      </trkpt>
      <trkpt lat="42.10634" lon="2.37648">
        <ele>1177</ele>
        <time>2010-01-01T04:10:41Z</time>
      </trkpt>
      <trkpt lat="42.10615" lon="2.37652">
        <ele>1179</ele>
        <time>2010-01-01T04:10:49Z</time>
      </trkpt>
      <trkpt lat="42.10606" lon="2.37651">
        <ele>1181</ele>
        <time>2010-01-01T04:10:53Z</time>
      </trkpt>
      <trkpt lat="42.10593" lon="2.37653">
        <ele>1184</ele>
        <time>2010-01-01T04:10:58Z</time>
      </trkpt>
      <trkpt lat="42.1058" lon="2.37656">
        <ele>1188</ele>
        <time>2010-01-01T04:11:03Z</time>
      </trkpt>
      <trkpt lat="42.10567" lon="2.37664">
        <ele>1192</ele>
        <time>2010-01-01T04:11:09Z</time>
      </trkpt>
      <trkpt lat="42.10549" lon="2.3769">
        <ele>1196</ele>
        <time>2010-01-01T04:11:19Z</time>
      </trkpt>
      <trkpt lat="42.10524" lon="2.37717">
        <ele>1199</ele>
        <time>2010-01-01T04:11:32Z</time>
      </trkpt>
      <trkpt lat="42.10509" lon="2.37763">
        <ele>1195</ele>
        <time>2010-01-01T04:11:47Z</time>
      </trkpt>
      <trkpt lat="42.10505" lon="2.37771">
        <ele>1195</ele>
        <time>2010-01-01T04:11:50Z</time>
      </trkpt>
      <trkpt lat="42.10487" lon="2.37785">
        <ele>1192</ele>
        <time>2010-01-01T04:11:58Z</time>
      </trkpt>
      <trkpt lat="42.10474" lon="2.37793">
        <ele>1191</ele>
        <time>2010-01-01T04:12:04Z</time>
      </trkpt>
      <trkpt lat="42.10458" lon="2.37804">
        <ele>1193</ele>
        <time>2010-01-01T04:12:11Z</time>
      </trkpt>
      <trkpt lat="42.10446" lon="2.37811">
        <ele>1194</ele>
        <time>2010-01-01T04:12:16Z</time>
      </trkpt>
      <trkpt lat="42.10436" lon="2.37818">
        <ele>1196</ele>
        <time>2010-01-01T04:12:21Z</time>
      </trkpt>
      <trkpt lat="42.10409" lon="2.37822">
        <ele>1196</ele>
        <time>2010-01-01T04:12:32Z</time>
      </trkpt>
      <trkpt lat="42.10385" lon="2.3782">
        <ele>1193</ele>
        <time>2010-01-01T04:12:41Z</time>
      </trkpt>
      <trkpt lat="42.10368" lon="2.37824">
        <ele>1195</ele>
        <time>2010-01-01T04:12:48Z</time>
      </trkpt>
      <trkpt lat="42.1036" lon="2.37819">
        <ele>1193</ele>
        <time>2010-01-01T04:12:52Z</time>
      </trkpt>
      <trkpt lat="42.10336" lon="2.37812">
        <ele>1192</ele>
        <time>2010-01-01T04:13:02Z</time>
      </trkpt>
      <trkpt lat="42.10326" lon="2.37806">
        <ele>1191</ele>
        <time>2010-01-01T04:13:06Z</time>
      </trkpt>
      <trkpt lat="42.10314" lon="2.37802">
        <ele>1190</ele>
        <time>2010-01-01T04:13:11Z</time>
      </trkpt>
      <trkpt lat="42.10298" lon="2.37804">
        <ele>1190</ele>
        <time>2010-01-01T04:13:17Z</time>
      </trkpt>
      <trkpt lat="42.10286" lon="2.37803">
        <ele>1188</ele>
        <time>2010-01-01T04:13:22Z</time>
      </trkpt>
      <trkpt lat="42.10283" lon="2.37801">
        <ele>1187</ele>
        <time>2010-01-01T04:13:23Z</time>
      </trkpt>
      <trkpt lat="42.10272" lon="2.37801">
        <ele>1186</ele>
        <time>2010-01-01T04:13:28Z</time>
      </trkpt>
      <trkpt lat="42.1026" lon="2.37806">
        <ele>1186</ele>
        <time>2010-01-01T04:13:33Z</time>
      </trkpt>
      <trkpt lat="42.10256" lon="2.37806">
        <ele>1185</ele>
        <time>2010-01-01T04:13:35Z</time>
      </trkpt>
      <trkpt lat="42.10252" lon="2.37814">
        <ele>1186</ele>
        <time>2010-01-01T04:13:37Z</time>
      </trkpt>
      <trkpt lat="42.10246" lon="2.37849">
        <ele>1187</ele>
        <time>2010-01-01T04:13:48Z</time>
      </trkpt>
      <trkpt lat="42.10247" lon="2.37854">
        <ele>1188</ele>
        <time>2010-01-01T04:13:50Z</time>
      </trkpt>
      <trkpt lat="42.10251" lon="2.37853">
        <ele>1190</ele>
        <time>2010-01-01T04:13:51Z</time>
      </trkpt>
      <trkpt lat="42.10247" lon="2.37883">
        <ele>1190</ele>
        <time>2010-01-01T04:14:00Z</time>
      </trkpt>
      <trkpt lat="42.10227" lon="2.37942">
        <ele>1180</ele>
        <time>2010-01-01T04:14:20Z</time>
      </trkpt>
      <trkpt lat="42.10229" lon="2.37953">
        <ele>1182</ele>
        <time>2010-01-01T04:14:23Z</time>
      </trkpt>
      <trkpt lat="42.10227" lon="2.3795">
        <ele>1180</ele>
        <time>2010-01-01T04:14:25Z</time>
      </trkpt>
      <trkpt lat="42.10228" lon="2.37955">
        <ele>1181</ele>
        <time>2010-01-01T04:14:26Z</time>
      </trkpt>
      <trkpt lat="42.10225" lon="2.37956">
        <ele>1179</ele>
        <time>2010-01-01T04:14:27Z</time>
      </trkpt>
      <trkpt lat="42.10231" lon="2.37968">
        <ele>1183</ele>
        <time>2010-01-01T04:14:31Z</time>
      </trkpt>
      <trkpt lat="42.10245" lon="2.38004">
        <ele>1197</ele>
        <time>2010-01-01T04:14:44Z</time>
      </trkpt>
      <trkpt lat="42.10246" lon="2.38007">
        <ele>1198</ele>
        <time>2010-01-01T04:14:45Z</time>
      </trkpt>
      <trkpt lat="42.10245" lon="2.38012">
        <ele>1197</ele>
        <time>2010-01-01T04:14:46Z</time>
      </trkpt>
      <trkpt lat="42.10246" lon="2.38021">
        <ele>1199</ele>
        <time>2010-01-01T04:14:49Z</time>
      </trkpt>
      <trkpt lat="42.10256" lon="2.38045">
        <ele>1208</ele>
        <time>2010-01-01T04:14:57Z</time>
      </trkpt>
      <trkpt lat="42.10258" lon="2.38062">
        <ele>1210</ele>
        <time>2010-01-01T04:15:02Z</time>
      </trkpt>
      <trkpt lat="42.10259" lon="2.38076">
        <ele>1209</ele>
        <time>2010-01-01T04:15:06Z</time>
      </trkpt>
      <trkpt lat="42.10258" lon="2.38085">
        <ele>1207</ele>
        <time>2010-01-01T04:15:09Z</time>
      </trkpt>
      <trkpt lat="42.10266" lon="2.38101">
        <ele>1212</ele>
        <time>2010-01-01T04:15:15Z</time>
      </trkpt>
      <trkpt lat="42.10273" lon="2.3812">
        <ele>1214</ele>
        <time>2010-01-01T04:15:21Z</time>
      </trkpt>
      <trkpt lat="42.10275" lon="2.38137">
        <ele>1213</ele>
        <time>2010-01-01T04:15:26Z</time>
      </trkpt>
      <trkpt lat="42.10278" lon="2.38148">
        <ele>1212</ele>
        <time>2010-01-01T04:15:30Z</time>
      </trkpt>
      <trkpt lat="42.10296" lon="2.38176">
        <ele>1218</ele>
        <time>2010-01-01T04:15:41Z</time>
      </trkpt>
      <trkpt lat="42.10298" lon="2.38183">
        <ele>1218</ele>
        <time>2010-01-01T04:15:43Z</time>
      </trkpt>
      <trkpt lat="42.10296" lon="2.3819">
        <ele>1216</ele>
        <time>2010-01-01T04:15:45Z</time>
      </trkpt>
      <trkpt lat="42.10301" lon="2.38188">
        <ele>1220</ele>
        <time>2010-01-01T04:15:47Z</time>
      </trkpt>
      <trkpt lat="42.10305" lon="2.38193">
        <ele>1221</ele>
        <time>2010-01-01T04:15:49Z</time>
      </trkpt>
      <trkpt lat="42.10301" lon="2.38227">
        <ele>1218</ele>
        <time>2010-01-01T04:15:59Z</time>
      </trkpt>
      <trkpt lat="42.10329" lon="2.38248">
        <ele>1232</ele>
        <time>2010-01-01T04:16:12Z</time>
      </trkpt>
      <trkpt lat="42.10333" lon="2.38273">
        <ele>1232</ele>
        <time>2010-01-01T04:16:20Z</time>
      </trkpt>
      <trkpt lat="42.10328" lon="2.3833">
        <ele>1228</ele>
        <time>2010-01-01T04:16:37Z</time>
      </trkpt>
      <trkpt lat="42.1033" lon="2.38364">
        <ele>1227</ele>
        <time>2010-01-01T04:16:47Z</time>
      </trkpt>
      <trkpt lat="42.1033" lon="2.38392">
        <ele>1227</ele>
        <time>2010-01-01T04:16:55Z</time>
      </trkpt>
      <trkpt lat="42.10333" lon="2.38409">
        <ele>1231</ele>
        <time>2010-01-01T04:17:00Z</time>
      </trkpt>
      <trkpt lat="42.10327" lon="2.3843">
        <ele>1231</ele>
        <time>2010-01-01T04:17:07Z</time>
      </trkpt>
      <trkpt lat="42.10316" lon="2.38453">
        <ele>1226</ele>
        <time>2010-01-01T04:17:15Z</time>
      </trkpt>
      <trkpt lat="42.10308" lon="2.38483">
        <ele>1219</ele>
        <time>2010-01-01T04:17:24Z</time>
      </trkpt>
      <trkpt lat="42.10306" lon="2.38529">
        <ele>1215</ele>
        <time>2010-01-01T04:17:38Z</time>
      </trkpt>
      <trkpt lat="42.10307" lon="2.38547">
        <ele>1216</ele>
        <time>2010-01-01T04:17:43Z</time>
      </trkpt>
      <trkpt lat="42.103" lon="2.38563">
        <ele>1212</ele>
        <time>2010-01-01T04:17:49Z</time>
      </trkpt>
      <trkpt lat="42.10301" lon="2.38573">
        <ele>1212</ele>
        <time>2010-01-01T04:17:52Z</time>
      </trkpt>
      <trkpt lat="42.10306" lon="2.38583">
        <ele>1216</ele>
        <time>2010-01-01T04:17:56Z</time>
      </trkpt>
      <trkpt lat="42.10309" lon="2.38591">
        <ele>1216</ele>
        <time>2010-01-01T04:17:58Z</time>
      </trkpt>
      <trkpt lat="42.10319" lon="2.38638">
        <ele>1214</ele>
        <time>2010-01-01T04:18:13Z</time>
      </trkpt>
      <trkpt lat="42.1032" lon="2.3865">
        <ele>1212</ele>
        <time>2010-01-01T04:18:16Z</time>
      </trkpt>
      <trkpt lat="42.10323" lon="2.38655">
        <ele>1214</ele>
        <time>2010-01-01T04:18:18Z</time>
      </trkpt>
      <trkpt lat="42.10327" lon="2.38697">
        <ele>1208</ele>
        <time>2010-01-01T04:18:31Z</time>
      </trkpt>
      <trkpt lat="42.10333" lon="2.3872">
        <ele>1211</ele>
        <time>2010-01-01T04:18:38Z</time>
      </trkpt>
      <trkpt lat="42.10339" lon="2.38736">
        <ele>1216</ele>
        <time>2010-01-01T04:18:43Z</time>
      </trkpt>
      <trkpt lat="42.10344" lon="2.38784">
        <ele>1218</ele>
        <time>2010-01-01T04:18:58Z</time>
      </trkpt>
      <trkpt lat="42.10343" lon="2.38805">
        <ele>1216</ele>
        <time>2010-01-01T04:19:04Z</time>
      </trkpt>
      <trkpt lat="42.10353" lon="2.38837">
        <ele>1219</ele>
        <time>2010-01-01T04:19:14Z</time>
      </trkpt>
      <trkpt lat="42.10351" lon="2.38846">
        <ele>1216</ele>
        <time>2010-01-01T04:19:17Z</time>
      </trkpt>
      <trkpt lat="42.10351" lon="2.3887">
        <ele>1215</ele>
        <time>2010-01-01T04:19:24Z</time>
      </trkpt>
      <trkpt lat="42.10354" lon="2.38927">
        <ele>1215</ele>
        <time>2010-01-01T04:19:41Z</time>
      </trkpt>
      <trkpt lat="42.1036" lon="2.38963">
        <ele>1216</ele>
        <time>2010-01-01T04:19:52Z</time>
      </trkpt>
      <trkpt lat="42.10361" lon="2.38988">
        <ele>1214</ele>
        <time>2010-01-01T04:19:59Z</time>
      </trkpt>
      <trkpt lat="42.1036" lon="2.39009">
        <ele>1212</ele>
        <time>2010-01-01T04:20:06Z</time>
      </trkpt>
      <trkpt lat="42.10363" lon="2.39056">
        <ele>1212</ele>
        <time>2010-01-01T04:20:20Z</time>
      </trkpt>
      <trkpt lat="42.10362" lon="2.39068">
        <ele>1213</ele>
        <time>2010-01-01T04:20:23Z</time>
      </trkpt>
      <trkpt lat="42.10357" lon="2.39079">
        <ele>1210</ele>
        <time>2010-01-01T04:20:27Z</time>
      </trkpt>
      <trkpt lat="42.10353" lon="2.39101">
        <ele>1209</ele>
        <time>2010-01-01T04:20:34Z</time>
      </trkpt>
      <trkpt lat="42.10347" lon="2.39156">
        <ele>1209</ele>
        <time>2010-01-01T04:20:51Z</time>
      </trkpt>
      <trkpt lat="42.10349" lon="2.39181">
        <ele>1209</ele>
        <time>2010-01-01T04:20:58Z</time>
      </trkpt>
      <trkpt lat="42.10352" lon="2.392">
        <ele>1210</ele>
        <time>2010-01-01T04:21:04Z</time>
      </trkpt>
      <trkpt lat="42.10358" lon="2.39269">
        <ele>1210</ele>
        <time>2010-01-01T04:21:24Z</time>
      </trkpt>
      <trkpt lat="42.10365" lon="2.39293">
        <ele>1212</ele>
        <time>2010-01-01T04:21:32Z</time>
      </trkpt>
      <trkpt lat="42.10364" lon="2.39328">
        <ele>1205</ele>
        <time>2010-01-01T04:21:42Z</time>
      </trkpt>
      <trkpt lat="42.10366" lon="2.3937">
        <ele>1207</ele>
        <time>2010-01-01T04:21:55Z</time>
      </trkpt>
      <trkpt lat="42.10368" lon="2.39381">
        <ele>1210</ele>
        <time>2010-01-01T04:21:58Z</time>
      </trkpt>
      <trkpt lat="42.10366" lon="2.39411">
        <ele>1208</ele>
        <time>2010-01-01T04:22:07Z</time>
      </trkpt>
      <trkpt lat="42.10364" lon="2.39433">
        <ele>1204</ele>
        <time>2010-01-01T04:22:14Z</time>
      </trkpt>
      <trkpt lat="42.10364" lon="2.39471">
        <ele>1202</ele>
        <time>2010-01-01T04:22:25Z</time>
      </trkpt>
      <trkpt lat="42.10362" lon="2.39497">
        <ele>1199</ele>
        <time>2010-01-01T04:22:33Z</time>
      </trkpt>
      <trkpt lat="42.10365" lon="2.39532">
        <ele>1199</ele>
        <time>2010-01-01T04:22:43Z</time>
      </trkpt>
      <trkpt lat="42.10371" lon="2.39553">
        <ele>1201</ele>
        <time>2010-01-01T04:22:50Z</time>
      </trkpt>
      <trkpt lat="42.10371" lon="2.39563">
        <ele>1201</ele>
        <time>2010-01-01T04:22:53Z</time>
      </trkpt>
      <trkpt lat="42.10385" lon="2.39589">
        <ele>1212</ele>
        <time>2010-01-01T04:23:03Z</time>
      </trkpt>
      <trkpt lat="42.10396" lon="2.39624">
        <ele>1216</ele>
        <time>2010-01-01T04:23:14Z</time>
      </trkpt>
      <trkpt lat="42.10404" lon="2.39629">
        <ele>1218</ele>
        <time>2010-01-01T04:23:17Z</time>
      </trkpt>
      <trkpt lat="42.1041" lon="2.39625">
        <ele>1219</ele>
        <time>2010-01-01T04:23:20Z</time>
      </trkpt>
      <trkpt lat="42.10415" lon="2.39613">
        <ele>1225</ele>
        <time>2010-01-01T04:23:24Z</time>
      </trkpt>
      <trkpt lat="42.1042" lon="2.39601">
        <ele>1224</ele>
        <time>2010-01-01T04:23:28Z</time>
      </trkpt>
      <trkpt lat="42.10424" lon="2.39585">
        <ele>1225</ele>
        <time>2010-01-01T04:23:33Z</time>
      </trkpt>
      <trkpt lat="42.10425" lon="2.39565">
        <ele>1226</ele>
        <time>2010-01-01T04:23:39Z</time>
      </trkpt>
      <trkpt lat="42.10428" lon="2.39543">
        <ele>1226</ele>
        <time>2010-01-01T04:23:46Z</time>
      </trkpt>
      <trkpt lat="42.10428" lon="2.39529">
        <ele>1227</ele>
        <time>2010-01-01T04:23:50Z</time>
      </trkpt>
      <trkpt lat="42.10432" lon="2.39506">
        <ele>1229</ele>
        <time>2010-01-01T04:23:57Z</time>
      </trkpt>
      <trkpt lat="42.10432" lon="2.39514">
        <ele>1229</ele>
        <time>2010-01-01T04:23:59Z</time>
      </trkpt>
      <trkpt lat="42.10433" lon="2.39503">
        <ele>1230</ele>
        <time>2010-01-01T04:24:02Z</time>
      </trkpt>
      <trkpt lat="42.10431" lon="2.39476">
        <ele>1232</ele>
        <time>2010-01-01T04:24:10Z</time>
      </trkpt>
      <trkpt lat="42.10426" lon="2.39566">
        <ele>1225</ele>
        <time>2010-01-01T04:24:37Z</time>
      </trkpt>
      <trkpt lat="42.10427" lon="2.39575">
        <ele>1225</ele>
        <time>2010-01-01T04:24:40Z</time>
      </trkpt>
      <trkpt lat="42.10432" lon="2.3959">
        <ele>1220</ele>
        <time>2010-01-01T04:24:45Z</time>
      </trkpt>
      <trkpt lat="42.10432" lon="2.39597">
        <ele>1218</ele>
        <time>2010-01-01T04:24:47Z</time>
      </trkpt>
      <trkpt lat="42.10429" lon="2.39605">
        <ele>1218</ele>
        <time>2010-01-01T04:24:50Z</time>
      </trkpt>
      <trkpt lat="42.10418" lon="2.39616">
        <ele>1223</ele>
        <time>2010-01-01T04:24:55Z</time>
      </trkpt>
      <trkpt lat="42.10412" lon="2.39627">
        <ele>1220</ele>
        <time>2010-01-01T04:24:59Z</time>
      </trkpt>
      <trkpt lat="42.10406" lon="2.39631">
        <ele>1218</ele>
        <time>2010-01-01T04:25:01Z</time>
      </trkpt>
      <trkpt lat="42.10404" lon="2.3963">
        <ele>1217</ele>
        <time>2010-01-01T04:25:03Z</time>
      </trkpt>
      <trkpt lat="42.10396" lon="2.39611">
        <ele>1217</ele>
        <time>2010-01-01T04:25:09Z</time>
      </trkpt>
      <trkpt lat="42.10391" lon="2.39605">
        <ele>1215</ele>
        <time>2010-01-01T04:25:11Z</time>
      </trkpt>
      <trkpt lat="42.10386" lon="2.39594">
        <ele>1213</ele>
        <time>2010-01-01T04:25:15Z</time>
      </trkpt>
      <trkpt lat="42.10381" lon="2.39587">
        <ele>1209</ele>
        <time>2010-01-01T04:25:18Z</time>
      </trkpt>
      <trkpt lat="42.10378" lon="2.39587">
        <ele>1207</ele>
        <time>2010-01-01T04:25:20Z</time>
      </trkpt>
      <trkpt lat="42.10371" lon="2.39602">
        <ele>1204</ele>
        <time>2010-01-01T04:25:25Z</time>
      </trkpt>
      <trkpt lat="42.10364" lon="2.39635">
        <ele>1203</ele>
        <time>2010-01-01T04:25:35Z</time>
      </trkpt>
      <trkpt lat="42.10355" lon="2.39649">
        <ele>1200</ele>
        <time>2010-01-01T04:25:41Z</time>
      </trkpt>
      <trkpt lat="42.10353" lon="2.39657">
        <ele>1199</ele>
        <time>2010-01-01T04:25:43Z</time>
      </trkpt>
      <trkpt lat="42.1033" lon="2.39684">
        <ele>1189</ele>
        <time>2010-01-01T04:25:55Z</time>
      </trkpt>
      <trkpt lat="42.10329" lon="2.39692">
        <ele>1188</ele>
        <time>2010-01-01T04:25:58Z</time>
      </trkpt>
      <trkpt lat="42.10341" lon="2.39717">
        <ele>1187</ele>
        <time>2010-01-01T04:26:07Z</time>
      </trkpt>
      <trkpt lat="42.10338" lon="2.39722">
        <ele>1186</ele>
        <time>2010-01-01T04:26:08Z</time>
      </trkpt>
      <trkpt lat="42.10337" lon="2.3973">
        <ele>1184</ele>
        <time>2010-01-01T04:26:11Z</time>
      </trkpt>
      <trkpt lat="42.10333" lon="2.39735">
        <ele>1182</ele>
        <time>2010-01-01T04:26:13Z</time>
      </trkpt>
      <trkpt lat="42.10329" lon="2.39748">
        <ele>1179</ele>
        <time>2010-01-01T04:26:17Z</time>
      </trkpt>
      <trkpt lat="42.10327" lon="2.39772">
        <ele>1174</ele>
        <time>2010-01-01T04:26:25Z</time>
      </trkpt>
      <trkpt lat="42.10332" lon="2.39789">
        <ele>1172</ele>
        <time>2010-01-01T04:26:30Z</time>
      </trkpt>
      <trkpt lat="42.10321" lon="2.39852">
        <ele>1166</ele>
        <time>2010-01-01T04:26:49Z</time>
      </trkpt>
      <trkpt lat="42.10322" lon="2.39856">
        <ele>1167</ele>
        <time>2010-01-01T04:26:51Z</time>
      </trkpt>
      <trkpt lat="42.10329" lon="2.39867">
        <ele>1169</ele>
        <time>2010-01-01T04:26:55Z</time>
      </trkpt>
      <trkpt lat="42.10335" lon="2.39873">
        <ele>1171</ele>
        <time>2010-01-01T04:26:58Z</time>
      </trkpt>
      <trkpt lat="42.10345" lon="2.39886">
        <ele>1171</ele>
        <time>2010-01-01T04:27:04Z</time>
      </trkpt>
      <trkpt lat="42.1035" lon="2.39902">
        <ele>1172</ele>
        <time>2010-01-01T04:27:09Z</time>
      </trkpt>
      <trkpt lat="42.10353" lon="2.3992">
        <ele>1172</ele>
        <time>2010-01-01T04:27:14Z</time>
      </trkpt>
      <trkpt lat="42.10352" lon="2.39936">
        <ele>1172</ele>
        <time>2010-01-01T04:27:19Z</time>
      </trkpt>
      <trkpt lat="42.10336" lon="2.39972">
        <ele>1175</ele>
        <time>2010-01-01T04:27:31Z</time>
      </trkpt>
      <trkpt lat="42.1033" lon="2.4">
        <ele>1175</ele>
        <time>2010-01-01T04:27:40Z</time>
      </trkpt>
      <trkpt lat="42.10329" lon="2.40046">
        <ele>1170</ele>
        <time>2010-01-01T04:27:54Z</time>
      </trkpt>
      <trkpt lat="42.10326" lon="2.40068">
        <ele>1169</ele>
        <time>2010-01-01T04:28:00Z</time>
      </trkpt>
      <trkpt lat="42.10329" lon="2.4009">
        <ele>1163</ele>
        <time>2010-01-01T04:28:07Z</time>
      </trkpt>
      <trkpt lat="42.10323" lon="2.40148">
        <ele>1156</ele>
        <time>2010-01-01T04:28:24Z</time>
      </trkpt>
      <trkpt lat="42.10324" lon="2.40162">
        <ele>1155</ele>
        <time>2010-01-01T04:28:28Z</time>
      </trkpt>
      <trkpt lat="42.10325" lon="2.40167">
        <ele>1153</ele>
        <time>2010-01-01T04:28:30Z</time>
      </trkpt>
      <trkpt lat="42.10324" lon="2.40198">
        <ele>1156</ele>
        <time>2010-01-01T04:28:39Z</time>
      </trkpt>
      <trkpt lat="42.10325" lon="2.4022">
        <ele>1159</ele>
        <time>2010-01-01T04:28:46Z</time>
      </trkpt>
      <trkpt lat="42.10329" lon="2.40233">
        <ele>1159</ele>
        <time>2010-01-01T04:28:50Z</time>
      </trkpt>
      <trkpt lat="42.10332" lon="2.4025">
        <ele>1162</ele>
        <time>2010-01-01T04:28:55Z</time>
      </trkpt>
      <trkpt lat="42.10336" lon="2.40259">
        <ele>1162</ele>
        <time>2010-01-01T04:28:58Z</time>
      </trkpt>
      <trkpt lat="42.10344" lon="2.4027">
        <ele>1159</ele>
        <time>2010-01-01T04:29:03Z</time>
      </trkpt>
      <trkpt lat="42.10361" lon="2.40278">
        <ele>1152</ele>
        <time>2010-01-01T04:29:10Z</time>
      </trkpt>
      <trkpt lat="42.10375" lon="2.40294">
        <ele>1146</ele>
        <time>2010-01-01T04:29:17Z</time>
      </trkpt>
      <trkpt lat="42.10382" lon="2.40309">
        <ele>1146</ele>
        <time>2010-01-01T04:29:23Z</time>
      </trkpt>
      <trkpt lat="42.10384" lon="2.40333">
        <ele>1160</ele>
        <time>2010-01-01T04:29:30Z</time>
      </trkpt>
      <trkpt lat="42.1039" lon="2.40356">
        <ele>1163</ele>
        <time>2010-01-01T04:29:37Z</time>
      </trkpt>
      <trkpt lat="42.10402" lon="2.40377">
        <ele>1160</ele>
        <time>2010-01-01T04:29:45Z</time>
      </trkpt>
      <trkpt lat="42.10415" lon="2.40395">
        <ele>1154</ele>
        <time>2010-01-01T04:29:53Z</time>
      </trkpt>
      <trkpt lat="42.10415" lon="2.40418">
        <ele>1156</ele>
        <time>2010-01-01T04:29:59Z</time>
      </trkpt>
      <trkpt lat="42.10419" lon="2.40428">
        <ele>1150</ele>
        <time>2010-01-01T04:30:03Z</time>
      </trkpt>
      <trkpt lat="42.10427" lon="2.40435">
        <ele>1138</ele>
        <time>2010-01-01T04:30:07Z</time>
      </trkpt>
      <trkpt lat="42.10432" lon="2.40435">
        <ele>1132</ele>
        <time>2010-01-01T04:30:08Z</time>
      </trkpt>
      <trkpt lat="42.10432" lon="2.40434">
        <ele>1132</ele>
        <time>2010-01-01T04:30:09Z</time>
      </trkpt>
      <trkpt lat="42.10434" lon="2.40439">
        <ele>1130</ele>
        <time>2010-01-01T04:30:10Z</time>
      </trkpt>
      <trkpt lat="42.1043" lon="2.40436">
        <ele>1134</ele>
        <time>2010-01-01T04:30:12Z</time>
      </trkpt>
      <trkpt lat="42.10425" lon="2.40438">
        <ele>1140</ele>
        <time>2010-01-01T04:30:14Z</time>
      </trkpt>
      <trkpt lat="42.10416" lon="2.40425">
        <ele>1154</ele>
        <time>2010-01-01T04:30:19Z</time>
      </trkpt>
      <trkpt lat="42.10416" lon="2.40422">
        <ele>1155</ele>
        <time>2010-01-01T04:30:20Z</time>
      </trkpt>
      <trkpt lat="42.10414" lon="2.40425">
        <ele>1155</ele>
        <time>2010-01-01T04:30:22Z</time>
      </trkpt>
      <trkpt lat="42.104" lon="2.40434">
        <ele>1159</ele>
        <time>2010-01-01T04:30:28Z</time>
      </trkpt>
      <trkpt lat="42.10386" lon="2.40451">
        <ele>1160</ele>
        <time>2010-01-01T04:30:35Z</time>
      </trkpt>
      <trkpt lat="42.10378" lon="2.40455">
        <ele>1161</ele>
        <time>2010-01-01T04:30:39Z</time>
      </trkpt>
      <trkpt lat="42.10368" lon="2.40467">
        <ele>1157</ele>
        <time>2010-01-01T04:30:44Z</time>
      </trkpt>
      <trkpt lat="42.10365" lon="2.40474">
        <ele>1154</ele>
        <time>2010-01-01T04:30:47Z</time>
      </trkpt>
      <trkpt lat="42.10363" lon="2.40492">
        <ele>1148</ele>
        <time>2010-01-01T04:30:52Z</time>
      </trkpt>
      <trkpt lat="42.10356" lon="2.40518">
        <ele>1147</ele>
        <time>2010-01-01T04:31:00Z</time>
      </trkpt>
      <trkpt lat="42.10354" lon="2.40537">
        <ele>1149</ele>
        <time>2010-01-01T04:31:06Z</time>
      </trkpt>
      <trkpt lat="42.10369" lon="2.40584">
        <ele>1146</ele>
        <time>2010-01-01T04:31:21Z</time>
      </trkpt>
      <trkpt lat="42.10381" lon="2.40606">
        <ele>1147</ele>
        <time>2010-01-01T04:31:29Z</time>
      </trkpt>
      <trkpt lat="42.10385" lon="2.40622">
        <ele>1150</ele>
        <time>2010-01-01T04:31:34Z</time>
      </trkpt>
      <trkpt lat="42.10401" lon="2.40647">
        <ele>1149</ele>
        <time>2010-01-01T04:31:44Z</time>
      </trkpt>
      <trkpt lat="42.10418" lon="2.4067">
        <ele>1143</ele>
        <time>2010-01-01T04:31:53Z</time>
      </trkpt>
      <trkpt lat="42.10426" lon="2.40685">
        <ele>1137</ele>
        <time>2010-01-01T04:31:59Z</time>
      </trkpt>
      <trkpt lat="42.10434" lon="2.40705">
        <ele>1133</ele>
        <time>2010-01-01T04:32:06Z</time>
      </trkpt>
      <trkpt lat="42.10441" lon="2.40706">
        <ele>1127</ele>
        <time>2010-01-01T04:32:08Z</time>
      </trkpt>
      <trkpt lat="42.10442" lon="2.40707">
        <ele>1126</ele>
        <time>2010-01-01T04:32:09Z</time>
      </trkpt>
      <trkpt lat="42.10441" lon="2.40713">
        <ele>1128</ele>
        <time>2010-01-01T04:32:11Z</time>
      </trkpt>
      <trkpt lat="42.1044" lon="2.40714">
        <ele>1130</ele>
        <time>2010-01-01T04:32:11Z</time>
      </trkpt>
      <trkpt lat="42.10436" lon="2.40764">
        <ele>1139</ele>
        <time>2010-01-01T04:32:26Z</time>
      </trkpt>
      <trkpt lat="42.10428" lon="2.40783">
        <ele>1146</ele>
        <time>2010-01-01T04:32:33Z</time>
      </trkpt>
      <trkpt lat="42.10433" lon="2.40804">
        <ele>1142</ele>
        <time>2010-01-01T04:32:39Z</time>
      </trkpt>
      <trkpt lat="42.1044" lon="2.40812">
        <ele>1138</ele>
        <time>2010-01-01T04:32:43Z</time>
      </trkpt>
      <trkpt lat="42.10443" lon="2.40812">
        <ele>1136</ele>
        <time>2010-01-01T04:32:44Z</time>
      </trkpt>
      <trkpt lat="42.10448" lon="2.40814">
        <ele>1129</ele>
        <time>2010-01-01T04:32:46Z</time>
      </trkpt>
      <trkpt lat="42.10432" lon="2.40842">
        <ele>1145</ele>
        <time>2010-01-01T04:32:57Z</time>
      </trkpt>
      <trkpt lat="42.10429" lon="2.40844">
        <ele>1147</ele>
        <time>2010-01-01T04:32:58Z</time>
      </trkpt>
      <trkpt lat="42.10414" lon="2.40879">
        <ele>1151</ele>
        <time>2010-01-01T04:33:10Z</time>
      </trkpt>
      <trkpt lat="42.10408" lon="2.40884">
        <ele>1153</ele>
        <time>2010-01-01T04:33:13Z</time>
      </trkpt>
      <trkpt lat="42.10404" lon="2.40891">
        <ele>1153</ele>
        <time>2010-01-01T04:33:16Z</time>
      </trkpt>
      <trkpt lat="42.10401" lon="2.40906">
        <ele>1153</ele>
        <time>2010-01-01T04:33:20Z</time>
      </trkpt>
      <trkpt lat="42.10399" lon="2.40927">
        <ele>1153</ele>
        <time>2010-01-01T04:33:26Z</time>
      </trkpt>
      <trkpt lat="42.10396" lon="2.40945">
        <ele>1158</ele>
        <time>2010-01-01T04:33:32Z</time>
      </trkpt>
      <trkpt lat="42.10401" lon="2.40966">
        <ele>1157</ele>
        <time>2010-01-01T04:33:39Z</time>
      </trkpt>
      <trkpt lat="42.10424" lon="2.40998">
        <ele>1147</ele>
        <time>2010-01-01T04:33:52Z</time>
      </trkpt>
      <trkpt lat="42.1043" lon="2.41051">
        <ele>1151</ele>
        <time>2010-01-01T04:34:08Z</time>
      </trkpt>
      <trkpt lat="42.10426" lon="2.4109">
        <ele>1151</ele>
        <time>2010-01-01T04:34:19Z</time>
      </trkpt>
      <trkpt lat="42.10428" lon="2.4111">
        <ele>1148</ele>
        <time>2010-01-01T04:34:25Z</time>
      </trkpt>
      <trkpt lat="42.10419" lon="2.4113">
        <ele>1153</ele>
        <time>2010-01-01T04:34:32Z</time>
      </trkpt>
      <trkpt lat="42.10419" lon="2.41157">
        <ele>1150</ele>
        <time>2010-01-01T04:34:41Z</time>
      </trkpt>
      <trkpt lat="42.1043" lon="2.41184">
        <ele>1141</ele>
        <time>2010-01-01T04:34:50Z</time>
      </trkpt>
      <trkpt lat="42.10431" lon="2.41201">
        <ele>1139</ele>
        <time>2010-01-01T04:34:55Z</time>
      </trkpt>
      <trkpt lat="42.10427" lon="2.4121">
        <ele>1142</ele>
        <time>2010-01-01T04:34:58Z</time>
      </trkpt>
      <trkpt lat="42.10425" lon="2.41222">
        <ele>1142</ele>
        <time>2010-01-01T04:35:02Z</time>
      </trkpt>
      <trkpt lat="42.10433" lon="2.41244">
        <ele>1142</ele>
        <time>2010-01-01T04:35:09Z</time>
      </trkpt>
      <trkpt lat="42.10441" lon="2.41261">
        <ele>1139</ele>
        <time>2010-01-01T04:35:15Z</time>
      </trkpt>
      <trkpt lat="42.10452" lon="2.41275">
        <ele>1135</ele>
        <time>2010-01-01T04:35:21Z</time>
      </trkpt>
      <trkpt lat="42.10474" lon="2.41324">
        <ele>1123</ele>
        <time>2010-01-01T04:35:38Z</time>
      </trkpt>
      <trkpt lat="42.10485" lon="2.41332">
        <ele>1111</ele>
        <time>2010-01-01T04:35:43Z</time>
      </trkpt>
      <trkpt lat="42.10485" lon="2.41334">
        <ele>1110</ele>
        <time>2010-01-01T04:35:44Z</time>
      </trkpt>
      <trkpt lat="42.10482" lon="2.41326">
        <ele>1114</ele>
        <time>2010-01-01T04:35:46Z</time>
      </trkpt>
      <trkpt lat="42.1047" lon="2.41334">
        <ele>1124</ele>
        <time>2010-01-01T04:35:52Z</time>
      </trkpt>
      <trkpt lat="42.10466" lon="2.41341">
        <ele>1128</ele>
        <time>2010-01-01T04:35:55Z</time>
      </trkpt>
      <trkpt lat="42.10455" lon="2.41361">
        <ele>1136</ele>
        <time>2010-01-01T04:36:02Z</time>
      </trkpt>
      <trkpt lat="42.10456" lon="2.41382">
        <ele>1133</ele>
        <time>2010-01-01T04:36:08Z</time>
      </trkpt>
      <trkpt lat="42.10453" lon="2.4141">
        <ele>1130</ele>
        <time>2010-01-01T04:36:16Z</time>
      </trkpt>
      <trkpt lat="42.10449" lon="2.41421">
        <ele>1129</ele>
        <time>2010-01-01T04:36:20Z</time>
      </trkpt>
      <trkpt lat="42.10432" lon="2.41447">
        <ele>1132</ele>
        <time>2010-01-01T04:36:30Z</time>
      </trkpt>
      <trkpt lat="42.10411" lon="2.4147">
        <ele>1139</ele>
        <time>2010-01-01T04:36:41Z</time>
      </trkpt>
      <trkpt lat="42.104" lon="2.41494">
        <ele>1140</ele>
        <time>2010-01-01T04:36:49Z</time>
      </trkpt>
      <trkpt lat="42.104" lon="2.41509">
        <ele>1136</ele>
        <time>2010-01-01T04:36:54Z</time>
      </trkpt>
      <trkpt lat="42.10408" lon="2.41545">
        <ele>1122</ele>
        <time>2010-01-01T04:37:05Z</time>
      </trkpt>
      <trkpt lat="42.10412" lon="2.4158">
        <ele>1112</ele>
        <time>2010-01-01T04:37:16Z</time>
      </trkpt>
      <trkpt lat="42.10408" lon="2.41592">
        <ele>1111</ele>
        <time>2010-01-01T04:37:19Z</time>
      </trkpt>
      <trkpt lat="42.10405" lon="2.41613">
        <ele>1107</ele>
        <time>2010-01-01T04:37:26Z</time>
      </trkpt>
      <trkpt lat="42.10395" lon="2.41629">
        <ele>1110</ele>
        <time>2010-01-01T04:37:32Z</time>
      </trkpt>
      <trkpt lat="42.10387" lon="2.41654">
        <ele>1110</ele>
        <time>2010-01-01T04:37:40Z</time>
      </trkpt>
      <trkpt lat="42.10384" lon="2.41669">
        <ele>1109</ele>
        <time>2010-01-01T04:37:45Z</time>
      </trkpt>
      <trkpt lat="42.1039" lon="2.41704">
        <ele>1100</ele>
        <time>2010-01-01T04:37:56Z</time>
      </trkpt>
      <trkpt lat="42.10391" lon="2.4172">
        <ele>1097</ele>
        <time>2010-01-01T04:38:00Z</time>
      </trkpt>
      <trkpt lat="42.10404" lon="2.41751">
        <ele>1083</ele>
        <time>2010-01-01T04:38:11Z</time>
      </trkpt>
      <trkpt lat="42.10404" lon="2.41776">
        <ele>1078</ele>
        <time>2010-01-01T04:38:18Z</time>
      </trkpt>
      <trkpt lat="42.10403" lon="2.41797">
        <ele>1078</ele>
        <time>2010-01-01T04:38:24Z</time>
      </trkpt>
      <trkpt lat="42.104" lon="2.41806">
        <ele>1079</ele>
        <time>2010-01-01T04:38:28Z</time>
      </trkpt>
      <trkpt lat="42.1039" lon="2.41812">
        <ele>1083</ele>
        <time>2010-01-01T04:38:32Z</time>
      </trkpt>
      <trkpt lat="42.1038" lon="2.41823">
        <ele>1087</ele>
        <time>2010-01-01T04:38:37Z</time>
      </trkpt>
      <trkpt lat="42.10362" lon="2.41837">
        <ele>1093</ele>
        <time>2010-01-01T04:38:45Z</time>
      </trkpt>
      <trkpt lat="42.10355" lon="2.41854">
        <ele>1091</ele>
        <time>2010-01-01T04:38:51Z</time>
      </trkpt>
      <trkpt lat="42.10339" lon="2.4188">
        <ele>1092</ele>
        <time>2010-01-01T04:39:01Z</time>
      </trkpt>
      <trkpt lat="42.10338" lon="2.41892">
        <ele>1089</ele>
        <time>2010-01-01T04:39:05Z</time>
      </trkpt>
      <trkpt lat="42.10341" lon="2.41919">
        <ele>1082</ele>
        <time>2010-01-01T04:39:13Z</time>
      </trkpt>
      <trkpt lat="42.10349" lon="2.41942">
        <ele>1077</ele>
        <time>2010-01-01T04:39:20Z</time>
      </trkpt>
      <trkpt lat="42.10351" lon="2.41955">
        <ele>1078</ele>
        <time>2010-01-01T04:39:24Z</time>
      </trkpt>
      <trkpt lat="42.10361" lon="2.41974">
        <ele>1074</ele>
        <time>2010-01-01T04:39:31Z</time>
      </trkpt>
      <trkpt lat="42.10383" lon="2.42033">
        <ele>1068</ele>
        <time>2010-01-01T04:39:51Z</time>
      </trkpt>
      <trkpt lat="42.1039" lon="2.42103">
        <ele>1060</ele>
        <time>2010-01-01T04:40:12Z</time>
      </trkpt>
      <trkpt lat="42.10366" lon="2.42129">
        <ele>1057</ele>
        <time>2010-01-01T04:40:24Z</time>
      </trkpt>
      <trkpt lat="42.10361" lon="2.42148">
        <ele>1054</ele>
        <time>2010-01-01T04:40:30Z</time>
      </trkpt>
      <trkpt lat="42.10355" lon="2.42198">
        <ele>1045</ele>
        <time>2010-01-01T04:40:45Z</time>
      </trkpt>
      <trkpt lat="42.10342" lon="2.42221">
        <ele>1041</ele>
        <time>2010-01-01T04:40:54Z</time>
      </trkpt>
      <trkpt lat="42.10342" lon="2.42223">
        <ele>1040</ele>
        <time>2010-01-01T04:40:54Z</time>
      </trkpt>
      <trkpt lat="42.1033" lon="2.42237">
        <ele>1038</ele>
        <time>2010-01-01T04:41:01Z</time>
      </trkpt>
      <trkpt lat="42.10325" lon="2.42249">
        <ele>1035</ele>
        <time>2010-01-01T04:41:05Z</time>
      </trkpt>
      <trkpt lat="42.10317" lon="2.42261">
        <ele>1035</ele>
        <time>2010-01-01T04:41:10Z</time>
      </trkpt>
      <trkpt lat="42.10274" lon="2.42305">
        <ele>1034</ele>
        <time>2010-01-01T04:41:31Z</time>
      </trkpt>
      <trkpt lat="42.10268" lon="2.42342">
        <ele>1023</ele>
        <time>2010-01-01T04:41:42Z</time>
      </trkpt>
      <trkpt lat="42.10262" lon="2.42353">
        <ele>1021</ele>
        <time>2010-01-01T04:41:47Z</time>
      </trkpt>
      <trkpt lat="42.10253" lon="2.42365">
        <ele>1020</ele>
        <time>2010-01-01T04:41:52Z</time>
      </trkpt>
      <trkpt lat="42.10244" lon="2.42381">
        <ele>1019</ele>
        <time>2010-01-01T04:41:58Z</time>
      </trkpt>
      <trkpt lat="42.10234" lon="2.42408">
        <ele>1014</ele>
        <time>2010-01-01T04:42:07Z</time>
      </trkpt>
      <trkpt lat="42.10221" lon="2.42459">
        <ele>999</ele>
        <time>2010-01-01T04:42:23Z</time>
      </trkpt>
      <trkpt lat="42.10217" lon="2.4249">
        <ele>993</ele>
        <time>2010-01-01T04:42:32Z</time>
      </trkpt>
      <trkpt lat="42.10209" lon="2.42521">
        <ele>990</ele>
        <time>2010-01-01T04:42:42Z</time>
      </trkpt>
      <trkpt lat="42.10207" lon="2.42538">
        <ele>989</ele>
        <time>2010-01-01T04:42:47Z</time>
      </trkpt>
      <trkpt lat="42.10189" lon="2.42581">
        <ele>985</ele>
        <time>2010-01-01T04:43:01Z</time>
      </trkpt>
      <trkpt lat="42.10189" lon="2.42585">
        <ele>984</ele>
        <time>2010-01-01T04:43:03Z</time>
      </trkpt>
      <trkpt lat="42.1019" lon="2.42584">
        <ele>985</ele>
        <time>2010-01-01T04:43:04Z</time>
      </trkpt>
      <trkpt lat="42.10194" lon="2.42587">
        <ele>985</ele>
        <time>2010-01-01T04:43:05Z</time>
      </trkpt>
      <trkpt lat="42.10189" lon="2.42586">
        <ele>984</ele>
        <time>2010-01-01T04:43:07Z</time>
      </trkpt>
      <trkpt lat="42.10189" lon="2.42593">
        <ele>983</ele>
        <time>2010-01-01T04:43:09Z</time>
      </trkpt>
      <trkpt lat="42.10182" lon="2.42605">
        <ele>981</ele>
        <time>2010-01-01T04:43:14Z</time>
      </trkpt>
      <trkpt lat="42.10136" lon="2.42651">
        <ele>970</ele>
        <time>2010-01-01T04:43:37Z</time>
      </trkpt>
      <trkpt lat="42.10114" lon="2.42682">
        <ele>964</ele>
        <time>2010-01-01T04:43:49Z</time>
      </trkpt>
      <trkpt lat="42.10104" lon="2.42692">
        <ele>961</ele>
        <time>2010-01-01T04:43:54Z</time>
      </trkpt>
      <trkpt lat="42.10094" lon="2.42707">
        <ele>956</ele>
        <time>2010-01-01T04:44:00Z</time>
      </trkpt>
      <trkpt lat="42.10087" lon="2.42724">
        <ele>952</ele>
        <time>2010-01-01T04:44:06Z</time>
      </trkpt>
      <trkpt lat="42.10078" lon="2.42752">
        <ele>951</ele>
        <time>2010-01-01T04:44:15Z</time>
      </trkpt>
      <trkpt lat="42.1007" lon="2.42769">
        <ele>948</ele>
        <time>2010-01-01T04:44:21Z</time>
      </trkpt>
      <trkpt lat="42.10043" lon="2.4279">
        <ele>938</ele>
        <time>2010-01-01T04:44:34Z</time>
      </trkpt>
      <trkpt lat="42.10023" lon="2.42793">
        <ele>931</ele>
        <time>2010-01-01T04:44:42Z</time>
      </trkpt>
      <trkpt lat="42.10016" lon="2.42779">
        <ele>928</ele>
        <time>2010-01-01T04:44:47Z</time>
      </trkpt>
      <trkpt lat="42.10003" lon="2.42788">
        <ele>924</ele>
        <time>2010-01-01T04:44:52Z</time>
      </trkpt>
      <trkpt lat="42.09993" lon="2.42812">
        <ele>921</ele>
        <time>2010-01-01T04:45:00Z</time>
      </trkpt>
      <trkpt lat="42.09995" lon="2.42818">
        <ele>921</ele>
        <time>2010-01-01T04:45:03Z</time>
      </trkpt>
      <trkpt lat="42.09998" lon="2.42824">
        <ele>921</ele>
        <time>2010-01-01T04:45:05Z</time>
      </trkpt>
      <trkpt lat="42.10006" lon="2.42826">
        <ele>923</ele>
        <time>2010-01-01T04:45:08Z</time>
      </trkpt>
      <trkpt lat="42.10008" lon="2.42825">
        <ele>924</ele>
        <time>2010-01-01T04:45:09Z</time>
      </trkpt>
      <trkpt lat="42.10007" lon="2.42825">
        <ele>923</ele>
        <time>2010-01-01T04:45:09Z</time>
      </trkpt>
      <trkpt lat="42.10037" lon="2.42821">
        <ele>933</ele>
        <time>2010-01-01T04:45:21Z</time>
      </trkpt>
      <trkpt lat="42.1004" lon="2.42822">
        <ele>935</ele>
        <time>2010-01-01T04:45:23Z</time>
      </trkpt>
      <trkpt lat="42.10042" lon="2.42827">
        <ele>934</ele>
        <time>2010-01-01T04:45:24Z</time>
      </trkpt>
      <trkpt lat="42.10041" lon="2.42836">
        <ele>932</ele>
        <time>2010-01-01T04:45:27Z</time>
      </trkpt>
      <trkpt lat="42.10047" lon="2.42871">
        <ele>929</ele>
        <time>2010-01-01T04:45:38Z</time>
      </trkpt>
      <trkpt lat="42.10048" lon="2.42941">
        <ele>928</ele>
        <time>2010-01-01T04:45:58Z</time>
      </trkpt>
      <trkpt lat="42.10055" lon="2.42961">
        <ele>930</ele>
        <time>2010-01-01T04:46:05Z</time>
      </trkpt>
      <trkpt lat="42.10066" lon="2.42969">
        <ele>933</ele>
        <time>2010-01-01T04:46:10Z</time>
      </trkpt>
      <trkpt lat="42.10076" lon="2.42998">
        <ele>933</ele>
        <time>2010-01-01T04:46:20Z</time>
      </trkpt>
      <trkpt lat="42.10084" lon="2.43014">
        <ele>933</ele>
        <time>2010-01-01T04:46:25Z</time>
      </trkpt>
      <trkpt lat="42.10101" lon="2.43027">
        <ele>935</ele>
        <time>2010-01-01T04:46:33Z</time>
      </trkpt>
      <trkpt lat="42.10107" lon="2.43029">
        <ele>936</ele>
        <time>2010-01-01T04:46:36Z</time>
      </trkpt>
      <trkpt lat="42.10106" lon="2.43031">
        <ele>935</ele>
        <time>2010-01-01T04:46:36Z</time>
      </trkpt>
      <trkpt lat="42.10116" lon="2.43041">
        <ele>935</ele>
        <time>2010-01-01T04:46:41Z</time>
      </trkpt>
      <trkpt lat="42.10116" lon="2.43055">
        <ele>932</ele>
        <time>2010-01-01T04:46:45Z</time>
      </trkpt>
      <trkpt lat="42.10119" lon="2.4306">
        <ele>931</ele>
        <time>2010-01-01T04:46:47Z</time>
      </trkpt>
      <trkpt lat="42.10126" lon="2.4306">
        <ele>933</ele>
        <time>2010-01-01T04:46:50Z</time>
      </trkpt>
      <trkpt lat="42.10129" lon="2.43062">
        <ele>933</ele>
        <time>2010-01-01T04:46:51Z</time>
      </trkpt>
      <trkpt lat="42.10151" lon="2.43069">
        <ele>936</ele>
        <time>2010-01-01T04:47:00Z</time>
      </trkpt>
      <trkpt lat="42.10161" lon="2.4307">
        <ele>937</ele>
        <time>2010-01-01T04:47:05Z</time>
      </trkpt>
      <trkpt lat="42.10166" lon="2.43068">
        <ele>939</ele>
        <time>2010-01-01T04:47:06Z</time>
      </trkpt>
      <trkpt lat="42.10176" lon="2.4307">
        <ele>939</ele>
        <time>2010-01-01T04:47:10Z</time>
      </trkpt>
      <trkpt lat="42.10169" lon="2.43069">
        <ele>939</ele>
        <time>2010-01-01T04:47:13Z</time>
      </trkpt>
      <trkpt lat="42.10165" lon="2.43072">
        <ele>938</ele>
        <time>2010-01-01T04:47:15Z</time>
      </trkpt>
      <trkpt lat="42.10166" lon="2.43084">
        <ele>935</ele>
        <time>2010-01-01T04:47:18Z</time>
      </trkpt>
      <trkpt lat="42.10173" lon="2.43103">
        <ele>934</ele>
        <time>2010-01-01T04:47:24Z</time>
      </trkpt>
      <trkpt lat="42.10183" lon="2.4311">
        <ele>934</ele>
        <time>2010-01-01T04:47:29Z</time>
      </trkpt>
      <trkpt lat="42.10188" lon="2.43119">
        <ele>933</ele>
        <time>2010-01-01T04:47:32Z</time>
      </trkpt>
      <trkpt lat="42.10194" lon="2.43115">
        <ele>935</ele>
        <time>2010-01-01T04:47:35Z</time>
      </trkpt>
      <trkpt lat="42.10195" lon="2.43123">
        <ele>933</ele>
        <time>2010-01-01T04:47:38Z</time>
      </trkpt>
      <trkpt lat="42.10205" lon="2.4314">
        <ele>930</ele>
        <time>2010-01-01T04:47:44Z</time>
      </trkpt>
      <trkpt lat="42.10203" lon="2.43151">
        <ele>924</ele>
        <time>2010-01-01T04:47:47Z</time>
      </trkpt>
      <trkpt lat="42.10203" lon="2.43155">
        <ele>923</ele>
        <time>2010-01-01T04:47:49Z</time>
      </trkpt>
      <trkpt lat="42.10215" lon="2.43153">
        <ele>924</ele>
        <time>2010-01-01T04:47:53Z</time>
      </trkpt>
      <trkpt lat="42.10223" lon="2.43148">
        <ele>926</ele>
        <time>2010-01-01T04:47:57Z</time>
      </trkpt>
      <trkpt lat="42.10222" lon="2.43155">
        <ele>924</ele>
        <time>2010-01-01T04:47:59Z</time>
      </trkpt>
      <trkpt lat="42.10217" lon="2.43135">
        <ele>930</ele>
        <time>2010-01-01T04:48:05Z</time>
      </trkpt>
      <trkpt lat="42.10215" lon="2.43134">
        <ele>930</ele>
        <time>2010-01-01T04:48:06Z</time>
      </trkpt>
      <trkpt lat="42.10213" lon="2.43135">
        <ele>930</ele>
        <time>2010-01-01T04:48:07Z</time>
      </trkpt>
      <trkpt lat="42.10214" lon="2.43137">
        <ele>930</ele>
        <time>2010-01-01T04:48:08Z</time>
      </trkpt>
      <trkpt lat="42.10221" lon="2.43141">
        <ele>929</ele>
        <time>2010-01-01T04:48:11Z</time>
      </trkpt>
      <trkpt lat="42.10225" lon="2.43147">
        <ele>925</ele>
        <time>2010-01-01T04:48:13Z</time>
      </trkpt>
      <trkpt lat="42.10224" lon="2.43161">
        <ele>922</ele>
        <time>2010-01-01T04:48:17Z</time>
      </trkpt>
      <trkpt lat="42.10222" lon="2.43162">
        <ele>922</ele>
        <time>2010-01-01T04:48:18Z</time>
      </trkpt>
      <trkpt lat="42.10226" lon="2.43163">
        <ele>921</ele>
        <time>2010-01-01T04:48:20Z</time>
      </trkpt>
      <trkpt lat="42.10226" lon="2.43166">
        <ele>920</ele>
        <time>2010-01-01T04:48:21Z</time>
      </trkpt>
      <trkpt lat="42.10216" lon="2.43166">
        <ele>919</ele>
        <time>2010-01-01T04:48:25Z</time>
      </trkpt>
      <trkpt lat="42.1021" lon="2.43168">
        <ele>917</ele>
        <time>2010-01-01T04:48:27Z</time>
      </trkpt>
      <trkpt lat="42.10207" lon="2.43161">
        <ele>920</ele>
        <time>2010-01-01T04:48:30Z</time>
      </trkpt>
      <trkpt lat="42.10197" lon="2.43125">
        <ele>933</ele>
        <time>2010-01-01T04:48:41Z</time>
      </trkpt>
      <trkpt lat="42.10197" lon="2.4311">
        <ele>935</ele>
        <time>2010-01-01T04:48:46Z</time>
      </trkpt>
      <trkpt lat="42.10194" lon="2.43121">
        <ele>934</ele>
        <time>2010-01-01T04:48:49Z</time>
      </trkpt>
      <trkpt lat="42.10192" lon="2.43112">
        <ele>935</ele>
        <time>2010-01-01T04:48:52Z</time>
      </trkpt>
      <trkpt lat="42.10188" lon="2.43108">
        <ele>935</ele>
        <time>2010-01-01T04:48:54Z</time>
      </trkpt>
      <trkpt lat="42.10179" lon="2.43106">
        <ele>934</ele>
        <time>2010-01-01T04:48:58Z</time>
      </trkpt>
      <trkpt lat="42.10172" lon="2.43103">
        <ele>933</ele>
        <time>2010-01-01T04:49:01Z</time>
      </trkpt>
      <trkpt lat="42.10168" lon="2.43098">
        <ele>934</ele>
        <time>2010-01-01T04:49:03Z</time>
      </trkpt>
      <trkpt lat="42.10165" lon="2.43081">
        <ele>936</ele>
        <time>2010-01-01T04:49:08Z</time>
      </trkpt>
      <trkpt lat="42.10174" lon="2.43075">
        <ele>938</ele>
        <time>2010-01-01T04:49:12Z</time>
      </trkpt>
      <trkpt lat="42.10178" lon="2.43071">
        <ele>939</ele>
        <time>2010-01-01T04:49:14Z</time>
      </trkpt>
      <trkpt lat="42.10183" lon="2.43072">
        <ele>939</ele>
        <time>2010-01-01T04:49:16Z</time>
      </trkpt>
      <trkpt lat="42.10183" lon="2.43068">
        <ele>940</ele>
        <time>2010-01-01T04:49:17Z</time>
      </trkpt>
      <trkpt lat="42.1019" lon="2.43057">
        <ele>941</ele>
        <time>2010-01-01T04:49:21Z</time>
      </trkpt>
      <trkpt lat="42.10197" lon="2.43051">
        <ele>942</ele>
        <time>2010-01-01T04:49:25Z</time>
      </trkpt>
      <trkpt lat="42.102" lon="2.43028">
        <ele>946</ele>
        <time>2010-01-01T04:49:32Z</time>
      </trkpt>
      <trkpt lat="42.10215" lon="2.42998">
        <ele>942</ele>
        <time>2010-01-01T04:49:42Z</time>
      </trkpt>
      <trkpt lat="42.10217" lon="2.42974">
        <ele>941</ele>
        <time>2010-01-01T04:49:49Z</time>
      </trkpt>
      <trkpt lat="42.10219" lon="2.42964">
        <ele>940</ele>
        <time>2010-01-01T04:49:53Z</time>
      </trkpt>
      <trkpt lat="42.10227" lon="2.42943">
        <ele>932</ele>
        <time>2010-01-01T04:50:00Z</time>
      </trkpt>
      <trkpt lat="42.1023" lon="2.4294">
        <ele>928</ele>
        <time>2010-01-01T04:50:01Z</time>
      </trkpt>
      <trkpt lat="42.10232" lon="2.4293">
        <ele>924</ele>
        <time>2010-01-01T04:50:04Z</time>
      </trkpt>
      <trkpt lat="42.10222" lon="2.42891">
        <ele>932</ele>
        <time>2010-01-01T04:50:16Z</time>
      </trkpt>
      <trkpt lat="42.10225" lon="2.42843">
        <ele>937</ele>
        <time>2010-01-01T04:50:31Z</time>
      </trkpt>
      <trkpt lat="42.1024" lon="2.42785">
        <ele>932</ele>
        <time>2010-01-01T04:50:49Z</time>
      </trkpt>
      <trkpt lat="42.10245" lon="2.4277">
        <ele>929</ele>
        <time>2010-01-01T04:50:54Z</time>
      </trkpt>
      <trkpt lat="42.10249" lon="2.42746">
        <ele>933</ele>
        <time>2010-01-01T04:51:01Z</time>
      </trkpt>
      <trkpt lat="42.10256" lon="2.42723">
        <ele>934</ele>
        <time>2010-01-01T04:51:08Z</time>
      </trkpt>
      <trkpt lat="42.10264" lon="2.42703">
        <ele>932</ele>
        <time>2010-01-01T04:51:15Z</time>
      </trkpt>
      <trkpt lat="42.10266" lon="2.42688">
        <ele>939</ele>
        <time>2010-01-01T04:51:20Z</time>
      </trkpt>
      <trkpt lat="42.10282" lon="2.42651">
        <ele>926</ele>
        <time>2010-01-01T04:51:32Z</time>
      </trkpt>
      <trkpt lat="42.10288" lon="2.42647">
        <ele>919</ele>
        <time>2010-01-01T04:51:35Z</time>
      </trkpt>
      <trkpt lat="42.10295" lon="2.42629">
        <ele>914</ele>
        <time>2010-01-01T04:51:41Z</time>
      </trkpt>
      <trkpt lat="42.10298" lon="2.42613">
        <ele>916</ele>
        <time>2010-01-01T04:51:46Z</time>
      </trkpt>
      <trkpt lat="42.10302" lon="2.42601">
        <ele>914</ele>
        <time>2010-01-01T04:51:50Z</time>
      </trkpt>
      <trkpt lat="42.10313" lon="2.42589">
        <ele>906</ele>
        <time>2010-01-01T04:51:56Z</time>
      </trkpt>
      <trkpt lat="42.10321" lon="2.42576">
        <ele>902</ele>
        <time>2010-01-01T04:52:00Z</time>
      </trkpt>
      <trkpt lat="42.10324" lon="2.42574">
        <ele>900</ele>
        <time>2010-01-01T04:52:02Z</time>
      </trkpt>
      <trkpt lat="42.10344" lon="2.42553">
        <ele>893</ele>
        <time>2010-01-01T04:52:12Z</time>
      </trkpt>
      <trkpt lat="42.10361" lon="2.42526">
        <ele>891</ele>
        <time>2010-01-01T04:52:22Z</time>
      </trkpt>
      <trkpt lat="42.10373" lon="2.425">
        <ele>895</ele>
        <time>2010-01-01T04:52:32Z</time>
      </trkpt>
      <trkpt lat="42.10391" lon="2.42473">
        <ele>893</ele>
        <time>2010-01-01T04:52:42Z</time>
      </trkpt>
      <trkpt lat="42.1041" lon="2.42464">
        <ele>891</ele>
        <time>2010-01-01T04:52:50Z</time>
      </trkpt>
      <trkpt lat="42.10419" lon="2.42462">
        <ele>890</ele>
        <time>2010-01-01T04:52:54Z</time>
      </trkpt>
      <trkpt lat="42.10435" lon="2.42465">
        <ele>888</ele>
        <time>2010-01-01T04:53:01Z</time>
      </trkpt>
      <trkpt lat="42.10451" lon="2.42472">
        <ele>886</ele>
        <time>2010-01-01T04:53:07Z</time>
      </trkpt>
      <trkpt lat="42.10474" lon="2.42475">
        <ele>886</ele>
        <time>2010-01-01T04:53:16Z</time>
      </trkpt>
      <trkpt lat="42.10482" lon="2.42482">
        <ele>884</ele>
        <time>2010-01-01T04:53:21Z</time>
      </trkpt>
      <trkpt lat="42.10498" lon="2.42503">
        <ele>878</ele>
        <time>2010-01-01T04:53:29Z</time>
      </trkpt>
      <trkpt lat="42.10507" lon="2.42523">
        <ele>872</ele>
        <time>2010-01-01T04:53:36Z</time>
      </trkpt>
      <trkpt lat="42.10513" lon="2.42527">
        <ele>872</ele>
        <time>2010-01-01T04:53:39Z</time>
      </trkpt>
      <trkpt lat="42.10523" lon="2.42542">
        <ele>869</ele>
        <time>2010-01-01T04:53:45Z</time>
      </trkpt>
      <trkpt lat="42.10556" lon="2.42564">
        <ele>869</ele>
        <time>2010-01-01T04:54:00Z</time>
      </trkpt>
      <trkpt lat="42.10562" lon="2.42569">
        <ele>868</ele>
        <time>2010-01-01T04:54:02Z</time>
      </trkpt>
      <trkpt lat="42.10573" lon="2.42574">
        <ele>869</ele>
        <time>2010-01-01T04:54:07Z</time>
      </trkpt>
      <trkpt lat="42.10578" lon="2.42579">
        <ele>868</ele>
        <time>2010-01-01T04:54:10Z</time>
      </trkpt>
      <trkpt lat="42.10602" lon="2.42609">
        <ele>860</ele>
        <time>2010-01-01T04:54:23Z</time>
      </trkpt>
      <trkpt lat="42.10606" lon="2.42616">
        <ele>858</ele>
        <time>2010-01-01T04:54:25Z</time>
      </trkpt>
      <trkpt lat="42.10617" lon="2.4263">
        <ele>854</ele>
        <time>2010-01-01T04:54:31Z</time>
      </trkpt>
      <trkpt lat="42.10621" lon="2.42633">
        <ele>854</ele>
        <time>2010-01-01T04:54:34Z</time>
      </trkpt>
      <trkpt lat="42.10625" lon="2.42645">
        <ele>851</ele>
        <time>2010-01-01T04:54:37Z</time>
      </trkpt>
      <trkpt lat="42.10642" lon="2.42664">
        <ele>849</ele>
        <time>2010-01-01T04:54:46Z</time>
      </trkpt>
      <trkpt lat="42.10659" lon="2.42679">
        <ele>844</ele>
        <time>2010-01-01T04:54:54Z</time>
      </trkpt>
      <trkpt lat="42.10666" lon="2.42696">
        <ele>840</ele>
        <time>2010-01-01T04:55:00Z</time>
      </trkpt>
      <trkpt lat="42.10668" lon="2.42699">
        <ele>839</ele>
        <time>2010-01-01T04:55:01Z</time>
      </trkpt>
      <trkpt lat="42.10679" lon="2.42698">
        <ele>836</ele>
        <time>2010-01-01T04:55:06Z</time>
      </trkpt>
      <trkpt lat="42.10682" lon="2.42696">
        <ele>835</ele>
        <time>2010-01-01T04:55:07Z</time>
      </trkpt>
      <trkpt lat="42.10692" lon="2.42701">
        <ele>831</ele>
        <time>2010-01-01T04:55:11Z</time>
      </trkpt>
      <trkpt lat="42.10698" lon="2.42701">
        <ele>830</ele>
        <time>2010-01-01T04:55:13Z</time>
      </trkpt>
      <trkpt lat="42.10714" lon="2.42694">
        <ele>828</ele>
        <time>2010-01-01T04:55:20Z</time>
      </trkpt>
      <trkpt lat="42.10718" lon="2.42695">
        <ele>827</ele>
        <time>2010-01-01T04:55:22Z</time>
      </trkpt>
      <trkpt lat="42.10719" lon="2.42694">
        <ele>827</ele>
        <time>2010-01-01T04:55:22Z</time>
      </trkpt>
      <trkpt lat="42.10719" lon="2.42693">
        <ele>828</ele>
        <time>2010-01-01T04:55:23Z</time>
      </trkpt>
      <trkpt lat="42.10719" lon="2.42695">
        <ele>827</ele>
        <time>2010-01-01T04:55:24Z</time>
      </trkpt>
      <trkpt lat="42.10726" lon="2.42697">
        <ele>825</ele>
        <time>2010-01-01T04:55:26Z</time>
      </trkpt>
      <trkpt lat="42.10761" lon="2.42689">
        <ele>823</ele>
        <time>2010-01-01T04:55:41Z</time>
      </trkpt>
      <trkpt lat="42.10774" lon="2.42691">
        <ele>822</ele>
        <time>2010-01-01T04:55:46Z</time>
      </trkpt>
      <trkpt lat="42.10793" lon="2.42677">
        <ele>822</ele>
        <time>2010-01-01T04:55:54Z</time>
      </trkpt>
      <trkpt lat="42.10799" lon="2.42678">
        <ele>821</ele>
        <time>2010-01-01T04:55:57Z</time>
      </trkpt>
      <trkpt lat="42.10801" lon="2.42681">
        <ele>821</ele>
        <time>2010-01-01T04:55:58Z</time>
      </trkpt>
      <trkpt lat="42.10827" lon="2.42686">
        <ele>818</ele>
        <time>2010-01-01T04:56:08Z</time>
      </trkpt>
      <trkpt lat="42.10841" lon="2.4272">
        <ele>809</ele>
        <time>2010-01-01T04:56:20Z</time>
      </trkpt>
      <trkpt lat="42.10851" lon="2.42727">
        <ele>808</ele>
        <time>2010-01-01T04:56:25Z</time>
      </trkpt>
      <trkpt lat="42.10859" lon="2.42729">
        <ele>808</ele>
        <time>2010-01-01T04:56:28Z</time>
      </trkpt>
      <trkpt lat="42.10881" lon="2.42731">
        <ele>807</ele>
        <time>2010-01-01T04:56:37Z</time>
      </trkpt>
      <trkpt lat="42.10911" lon="2.42727">
        <ele>807</ele>
        <time>2010-01-01T04:56:49Z</time>
      </trkpt>
      <trkpt lat="42.1094" lon="2.42706">
        <ele>810</ele>
        <time>2010-01-01T04:57:02Z</time>
      </trkpt>
      <trkpt lat="42.10947" lon="2.42703">
        <ele>810</ele>
        <time>2010-01-01T04:57:05Z</time>
      </trkpt>
      <trkpt lat="42.10992" lon="2.42709">
        <ele>804</ele>
        <time>2010-01-01T04:57:23Z</time>
      </trkpt>
      <trkpt lat="42.11033" lon="2.42728">
        <ele>798</ele>
        <time>2010-01-01T04:57:40Z</time>
      </trkpt>
      <trkpt lat="42.11046" lon="2.42731">
        <ele>799</ele>
        <time>2010-01-01T04:57:45Z</time>
      </trkpt>
      <trkpt lat="42.11054" lon="2.42735">
        <ele>798</ele>
        <time>2010-01-01T04:57:49Z</time>
      </trkpt>
      <trkpt lat="42.11088" lon="2.42744">
        <ele>794</ele>
        <time>2010-01-01T04:58:03Z</time>
      </trkpt>
      <trkpt lat="42.11095" lon="2.42745">
        <ele>792</ele>
        <time>2010-01-01T04:58:06Z</time>
      </trkpt>
      <trkpt lat="42.11129" lon="2.4274">
        <ele>789</ele>
        <time>2010-01-01T04:58:19Z</time>
      </trkpt>
      <trkpt lat="42.11159" lon="2.42739">
        <ele>785</ele>
        <time>2010-01-01T04:58:31Z</time>
      </trkpt>
      <trkpt lat="42.11169" lon="2.42736">
        <ele>784</ele>
        <time>2010-01-01T04:58:36Z</time>
      </trkpt>
      <trkpt lat="42.11181" lon="2.42726">
        <ele>784</ele>
        <time>2010-01-01T04:58:41Z</time>
      </trkpt>
      <trkpt lat="42.11191" lon="2.42707">
        <ele>786</ele>
        <time>2010-01-01T04:58:48Z</time>
      </trkpt>
      <trkpt lat="42.11193" lon="2.42696">
        <ele>787</ele>
        <time>2010-01-01T04:58:51Z</time>
      </trkpt>
      <trkpt lat="42.11206" lon="2.42679">
        <ele>782</ele>
        <time>2010-01-01T04:58:58Z</time>
      </trkpt>
      <trkpt lat="42.11222" lon="2.42663">
        <ele>775</ele>
        <time>2010-01-01T04:59:06Z</time>
      </trkpt>
      <trkpt lat="42.11233" lon="2.42649">
        <ele>771</ele>
        <time>2010-01-01T04:59:12Z</time>
      </trkpt>
      <trkpt lat="42.11243" lon="2.42644">
        <ele>768</ele>
        <time>2010-01-01T04:59:17Z</time>
      </trkpt>
      <trkpt lat="42.11245" lon="2.42647">
        <ele>767</ele>
        <time>2010-01-01T04:59:18Z</time>
      </trkpt>
      <trkpt lat="42.11247" lon="2.4266">
        <ele>766</ele>
        <time>2010-01-01T04:59:22Z</time>
      </trkpt>
      <trkpt lat="42.11242" lon="2.42692">
        <ele>764</ele>
        <time>2010-01-01T04:59:32Z</time>
      </trkpt>
      <trkpt lat="42.11243" lon="2.42701">
        <ele>761</ele>
        <time>2010-01-01T04:59:34Z</time>
      </trkpt>
      <trkpt lat="42.11246" lon="2.42708">
        <ele>758</ele>
        <time>2010-01-01T04:59:37Z</time>
      </trkpt>
      <trkpt lat="42.11245" lon="2.42737">
        <ele>753</ele>
        <time>2010-01-01T04:59:45Z</time>
      </trkpt>
      <trkpt lat="42.11245" lon="2.42751">
        <ele>750</ele>
        <time>2010-01-01T04:59:49Z</time>
      </trkpt>
      <trkpt lat="42.11237" lon="2.42777">
        <ele>748</ele>
        <time>2010-01-01T04:59:58Z</time>
      </trkpt>
      <trkpt lat="42.11237" lon="2.42793">
        <ele>743</ele>
        <time>2010-01-01T05:00:03Z</time>
      </trkpt>
      <trkpt lat="42.11238" lon="2.42792">
        <ele>743</ele>
        <time>2010-01-01T05:00:03Z</time>
      </trkpt>
      <trkpt lat="42.11248" lon="2.42793">
        <ele>739</ele>
        <time>2010-01-01T05:00:07Z</time>
      </trkpt>
      <trkpt lat="42.11247" lon="2.42821">
        <ele>734</ele>
        <time>2010-01-01T05:00:16Z</time>
      </trkpt>
      <trkpt lat="42.11245" lon="2.42832">
        <ele>733</ele>
        <time>2010-01-01T05:00:19Z</time>
      </trkpt>
      <trkpt lat="42.11258" lon="2.42853">
        <ele>725</ele>
        <time>2010-01-01T05:00:27Z</time>
      </trkpt>
      <trkpt lat="42.11261" lon="2.4287">
        <ele>721</ele>
        <time>2010-01-01T05:00:33Z</time>
      </trkpt>
      <trkpt lat="42.11264" lon="2.42883">
        <ele>717</ele>
        <time>2010-01-01T05:00:37Z</time>
      </trkpt>
      <trkpt lat="42.11272" lon="2.42889">
        <ele>715</ele>
        <time>2010-01-01T05:00:40Z</time>
      </trkpt>
      <trkpt lat="42.11303" lon="2.4292">
        <ele>700</ele>
        <time>2010-01-01T05:00:56Z</time>
      </trkpt>
      <trkpt lat="42.11314" lon="2.42916">
        <ele>697</ele>
        <time>2010-01-01T05:01:00Z</time>
      </trkpt>
      <trkpt lat="42.11319" lon="2.42916">
        <ele>695</ele>
        <time>2010-01-01T05:01:02Z</time>
      </trkpt>
      <trkpt lat="42.11322" lon="2.42922">
        <ele>693</ele>
        <time>2010-01-01T05:01:04Z</time>
      </trkpt>
      <trkpt lat="42.11324" lon="2.42943">
        <ele>688</ele>
        <time>2010-01-01T05:01:11Z</time>
      </trkpt>
      <trkpt lat="42.11331" lon="2.42941">
        <ele>685</ele>
        <time>2010-01-01T05:01:14Z</time>
      </trkpt>
      <trkpt lat="42.11346" lon="2.42932">
        <ele>679</ele>
        <time>2010-01-01T05:01:20Z</time>
      </trkpt>
      <trkpt lat="42.11352" lon="2.42915">
        <ele>679</ele>
        <time>2010-01-01T05:01:26Z</time>
      </trkpt>
      <trkpt lat="42.11361" lon="2.42904">
        <ele>675</ele>
        <time>2010-01-01T05:01:31Z</time>
      </trkpt>
      <trkpt lat="42.11373" lon="2.42882">
        <ele>671</ele>
        <time>2010-01-01T05:01:39Z</time>
      </trkpt>
      <trkpt lat="42.1138" lon="2.42863">
        <ele>668</ele>
        <time>2010-01-01T05:01:45Z</time>
      </trkpt>
      <trkpt lat="42.11412" lon="2.42834">
        <ele>654</ele>
        <time>2010-01-01T05:02:00Z</time>
      </trkpt>
      <trkpt lat="42.1142" lon="2.4282">
        <ele>651</ele>
        <time>2010-01-01T05:02:06Z</time>
      </trkpt>
      <trkpt lat="42.11423" lon="2.4281">
        <ele>651</ele>
        <time>2010-01-01T05:02:09Z</time>
      </trkpt>
      <trkpt lat="42.11445" lon="2.42774">
        <ele>643</ele>
        <time>2010-01-01T05:02:23Z</time>
      </trkpt>
      <trkpt lat="42.11472" lon="2.42728">
        <ele>639</ele>
        <time>2010-01-01T05:02:40Z</time>
      </trkpt>
      <trkpt lat="42.1148" lon="2.42721">
        <ele>638</ele>
        <time>2010-01-01T05:02:44Z</time>
      </trkpt>
      <trkpt lat="42.11496" lon="2.42701">
        <ele>637</ele>
        <time>2010-01-01T05:02:53Z</time>
      </trkpt>
      <trkpt lat="42.11518" lon="2.42689">
        <ele>629</ele>
        <time>2010-01-01T05:03:02Z</time>
      </trkpt>
      <trkpt lat="42.11531" lon="2.42674">
        <ele>625</ele>
        <time>2010-01-01T05:03:09Z</time>
      </trkpt>
      <trkpt lat="42.11542" lon="2.42642">
        <ele>625</ele>
        <time>2010-01-01T05:03:20Z</time>
      </trkpt>
      <trkpt lat="42.11555" lon="2.42616">
        <ele>621</ele>
        <time>2010-01-01T05:03:29Z</time>
      </trkpt>
      <trkpt lat="42.11564" lon="2.42595">
        <ele>620</ele>
        <time>2010-01-01T05:03:36Z</time>
      </trkpt>
      <trkpt lat="42.11568" lon="2.42579">
        <ele>620</ele>
        <time>2010-01-01T05:03:41Z</time>
      </trkpt>
      <trkpt lat="42.11576" lon="2.42564">
        <ele>616</ele>
        <time>2010-01-01T05:03:47Z</time>
      </trkpt>
      <trkpt lat="42.11584" lon="2.42538">
        <ele>611</ele>
        <time>2010-01-01T05:03:55Z</time>
      </trkpt>
      <trkpt lat="42.11598" lon="2.42532">
        <ele>607</ele>
        <time>2010-01-01T05:04:01Z</time>
      </trkpt>
      <trkpt lat="42.11615" lon="2.4254">
        <ele>603</ele>
        <time>2010-01-01T05:04:08Z</time>
      </trkpt>
      <trkpt lat="42.11622" lon="2.42542">
        <ele>601</ele>
        <time>2010-01-01T05:04:11Z</time>
      </trkpt>
      <trkpt lat="42.11642" lon="2.42538">
        <ele>597</ele>
        <time>2010-01-01T05:04:19Z</time>
      </trkpt>
      <trkpt lat="42.1166" lon="2.42529">
        <ele>594</ele>
        <time>2010-01-01T05:04:27Z</time>
      </trkpt>
      <trkpt lat="42.11667" lon="2.42521">
        <ele>592</ele>
        <time>2010-01-01T05:04:30Z</time>
      </trkpt>
      <trkpt lat="42.11677" lon="2.42507">
        <ele>590</ele>
        <time>2010-01-01T05:04:36Z</time>
      </trkpt>
      <trkpt lat="42.11681" lon="2.42498">
        <ele>589</ele>
        <time>2010-01-01T05:04:39Z</time>
      </trkpt>
      <trkpt lat="42.11685" lon="2.42463">
        <ele>582</ele>
        <time>2010-01-01T05:04:50Z</time>
      </trkpt>
      <trkpt lat="42.11681" lon="2.4243">
        <ele>578</ele>
        <time>2010-01-01T05:05:00Z</time>
      </trkpt>
      <trkpt lat="42.11672" lon="2.42413">
        <ele>578</ele>
        <time>2010-01-01T05:05:06Z</time>
      </trkpt>
      <trkpt lat="42.11685" lon="2.42407">
        <ele>574</ele>
        <time>2010-01-01T05:05:12Z</time>
      </trkpt>
      <trkpt lat="42.1169" lon="2.42408">
        <ele>573</ele>
        <time>2010-01-01T05:05:13Z</time>
      </trkpt>
      <trkpt lat="42.11706" lon="2.42423">
        <ele>570</ele>
        <time>2010-01-01T05:05:21Z</time>
      </trkpt>
      <trkpt lat="42.11715" lon="2.42427">
        <ele>567</ele>
        <time>2010-01-01T05:05:25Z</time>
      </trkpt>
      <trkpt lat="42.11718" lon="2.42439">
        <ele>567</ele>
        <time>2010-01-01T05:05:29Z</time>
      </trkpt>
      <trkpt lat="42.11726" lon="2.42458">
        <ele>566</ele>
        <time>2010-01-01T05:05:35Z</time>
      </trkpt>
      <trkpt lat="42.11733" lon="2.42464">
        <ele>565</ele>
        <time>2010-01-01T05:05:39Z</time>
      </trkpt>
      <trkpt lat="42.11737" lon="2.42464">
        <ele>563</ele>
        <time>2010-01-01T05:05:40Z</time>
      </trkpt>
      <trkpt lat="42.11734" lon="2.42465">
        <ele>564</ele>
        <time>2010-01-01T05:05:41Z</time>
      </trkpt>
      <trkpt lat="42.11731" lon="2.42463">
        <ele>565</ele>
        <time>2010-01-01T05:05:43Z</time>
      </trkpt>
      <trkpt lat="42.11729" lon="2.42452">
        <ele>565</ele>
        <time>2010-01-01T05:05:46Z</time>
      </trkpt>
      <trkpt lat="42.1173" lon="2.42442">
        <ele>564</ele>
        <time>2010-01-01T05:05:49Z</time>
      </trkpt>
      <trkpt lat="42.11736" lon="2.42422">
        <ele>562</ele>
        <time>2010-01-01T05:05:56Z</time>
      </trkpt>
      <trkpt lat="42.11749" lon="2.42402">
        <ele>560</ele>
        <time>2010-01-01T05:06:03Z</time>
      </trkpt>
      <trkpt lat="42.11761" lon="2.42366">
        <ele>560</ele>
        <time>2010-01-01T05:06:15Z</time>
      </trkpt>
      <trkpt lat="42.11757" lon="2.42359">
        <ele>560</ele>
        <time>2010-01-01T05:06:18Z</time>
      </trkpt>
      <trkpt lat="42.11745" lon="2.42353">
        <ele>561</ele>
        <time>2010-01-01T05:06:23Z</time>
      </trkpt>
      <trkpt lat="42.1176" lon="2.42283">
        <ele>562</ele>
        <time>2010-01-01T05:06:44Z</time>
      </trkpt>
      <trkpt lat="42.11768" lon="2.42261">
        <ele>561</ele>
        <time>2010-01-01T05:06:52Z</time>
      </trkpt>
      <trkpt lat="42.11771" lon="2.42256">
        <ele>561</ele>
        <time>2010-01-01T05:06:54Z</time>
      </trkpt>
      <trkpt lat="42.1178" lon="2.42228">
        <ele>561</ele>
        <time>2010-01-01T05:07:03Z</time>
      </trkpt>
      <trkpt lat="42.11784" lon="2.42209">
        <ele>561</ele>
        <time>2010-01-01T05:07:09Z</time>
      </trkpt>
      <trkpt lat="42.11782" lon="2.42203">
        <ele>561</ele>
        <time>2010-01-01T05:07:11Z</time>
      </trkpt>
      <trkpt lat="42.11776" lon="2.42197">
        <ele>561</ele>
        <time>2010-01-01T05:07:13Z</time>
      </trkpt>
      <trkpt lat="42.11758" lon="2.42182">
        <ele>562</ele>
        <time>2010-01-01T05:07:22Z</time>
      </trkpt>
      <trkpt lat="42.11742" lon="2.42172">
        <ele>564</ele>
        <time>2010-01-01T05:07:29Z</time>
      </trkpt>
      <trkpt lat="42.11724" lon="2.42153">
        <ele>567</ele>
        <time>2010-01-01T05:07:38Z</time>
      </trkpt>
      <trkpt lat="42.11722" lon="2.42127">
        <ele>569</ele>
        <time>2010-01-01T05:07:46Z</time>
      </trkpt>
      <trkpt lat="42.11724" lon="2.42105">
        <ele>570</ele>
        <time>2010-01-01T05:07:53Z</time>
      </trkpt>
      <trkpt lat="42.11724" lon="2.42079">
        <ele>572</ele>
        <time>2010-01-01T05:08:00Z</time>
      </trkpt>
      <trkpt lat="42.11741" lon="2.42059">
        <ele>571</ele>
        <time>2010-01-01T05:08:09Z</time>
      </trkpt>
      <trkpt lat="42.11744" lon="2.42039">
        <ele>571</ele>
        <time>2010-01-01T05:08:15Z</time>
      </trkpt>
      <trkpt lat="42.11753" lon="2.42031">
        <ele>570</ele>
        <time>2010-01-01T05:08:20Z</time>
      </trkpt>
      <trkpt lat="42.11767" lon="2.42009">
        <ele>568</ele>
        <time>2010-01-01T05:08:28Z</time>
      </trkpt>
      <trkpt lat="42.11774" lon="2.41992">
        <ele>568</ele>
        <time>2010-01-01T05:08:34Z</time>
      </trkpt>
      <trkpt lat="42.11779" lon="2.42001">
        <ele>567</ele>
        <time>2010-01-01T05:08:37Z</time>
      </trkpt>
      <trkpt lat="42.11781" lon="2.42">
        <ele>567</ele>
        <time>2010-01-01T05:08:38Z</time>
      </trkpt>
      <trkpt lat="42.11782" lon="2.42002">
        <ele>567</ele>
        <time>2010-01-01T05:08:38Z</time>
      </trkpt>
      <trkpt lat="42.11786" lon="2.42009">
        <ele>567</ele>
        <time>2010-01-01T05:08:41Z</time>
      </trkpt>
      <trkpt lat="42.11784" lon="2.4202">
        <ele>567</ele>
        <time>2010-01-01T05:08:44Z</time>
      </trkpt>
      <trkpt lat="42.11787" lon="2.42036">
        <ele>567</ele>
        <time>2010-01-01T05:08:49Z</time>
      </trkpt>
      <trkpt lat="42.11803" lon="2.42057">
        <ele>567</ele>
        <time>2010-01-01T05:08:58Z</time>
      </trkpt>
      <trkpt lat="42.11809" lon="2.42063">
        <ele>568</ele>
        <time>2010-01-01T05:09:01Z</time>
      </trkpt>
      <trkpt lat="42.11822" lon="2.42059">
        <ele>570</ele>
        <time>2010-01-01T05:09:06Z</time>
      </trkpt>
      <trkpt lat="42.11836" lon="2.42047">
        <ele>571</ele>
        <time>2010-01-01T05:09:13Z</time>
      </trkpt>
      <trkpt lat="42.11863" lon="2.42034">
        <ele>573</ele>
        <time>2010-01-01T05:09:25Z</time>
      </trkpt>
      <trkpt lat="42.11869" lon="2.42037">
        <ele>573</ele>
        <time>2010-01-01T05:09:27Z</time>
      </trkpt>
      <trkpt lat="42.11905" lon="2.42033">
        <ele>577</ele>
        <time>2010-01-01T05:09:42Z</time>
      </trkpt>
      <trkpt lat="42.11925" lon="2.42026">
        <ele>579</ele>
        <time>2010-01-01T05:09:50Z</time>
      </trkpt>
      <trkpt lat="42.11951" lon="2.42012">
        <ele>583</ele>
        <time>2010-01-01T05:10:01Z</time>
      </trkpt>
      <trkpt lat="42.1195" lon="2.42008">
        <ele>584</ele>
        <time>2010-01-01T05:10:02Z</time>
      </trkpt>
      <trkpt lat="42.11949" lon="2.42011">
        <ele>583</ele>
        <time>2010-01-01T05:10:03Z</time>
      </trkpt>
      <trkpt lat="42.11944" lon="2.41983">
        <ele>586</ele>
        <time>2010-01-01T05:10:12Z</time>
      </trkpt>
      <trkpt lat="42.11942" lon="2.41975">
        <ele>586</ele>
        <time>2010-01-01T05:10:14Z</time>
      </trkpt>
      <trkpt lat="42.11938" lon="2.41882">
        <ele>588</ele>
        <time>2010-01-01T05:10:42Z</time>
      </trkpt>
      <trkpt lat="42.11942" lon="2.41855">
        <ele>591</ele>
        <time>2010-01-01T05:10:50Z</time>
      </trkpt>
      <trkpt lat="42.11942" lon="2.4184">
        <ele>592</ele>
        <time>2010-01-01T05:10:55Z</time>
      </trkpt>
      <trkpt lat="42.11946" lon="2.41822">
        <ele>594</ele>
        <time>2010-01-01T05:11:00Z</time>
      </trkpt>
      <trkpt lat="42.11956" lon="2.41807">
        <ele>597</ele>
        <time>2010-01-01T05:11:06Z</time>
      </trkpt>
      <trkpt lat="42.11985" lon="2.41781">
        <ele>603</ele>
        <time>2010-01-01T05:11:20Z</time>
      </trkpt>
      <trkpt lat="42.11996" lon="2.41772">
        <ele>605</ele>
        <time>2010-01-01T05:11:26Z</time>
      </trkpt>
      <trkpt lat="42.12049" lon="2.41717">
        <ele>612</ele>
        <time>2010-01-01T05:11:52Z</time>
      </trkpt>
      <trkpt lat="42.12071" lon="2.41703">
        <ele>614</ele>
        <time>2010-01-01T05:12:02Z</time>
      </trkpt>
      <trkpt lat="42.1209" lon="2.41691">
        <ele>615</ele>
        <time>2010-01-01T05:12:10Z</time>
      </trkpt>
      <trkpt lat="42.12108" lon="2.41697">
        <ele>617</ele>
        <time>2010-01-01T05:12:18Z</time>
      </trkpt>
      <trkpt lat="42.12128" lon="2.4174">
        <ele>615</ele>
        <time>2010-01-01T05:12:33Z</time>
      </trkpt>
      <trkpt lat="42.12137" lon="2.41772">
        <ele>613</ele>
        <time>2010-01-01T05:12:43Z</time>
      </trkpt>
      <trkpt lat="42.12137" lon="2.41776">
        <ele>613</ele>
        <time>2010-01-01T05:12:44Z</time>
      </trkpt>
      <trkpt lat="42.12131" lon="2.41801">
        <ele>611</ele>
        <time>2010-01-01T05:12:52Z</time>
      </trkpt>
      <trkpt lat="42.12121" lon="2.41854">
        <ele>608</ele>
        <time>2010-01-01T05:13:08Z</time>
      </trkpt>
      <trkpt lat="42.1213" lon="2.41908">
        <ele>607</ele>
        <time>2010-01-01T05:13:25Z</time>
      </trkpt>
    </trkseg>
  </trk>
</gpx>